<?xml version='1.0' encoding='UTF-8'?><gpx version="1.1" creator="JPX - https://github.com/jenetics/jpx" xmlns="http://www.topografix.com/GPX/1/1"><trk><trkseg><trkpt lat="43.9763627" lon="12.4812786"><ele>116.66666666666666</ele><time>2026-04-09T13:51:31.155Z</time></trkpt><trkpt lat="43.9763286" lon="12.4811864"><ele>117.33333333333333</ele><time>2026-04-09T13:51:47.183Z</time></trkpt><trkpt lat="43.9762892" lon="12.4810872"><ele>118.0</ele><time>2026-04-09T13:51:51.187Z</time></trkpt><trkpt lat="43.9762985" lon="12.4809975"><ele>118.66666666666666</ele><time>2026-04-09T13:51:54.218Z</time></trkpt><trkpt lat="43.9763653" lon="12.4809592"><ele>119.33333333333333</ele><time>2026-04-09T13:51:59.178Z</time></trkpt><trkpt lat="43.976302" lon="12.4810394"><ele>120.0</ele><time>2026-04-09T13:52:13.196Z</time></trkpt><trkpt lat="43.9762402" lon="12.4811121"><ele>120.0</ele><time>2026-04-09T13:52:16.223Z</time></trkpt><trkpt lat="43.9762566" lon="12.4812153"><ele>120.0</ele><time>2026-04-09T13:52:19.218Z</time></trkpt><trkpt lat="43.9762985" lon="12.4813031"><ele>120.0</ele><time>2026-04-09T13:52:21.224Z</time></trkpt><trkpt lat="43.9763634" lon="12.4814186"><ele>120.0</ele><time>2026-04-09T13:52:23.216Z</time></trkpt><trkpt lat="43.9764369" lon="12.4815288"><ele>120.0</ele><time>2026-04-09T13:52:25.204Z</time></trkpt><trkpt lat="43.9765195" lon="12.481636"><ele>120.0</ele><time>2026-04-09T13:52:27.233Z</time></trkpt><trkpt lat="43.976611" lon="12.4817383"><ele>120.0</ele><time>2026-04-09T13:52:29.203Z</time></trkpt><trkpt lat="43.9767008" lon="12.4818511"><ele>120.0</ele><time>2026-04-09T13:52:31.16Z</time></trkpt><trkpt lat="43.9767528" lon="12.4819128"><ele>120.0</ele><time>2026-04-09T13:52:32.208Z</time></trkpt><trkpt lat="43.9768085" lon="12.481976"><ele>120.0</ele><time>2026-04-09T13:52:33.214Z</time></trkpt><trkpt lat="43.9768605" lon="12.4820465"><ele>119.0</ele><time>2026-04-09T13:52:34.228Z</time></trkpt><trkpt lat="43.9769145" lon="12.482114"><ele>118.0</ele><time>2026-04-09T13:52:35.212Z</time></trkpt><trkpt lat="43.9769715" lon="12.4821773"><ele>117.0</ele><time>2026-04-09T13:52:36.198Z</time></trkpt><trkpt lat="43.9770251" lon="12.4822455"><ele>116.0</ele><time>2026-04-09T13:52:37.221Z</time></trkpt><trkpt lat="43.9770849" lon="12.4823098"><ele>115.0</ele><time>2026-04-09T13:52:38.21Z</time></trkpt><trkpt lat="43.9771387" lon="12.4823695"><ele>114.0</ele><time>2026-04-09T13:52:39.231Z</time></trkpt><trkpt lat="43.9771872" lon="12.4824358"><ele>113.0</ele><time>2026-04-09T13:52:40.192Z</time></trkpt><trkpt lat="43.9772078" lon="12.4825612"><ele>112.99999999999999</ele><time>2026-04-09T13:52:42.21Z</time></trkpt><trkpt lat="43.977141" lon="12.4826595"><ele>113.0</ele><time>2026-04-09T13:52:44.197Z</time></trkpt><trkpt lat="43.9770815" lon="12.4827397"><ele>113.0</ele><time>2026-04-09T13:52:46.22Z</time></trkpt><trkpt lat="43.9770108" lon="12.4828013"><ele>113.0</ele><time>2026-04-09T13:52:48.217Z</time></trkpt><trkpt lat="43.9769574" lon="12.4828755"><ele>112.99999999999999</ele><time>2026-04-09T13:52:50.203Z</time></trkpt><trkpt lat="43.9768991" lon="12.4829499"><ele>113.0</ele><time>2026-04-09T13:52:52.212Z</time></trkpt><trkpt lat="43.9768531" lon="12.4830182"><ele>112.60000000000001</ele><time>2026-04-09T13:52:54.189Z</time></trkpt><trkpt lat="43.976812" lon="12.4831126"><ele>112.20000000000002</ele><time>2026-04-09T13:52:57.2Z</time></trkpt><trkpt lat="43.9768384" lon="12.4832432"><ele>111.8</ele><time>2026-04-09T13:53:00.203Z</time></trkpt><trkpt lat="43.976881" lon="12.4833563"><ele>111.4</ele><time>2026-04-09T13:53:02.182Z</time></trkpt><trkpt lat="43.9769567" lon="12.4834751"><ele>111.0</ele><time>2026-04-09T13:53:04.207Z</time></trkpt><trkpt lat="43.9770223" lon="12.4836107"><ele>111.0</ele><time>2026-04-09T13:53:06.226Z</time></trkpt><trkpt lat="43.9771087" lon="12.4837059"><ele>111.0</ele><time>2026-04-09T13:53:08.209Z</time></trkpt><trkpt lat="43.9772007" lon="12.4838049"><ele>111.0</ele><time>2026-04-09T13:53:10.163Z</time></trkpt><trkpt lat="43.9772537" lon="12.4838626"><ele>111.0</ele><time>2026-04-09T13:53:11.179Z</time></trkpt><trkpt lat="43.9773133" lon="12.4839217"><ele>111.0</ele><time>2026-04-09T13:53:12.209Z</time></trkpt><trkpt lat="43.977367" lon="12.4839845"><ele>111.0</ele><time>2026-04-09T13:53:13.192Z</time></trkpt><trkpt lat="43.9774194" lon="12.4840389"><ele>110.4</ele><time>2026-04-09T13:53:14.214Z</time></trkpt><trkpt lat="43.9774767" lon="12.4841016"><ele>109.8</ele><time>2026-04-09T13:53:15.228Z</time></trkpt><trkpt lat="43.9775397" lon="12.4841668"><ele>109.20000000000002</ele><time>2026-04-09T13:53:16.17Z</time></trkpt><trkpt lat="43.9776644" lon="12.4842993"><ele>108.60000000000001</ele><time>2026-04-09T13:53:18.187Z</time></trkpt><trkpt lat="43.9777251" lon="12.4843649"><ele>108.0</ele><time>2026-04-09T13:53:19.217Z</time></trkpt><trkpt lat="43.9777959" lon="12.4844368"><ele>107.0</ele><time>2026-04-09T13:53:20.204Z</time></trkpt><trkpt lat="43.9778731" lon="12.4845109"><ele>106.00000000000001</ele><time>2026-04-09T13:53:21.197Z</time></trkpt><trkpt lat="43.9779607" lon="12.4845582"><ele>105.0</ele><time>2026-04-09T13:53:22.2Z</time></trkpt><trkpt lat="43.9780525" lon="12.4846045"><ele>104.0</ele><time>2026-04-09T13:53:23.199Z</time></trkpt><trkpt lat="43.978145" lon="12.4846807"><ele>103.0</ele><time>2026-04-09T13:53:24.222Z</time></trkpt><trkpt lat="43.9782135" lon="12.4847963"><ele>102.0</ele><time>2026-04-09T13:53:25.202Z</time></trkpt><trkpt lat="43.9782635" lon="12.4849255"><ele>101.0</ele><time>2026-04-09T13:53:26.181Z</time></trkpt><trkpt lat="43.9782973" lon="12.4850754"><ele>100.0</ele><time>2026-04-09T13:53:27.179Z</time></trkpt><trkpt lat="43.9783027" lon="12.4852158"><ele>99.0</ele><time>2026-04-09T13:53:28.206Z</time></trkpt><trkpt lat="43.978291" lon="12.4853825"><ele>98.0</ele><time>2026-04-09T13:53:29.203Z</time></trkpt><trkpt lat="43.9782625" lon="12.4855364"><ele>97.2</ele><time>2026-04-09T13:53:30.205Z</time></trkpt><trkpt lat="43.9782237" lon="12.4856878"><ele>96.4</ele><time>2026-04-09T13:53:31.195Z</time></trkpt><trkpt lat="43.9781776" lon="12.4858275"><ele>95.60000000000001</ele><time>2026-04-09T13:53:32.201Z</time></trkpt><trkpt lat="43.9781266" lon="12.4859597"><ele>94.80000000000001</ele><time>2026-04-09T13:53:33.235Z</time></trkpt><trkpt lat="43.978076" lon="12.4860838"><ele>94.0</ele><time>2026-04-09T13:53:34.222Z</time></trkpt><trkpt lat="43.97802" lon="12.4862081"><ele>93.0</ele><time>2026-04-09T13:53:35.198Z</time></trkpt><trkpt lat="43.9779674" lon="12.4863289"><ele>92.0</ele><time>2026-04-09T13:53:36.195Z</time></trkpt><trkpt lat="43.9779144" lon="12.4864287"><ele>91.0</ele><time>2026-04-09T13:53:37.202Z</time></trkpt><trkpt lat="43.9778648" lon="12.4865315"><ele>90.0</ele><time>2026-04-09T13:53:38.207Z</time></trkpt><trkpt lat="43.9778156" lon="12.4866254"><ele>89.0</ele><time>2026-04-09T13:53:39.201Z</time></trkpt><trkpt lat="43.9777696" lon="12.4867224"><ele>88.0</ele><time>2026-04-09T13:53:40.214Z</time></trkpt><trkpt lat="43.9777303" lon="12.4868102"><ele>88.0</ele><time>2026-04-09T13:53:41.197Z</time></trkpt><trkpt lat="43.9777065" lon="12.4868923"><ele>88.0</ele><time>2026-04-09T13:53:42.207Z</time></trkpt><trkpt lat="43.9776551" lon="12.4870045"><ele>88.0</ele><time>2026-04-09T13:53:44.2Z</time></trkpt><trkpt lat="43.9776169" lon="12.4871097"><ele>88.0</ele><time>2026-04-09T13:53:46.203Z</time></trkpt><trkpt lat="43.9775719" lon="12.4872189"><ele>88.0</ele><time>2026-04-09T13:53:49.21Z</time></trkpt><trkpt lat="43.9775096" lon="12.4873029"><ele>88.0</ele><time>2026-04-09T13:53:51.209Z</time></trkpt><trkpt lat="43.9774527" lon="12.4874126"><ele>85.60000000000001</ele><time>2026-04-09T13:53:53.216Z</time></trkpt><trkpt lat="43.9774292" lon="12.4875434"><ele>83.2</ele><time>2026-04-09T13:53:55.16Z</time></trkpt><trkpt lat="43.9773961" lon="12.4876949"><ele>80.8</ele><time>2026-04-09T13:53:57.177Z</time></trkpt><trkpt lat="43.9773863" lon="12.4878049"><ele>78.4</ele><time>2026-04-09T13:53:58.16Z</time></trkpt><trkpt lat="43.977404" lon="12.4879247"><ele>76.0</ele><time>2026-04-09T13:53:59.209Z</time></trkpt><trkpt lat="43.9774306" lon="12.4880369"><ele>75.66666666666666</ele><time>2026-04-09T13:54:00.191Z</time></trkpt><trkpt lat="43.9774786" lon="12.4881294"><ele>75.33333333333333</ele><time>2026-04-09T13:54:01.205Z</time></trkpt><trkpt lat="43.9775458" lon="12.4882117"><ele>75.0</ele><time>2026-04-09T13:54:02.226Z</time></trkpt><trkpt lat="43.9776117" lon="12.4882807"><ele>74.66666666666667</ele><time>2026-04-09T13:54:03.188Z</time></trkpt><trkpt lat="43.9776696" lon="12.4883359"><ele>74.33333333333334</ele><time>2026-04-09T13:54:04.212Z</time></trkpt><trkpt lat="43.9777289" lon="12.4883953"><ele>74.0</ele><time>2026-04-09T13:54:05.215Z</time></trkpt><trkpt lat="43.9777838" lon="12.4884526"><ele>74.66666666666667</ele><time>2026-04-09T13:54:06.175Z</time></trkpt><trkpt lat="43.9778363" lon="12.4885057"><ele>75.33333333333334</ele><time>2026-04-09T13:54:07.219Z</time></trkpt><trkpt lat="43.977887" lon="12.4885638"><ele>76.0</ele><time>2026-04-09T13:54:08.205Z</time></trkpt><trkpt lat="43.9779381" lon="12.4886159"><ele>76.66666666666667</ele><time>2026-04-09T13:54:09.215Z</time></trkpt><trkpt lat="43.9780269" lon="12.4887147"><ele>77.33333333333333</ele><time>2026-04-09T13:54:11.169Z</time></trkpt><trkpt lat="43.9781237" lon="12.4888167"><ele>78.0</ele><time>2026-04-09T13:54:13.214Z</time></trkpt><trkpt lat="43.9782059" lon="12.4889085"><ele>78.0</ele><time>2026-04-09T13:54:15.164Z</time></trkpt><trkpt lat="43.9782914" lon="12.4889941"><ele>78.0</ele><time>2026-04-09T13:54:17.212Z</time></trkpt><trkpt lat="43.9783766" lon="12.4890857"><ele>78.0</ele><time>2026-04-09T13:54:19.239Z</time></trkpt><trkpt lat="43.9784626" lon="12.4891827"><ele>78.0</ele><time>2026-04-09T13:54:21.225Z</time></trkpt><trkpt lat="43.9785682" lon="12.4892779"><ele>78.5</ele><time>2026-04-09T13:54:23.219Z</time></trkpt><trkpt lat="43.9786714" lon="12.4893785"><ele>79.0</ele><time>2026-04-09T13:54:25.21Z</time></trkpt><trkpt lat="43.9787304" lon="12.4894312"><ele>79.5</ele><time>2026-04-09T13:54:26.213Z</time></trkpt><trkpt lat="43.9787825" lon="12.4894859"><ele>80.0</ele><time>2026-04-09T13:54:27.212Z</time></trkpt><trkpt lat="43.9788376" lon="12.4895386"><ele>80.5</ele><time>2026-04-09T13:54:28.217Z</time></trkpt><trkpt lat="43.9788944" lon="12.4896009"><ele>81.0</ele><time>2026-04-09T13:54:29.163Z</time></trkpt><trkpt lat="43.9789614" lon="12.4896659"><ele>80.83333333333333</ele><time>2026-04-09T13:54:30.217Z</time></trkpt><trkpt lat="43.9790322" lon="12.4897054"><ele>80.66666666666667</ele><time>2026-04-09T13:54:31.235Z</time></trkpt><trkpt lat="43.9791151" lon="12.4897534"><ele>80.5</ele><time>2026-04-09T13:54:32.19Z</time></trkpt><trkpt lat="43.9791917" lon="12.4898007"><ele>80.33333333333334</ele><time>2026-04-09T13:54:33.218Z</time></trkpt><trkpt lat="43.9792654" lon="12.4898411"><ele>80.16666666666667</ele><time>2026-04-09T13:54:34.221Z</time></trkpt><trkpt lat="43.9793463" lon="12.4898809"><ele>80.0</ele><time>2026-04-09T13:54:35.219Z</time></trkpt><trkpt lat="43.9794293" lon="12.4899246"><ele>80.0</ele><time>2026-04-09T13:54:36.203Z</time></trkpt><trkpt lat="43.9795039" lon="12.4899612"><ele>80.0</ele><time>2026-04-09T13:54:37.216Z</time></trkpt><trkpt lat="43.979571" lon="12.4900022"><ele>80.0</ele><time>2026-04-09T13:54:38.193Z</time></trkpt><trkpt lat="43.9796356" lon="12.4900469"><ele>80.0</ele><time>2026-04-09T13:54:39.181Z</time></trkpt><trkpt lat="43.9797083" lon="12.4900893"><ele>80.0</ele><time>2026-04-09T13:54:40.21Z</time></trkpt><trkpt lat="43.9797775" lon="12.4901271"><ele>80.0</ele><time>2026-04-09T13:54:41.217Z</time></trkpt><trkpt lat="43.9798445" lon="12.4901505"><ele>80.0</ele><time>2026-04-09T13:54:42.203Z</time></trkpt><trkpt lat="43.9799033" lon="12.4901908"><ele>80.0</ele><time>2026-04-09T13:54:43.215Z</time></trkpt><trkpt lat="43.9799671" lon="12.490234"><ele>80.0</ele><time>2026-04-09T13:54:44.207Z</time></trkpt><trkpt lat="43.9800296" lon="12.4902705"><ele>80.0</ele><time>2026-04-09T13:54:45.205Z</time></trkpt><trkpt lat="43.9800907" lon="12.4903076"><ele>80.0</ele><time>2026-04-09T13:54:46.209Z</time></trkpt><trkpt lat="43.9801535" lon="12.4903483"><ele>80.0</ele><time>2026-04-09T13:54:47.218Z</time></trkpt><trkpt lat="43.9802084" lon="12.4903984"><ele>80.0</ele><time>2026-04-09T13:54:48.209Z</time></trkpt><trkpt lat="43.9802682" lon="12.4904348"><ele>80.0</ele><time>2026-04-09T13:54:49.203Z</time></trkpt><trkpt lat="43.9803269" lon="12.4904751"><ele>78.83333333333334</ele><time>2026-04-09T13:54:50.214Z</time></trkpt><trkpt lat="43.9803826" lon="12.4905181"><ele>77.66666666666667</ele><time>2026-04-09T13:54:51.199Z</time></trkpt><trkpt lat="43.98044" lon="12.4905589"><ele>76.5</ele><time>2026-04-09T13:54:52.214Z</time></trkpt><trkpt lat="43.9805489" lon="12.4906355"><ele>75.33333333333333</ele><time>2026-04-09T13:54:54.224Z</time></trkpt><trkpt lat="43.9806556" lon="12.4907098"><ele>74.16666666666666</ele><time>2026-04-09T13:54:56.213Z</time></trkpt><trkpt lat="43.9807088" lon="12.4907571"><ele>73.0</ele><time>2026-04-09T13:54:57.216Z</time></trkpt><trkpt lat="43.9808084" lon="12.4908336"><ele>75.0</ele><time>2026-04-09T13:54:59.224Z</time></trkpt><trkpt lat="43.9809037" lon="12.4909044"><ele>77.0</ele><time>2026-04-09T13:55:01.218Z</time></trkpt><trkpt lat="43.9809951" lon="12.4909666"><ele>79.0</ele><time>2026-04-09T13:55:03.203Z</time></trkpt><trkpt lat="43.981094" lon="12.4910546"><ele>81.0</ele><time>2026-04-09T13:55:05.219Z</time></trkpt><trkpt lat="43.9811417" lon="12.4911131"><ele>83.0</ele><time>2026-04-09T13:55:06.24Z</time></trkpt><trkpt lat="43.9811948" lon="12.4911794"><ele>83.0</ele><time>2026-04-09T13:55:07.204Z</time></trkpt><trkpt lat="43.9812557" lon="12.491242"><ele>83.0</ele><time>2026-04-09T13:55:08.163Z</time></trkpt><trkpt lat="43.981315" lon="12.4913178"><ele>83.0</ele><time>2026-04-09T13:55:09.204Z</time></trkpt><trkpt lat="43.9813729" lon="12.4913984"><ele>83.0</ele><time>2026-04-09T13:55:10.229Z</time></trkpt><trkpt lat="43.9814355" lon="12.4914795"><ele>83.0</ele><time>2026-04-09T13:55:11.212Z</time></trkpt><trkpt lat="43.9814955" lon="12.4915591"><ele>83.0</ele><time>2026-04-09T13:55:12.216Z</time></trkpt><trkpt lat="43.9815566" lon="12.4916476"><ele>81.0</ele><time>2026-04-09T13:55:13.214Z</time></trkpt><trkpt lat="43.9816047" lon="12.4917567"><ele>79.0</ele><time>2026-04-09T13:55:14.158Z</time></trkpt><trkpt lat="43.9816265" lon="12.4918851"><ele>77.0</ele><time>2026-04-09T13:55:15.2Z</time></trkpt><trkpt lat="43.98164" lon="12.4920166"><ele>75.0</ele><time>2026-04-09T13:55:16.211Z</time></trkpt><trkpt lat="43.9816827" lon="12.4921483"><ele>73.0</ele><time>2026-04-09T13:55:17.214Z</time></trkpt><trkpt lat="43.9817358" lon="12.4922555"><ele>71.83333333333333</ele><time>2026-04-09T13:55:18.204Z</time></trkpt><trkpt lat="43.9817742" lon="12.4923642"><ele>70.66666666666666</ele><time>2026-04-09T13:55:19.213Z</time></trkpt><trkpt lat="43.9818024" lon="12.4924796"><ele>69.5</ele><time>2026-04-09T13:55:20.214Z</time></trkpt><trkpt lat="43.9818452" lon="12.4925794"><ele>68.33333333333333</ele><time>2026-04-09T13:55:21.211Z</time></trkpt><trkpt lat="43.9818857" lon="12.4926718"><ele>67.16666666666667</ele><time>2026-04-09T13:55:22.222Z</time></trkpt><trkpt lat="43.9819272" lon="12.4927655"><ele>66.0</ele><time>2026-04-09T13:55:23.221Z</time></trkpt><trkpt lat="43.9819664" lon="12.4928451"><ele>65.39999999999999</ele><time>2026-04-09T13:55:24.165Z</time></trkpt><trkpt lat="43.9820136" lon="12.4929668"><ele>64.8</ele><time>2026-04-09T13:55:26.245Z</time></trkpt><trkpt lat="43.9820402" lon="12.4930811"><ele>64.19999999999999</ele><time>2026-04-09T13:55:29.218Z</time></trkpt><trkpt lat="43.9820149" lon="12.4931983"><ele>63.599999999999994</ele><time>2026-04-09T13:55:31.208Z</time></trkpt><trkpt lat="43.9819604" lon="12.4933047"><ele>63.0</ele><time>2026-04-09T13:55:33.228Z</time></trkpt><trkpt lat="43.981886" lon="12.4934304"><ele>63.0</ele><time>2026-04-09T13:55:35.188Z</time></trkpt><trkpt lat="43.9818234" lon="12.4935739"><ele>63.0</ele><time>2026-04-09T13:55:37.217Z</time></trkpt><trkpt lat="43.981761" lon="12.4937148"><ele>63.0</ele><time>2026-04-09T13:55:39.218Z</time></trkpt><trkpt lat="43.9816864" lon="12.4938468"><ele>63.0</ele><time>2026-04-09T13:55:41.191Z</time></trkpt><trkpt lat="43.9816086" lon="12.4939814"><ele>63.666666666666664</ele><time>2026-04-09T13:55:43.195Z</time></trkpt><trkpt lat="43.9815595" lon="12.494052"><ele>64.33333333333333</ele><time>2026-04-09T13:55:44.22Z</time></trkpt><trkpt lat="43.9815144" lon="12.4941204"><ele>65.0</ele><time>2026-04-09T13:55:45.211Z</time></trkpt><trkpt lat="43.9814752" lon="12.4941898"><ele>65.66666666666666</ele><time>2026-04-09T13:55:46.215Z</time></trkpt><trkpt lat="43.981431" lon="12.4942626"><ele>66.33333333333333</ele><time>2026-04-09T13:55:47.209Z</time></trkpt><trkpt lat="43.9813883" lon="12.4943328"><ele>67.0</ele><time>2026-04-09T13:55:48.225Z</time></trkpt><trkpt lat="43.9813131" lon="12.4944711"><ele>67.0</ele><time>2026-04-09T13:55:50.192Z</time></trkpt><trkpt lat="43.9812624" lon="12.4946206"><ele>67.0</ele><time>2026-04-09T13:55:52.226Z</time></trkpt><trkpt lat="43.9812154" lon="12.4947567"><ele>67.0</ele><time>2026-04-09T13:55:54.219Z</time></trkpt><trkpt lat="43.9811808" lon="12.4948669"><ele>67.0</ele><time>2026-04-09T13:55:56.196Z</time></trkpt><trkpt lat="43.9811642" lon="12.4949664"><ele>67.0</ele><time>2026-04-09T13:55:58.222Z</time></trkpt><trkpt lat="43.9811447" lon="12.4950568"><ele>67.0</ele><time>2026-04-09T13:56:00.222Z</time></trkpt><trkpt lat="43.9811221" lon="12.4951401"><ele>67.0</ele><time>2026-04-09T13:56:02.203Z</time></trkpt><trkpt lat="43.9811055" lon="12.4952779"><ele>67.0</ele><time>2026-04-09T13:56:05.199Z</time></trkpt><trkpt lat="43.9811116" lon="12.4953892"><ele>67.0</ele><time>2026-04-09T13:56:07.205Z</time></trkpt><trkpt lat="43.9811159" lon="12.4954945"><ele>67.0</ele><time>2026-04-09T13:56:09.222Z</time></trkpt><trkpt lat="43.9811127" lon="12.4955915"><ele>67.0</ele><time>2026-04-09T13:56:11.208Z</time></trkpt><trkpt lat="43.9811032" lon="12.4957005"><ele>67.0</ele><time>2026-04-09T13:56:13.21Z</time></trkpt><trkpt lat="43.9810945" lon="12.4957987"><ele>67.0</ele><time>2026-04-09T13:56:15.213Z</time></trkpt><trkpt lat="43.9810877" lon="12.4958891"><ele>67.0</ele><time>2026-04-09T13:56:17.211Z</time></trkpt><trkpt lat="43.9810736" lon="12.4959835"><ele>67.0</ele><time>2026-04-09T13:56:19.192Z</time></trkpt><trkpt lat="43.9810568" lon="12.4960684"><ele>67.0</ele><time>2026-04-09T13:56:21.213Z</time></trkpt><trkpt lat="43.9810505" lon="12.4961729"><ele>67.0</ele><time>2026-04-09T13:56:23.208Z</time></trkpt><trkpt lat="43.9810676" lon="12.4962972"><ele>67.0</ele><time>2026-04-09T13:56:25.225Z</time></trkpt><trkpt lat="43.9810997" lon="12.4963799"><ele>67.0</ele><time>2026-04-09T13:56:26.213Z</time></trkpt><trkpt lat="43.981133" lon="12.4964619"><ele>67.0</ele><time>2026-04-09T13:56:27.21Z</time></trkpt><trkpt lat="43.9811629" lon="12.4965426"><ele>67.0</ele><time>2026-04-09T13:56:28.222Z</time></trkpt><trkpt lat="43.9811974" lon="12.4966312"><ele>67.0</ele><time>2026-04-09T13:56:29.215Z</time></trkpt><trkpt lat="43.9812293" lon="12.4967268"><ele>67.0</ele><time>2026-04-09T13:56:30.187Z</time></trkpt><trkpt lat="43.9812607" lon="12.4968092"><ele>67.0</ele><time>2026-04-09T13:56:31.225Z</time></trkpt><trkpt lat="43.9812873" lon="12.4968986"><ele>67.0</ele><time>2026-04-09T13:56:32.203Z</time></trkpt><trkpt lat="43.9813219" lon="12.4969871"><ele>67.0</ele><time>2026-04-09T13:56:33.219Z</time></trkpt><trkpt lat="43.9813494" lon="12.4970771"><ele>67.0</ele><time>2026-04-09T13:56:34.212Z</time></trkpt><trkpt lat="43.9813808" lon="12.4971722"><ele>67.0</ele><time>2026-04-09T13:56:35.21Z</time></trkpt><trkpt lat="43.9813988" lon="12.4972638"><ele>67.0</ele><time>2026-04-09T13:56:36.219Z</time></trkpt><trkpt lat="43.9814289" lon="12.4973557"><ele>67.0</ele><time>2026-04-09T13:56:37.225Z</time></trkpt><trkpt lat="43.9814635" lon="12.4974456"><ele>67.0</ele><time>2026-04-09T13:56:38.219Z</time></trkpt><trkpt lat="43.9814951" lon="12.4975273"><ele>67.0</ele><time>2026-04-09T13:56:39.204Z</time></trkpt><trkpt lat="43.9815343" lon="12.4975994"><ele>66.6</ele><time>2026-04-09T13:56:40.201Z</time></trkpt><trkpt lat="43.9816345" lon="12.4977109"><ele>66.2</ele><time>2026-04-09T13:56:42.218Z</time></trkpt><trkpt lat="43.9816904" lon="12.4977568"><ele>65.8</ele><time>2026-04-09T13:56:43.237Z</time></trkpt><trkpt lat="43.9817537" lon="12.4977951"><ele>65.4</ele><time>2026-04-09T13:56:44.223Z</time></trkpt><trkpt lat="43.9818632" lon="12.4978304"><ele>65.0</ele><time>2026-04-09T13:56:46.231Z</time></trkpt><trkpt lat="43.981966" lon="12.4978612"><ele>65.0</ele><time>2026-04-09T13:56:48.225Z</time></trkpt><trkpt lat="43.9820586" lon="12.4978904"><ele>65.0</ele><time>2026-04-09T13:56:50.202Z</time></trkpt><trkpt lat="43.9821402" lon="12.4979119"><ele>65.0</ele><time>2026-04-09T13:56:52.22Z</time></trkpt><trkpt lat="43.9822206" lon="12.4979208"><ele>65.0</ele><time>2026-04-09T13:56:54.221Z</time></trkpt><trkpt lat="43.9823034" lon="12.4979418"><ele>65.0</ele><time>2026-04-09T13:56:56.184Z</time></trkpt><trkpt lat="43.9823823" lon="12.4979765"><ele>65.0</ele><time>2026-04-09T13:56:58.205Z</time></trkpt><trkpt lat="43.9824587" lon="12.4980122"><ele>66.83333333333334</ele><time>2026-04-09T13:57:00.229Z</time></trkpt><trkpt lat="43.9825369" lon="12.4980298"><ele>68.66666666666667</ele><time>2026-04-09T13:57:02.247Z</time></trkpt><trkpt lat="43.982607" lon="12.4980517"><ele>70.5</ele><time>2026-04-09T13:57:04.216Z</time></trkpt><trkpt lat="43.9826812" lon="12.4980823"><ele>72.33333333333333</ele><time>2026-04-09T13:57:06.205Z</time></trkpt><trkpt lat="43.9827547" lon="12.4981264"><ele>74.16666666666666</ele><time>2026-04-09T13:57:08.208Z</time></trkpt><trkpt lat="43.9828247" lon="12.4981689"><ele>76.0</ele><time>2026-04-09T13:57:10.213Z</time></trkpt><trkpt lat="43.9828858" lon="12.4982342"><ele>76.0</ele><time>2026-04-09T13:57:12.216Z</time></trkpt><trkpt lat="43.9829447" lon="12.4983153"><ele>76.0</ele><time>2026-04-09T13:57:14.243Z</time></trkpt><trkpt lat="43.9829961" lon="12.498386"><ele>76.0</ele><time>2026-04-09T13:57:16.204Z</time></trkpt><trkpt lat="43.9830523" lon="12.4984642"><ele>76.0</ele><time>2026-04-09T13:57:18.218Z</time></trkpt><trkpt lat="43.9831155" lon="12.4985343"><ele>76.0</ele><time>2026-04-09T13:57:20.232Z</time></trkpt><trkpt lat="43.9831857" lon="12.4986064"><ele>76.0</ele><time>2026-04-09T13:57:22.234Z</time></trkpt><trkpt lat="43.9832514" lon="12.4986845"><ele>76.0</ele><time>2026-04-09T13:57:24.205Z</time></trkpt><trkpt lat="43.9833127" lon="12.4987472"><ele>76.0</ele><time>2026-04-09T13:57:26.231Z</time></trkpt><trkpt lat="43.9833658" lon="12.4988154"><ele>76.0</ele><time>2026-04-09T13:57:28.234Z</time></trkpt><trkpt lat="43.9834207" lon="12.4988875"><ele>76.0</ele><time>2026-04-09T13:57:30.216Z</time></trkpt><trkpt lat="43.9834777" lon="12.4989561"><ele>76.0</ele><time>2026-04-09T13:57:32.232Z</time></trkpt><trkpt lat="43.9835277" lon="12.4990331"><ele>76.0</ele><time>2026-04-09T13:57:34.196Z</time></trkpt><trkpt lat="43.9835826" lon="12.4990995"><ele>76.0</ele><time>2026-04-09T13:57:36.208Z</time></trkpt><trkpt lat="43.9836428" lon="12.4991715"><ele>76.14285714285714</ele><time>2026-04-09T13:57:38.223Z</time></trkpt><trkpt lat="43.9836961" lon="12.4992493"><ele>76.28571428571429</ele><time>2026-04-09T13:57:40.217Z</time></trkpt><trkpt lat="43.9837399" lon="12.4993279"><ele>76.42857142857143</ele><time>2026-04-09T13:57:42.222Z</time></trkpt><trkpt lat="43.9837818" lon="12.4994087"><ele>76.57142857142857</ele><time>2026-04-09T13:57:44.204Z</time></trkpt><trkpt lat="43.9838191" lon="12.4994884"><ele>76.71428571428572</ele><time>2026-04-09T13:57:46.193Z</time></trkpt><trkpt lat="43.9838556" lon="12.4995751"><ele>76.85714285714286</ele><time>2026-04-09T13:57:48.221Z</time></trkpt><trkpt lat="43.9838922" lon="12.4996679"><ele>77.0</ele><time>2026-04-09T13:57:50.187Z</time></trkpt><trkpt lat="43.9839274" lon="12.4997501"><ele>78.83333333333334</ele><time>2026-04-09T13:57:52.181Z</time></trkpt><trkpt lat="43.9839627" lon="12.4998346"><ele>80.66666666666667</ele><time>2026-04-09T13:57:54.208Z</time></trkpt><trkpt lat="43.983995" lon="12.4999171"><ele>82.5</ele><time>2026-04-09T13:57:56.235Z</time></trkpt><trkpt lat="43.9840233" lon="12.5000014"><ele>84.33333333333333</ele><time>2026-04-09T13:57:58.213Z</time></trkpt><trkpt lat="43.9840539" lon="12.5000811"><ele>86.16666666666666</ele><time>2026-04-09T13:58:00.224Z</time></trkpt><trkpt lat="43.9840994" lon="12.5001902"><ele>88.0</ele><time>2026-04-09T13:58:03.224Z</time></trkpt><trkpt lat="43.9841425" lon="12.5003004"><ele>88.0</ele><time>2026-04-09T13:58:06.209Z</time></trkpt><trkpt lat="43.9841793" lon="12.5004036"><ele>88.0</ele><time>2026-04-09T13:58:09.225Z</time></trkpt><trkpt lat="43.9842088" lon="12.5005068"><ele>88.0</ele><time>2026-04-09T13:58:12.185Z</time></trkpt><trkpt lat="43.984232" lon="12.5006087"><ele>88.0</ele><time>2026-04-09T13:58:15.221Z</time></trkpt><trkpt lat="43.984249" lon="12.5007196"><ele>88.0</ele><time>2026-04-09T13:58:18.172Z</time></trkpt><trkpt lat="43.9842681" lon="12.5008281"><ele>88.0</ele><time>2026-04-09T13:58:21.207Z</time></trkpt><trkpt lat="43.9842812" lon="12.5009512"><ele>88.0</ele><time>2026-04-09T13:58:24.216Z</time></trkpt><trkpt lat="43.9842935" lon="12.5010649"><ele>88.0</ele><time>2026-04-09T13:58:27.215Z</time></trkpt><trkpt lat="43.9842937" lon="12.5011678"><ele>88.0</ele><time>2026-04-09T13:58:30.219Z</time></trkpt><trkpt lat="43.9842874" lon="12.5012785"><ele>88.0</ele><time>2026-04-09T13:58:33.209Z</time></trkpt><trkpt lat="43.9842728" lon="12.5013884"><ele>88.0</ele><time>2026-04-09T13:58:36.188Z</time></trkpt><trkpt lat="43.9842542" lon="12.5014901"><ele>88.0</ele><time>2026-04-09T13:58:39.202Z</time></trkpt><trkpt lat="43.9842363" lon="12.5016061"><ele>88.0</ele><time>2026-04-09T13:58:43.225Z</time></trkpt><trkpt lat="43.9842221" lon="12.5016953"><ele>88.0</ele><time>2026-04-09T13:58:46.178Z</time></trkpt><trkpt lat="43.9842104" lon="12.5017859"><ele>88.0</ele><time>2026-04-09T13:58:49.205Z</time></trkpt><trkpt lat="43.9842036" lon="12.5018852"><ele>88.0</ele><time>2026-04-09T13:58:52.227Z</time></trkpt><trkpt lat="43.9842" lon="12.5020039"><ele>88.0</ele><time>2026-04-09T13:58:55.214Z</time></trkpt><trkpt lat="43.9841927" lon="12.502135"><ele>88.0</ele><time>2026-04-09T13:58:58.212Z</time></trkpt><trkpt lat="43.9841894" lon="12.5022552"><ele>90.83333333333333</ele><time>2026-04-09T13:59:01.217Z</time></trkpt><trkpt lat="43.9841758" lon="12.5023692"><ele>93.66666666666666</ele><time>2026-04-09T13:59:04.23Z</time></trkpt><trkpt lat="43.9841466" lon="12.5024735"><ele>96.5</ele><time>2026-04-09T13:59:07.217Z</time></trkpt><trkpt lat="43.9841055" lon="12.5025611"><ele>99.33333333333333</ele><time>2026-04-09T13:59:10.163Z</time></trkpt><trkpt lat="43.9840327" lon="12.5026181"><ele>102.16666666666667</ele><time>2026-04-09T13:59:14.188Z</time></trkpt><trkpt lat="43.9839538" lon="12.5026239"><ele>105.0</ele><time>2026-04-09T13:59:17.206Z</time></trkpt><trkpt lat="43.983877" lon="12.502605"><ele>105.0</ele><time>2026-04-09T13:59:20.223Z</time></trkpt><trkpt lat="43.9838115" lon="12.5025522"><ele>105.0</ele><time>2026-04-09T13:59:23.204Z</time></trkpt><trkpt lat="43.9837599" lon="12.5024629"><ele>105.0</ele><time>2026-04-09T13:59:26.232Z</time></trkpt><trkpt lat="43.9837094" lon="12.5023531"><ele>105.0</ele><time>2026-04-09T13:59:29.223Z</time></trkpt><trkpt lat="43.9836789" lon="12.5022754"><ele>105.0</ele><time>2026-04-09T13:59:31.221Z</time></trkpt><trkpt lat="43.9836354" lon="12.5021534"><ele>105.0</ele><time>2026-04-09T13:59:34.215Z</time></trkpt><trkpt lat="43.983584" lon="12.5020479"><ele>104.71428571428571</ele><time>2026-04-09T13:59:37.232Z</time></trkpt><trkpt lat="43.9835378" lon="12.501982"><ele>104.42857142857143</ele><time>2026-04-09T13:59:39.177Z</time></trkpt><trkpt lat="43.9834771" lon="12.5018829"><ele>104.14285714285714</ele><time>2026-04-09T13:59:42.167Z</time></trkpt><trkpt lat="43.9834204" lon="12.5018229"><ele>103.85714285714286</ele><time>2026-04-09T13:59:44.166Z</time></trkpt><trkpt lat="43.983356" lon="12.5017754"><ele>103.57142857142857</ele><time>2026-04-09T13:59:46.164Z</time></trkpt><trkpt lat="43.9832872" lon="12.5017342"><ele>103.28571428571428</ele><time>2026-04-09T13:59:48.205Z</time></trkpt><trkpt lat="43.9832236" lon="12.501699"><ele>103.0</ele><time>2026-04-09T13:59:50.224Z</time></trkpt><trkpt lat="43.9831638" lon="12.5016636"><ele>104.57142857142856</ele><time>2026-04-09T13:59:52.216Z</time></trkpt><trkpt lat="43.9830993" lon="12.501624"><ele>106.14285714285714</ele><time>2026-04-09T13:59:54.211Z</time></trkpt><trkpt lat="43.9830266" lon="12.5015651"><ele>107.71428571428571</ele><time>2026-04-09T13:59:56.211Z</time></trkpt><trkpt lat="43.9829708" lon="12.5015198"><ele>109.28571428571428</ele><time>2026-04-09T13:59:58.219Z</time></trkpt><trkpt lat="43.982913" lon="12.5014777"><ele>110.85714285714285</ele><time>2026-04-09T14:00:00.214Z</time></trkpt><trkpt lat="43.9828497" lon="12.5014344"><ele>112.42857142857142</ele><time>2026-04-09T14:00:02.211Z</time></trkpt><trkpt lat="43.9827901" lon="12.5013959"><ele>114.0</ele><time>2026-04-09T14:00:04.225Z</time></trkpt><trkpt lat="43.9827274" lon="12.5013575"><ele>114.0</ele><time>2026-04-09T14:00:06.221Z</time></trkpt><trkpt lat="43.9826623" lon="12.5013187"><ele>113.99999999999999</ele><time>2026-04-09T14:00:08.226Z</time></trkpt><trkpt lat="43.9825991" lon="12.5012816"><ele>114.0</ele><time>2026-04-09T14:00:10.191Z</time></trkpt><trkpt lat="43.9825367" lon="12.5012477"><ele>114.0</ele><time>2026-04-09T14:00:12.217Z</time></trkpt><trkpt lat="43.982468" lon="12.501206"><ele>113.99999999999999</ele><time>2026-04-09T14:00:14.22Z</time></trkpt><trkpt lat="43.9823937" lon="12.5011653"><ele>114.0</ele><time>2026-04-09T14:00:16.179Z</time></trkpt><trkpt lat="43.9823299" lon="12.5011262"><ele>114.0</ele><time>2026-04-09T14:00:18.193Z</time></trkpt><trkpt lat="43.9822623" lon="12.5010871"><ele>114.14285714285714</ele><time>2026-04-09T14:00:20.207Z</time></trkpt><trkpt lat="43.9821986" lon="12.5010436"><ele>114.28571428571428</ele><time>2026-04-09T14:00:22.202Z</time></trkpt><trkpt lat="43.9821343" lon="12.5009989"><ele>114.42857142857142</ele><time>2026-04-09T14:00:24.207Z</time></trkpt><trkpt lat="43.9820656" lon="12.5009571"><ele>114.57142857142856</ele><time>2026-04-09T14:00:26.228Z</time></trkpt><trkpt lat="43.9820056" lon="12.500906"><ele>114.71428571428571</ele><time>2026-04-09T14:00:28.227Z</time></trkpt><trkpt lat="43.9819412" lon="12.5008606"><ele>114.85714285714283</ele><time>2026-04-09T14:00:30.204Z</time></trkpt><trkpt lat="43.9818675" lon="12.500816"><ele>114.99999999999999</ele><time>2026-04-09T14:00:32.175Z</time></trkpt><trkpt lat="43.9817826" lon="12.5007693"><ele>114.99999999999999</ele><time>2026-04-09T14:00:35.215Z</time></trkpt><trkpt lat="43.9817239" lon="12.5007357"><ele>115.0</ele><time>2026-04-09T14:00:37.218Z</time></trkpt><trkpt lat="43.981661" lon="12.5007039"><ele>114.99999999999999</ele><time>2026-04-09T14:00:39.212Z</time></trkpt><trkpt lat="43.9815923" lon="12.5006889"><ele>114.99999999999999</ele><time>2026-04-09T14:00:41.204Z</time></trkpt><trkpt lat="43.9815279" lon="12.5006863"><ele>115.0</ele><time>2026-04-09T14:00:43.222Z</time></trkpt><trkpt lat="43.9814617" lon="12.500693"><ele>114.99999999999999</ele><time>2026-04-09T14:00:45.218Z</time></trkpt><trkpt lat="43.9814005" lon="12.5007367"><ele>114.99999999999999</ele><time>2026-04-09T14:00:47.161Z</time></trkpt><trkpt lat="43.9813323" lon="12.5007843"><ele>116.42857142857142</ele><time>2026-04-09T14:00:49.213Z</time></trkpt><trkpt lat="43.9812598" lon="12.5008376"><ele>117.85714285714286</ele><time>2026-04-09T14:00:51.196Z</time></trkpt><trkpt lat="43.9811996" lon="12.5008715"><ele>119.28571428571428</ele><time>2026-04-09T14:00:53.178Z</time></trkpt><trkpt lat="43.981137" lon="12.5009074"><ele>120.71428571428571</ele><time>2026-04-09T14:00:55.21Z</time></trkpt><trkpt lat="43.9810765" lon="12.5009558"><ele>122.14285714285714</ele><time>2026-04-09T14:00:57.185Z</time></trkpt><trkpt lat="43.9810204" lon="12.5010012"><ele>123.57142857142857</ele><time>2026-04-09T14:00:59.226Z</time></trkpt><trkpt lat="43.9809581" lon="12.5010499"><ele>125.0</ele><time>2026-04-09T14:01:01.169Z</time></trkpt><trkpt lat="43.9808931" lon="12.5010926"><ele>124.99999999999999</ele><time>2026-04-09T14:01:03.225Z</time></trkpt><trkpt lat="43.9808317" lon="12.5011487"><ele>125.0</ele><time>2026-04-09T14:01:05.218Z</time></trkpt><trkpt lat="43.9807729" lon="12.501213"><ele>125.0</ele><time>2026-04-09T14:01:07.166Z</time></trkpt><trkpt lat="43.9807172" lon="12.5012792"><ele>125.0</ele><time>2026-04-09T14:01:09.188Z</time></trkpt><trkpt lat="43.9806591" lon="12.501346"><ele>124.99999999999999</ele><time>2026-04-09T14:01:11.21Z</time></trkpt><trkpt lat="43.9806061" lon="12.5014102"><ele>125.0</ele><time>2026-04-09T14:01:13.21Z</time></trkpt><trkpt lat="43.9805294" lon="12.5014829"><ele>127.0</ele><time>2026-04-09T14:01:16.225Z</time></trkpt><trkpt lat="43.9804617" lon="12.5015641"><ele>129.0</ele><time>2026-04-09T14:01:19.228Z</time></trkpt><trkpt lat="43.9803672" lon="12.501571"><ele>131.0</ele><time>2026-04-09T14:01:22.209Z</time></trkpt><trkpt lat="43.9802692" lon="12.5015295"><ele>133.0</ele><time>2026-04-09T14:01:24.203Z</time></trkpt><trkpt lat="43.9801598" lon="12.5014916"><ele>135.0</ele><time>2026-04-09T14:01:26.205Z</time></trkpt><trkpt lat="43.9800231" lon="12.5014368"><ele>134.6</ele><time>2026-04-09T14:01:28.225Z</time></trkpt><trkpt lat="43.979941" lon="12.5014135"><ele>134.2</ele><time>2026-04-09T14:01:29.194Z</time></trkpt><trkpt lat="43.9798575" lon="12.501407"><ele>133.8</ele><time>2026-04-09T14:01:30.219Z</time></trkpt><trkpt lat="43.9797595" lon="12.5014042"><ele>133.4</ele><time>2026-04-09T14:01:31.23Z</time></trkpt><trkpt lat="43.97967" lon="12.5014137"><ele>133.0</ele><time>2026-04-09T14:01:32.19Z</time></trkpt><trkpt lat="43.9795716" lon="12.501431"><ele>133.0</ele><time>2026-04-09T14:01:33.186Z</time></trkpt><trkpt lat="43.9794754" lon="12.5014623"><ele>133.0</ele><time>2026-04-09T14:01:34.215Z</time></trkpt><trkpt lat="43.9793712" lon="12.5015005"><ele>133.0</ele><time>2026-04-09T14:01:35.22Z</time></trkpt><trkpt lat="43.9792646" lon="12.5015274"><ele>133.0</ele><time>2026-04-09T14:01:36.222Z</time></trkpt><trkpt lat="43.9791509" lon="12.5015595"><ele>133.0</ele><time>2026-04-09T14:01:37.211Z</time></trkpt><trkpt lat="43.979043" lon="12.5015802"><ele>130.25</ele><time>2026-04-09T14:01:38.239Z</time></trkpt><trkpt lat="43.9789331" lon="12.5016068"><ele>127.5</ele><time>2026-04-09T14:01:39.179Z</time></trkpt><trkpt lat="43.9788203" lon="12.5016369"><ele>124.75</ele><time>2026-04-09T14:01:40.226Z</time></trkpt><trkpt lat="43.9786972" lon="12.5016516"><ele>122.0</ele><time>2026-04-09T14:01:41.204Z</time></trkpt><trkpt lat="43.9785782" lon="12.5016657"><ele>122.0</ele><time>2026-04-09T14:01:42.197Z</time></trkpt><trkpt lat="43.9784544" lon="12.5016856"><ele>122.0</ele><time>2026-04-09T14:01:43.217Z</time></trkpt><trkpt lat="43.9783358" lon="12.5017044"><ele>122.0</ele><time>2026-04-09T14:01:44.231Z</time></trkpt><trkpt lat="43.9782131" lon="12.5017281"><ele>122.0</ele><time>2026-04-09T14:01:45.221Z</time></trkpt><trkpt lat="43.9780904" lon="12.5017545"><ele>119.0</ele><time>2026-04-09T14:01:46.215Z</time></trkpt><trkpt lat="43.9779705" lon="12.5017802"><ele>116.0</ele><time>2026-04-09T14:01:47.223Z</time></trkpt><trkpt lat="43.9778507" lon="12.5018112"><ele>113.0</ele><time>2026-04-09T14:01:48.198Z</time></trkpt><trkpt lat="43.9777348" lon="12.5018439"><ele>110.0</ele><time>2026-04-09T14:01:49.197Z</time></trkpt><trkpt lat="43.977623" lon="12.5018771"><ele>108.4</ele><time>2026-04-09T14:01:50.217Z</time></trkpt><trkpt lat="43.9775161" lon="12.5019042"><ele>106.8</ele><time>2026-04-09T14:01:51.206Z</time></trkpt><trkpt lat="43.9774083" lon="12.5019298"><ele>105.19999999999999</ele><time>2026-04-09T14:01:52.23Z</time></trkpt><trkpt lat="43.9773082" lon="12.5019615"><ele>103.6</ele><time>2026-04-09T14:01:53.224Z</time></trkpt><trkpt lat="43.9772167" lon="12.5020068"><ele>102.0</ele><time>2026-04-09T14:01:54.222Z</time></trkpt><trkpt lat="43.9771302" lon="12.502056"><ele>102.83333333333333</ele><time>2026-04-09T14:01:55.219Z</time></trkpt><trkpt lat="43.9770561" lon="12.5021091"><ele>103.66666666666666</ele><time>2026-04-09T14:01:56.234Z</time></trkpt><trkpt lat="43.9769903" lon="12.5021844"><ele>104.5</ele><time>2026-04-09T14:01:57.226Z</time></trkpt><trkpt lat="43.9769318" lon="12.5022542"><ele>105.33333333333333</ele><time>2026-04-09T14:01:58.237Z</time></trkpt><trkpt lat="43.9768787" lon="12.5023156"><ele>106.16666666666666</ele><time>2026-04-09T14:01:59.222Z</time></trkpt><trkpt lat="43.9768238" lon="12.5023749"><ele>107.0</ele><time>2026-04-09T14:02:00.222Z</time></trkpt><trkpt lat="43.9767742" lon="12.5024394"><ele>107.6</ele><time>2026-04-09T14:02:01.229Z</time></trkpt><trkpt lat="43.9766788" lon="12.5025432"><ele>108.19999999999999</ele><time>2026-04-09T14:02:03.17Z</time></trkpt><trkpt lat="43.9765902" lon="12.5026387"><ele>108.8</ele><time>2026-04-09T14:02:05.225Z</time></trkpt><trkpt lat="43.9765081" lon="12.5027213"><ele>109.4</ele><time>2026-04-09T14:02:07.212Z</time></trkpt><trkpt lat="43.9764314" lon="12.5027955"><ele>110.0</ele><time>2026-04-09T14:02:09.223Z</time></trkpt><trkpt lat="43.9763535" lon="12.5028551"><ele>109.99999999999999</ele><time>2026-04-09T14:02:11.195Z</time></trkpt><trkpt lat="43.9762768" lon="12.502911"><ele>110.0</ele><time>2026-04-09T14:02:13.202Z</time></trkpt><trkpt lat="43.9762035" lon="12.5029338"><ele>110.0</ele><time>2026-04-09T14:02:15.18Z</time></trkpt><trkpt lat="43.9761255" lon="12.5029548"><ele>110.0</ele><time>2026-04-09T14:02:17.198Z</time></trkpt><trkpt lat="43.9760495" lon="12.5029652"><ele>109.99999999999999</ele><time>2026-04-09T14:02:19.22Z</time></trkpt><trkpt lat="43.9759698" lon="12.5029656"><ele>110.0</ele><time>2026-04-09T14:02:21.219Z</time></trkpt><trkpt lat="43.9758932" lon="12.5029611"><ele>110.14285714285714</ele><time>2026-04-09T14:02:23.218Z</time></trkpt><trkpt lat="43.9758172" lon="12.5029469"><ele>110.28571428571428</ele><time>2026-04-09T14:02:25.222Z</time></trkpt><trkpt lat="43.9757453" lon="12.5029379"><ele>110.42857142857142</ele><time>2026-04-09T14:02:27.221Z</time></trkpt><trkpt lat="43.9756725" lon="12.5029305"><ele>110.57142857142857</ele><time>2026-04-09T14:02:29.223Z</time></trkpt><trkpt lat="43.9756025" lon="12.5029194"><ele>110.71428571428572</ele><time>2026-04-09T14:02:31.207Z</time></trkpt><trkpt lat="43.9755296" lon="12.502915"><ele>110.85714285714285</ele><time>2026-04-09T14:02:33.232Z</time></trkpt><trkpt lat="43.9754628" lon="12.5029079"><ele>111.0</ele><time>2026-04-09T14:02:35.247Z</time></trkpt><trkpt lat="43.9753945" lon="12.5029043"><ele>111.0</ele><time>2026-04-09T14:02:37.233Z</time></trkpt><trkpt lat="43.9753224" lon="12.5029028"><ele>111.0</ele><time>2026-04-09T14:02:39.212Z</time></trkpt><trkpt lat="43.9752506" lon="12.5029037"><ele>111.0</ele><time>2026-04-09T14:02:41.211Z</time></trkpt><trkpt lat="43.9751809" lon="12.5028894"><ele>111.0</ele><time>2026-04-09T14:02:43.185Z</time></trkpt><trkpt lat="43.9751105" lon="12.5028811"><ele>111.0</ele><time>2026-04-09T14:02:45.195Z</time></trkpt><trkpt lat="43.9750466" lon="12.5028581"><ele>111.0</ele><time>2026-04-09T14:02:47.24Z</time></trkpt><trkpt lat="43.9749733" lon="12.5028504"><ele>111.0</ele><time>2026-04-09T14:02:49.226Z</time></trkpt><trkpt lat="43.9748918" lon="12.502835"><ele>112.16666666666667</ele><time>2026-04-09T14:02:51.189Z</time></trkpt><trkpt lat="43.974816" lon="12.5028293"><ele>113.33333333333334</ele><time>2026-04-09T14:02:53.245Z</time></trkpt><trkpt lat="43.9747402" lon="12.502811"><ele>114.5</ele><time>2026-04-09T14:02:55.221Z</time></trkpt><trkpt lat="43.9746572" lon="12.5028105"><ele>115.66666666666667</ele><time>2026-04-09T14:02:57.218Z</time></trkpt><trkpt lat="43.9745784" lon="12.5028093"><ele>116.83333333333334</ele><time>2026-04-09T14:02:59.19Z</time></trkpt><trkpt lat="43.9745048" lon="12.5028226"><ele>118.0</ele><time>2026-04-09T14:03:01.229Z</time></trkpt><trkpt lat="43.9744345" lon="12.5028323"><ele>118.0</ele><time>2026-04-09T14:03:03.209Z</time></trkpt><trkpt lat="43.9743612" lon="12.5028214"><ele>118.0</ele><time>2026-04-09T14:03:05.201Z</time></trkpt><trkpt lat="43.9742894" lon="12.5027923"><ele>118.0</ele><time>2026-04-09T14:03:07.214Z</time></trkpt><trkpt lat="43.9742102" lon="12.5027789"><ele>118.0</ele><time>2026-04-09T14:03:09.228Z</time></trkpt><trkpt lat="43.9741346" lon="12.5027688"><ele>118.0</ele><time>2026-04-09T14:03:11.226Z</time></trkpt><trkpt lat="43.9740647" lon="12.502764"><ele>118.0</ele><time>2026-04-09T14:03:13.176Z</time></trkpt><trkpt lat="43.9740165" lon="12.5028252"><ele>118.0</ele><time>2026-04-09T14:03:15.194Z</time></trkpt><trkpt lat="43.9740007" lon="12.5029304"><ele>119.85714285714286</ele><time>2026-04-09T14:03:17.231Z</time></trkpt><trkpt lat="43.9739818" lon="12.5030305"><ele>121.71428571428572</ele><time>2026-04-09T14:03:19.235Z</time></trkpt><trkpt lat="43.9739837" lon="12.5031421"><ele>123.57142857142858</ele><time>2026-04-09T14:03:21.203Z</time></trkpt><trkpt lat="43.9739639" lon="12.5032344"><ele>125.42857142857143</ele><time>2026-04-09T14:03:23.205Z</time></trkpt><trkpt lat="43.973927" lon="12.5033226"><ele>127.2857142857143</ele><time>2026-04-09T14:03:25.248Z</time></trkpt><trkpt lat="43.9738831" lon="12.5033918"><ele>129.14285714285714</ele><time>2026-04-09T14:03:27.21Z</time></trkpt><trkpt lat="43.9738474" lon="12.5034691"><ele>131.0</ele><time>2026-04-09T14:03:29.215Z</time></trkpt><trkpt lat="43.973825" lon="12.5035598"><ele>131.0</ele><time>2026-04-09T14:03:31.232Z</time></trkpt><trkpt lat="43.9738213" lon="12.5036554"><ele>131.0</ele><time>2026-04-09T14:03:33.23Z</time></trkpt><trkpt lat="43.9738409" lon="12.5037519"><ele>131.0</ele><time>2026-04-09T14:03:35.193Z</time></trkpt><trkpt lat="43.9738679" lon="12.503853"><ele>131.0</ele><time>2026-04-09T14:03:37.235Z</time></trkpt><trkpt lat="43.9739015" lon="12.5039427"><ele>131.0</ele><time>2026-04-09T14:03:39.224Z</time></trkpt><trkpt lat="43.9739483" lon="12.50404"><ele>131.0</ele><time>2026-04-09T14:03:41.208Z</time></trkpt><trkpt lat="43.9739885" lon="12.5041207"><ele>131.0</ele><time>2026-04-09T14:03:43.212Z</time></trkpt><trkpt lat="43.9740312" lon="12.5041974"><ele>131.28571428571428</ele><time>2026-04-09T14:03:45.196Z</time></trkpt><trkpt lat="43.9740701" lon="12.5042712"><ele>131.57142857142858</ele><time>2026-04-09T14:03:47.212Z</time></trkpt><trkpt lat="43.9740988" lon="12.5043501"><ele>131.85714285714286</ele><time>2026-04-09T14:03:49.223Z</time></trkpt><trkpt lat="43.9741296" lon="12.5044321"><ele>132.14285714285714</ele><time>2026-04-09T14:03:51.209Z</time></trkpt><trkpt lat="43.9741543" lon="12.5045168"><ele>132.42857142857144</ele><time>2026-04-09T14:03:53.165Z</time></trkpt><trkpt lat="43.9741725" lon="12.504607"><ele>132.71428571428572</ele><time>2026-04-09T14:03:55.22Z</time></trkpt><trkpt lat="43.9741884" lon="12.504695"><ele>133.0</ele><time>2026-04-09T14:03:57.197Z</time></trkpt><trkpt lat="43.9741941" lon="12.5048202"><ele>133.0</ele><time>2026-04-09T14:04:00.231Z</time></trkpt><trkpt lat="43.9741913" lon="12.5049092"><ele>133.0</ele><time>2026-04-09T14:04:02.206Z</time></trkpt><trkpt lat="43.9741758" lon="12.5050388"><ele>133.0</ele><time>2026-04-09T14:04:05.226Z</time></trkpt><trkpt lat="43.9741364" lon="12.5051638"><ele>133.0</ele><time>2026-04-09T14:04:08.194Z</time></trkpt><trkpt lat="43.9741049" lon="12.5052664"><ele>133.0</ele><time>2026-04-09T14:04:10.231Z</time></trkpt><trkpt lat="43.9740813" lon="12.5053691"><ele>133.0</ele><time>2026-04-09T14:04:12.215Z</time></trkpt><trkpt lat="43.9740393" lon="12.5054741"><ele>134.6</ele><time>2026-04-09T14:04:14.157Z</time></trkpt><trkpt lat="43.9740052" lon="12.5055781"><ele>136.20000000000002</ele><time>2026-04-09T14:04:16.197Z</time></trkpt><trkpt lat="43.97396" lon="12.505691"><ele>137.8</ele><time>2026-04-09T14:04:18.184Z</time></trkpt><trkpt lat="43.9739236" lon="12.5058091"><ele>139.4</ele><time>2026-04-09T14:04:20.22Z</time></trkpt><trkpt lat="43.9739082" lon="12.5059427"><ele>141.0</ele><time>2026-04-09T14:04:22.218Z</time></trkpt><trkpt lat="43.9739123" lon="12.5060735"><ele>141.0</ele><time>2026-04-09T14:04:24.222Z</time></trkpt><trkpt lat="43.9739424" lon="12.5062102"><ele>141.0</ele><time>2026-04-09T14:04:26.239Z</time></trkpt><trkpt lat="43.9739931" lon="12.5063308"><ele>141.0</ele><time>2026-04-09T14:04:28.23Z</time></trkpt><trkpt lat="43.9740538" lon="12.5064392"><ele>141.0</ele><time>2026-04-09T14:04:30.234Z</time></trkpt><trkpt lat="43.9741044" lon="12.50655"><ele>141.0</ele><time>2026-04-09T14:04:32.219Z</time></trkpt><trkpt lat="43.9741593" lon="12.5066555"><ele>139.6</ele><time>2026-04-09T14:04:34.225Z</time></trkpt><trkpt lat="43.9742151" lon="12.5067567"><ele>138.2</ele><time>2026-04-09T14:04:36.216Z</time></trkpt><trkpt lat="43.9742755" lon="12.5068628"><ele>136.8</ele><time>2026-04-09T14:04:38.214Z</time></trkpt><trkpt lat="43.9743191" lon="12.5069814"><ele>135.4</ele><time>2026-04-09T14:04:40.205Z</time></trkpt><trkpt lat="43.9743652" lon="12.5071214"><ele>134.0</ele><time>2026-04-09T14:04:42.185Z</time></trkpt><trkpt lat="43.9743969" lon="12.5072739"><ele>134.0</ele><time>2026-04-09T14:04:44.17Z</time></trkpt><trkpt lat="43.9744257" lon="12.5074386"><ele>134.0</ele><time>2026-04-09T14:04:46.182Z</time></trkpt><trkpt lat="43.9744247" lon="12.5075958"><ele>134.0</ele><time>2026-04-09T14:04:48.212Z</time></trkpt><trkpt lat="43.9743964" lon="12.5077549"><ele>134.0</ele><time>2026-04-09T14:04:50.159Z</time></trkpt><trkpt lat="43.9743757" lon="12.5078413"><ele>134.0</ele><time>2026-04-09T14:04:51.232Z</time></trkpt><trkpt lat="43.9743208" lon="12.5079853"><ele>133.2</ele><time>2026-04-09T14:04:53.212Z</time></trkpt><trkpt lat="43.9742815" lon="12.5080562"><ele>132.4</ele><time>2026-04-09T14:04:54.226Z</time></trkpt><trkpt lat="43.9742382" lon="12.5081352"><ele>131.6</ele><time>2026-04-09T14:04:55.216Z</time></trkpt><trkpt lat="43.9741645" lon="12.5082556"><ele>130.8</ele><time>2026-04-09T14:04:57.22Z</time></trkpt><trkpt lat="43.9740791" lon="12.508362"><ele>130.0</ele><time>2026-04-09T14:04:59.221Z</time></trkpt><trkpt lat="43.9740003" lon="12.5084515"><ele>131.71428571428572</ele><time>2026-04-09T14:05:01.214Z</time></trkpt><trkpt lat="43.9739269" lon="12.5085346"><ele>133.42857142857144</ele><time>2026-04-09T14:05:03.216Z</time></trkpt><trkpt lat="43.9738709" lon="12.5086045"><ele>135.14285714285714</ele><time>2026-04-09T14:05:05.22Z</time></trkpt><trkpt lat="43.9738142" lon="12.5086707"><ele>136.85714285714286</ele><time>2026-04-09T14:05:07.232Z</time></trkpt><trkpt lat="43.9737603" lon="12.5087257"><ele>138.57142857142856</ele><time>2026-04-09T14:05:09.204Z</time></trkpt><trkpt lat="43.9737095" lon="12.5087812"><ele>140.28571428571428</ele><time>2026-04-09T14:05:11.191Z</time></trkpt><trkpt lat="43.9736591" lon="12.5088434"><ele>142.0</ele><time>2026-04-09T14:05:13.196Z</time></trkpt><trkpt lat="43.973609" lon="12.5089072"><ele>142.33333333333334</ele><time>2026-04-09T14:05:15.211Z</time></trkpt><trkpt lat="43.9735424" lon="12.5089898"><ele>142.66666666666669</ele><time>2026-04-09T14:05:18.187Z</time></trkpt><trkpt lat="43.9734767" lon="12.5090759"><ele>143.0</ele><time>2026-04-09T14:05:21.213Z</time></trkpt><trkpt lat="43.9734148" lon="12.5091458"><ele>143.33333333333334</ele><time>2026-04-09T14:05:24.206Z</time></trkpt><trkpt lat="43.9733605" lon="12.5092227"><ele>143.66666666666666</ele><time>2026-04-09T14:05:27.198Z</time></trkpt><trkpt lat="43.9733025" lon="12.5092842"><ele>144.0</ele><time>2026-04-09T14:05:30.204Z</time></trkpt><trkpt lat="43.973243" lon="12.5093546"><ele>145.2857142857143</ele><time>2026-04-09T14:05:33.205Z</time></trkpt><trkpt lat="43.9731885" lon="12.5094212"><ele>146.57142857142858</ele><time>2026-04-09T14:05:36.21Z</time></trkpt><trkpt lat="43.9731302" lon="12.5094832"><ele>147.85714285714286</ele><time>2026-04-09T14:05:39.187Z</time></trkpt><trkpt lat="43.9730788" lon="12.5095455"><ele>149.14285714285717</ele><time>2026-04-09T14:05:42.235Z</time></trkpt><trkpt lat="43.9730216" lon="12.5096084"><ele>150.42857142857144</ele><time>2026-04-09T14:05:45.196Z</time></trkpt><trkpt lat="43.9729594" lon="12.5096741"><ele>151.71428571428572</ele><time>2026-04-09T14:05:48.198Z</time></trkpt><trkpt lat="43.972904" lon="12.5097432"><ele>153.0</ele><time>2026-04-09T14:05:51.23Z</time></trkpt><trkpt lat="43.9728481" lon="12.5097967"><ele>153.16666666666666</ele><time>2026-04-09T14:05:54.207Z</time></trkpt><trkpt lat="43.9727835" lon="12.5098721"><ele>153.33333333333334</ele><time>2026-04-09T14:05:57.203Z</time></trkpt><trkpt lat="43.9727391" lon="12.5099415"><ele>153.5</ele><time>2026-04-09T14:06:00.223Z</time></trkpt><trkpt lat="43.9726849" lon="12.5100074"><ele>153.66666666666669</ele><time>2026-04-09T14:06:03.178Z</time></trkpt><trkpt lat="43.9726279" lon="12.5100896"><ele>153.83333333333334</ele><time>2026-04-09T14:06:06.176Z</time></trkpt><trkpt lat="43.972567" lon="12.5101588"><ele>154.0</ele><time>2026-04-09T14:06:09.173Z</time></trkpt><trkpt lat="43.9725166" lon="12.5102191"><ele>155.83333333333334</ele><time>2026-04-09T14:06:12.213Z</time></trkpt><trkpt lat="43.9724612" lon="12.5102914"><ele>157.66666666666669</ele><time>2026-04-09T14:06:15.211Z</time></trkpt><trkpt lat="43.9724068" lon="12.5103644"><ele>159.5</ele><time>2026-04-09T14:06:18.21Z</time></trkpt><trkpt lat="43.9723424" lon="12.510431"><ele>161.33333333333334</ele><time>2026-04-09T14:06:21.22Z</time></trkpt><trkpt lat="43.9722752" lon="12.5105074"><ele>163.16666666666666</ele><time>2026-04-09T14:06:24.203Z</time></trkpt><trkpt lat="43.9722182" lon="12.5105945"><ele>165.0</ele><time>2026-04-09T14:06:27.195Z</time></trkpt><trkpt lat="43.9721576" lon="12.5106961"><ele>165.33333333333334</ele><time>2026-04-09T14:06:30.2Z</time></trkpt><trkpt lat="43.9721294" lon="12.5107884"><ele>165.66666666666666</ele><time>2026-04-09T14:06:32.201Z</time></trkpt><trkpt lat="43.9720992" lon="12.5108961"><ele>166.0</ele><time>2026-04-09T14:06:34.182Z</time></trkpt><trkpt lat="43.9720776" lon="12.511008"><ele>166.33333333333331</ele><time>2026-04-09T14:06:36.204Z</time></trkpt><trkpt lat="43.9720718" lon="12.5111207"><ele>166.66666666666666</ele><time>2026-04-09T14:06:38.195Z</time></trkpt><trkpt lat="43.9720729" lon="12.5112326"><ele>167.0</ele><time>2026-04-09T14:06:40.198Z</time></trkpt><trkpt lat="43.9720828" lon="12.5113618"><ele>166.8</ele><time>2026-04-09T14:06:42.216Z</time></trkpt><trkpt lat="43.9720983" lon="12.511505"><ele>166.6</ele><time>2026-04-09T14:06:44.218Z</time></trkpt><trkpt lat="43.9721136" lon="12.5116691"><ele>166.4</ele><time>2026-04-09T14:06:46.196Z</time></trkpt><trkpt lat="43.9721231" lon="12.5118434"><ele>166.20000000000002</ele><time>2026-04-09T14:06:48.215Z</time></trkpt><trkpt lat="43.9721253" lon="12.5119337"><ele>166.0</ele><time>2026-04-09T14:06:49.225Z</time></trkpt><trkpt lat="43.9721183" lon="12.5120979"><ele>166.0</ele><time>2026-04-09T14:06:51.236Z</time></trkpt><trkpt lat="43.972109" lon="12.5122311"><ele>166.0</ele><time>2026-04-09T14:06:53.175Z</time></trkpt><trkpt lat="43.9721005" lon="12.5123355"><ele>166.0</ele><time>2026-04-09T14:06:55.234Z</time></trkpt><trkpt lat="43.9720799" lon="12.5124618"><ele>166.0</ele><time>2026-04-09T14:06:58.207Z</time></trkpt><trkpt lat="43.9720579" lon="12.512588"><ele>166.0</ele><time>2026-04-09T14:07:01.19Z</time></trkpt><trkpt lat="43.9720411" lon="12.5127125"><ele>166.0</ele><time>2026-04-09T14:07:04.217Z</time></trkpt><trkpt lat="43.9720141" lon="12.51283"><ele>166.0</ele><time>2026-04-09T14:07:07.211Z</time></trkpt><trkpt lat="43.9719911" lon="12.5129469"><ele>166.0</ele><time>2026-04-09T14:07:10.157Z</time></trkpt><trkpt lat="43.971967" lon="12.5130634"><ele>166.0</ele><time>2026-04-09T14:07:13.159Z</time></trkpt><trkpt lat="43.9719453" lon="12.5131819"><ele>166.0</ele><time>2026-04-09T14:07:16.156Z</time></trkpt><trkpt lat="43.9719154" lon="12.5132913"><ele>166.0</ele><time>2026-04-09T14:07:19.186Z</time></trkpt><trkpt lat="43.9718727" lon="12.5133993"><ele>167.20000000000002</ele><time>2026-04-09T14:07:22.206Z</time></trkpt><trkpt lat="43.9717952" lon="12.5134976"><ele>168.4</ele><time>2026-04-09T14:07:25.168Z</time></trkpt><trkpt lat="43.9717094" lon="12.5135773"><ele>169.6</ele><time>2026-04-09T14:07:27.211Z</time></trkpt><trkpt lat="43.9716198" lon="12.5136581"><ele>170.8</ele><time>2026-04-09T14:07:29.192Z</time></trkpt><trkpt lat="43.9715325" lon="12.5137497"><ele>172.0</ele><time>2026-04-09T14:07:31.226Z</time></trkpt><trkpt lat="43.9714369" lon="12.5138421"><ele>172.0</ele><time>2026-04-09T14:07:33.23Z</time></trkpt><trkpt lat="43.9713297" lon="12.5138983"><ele>172.0</ele><time>2026-04-09T14:07:35.161Z</time></trkpt><trkpt lat="43.9712198" lon="12.5138365"><ele>172.0</ele><time>2026-04-09T14:07:37.218Z</time></trkpt><trkpt lat="43.9711356" lon="12.5137669"><ele>172.0</ele><time>2026-04-09T14:07:39.225Z</time></trkpt><trkpt lat="43.9710506" lon="12.513711"><ele>172.0</ele><time>2026-04-09T14:07:41.207Z</time></trkpt><trkpt lat="43.9709836" lon="12.5136605"><ele>172.66666666666669</ele><time>2026-04-09T14:07:43.22Z</time></trkpt><trkpt lat="43.9709129" lon="12.5136167"><ele>173.33333333333334</ele><time>2026-04-09T14:07:45.195Z</time></trkpt><trkpt lat="43.9708458" lon="12.5135764"><ele>174.0</ele><time>2026-04-09T14:07:47.209Z</time></trkpt><trkpt lat="43.9707883" lon="12.5135367"><ele>174.66666666666666</ele><time>2026-04-09T14:07:49.206Z</time></trkpt><trkpt lat="43.9707084" lon="12.5134793"><ele>175.33333333333331</ele><time>2026-04-09T14:07:52.231Z</time></trkpt><trkpt lat="43.9706288" lon="12.5134154"><ele>176.0</ele><time>2026-04-09T14:07:55.223Z</time></trkpt><trkpt lat="43.9705488" lon="12.5133586"><ele>176.5</ele><time>2026-04-09T14:07:58.224Z</time></trkpt><trkpt lat="43.9704627" lon="12.5133168"><ele>177.0</ele><time>2026-04-09T14:08:01.179Z</time></trkpt><trkpt lat="43.9703762" lon="12.5132847"><ele>177.5</ele><time>2026-04-09T14:08:04.224Z</time></trkpt><trkpt lat="43.9702932" lon="12.5132484"><ele>178.0</ele><time>2026-04-09T14:08:07.211Z</time></trkpt><trkpt lat="43.9702082" lon="12.5132075"><ele>178.5</ele><time>2026-04-09T14:08:10.228Z</time></trkpt><trkpt lat="43.9701445" lon="12.5131848"><ele>179.0</ele><time>2026-04-09T14:08:12.22Z</time></trkpt><trkpt lat="43.9700855" lon="12.5131499"><ele>179.66666666666666</ele><time>2026-04-09T14:08:14.234Z</time></trkpt><trkpt lat="43.9699996" lon="12.5131028"><ele>180.33333333333331</ele><time>2026-04-09T14:08:17.215Z</time></trkpt><trkpt lat="43.96994" lon="12.5130741"><ele>181.0</ele><time>2026-04-09T14:08:19.215Z</time></trkpt><trkpt lat="43.9698797" lon="12.5130399"><ele>181.66666666666666</ele><time>2026-04-09T14:08:21.216Z</time></trkpt><trkpt lat="43.9698023" lon="12.5129841"><ele>182.33333333333334</ele><time>2026-04-09T14:08:24.18Z</time></trkpt><trkpt lat="43.9697158" lon="12.5129451"><ele>183.0</ele><time>2026-04-09T14:08:27.226Z</time></trkpt><trkpt lat="43.9696551" lon="12.5129101"><ele>184.0</ele><time>2026-04-09T14:08:29.226Z</time></trkpt><trkpt lat="43.9695702" lon="12.512861"><ele>185.0</ele><time>2026-04-09T14:08:32.211Z</time></trkpt><trkpt lat="43.9695065" lon="12.5128303"><ele>186.0</ele><time>2026-04-09T14:08:34.205Z</time></trkpt><trkpt lat="43.9694131" lon="12.5127877"><ele>187.0</ele><time>2026-04-09T14:08:37.221Z</time></trkpt><trkpt lat="43.9693435" lon="12.5127539"><ele>188.0</ele><time>2026-04-09T14:08:39.217Z</time></trkpt><trkpt lat="43.9692584" lon="12.5127114"><ele>189.0</ele><time>2026-04-09T14:08:42.221Z</time></trkpt><trkpt lat="43.9691686" lon="12.5126646"><ele>189.57142857142858</ele><time>2026-04-09T14:08:45.2Z</time></trkpt><trkpt lat="43.969105" lon="12.5126381"><ele>190.14285714285714</ele><time>2026-04-09T14:08:47.217Z</time></trkpt><trkpt lat="43.9690447" lon="12.5126045"><ele>190.71428571428572</ele><time>2026-04-09T14:08:49.2Z</time></trkpt><trkpt lat="43.9689824" lon="12.5125748"><ele>191.28571428571428</ele><time>2026-04-09T14:08:51.222Z</time></trkpt><trkpt lat="43.9689231" lon="12.5125434"><ele>191.85714285714286</ele><time>2026-04-09T14:08:53.23Z</time></trkpt><trkpt lat="43.968855" lon="12.5125142"><ele>192.42857142857144</ele><time>2026-04-09T14:08:55.222Z</time></trkpt><trkpt lat="43.9687867" lon="12.5124817"><ele>193.0</ele><time>2026-04-09T14:08:57.227Z</time></trkpt><trkpt lat="43.9687212" lon="12.512448"><ele>192.99999999999997</ele><time>2026-04-09T14:08:59.231Z</time></trkpt><trkpt lat="43.9686535" lon="12.5124046"><ele>193.0</ele><time>2026-04-09T14:09:01.224Z</time></trkpt><trkpt lat="43.968593" lon="12.5123666"><ele>193.0</ele><time>2026-04-09T14:09:03.222Z</time></trkpt><trkpt lat="43.9685267" lon="12.512328"><ele>193.0</ele><time>2026-04-09T14:09:05.201Z</time></trkpt><trkpt lat="43.9684515" lon="12.5122965"><ele>192.99999999999997</ele><time>2026-04-09T14:09:07.23Z</time></trkpt><trkpt lat="43.9683748" lon="12.5122506"><ele>193.0</ele><time>2026-04-09T14:09:09.208Z</time></trkpt><trkpt lat="43.9683036" lon="12.5122119"><ele>193.33333333333331</ele><time>2026-04-09T14:09:11.214Z</time></trkpt><trkpt lat="43.968236" lon="12.5121701"><ele>193.66666666666666</ele><time>2026-04-09T14:09:13.224Z</time></trkpt><trkpt lat="43.9681632" lon="12.5121306"><ele>194.0</ele><time>2026-04-09T14:09:15.221Z</time></trkpt><trkpt lat="43.9680868" lon="12.5121003"><ele>194.33333333333331</ele><time>2026-04-09T14:09:17.199Z</time></trkpt><trkpt lat="43.9680165" lon="12.5120643"><ele>194.66666666666666</ele><time>2026-04-09T14:09:19.214Z</time></trkpt><trkpt lat="43.9679426" lon="12.512023"><ele>195.0</ele><time>2026-04-09T14:09:21.228Z</time></trkpt><trkpt lat="43.9678643" lon="12.5119898"><ele>196.0</ele><time>2026-04-09T14:09:23.217Z</time></trkpt><trkpt lat="43.9677844" lon="12.5119451"><ele>197.0</ele><time>2026-04-09T14:09:25.227Z</time></trkpt><trkpt lat="43.9677048" lon="12.5119027"><ele>198.0</ele><time>2026-04-09T14:09:27.225Z</time></trkpt><trkpt lat="43.9676352" lon="12.511863"><ele>199.0</ele><time>2026-04-09T14:09:29.232Z</time></trkpt><trkpt lat="43.9675605" lon="12.5118337"><ele>200.0</ele><time>2026-04-09T14:09:31.225Z</time></trkpt><trkpt lat="43.96749" lon="12.511803"><ele>201.0</ele><time>2026-04-09T14:09:33.243Z</time></trkpt><trkpt lat="43.967421" lon="12.5117596"><ele>201.7142857142857</ele><time>2026-04-09T14:09:35.215Z</time></trkpt><trkpt lat="43.9673432" lon="12.5117197"><ele>202.42857142857144</ele><time>2026-04-09T14:09:37.194Z</time></trkpt><trkpt lat="43.967272" lon="12.5116969"><ele>203.14285714285714</ele><time>2026-04-09T14:09:39.206Z</time></trkpt><trkpt lat="43.9672017" lon="12.5116673"><ele>203.85714285714283</ele><time>2026-04-09T14:09:41.225Z</time></trkpt><trkpt lat="43.9671288" lon="12.5116405"><ele>204.57142857142856</ele><time>2026-04-09T14:09:43.191Z</time></trkpt><trkpt lat="43.9670575" lon="12.5116182"><ele>205.28571428571428</ele><time>2026-04-09T14:09:45.204Z</time></trkpt><trkpt lat="43.9669897" lon="12.5115926"><ele>206.0</ele><time>2026-04-09T14:09:47.224Z</time></trkpt><trkpt lat="43.9669205" lon="12.5115659"><ele>206.00000000000003</ele><time>2026-04-09T14:09:49.213Z</time></trkpt><trkpt lat="43.9668494" lon="12.5115414"><ele>206.0</ele><time>2026-04-09T14:09:51.207Z</time></trkpt><trkpt lat="43.9667827" lon="12.5115115"><ele>206.0</ele><time>2026-04-09T14:09:53.225Z</time></trkpt><trkpt lat="43.9667156" lon="12.5114774"><ele>206.0</ele><time>2026-04-09T14:09:55.199Z</time></trkpt><trkpt lat="43.9666363" lon="12.5114463"><ele>206.00000000000003</ele><time>2026-04-09T14:09:57.226Z</time></trkpt><trkpt lat="43.9665573" lon="12.5114127"><ele>206.0</ele><time>2026-04-09T14:09:59.193Z</time></trkpt><trkpt lat="43.9664799" lon="12.5113955"><ele>206.50000000000003</ele><time>2026-04-09T14:10:01.229Z</time></trkpt><trkpt lat="43.9664043" lon="12.5113728"><ele>207.0</ele><time>2026-04-09T14:10:03.216Z</time></trkpt><trkpt lat="43.9663228" lon="12.5113473"><ele>207.5</ele><time>2026-04-09T14:10:05.223Z</time></trkpt><trkpt lat="43.96625" lon="12.5113239"><ele>208.0</ele><time>2026-04-09T14:10:07.203Z</time></trkpt><trkpt lat="43.966179" lon="12.5112921"><ele>208.50000000000003</ele><time>2026-04-09T14:10:09.231Z</time></trkpt><trkpt lat="43.9661038" lon="12.5112629"><ele>209.0</ele><time>2026-04-09T14:10:11.208Z</time></trkpt><trkpt lat="43.966032" lon="12.5112425"><ele>210.00000000000003</ele><time>2026-04-09T14:10:13.223Z</time></trkpt><trkpt lat="43.9659565" lon="12.5112094"><ele>211.0</ele><time>2026-04-09T14:10:15.225Z</time></trkpt><trkpt lat="43.9658838" lon="12.5111831"><ele>212.0</ele><time>2026-04-09T14:10:17.211Z</time></trkpt><trkpt lat="43.9658068" lon="12.5111465"><ele>213.0</ele><time>2026-04-09T14:10:19.223Z</time></trkpt><trkpt lat="43.9657326" lon="12.5111171"><ele>214.00000000000003</ele><time>2026-04-09T14:10:21.211Z</time></trkpt><trkpt lat="43.9656552" lon="12.5110878"><ele>215.0</ele><time>2026-04-09T14:10:23.242Z</time></trkpt><trkpt lat="43.9655778" lon="12.5110557"><ele>215.00000000000003</ele><time>2026-04-09T14:10:25.228Z</time></trkpt><trkpt lat="43.9655011" lon="12.5110279"><ele>215.0</ele><time>2026-04-09T14:10:27.181Z</time></trkpt><trkpt lat="43.9654321" lon="12.5109957"><ele>215.0</ele><time>2026-04-09T14:10:29.208Z</time></trkpt><trkpt lat="43.9653613" lon="12.5109645"><ele>215.0</ele><time>2026-04-09T14:10:31.221Z</time></trkpt><trkpt lat="43.9652824" lon="12.5109329"><ele>215.00000000000003</ele><time>2026-04-09T14:10:33.223Z</time></trkpt><trkpt lat="43.9652096" lon="12.5109059"><ele>215.0</ele><time>2026-04-09T14:10:35.227Z</time></trkpt><trkpt lat="43.9651368" lon="12.5108744"><ele>215.0</ele><time>2026-04-09T14:10:37.206Z</time></trkpt><trkpt lat="43.9650684" lon="12.5108382"><ele>215.0</ele><time>2026-04-09T14:10:39.229Z</time></trkpt><trkpt lat="43.964996" lon="12.5107977"><ele>215.0</ele><time>2026-04-09T14:10:41.225Z</time></trkpt><trkpt lat="43.9649314" lon="12.5107651"><ele>215.0</ele><time>2026-04-09T14:10:43.211Z</time></trkpt><trkpt lat="43.9648642" lon="12.5107425"><ele>215.0</ele><time>2026-04-09T14:10:45.2Z</time></trkpt><trkpt lat="43.9647914" lon="12.5107091"><ele>215.0</ele><time>2026-04-09T14:10:47.234Z</time></trkpt><trkpt lat="43.9647137" lon="12.5106778"><ele>215.0</ele><time>2026-04-09T14:10:49.216Z</time></trkpt><trkpt lat="43.9646395" lon="12.5106475"><ele>215.7142857142857</ele><time>2026-04-09T14:10:51.203Z</time></trkpt><trkpt lat="43.9645677" lon="12.5106283"><ele>216.42857142857144</ele><time>2026-04-09T14:10:53.22Z</time></trkpt><trkpt lat="43.9644952" lon="12.5105992"><ele>217.14285714285714</ele><time>2026-04-09T14:10:55.219Z</time></trkpt><trkpt lat="43.9644171" lon="12.5105608"><ele>217.85714285714283</ele><time>2026-04-09T14:10:57.219Z</time></trkpt><trkpt lat="43.9643528" lon="12.5105364"><ele>218.57142857142856</ele><time>2026-04-09T14:10:59.181Z</time></trkpt><trkpt lat="43.9642924" lon="12.5105044"><ele>219.28571428571428</ele><time>2026-04-09T14:11:01.215Z</time></trkpt><trkpt lat="43.964225" lon="12.5104816"><ele>220.0</ele><time>2026-04-09T14:11:03.227Z</time></trkpt><trkpt lat="43.9641529" lon="12.5104626"><ele>220.33333333333331</ele><time>2026-04-09T14:11:05.229Z</time></trkpt><trkpt lat="43.9640766" lon="12.5104398"><ele>220.66666666666666</ele><time>2026-04-09T14:11:07.22Z</time></trkpt><trkpt lat="43.9640025" lon="12.5104144"><ele>221.0</ele><time>2026-04-09T14:11:09.22Z</time></trkpt><trkpt lat="43.9639303" lon="12.5103878"><ele>221.33333333333331</ele><time>2026-04-09T14:11:11.225Z</time></trkpt><trkpt lat="43.9638608" lon="12.5103579"><ele>221.66666666666666</ele><time>2026-04-09T14:11:13.215Z</time></trkpt><trkpt lat="43.9637847" lon="12.5103274"><ele>222.0</ele><time>2026-04-09T14:11:15.234Z</time></trkpt><trkpt lat="43.9637074" lon="12.5103058"><ele>222.83333333333334</ele><time>2026-04-09T14:11:17.223Z</time></trkpt><trkpt lat="43.9636317" lon="12.5102776"><ele>223.66666666666669</ele><time>2026-04-09T14:11:19.203Z</time></trkpt><trkpt lat="43.9635578" lon="12.5102465"><ele>224.5</ele><time>2026-04-09T14:11:21.232Z</time></trkpt><trkpt lat="43.9634863" lon="12.5102203"><ele>225.33333333333334</ele><time>2026-04-09T14:11:23.211Z</time></trkpt><trkpt lat="43.9634118" lon="12.5101859"><ele>226.16666666666669</ele><time>2026-04-09T14:11:25.214Z</time></trkpt><trkpt lat="43.9633355" lon="12.510153"><ele>227.0</ele><time>2026-04-09T14:11:27.233Z</time></trkpt><trkpt lat="43.9632582" lon="12.5101261"><ele>227.33333333333334</ele><time>2026-04-09T14:11:29.228Z</time></trkpt><trkpt lat="43.9631807" lon="12.5101014"><ele>227.66666666666669</ele><time>2026-04-09T14:11:31.218Z</time></trkpt><trkpt lat="43.9631091" lon="12.5100705"><ele>228.0</ele><time>2026-04-09T14:11:33.241Z</time></trkpt><trkpt lat="43.9630371" lon="12.5100518"><ele>228.33333333333331</ele><time>2026-04-09T14:11:35.227Z</time></trkpt><trkpt lat="43.9629655" lon="12.510041"><ele>228.66666666666666</ele><time>2026-04-09T14:11:37.197Z</time></trkpt><trkpt lat="43.9628883" lon="12.5100461"><ele>229.0</ele><time>2026-04-09T14:11:39.239Z</time></trkpt><trkpt lat="43.9628119" lon="12.5100742"><ele>229.0</ele><time>2026-04-09T14:11:41.204Z</time></trkpt><trkpt lat="43.9627309" lon="12.5101104"><ele>228.99999999999997</ele><time>2026-04-09T14:11:43.223Z</time></trkpt><trkpt lat="43.9626437" lon="12.5101702"><ele>228.99999999999997</ele><time>2026-04-09T14:11:45.24Z</time></trkpt><trkpt lat="43.9625612" lon="12.5102391"><ele>229.0</ele><time>2026-04-09T14:11:47.171Z</time></trkpt><trkpt lat="43.9624724" lon="12.5103067"><ele>229.0</ele><time>2026-04-09T14:11:49.188Z</time></trkpt><trkpt lat="43.9623845" lon="12.51039"><ele>228.39999999999998</ele><time>2026-04-09T14:11:51.167Z</time></trkpt><trkpt lat="43.9622859" lon="12.5104695"><ele>227.79999999999998</ele><time>2026-04-09T14:11:53.176Z</time></trkpt><trkpt lat="43.9621929" lon="12.5105448"><ele>227.20000000000002</ele><time>2026-04-09T14:11:55.161Z</time></trkpt><trkpt lat="43.9620938" lon="12.5106223"><ele>226.60000000000002</ele><time>2026-04-09T14:11:57.162Z</time></trkpt><trkpt lat="43.9620025" lon="12.5107133"><ele>226.0</ele><time>2026-04-09T14:11:59.158Z</time></trkpt><trkpt lat="43.9619114" lon="12.5107994"><ele>225.99999999999997</ele><time>2026-04-09T14:12:01.162Z</time></trkpt><trkpt lat="43.9618114" lon="12.5108979"><ele>226.0</ele><time>2026-04-09T14:12:03.159Z</time></trkpt><trkpt lat="43.9617592" lon="12.5109469"><ele>226.0</ele><time>2026-04-09T14:12:04.161Z</time></trkpt><trkpt lat="43.9617075" lon="12.5110005"><ele>226.0</ele><time>2026-04-09T14:12:05.159Z</time></trkpt><trkpt lat="43.9616055" lon="12.5110999"><ele>225.99999999999997</ele><time>2026-04-09T14:12:07.16Z</time></trkpt><trkpt lat="43.9615523" lon="12.5111587"><ele>226.0</ele><time>2026-04-09T14:12:08.161Z</time></trkpt><trkpt lat="43.9614956" lon="12.5112135"><ele>225.2857142857143</ele><time>2026-04-09T14:12:09.155Z</time></trkpt><trkpt lat="43.9614335" lon="12.5112655"><ele>224.57142857142856</ele><time>2026-04-09T14:12:10.159Z</time></trkpt><trkpt lat="43.9613765" lon="12.511324"><ele>223.85714285714286</ele><time>2026-04-09T14:12:11.157Z</time></trkpt><trkpt lat="43.9613252" lon="12.5113826"><ele>223.14285714285717</ele><time>2026-04-09T14:12:12.158Z</time></trkpt><trkpt lat="43.9612651" lon="12.5114452"><ele>222.42857142857144</ele><time>2026-04-09T14:12:13.172Z</time></trkpt><trkpt lat="43.9612079" lon="12.5115098"><ele>221.71428571428572</ele><time>2026-04-09T14:12:14.188Z</time></trkpt><trkpt lat="43.9611489" lon="12.5115706"><ele>221.0</ele><time>2026-04-09T14:12:15.214Z</time></trkpt><trkpt lat="43.9610858" lon="12.5116333"><ele>221.00000000000003</ele><time>2026-04-09T14:12:16.201Z</time></trkpt><trkpt lat="43.9610248" lon="12.5116977"><ele>221.0</ele><time>2026-04-09T14:12:17.178Z</time></trkpt><trkpt lat="43.9609642" lon="12.5117597"><ele>221.0</ele><time>2026-04-09T14:12:18.217Z</time></trkpt><trkpt lat="43.9609034" lon="12.5118174"><ele>221.0</ele><time>2026-04-09T14:12:19.171Z</time></trkpt><trkpt lat="43.9608452" lon="12.5118774"><ele>221.0</ele><time>2026-04-09T14:12:20.157Z</time></trkpt><trkpt lat="43.9607921" lon="12.5119315"><ele>221.00000000000003</ele><time>2026-04-09T14:12:21.157Z</time></trkpt><trkpt lat="43.9607421" lon="12.5119915"><ele>221.0</ele><time>2026-04-09T14:12:22.197Z</time></trkpt><trkpt lat="43.9606917" lon="12.5120541"><ele>221.42857142857144</ele><time>2026-04-09T14:12:23.177Z</time></trkpt><trkpt lat="43.9606462" lon="12.512122"><ele>221.85714285714286</ele><time>2026-04-09T14:12:24.203Z</time></trkpt><trkpt lat="43.9606048" lon="12.5121955"><ele>222.28571428571428</ele><time>2026-04-09T14:12:25.205Z</time></trkpt><trkpt lat="43.9605706" lon="12.5122772"><ele>222.71428571428572</ele><time>2026-04-09T14:12:26.186Z</time></trkpt><trkpt lat="43.9605399" lon="12.5123673"><ele>223.14285714285714</ele><time>2026-04-09T14:12:27.189Z</time></trkpt><trkpt lat="43.9605143" lon="12.5124576"><ele>223.57142857142858</ele><time>2026-04-09T14:12:28.217Z</time></trkpt><trkpt lat="43.9604845" lon="12.5125488"><ele>224.0</ele><time>2026-04-09T14:12:29.21Z</time></trkpt><trkpt lat="43.9604538" lon="12.5126346"><ele>224.00000000000003</ele><time>2026-04-09T14:12:30.234Z</time></trkpt><trkpt lat="43.9604264" lon="12.5127154"><ele>224.0</ele><time>2026-04-09T14:12:31.188Z</time></trkpt><trkpt lat="43.960395" lon="12.5127971"><ele>224.0</ele><time>2026-04-09T14:12:32.229Z</time></trkpt><trkpt lat="43.9603624" lon="12.5128817"><ele>224.0</ele><time>2026-04-09T14:12:33.16Z</time></trkpt><trkpt lat="43.9603318" lon="12.5129651"><ele>224.00000000000003</ele><time>2026-04-09T14:12:34.2Z</time></trkpt><trkpt lat="43.9602687" lon="12.5131269"><ele>224.0</ele><time>2026-04-09T14:12:36.21Z</time></trkpt><trkpt lat="43.9602341" lon="12.5132079"><ele>224.0</ele><time>2026-04-09T14:12:37.224Z</time></trkpt><trkpt lat="43.9602016" lon="12.513293"><ele>224.0</ele><time>2026-04-09T14:12:38.248Z</time></trkpt><trkpt lat="43.9601711" lon="12.5133832"><ele>224.0</ele><time>2026-04-09T14:12:39.173Z</time></trkpt><trkpt lat="43.9601381" lon="12.5134728"><ele>224.0</ele><time>2026-04-09T14:12:40.221Z</time></trkpt><trkpt lat="43.9601053" lon="12.5135597"><ele>224.0</ele><time>2026-04-09T14:12:41.183Z</time></trkpt><trkpt lat="43.9600783" lon="12.5136445"><ele>224.0</ele><time>2026-04-09T14:12:42.222Z</time></trkpt><trkpt lat="43.9600471" lon="12.5137327"><ele>224.0</ele><time>2026-04-09T14:12:43.235Z</time></trkpt><trkpt lat="43.960019" lon="12.5138176"><ele>224.0</ele><time>2026-04-09T14:12:44.215Z</time></trkpt><trkpt lat="43.9599934" lon="12.5139097"><ele>224.0</ele><time>2026-04-09T14:12:45.187Z</time></trkpt><trkpt lat="43.959972" lon="12.5140016"><ele>224.0</ele><time>2026-04-09T14:12:46.197Z</time></trkpt><trkpt lat="43.9599555" lon="12.5140938"><ele>224.0</ele><time>2026-04-09T14:12:47.217Z</time></trkpt><trkpt lat="43.9599399" lon="12.5141872"><ele>224.0</ele><time>2026-04-09T14:12:48.217Z</time></trkpt><trkpt lat="43.9599289" lon="12.51429"><ele>224.0</ele><time>2026-04-09T14:12:49.222Z</time></trkpt><trkpt lat="43.9599209" lon="12.5143963"><ele>224.0</ele><time>2026-04-09T14:12:50.23Z</time></trkpt><trkpt lat="43.9599104" lon="12.5145114"><ele>223.66666666666669</ele><time>2026-04-09T14:12:51.228Z</time></trkpt><trkpt lat="43.9599002" lon="12.5146223"><ele>223.33333333333334</ele><time>2026-04-09T14:12:52.226Z</time></trkpt><trkpt lat="43.9598907" lon="12.5147361"><ele>223.0</ele><time>2026-04-09T14:12:53.2Z</time></trkpt><trkpt lat="43.9598847" lon="12.5148442"><ele>222.66666666666669</ele><time>2026-04-09T14:12:54.236Z</time></trkpt><trkpt lat="43.9598768" lon="12.5149581"><ele>222.33333333333334</ele><time>2026-04-09T14:12:55.221Z</time></trkpt><trkpt lat="43.9598628" lon="12.5150798"><ele>222.0</ele><time>2026-04-09T14:12:56.241Z</time></trkpt><trkpt lat="43.9598498" lon="12.5152017"><ele>222.0</ele><time>2026-04-09T14:12:57.243Z</time></trkpt><trkpt lat="43.9598303" lon="12.5153241"><ele>222.0</ele><time>2026-04-09T14:12:58.185Z</time></trkpt><trkpt lat="43.9598097" lon="12.5154401"><ele>222.0</ele><time>2026-04-09T14:12:59.217Z</time></trkpt><trkpt lat="43.9597886" lon="12.5155542"><ele>222.0</ele><time>2026-04-09T14:13:00.236Z</time></trkpt><trkpt lat="43.959767" lon="12.5156665"><ele>222.0</ele><time>2026-04-09T14:13:01.192Z</time></trkpt><trkpt lat="43.9597429" lon="12.5157827"><ele>222.0</ele><time>2026-04-09T14:13:02.237Z</time></trkpt><trkpt lat="43.9597196" lon="12.5158981"><ele>221.5</ele><time>2026-04-09T14:13:03.177Z</time></trkpt><trkpt lat="43.9596924" lon="12.5159998"><ele>221.0</ele><time>2026-04-09T14:13:04.211Z</time></trkpt><trkpt lat="43.9596698" lon="12.5161023"><ele>220.5</ele><time>2026-04-09T14:13:05.183Z</time></trkpt><trkpt lat="43.9596497" lon="12.5162085"><ele>220.0</ele><time>2026-04-09T14:13:06.225Z</time></trkpt><trkpt lat="43.9596305" lon="12.516308"><ele>219.5</ele><time>2026-04-09T14:13:07.228Z</time></trkpt><trkpt lat="43.9596115" lon="12.5164128"><ele>219.0</ele><time>2026-04-09T14:13:08.227Z</time></trkpt><trkpt lat="43.9595881" lon="12.5165161"><ele>218.57142857142858</ele><time>2026-04-09T14:13:09.229Z</time></trkpt><trkpt lat="43.9595648" lon="12.516608"><ele>218.14285714285714</ele><time>2026-04-09T14:13:10.218Z</time></trkpt><trkpt lat="43.9595424" lon="12.5167009"><ele>217.71428571428572</ele><time>2026-04-09T14:13:11.203Z</time></trkpt><trkpt lat="43.9595211" lon="12.5167932"><ele>217.28571428571428</ele><time>2026-04-09T14:13:12.227Z</time></trkpt><trkpt lat="43.9594977" lon="12.516888"><ele>216.85714285714283</ele><time>2026-04-09T14:13:13.261Z</time></trkpt><trkpt lat="43.9594757" lon="12.5169815"><ele>216.42857142857142</ele><time>2026-04-09T14:13:14.228Z</time></trkpt><trkpt lat="43.9594543" lon="12.5170774"><ele>216.0</ele><time>2026-04-09T14:13:15.159Z</time></trkpt><trkpt lat="43.9594324" lon="12.5171729"><ele>215.28571428571428</ele><time>2026-04-09T14:13:16.169Z</time></trkpt><trkpt lat="43.9594084" lon="12.5172682"><ele>214.57142857142856</ele><time>2026-04-09T14:13:17.16Z</time></trkpt><trkpt lat="43.9593839" lon="12.5173634"><ele>213.85714285714286</ele><time>2026-04-09T14:13:18.22Z</time></trkpt><trkpt lat="43.9593634" lon="12.5174589"><ele>213.14285714285714</ele><time>2026-04-09T14:13:19.23Z</time></trkpt><trkpt lat="43.9593397" lon="12.5175538"><ele>212.42857142857144</ele><time>2026-04-09T14:13:20.196Z</time></trkpt><trkpt lat="43.9593152" lon="12.5176512"><ele>211.71428571428572</ele><time>2026-04-09T14:13:21.184Z</time></trkpt><trkpt lat="43.9592911" lon="12.5177505"><ele>211.0</ele><time>2026-04-09T14:13:22.199Z</time></trkpt><trkpt lat="43.9592703" lon="12.5178455"><ele>210.42857142857144</ele><time>2026-04-09T14:13:23.2Z</time></trkpt><trkpt lat="43.9592467" lon="12.517943"><ele>209.85714285714286</ele><time>2026-04-09T14:13:24.18Z</time></trkpt><trkpt lat="43.9592187" lon="12.5180328"><ele>209.28571428571428</ele><time>2026-04-09T14:13:25.227Z</time></trkpt><trkpt lat="43.9591889" lon="12.5181289"><ele>208.71428571428572</ele><time>2026-04-09T14:13:26.22Z</time></trkpt><trkpt lat="43.9591529" lon="12.5182138"><ele>208.14285714285714</ele><time>2026-04-09T14:13:27.24Z</time></trkpt><trkpt lat="43.959111" lon="12.5183014"><ele>207.57142857142858</ele><time>2026-04-09T14:13:28.222Z</time></trkpt><trkpt lat="43.9590586" lon="12.5183794"><ele>207.0</ele><time>2026-04-09T14:13:29.235Z</time></trkpt><trkpt lat="43.9590074" lon="12.5184635"><ele>208.0</ele><time>2026-04-09T14:13:30.228Z</time></trkpt><trkpt lat="43.9589577" lon="12.5185454"><ele>209.0</ele><time>2026-04-09T14:13:31.198Z</time></trkpt><trkpt lat="43.9588971" lon="12.5186277"><ele>210.0</ele><time>2026-04-09T14:13:32.173Z</time></trkpt><trkpt lat="43.9588408" lon="12.5187077"><ele>211.0</ele><time>2026-04-09T14:13:33.23Z</time></trkpt><trkpt lat="43.9587875" lon="12.5187918"><ele>212.0</ele><time>2026-04-09T14:13:34.174Z</time></trkpt><trkpt lat="43.9587298" lon="12.5188777"><ele>213.0</ele><time>2026-04-09T14:13:35.219Z</time></trkpt><trkpt lat="43.9586708" lon="12.5189569"><ele>213.0</ele><time>2026-04-09T14:13:36.231Z</time></trkpt><trkpt lat="43.9586102" lon="12.5190393"><ele>213.0</ele><time>2026-04-09T14:13:37.23Z</time></trkpt><trkpt lat="43.958549" lon="12.5191237"><ele>213.0</ele><time>2026-04-09T14:13:38.205Z</time></trkpt><trkpt lat="43.9584917" lon="12.5192072"><ele>213.0</ele><time>2026-04-09T14:13:39.227Z</time></trkpt><trkpt lat="43.9584307" lon="12.5192943"><ele>213.0</ele><time>2026-04-09T14:13:40.243Z</time></trkpt><trkpt lat="43.9583695" lon="12.5193799"><ele>213.0</ele><time>2026-04-09T14:13:41.201Z</time></trkpt><trkpt lat="43.9583094" lon="12.5194713"><ele>213.0</ele><time>2026-04-09T14:13:42.207Z</time></trkpt><trkpt lat="43.9582517" lon="12.5195647"><ele>213.0</ele><time>2026-04-09T14:13:43.235Z</time></trkpt><trkpt lat="43.9581918" lon="12.5196536"><ele>213.0</ele><time>2026-04-09T14:13:44.225Z</time></trkpt><trkpt lat="43.9581291" lon="12.5197449"><ele>213.0</ele><time>2026-04-09T14:13:45.228Z</time></trkpt><trkpt lat="43.9580686" lon="12.519837"><ele>213.0</ele><time>2026-04-09T14:13:46.237Z</time></trkpt><trkpt lat="43.9580078" lon="12.5199216"><ele>213.0</ele><time>2026-04-09T14:13:47.2Z</time></trkpt><trkpt lat="43.957947" lon="12.520007"><ele>213.0</ele><time>2026-04-09T14:13:48.235Z</time></trkpt><trkpt lat="43.9578881" lon="12.520094"><ele>213.0</ele><time>2026-04-09T14:13:49.183Z</time></trkpt><trkpt lat="43.9578274" lon="12.5201821"><ele>213.0</ele><time>2026-04-09T14:13:50.212Z</time></trkpt><trkpt lat="43.9577638" lon="12.5202717"><ele>213.0</ele><time>2026-04-09T14:13:51.218Z</time></trkpt><trkpt lat="43.9577051" lon="12.5203512"><ele>213.0</ele><time>2026-04-09T14:13:52.225Z</time></trkpt><trkpt lat="43.9576481" lon="12.5204363"><ele>213.0</ele><time>2026-04-09T14:13:53.213Z</time></trkpt><trkpt lat="43.9575925" lon="12.5205153"><ele>213.16666666666666</ele><time>2026-04-09T14:13:54.229Z</time></trkpt><trkpt lat="43.9575318" lon="12.5205962"><ele>213.33333333333331</ele><time>2026-04-09T14:13:55.207Z</time></trkpt><trkpt lat="43.9574766" lon="12.5206799"><ele>213.5</ele><time>2026-04-09T14:13:56.234Z</time></trkpt><trkpt lat="43.9574222" lon="12.5207639"><ele>213.66666666666666</ele><time>2026-04-09T14:13:57.237Z</time></trkpt><trkpt lat="43.9573661" lon="12.5208492"><ele>213.83333333333331</ele><time>2026-04-09T14:13:58.225Z</time></trkpt><trkpt lat="43.9573087" lon="12.520933"><ele>214.0</ele><time>2026-04-09T14:13:59.237Z</time></trkpt><trkpt lat="43.957249" lon="12.5210195"><ele>213.99999999999997</ele><time>2026-04-09T14:14:00.217Z</time></trkpt><trkpt lat="43.9571953" lon="12.521106"><ele>214.0</ele><time>2026-04-09T14:14:01.235Z</time></trkpt><trkpt lat="43.9571379" lon="12.5211926"><ele>214.0</ele><time>2026-04-09T14:14:02.22Z</time></trkpt><trkpt lat="43.9570814" lon="12.521281"><ele>214.0</ele><time>2026-04-09T14:14:03.239Z</time></trkpt><trkpt lat="43.9570255" lon="12.5213697"><ele>213.99999999999997</ele><time>2026-04-09T14:14:04.227Z</time></trkpt><trkpt lat="43.9569656" lon="12.521459"><ele>214.0</ele><time>2026-04-09T14:14:05.213Z</time></trkpt><trkpt lat="43.9569079" lon="12.5215506"><ele>213.83333333333331</ele><time>2026-04-09T14:14:06.243Z</time></trkpt><trkpt lat="43.9568481" lon="12.521648"><ele>213.66666666666666</ele><time>2026-04-09T14:14:07.222Z</time></trkpt><trkpt lat="43.9567868" lon="12.5217371"><ele>213.5</ele><time>2026-04-09T14:14:08.223Z</time></trkpt><trkpt lat="43.9567235" lon="12.5218281"><ele>213.33333333333331</ele><time>2026-04-09T14:14:09.243Z</time></trkpt><trkpt lat="43.956669" lon="12.5219159"><ele>213.16666666666666</ele><time>2026-04-09T14:14:10.223Z</time></trkpt><trkpt lat="43.9566124" lon="12.522013"><ele>213.0</ele><time>2026-04-09T14:14:11.238Z</time></trkpt><trkpt lat="43.9565511" lon="12.5221037"><ele>213.0</ele><time>2026-04-09T14:14:12.227Z</time></trkpt><trkpt lat="43.9564947" lon="12.5221904"><ele>213.0</ele><time>2026-04-09T14:14:13.242Z</time></trkpt><trkpt lat="43.9564376" lon="12.5222836"><ele>213.0</ele><time>2026-04-09T14:14:14.226Z</time></trkpt><trkpt lat="43.9563794" lon="12.5223773"><ele>213.0</ele><time>2026-04-09T14:14:15.164Z</time></trkpt><trkpt lat="43.9563185" lon="12.5224752"><ele>213.0</ele><time>2026-04-09T14:14:16.181Z</time></trkpt><trkpt lat="43.9562598" lon="12.5225716"><ele>213.0</ele><time>2026-04-09T14:14:17.203Z</time></trkpt><trkpt lat="43.9562033" lon="12.5226689"><ele>213.0</ele><time>2026-04-09T14:14:18.238Z</time></trkpt><trkpt lat="43.9561418" lon="12.5227631"><ele>213.0</ele><time>2026-04-09T14:14:19.229Z</time></trkpt><trkpt lat="43.9560865" lon="12.5228523"><ele>213.0</ele><time>2026-04-09T14:14:20.199Z</time></trkpt><trkpt lat="43.9560249" lon="12.5229373"><ele>213.0</ele><time>2026-04-09T14:14:21.21Z</time></trkpt><trkpt lat="43.955966" lon="12.5230196"><ele>213.0</ele><time>2026-04-09T14:14:22.224Z</time></trkpt><trkpt lat="43.9558987" lon="12.5230908"><ele>213.0</ele><time>2026-04-09T14:14:23.216Z</time></trkpt><trkpt lat="43.9558242" lon="12.5231367"><ele>212.0</ele><time>2026-04-09T14:14:24.22Z</time></trkpt><trkpt lat="43.9557399" lon="12.5231634"><ele>211.0</ele><time>2026-04-09T14:14:25.246Z</time></trkpt><trkpt lat="43.9556599" lon="12.5231787"><ele>210.0</ele><time>2026-04-09T14:14:26.224Z</time></trkpt><trkpt lat="43.9555783" lon="12.5231918"><ele>209.0</ele><time>2026-04-09T14:14:27.235Z</time></trkpt><trkpt lat="43.9554959" lon="12.5232082"><ele>208.0</ele><time>2026-04-09T14:14:28.227Z</time></trkpt><trkpt lat="43.9554121" lon="12.5232248"><ele>207.0</ele><time>2026-04-09T14:14:29.24Z</time></trkpt><trkpt lat="43.9553262" lon="12.5232533"><ele>207.0</ele><time>2026-04-09T14:14:30.236Z</time></trkpt><trkpt lat="43.9552456" lon="12.523276"><ele>207.0</ele><time>2026-04-09T14:14:31.246Z</time></trkpt><trkpt lat="43.9551608" lon="12.523306"><ele>207.0</ele><time>2026-04-09T14:14:32.233Z</time></trkpt><trkpt lat="43.9550754" lon="12.5233377"><ele>207.0</ele><time>2026-04-09T14:14:33.174Z</time></trkpt><trkpt lat="43.9549835" lon="12.5233729"><ele>207.0</ele><time>2026-04-09T14:14:34.221Z</time></trkpt><trkpt lat="43.9548892" lon="12.5234076"><ele>206.39999999999998</ele><time>2026-04-09T14:14:35.221Z</time></trkpt><trkpt lat="43.9547963" lon="12.5234421"><ele>205.79999999999998</ele><time>2026-04-09T14:14:36.219Z</time></trkpt><trkpt lat="43.9547032" lon="12.5234809"><ele>205.2</ele><time>2026-04-09T14:14:37.217Z</time></trkpt><trkpt lat="43.954604" lon="12.5235423"><ele>204.6</ele><time>2026-04-09T14:14:38.237Z</time></trkpt><trkpt lat="43.9545145" lon="12.5236005"><ele>204.0</ele><time>2026-04-09T14:14:39.216Z</time></trkpt><trkpt lat="43.9544261" lon="12.5236557"><ele>204.0</ele><time>2026-04-09T14:14:40.236Z</time></trkpt><trkpt lat="43.9543335" lon="12.5237172"><ele>204.0</ele><time>2026-04-09T14:14:41.182Z</time></trkpt><trkpt lat="43.95424" lon="12.5237838"><ele>204.0</ele><time>2026-04-09T14:14:42.227Z</time></trkpt><trkpt lat="43.9541497" lon="12.5238442"><ele>204.0</ele><time>2026-04-09T14:14:43.221Z</time></trkpt><trkpt lat="43.9540597" lon="12.5239022"><ele>204.0</ele><time>2026-04-09T14:14:44.229Z</time></trkpt><trkpt lat="43.953968" lon="12.5239635"><ele>202.39999999999998</ele><time>2026-04-09T14:14:45.231Z</time></trkpt><trkpt lat="43.9538747" lon="12.5240182"><ele>200.8</ele><time>2026-04-09T14:14:46.22Z</time></trkpt><trkpt lat="43.953783" lon="12.5240811"><ele>199.2</ele><time>2026-04-09T14:14:47.218Z</time></trkpt><trkpt lat="43.9536855" lon="12.5241485"><ele>197.60000000000002</ele><time>2026-04-09T14:14:48.22Z</time></trkpt><trkpt lat="43.9535842" lon="12.5242197"><ele>196.0</ele><time>2026-04-09T14:14:49.231Z</time></trkpt><trkpt lat="43.9534818" lon="12.5242939"><ele>196.0</ele><time>2026-04-09T14:14:50.24Z</time></trkpt><trkpt lat="43.9533777" lon="12.5243591"><ele>196.0</ele><time>2026-04-09T14:14:51.235Z</time></trkpt><trkpt lat="43.9532709" lon="12.5244276"><ele>196.0</ele><time>2026-04-09T14:14:52.239Z</time></trkpt><trkpt lat="43.9531542" lon="12.5244979"><ele>196.0</ele><time>2026-04-09T14:14:53.204Z</time></trkpt><trkpt lat="43.9530378" lon="12.5245728"><ele>193.5</ele><time>2026-04-09T14:14:54.208Z</time></trkpt><trkpt lat="43.9529162" lon="12.5246643"><ele>191.0</ele><time>2026-04-09T14:14:55.199Z</time></trkpt><trkpt lat="43.9528093" lon="12.5247691"><ele>188.5</ele><time>2026-04-09T14:14:56.239Z</time></trkpt><trkpt lat="43.9527278" lon="12.5248986"><ele>186.0</ele><time>2026-04-09T14:14:57.217Z</time></trkpt><trkpt lat="43.9526532" lon="12.5250478"><ele>186.0</ele><time>2026-04-09T14:14:58.23Z</time></trkpt><trkpt lat="43.9525856" lon="12.5252129"><ele>186.0</ele><time>2026-04-09T14:14:59.214Z</time></trkpt><trkpt lat="43.9525222" lon="12.5253771"><ele>186.0</ele><time>2026-04-09T14:15:00.232Z</time></trkpt><trkpt lat="43.9524528" lon="12.5255301"><ele>186.0</ele><time>2026-04-09T14:15:01.209Z</time></trkpt><trkpt lat="43.9523722" lon="12.5256706"><ele>184.25</ele><time>2026-04-09T14:15:02.211Z</time></trkpt><trkpt lat="43.952289" lon="12.5257982"><ele>182.5</ele><time>2026-04-09T14:15:03.238Z</time></trkpt><trkpt lat="43.9521954" lon="12.5259168"><ele>180.75</ele><time>2026-04-09T14:15:04.205Z</time></trkpt><trkpt lat="43.9521008" lon="12.526007"><ele>179.0</ele><time>2026-04-09T14:15:05.2Z</time></trkpt><trkpt lat="43.9519982" lon="12.5260749"><ele>179.0</ele><time>2026-04-09T14:15:06.235Z</time></trkpt><trkpt lat="43.9518994" lon="12.5261385"><ele>179.0</ele><time>2026-04-09T14:15:07.231Z</time></trkpt><trkpt lat="43.9518008" lon="12.5262046"><ele>179.0</ele><time>2026-04-09T14:15:08.185Z</time></trkpt><trkpt lat="43.9517028" lon="12.5262659"><ele>179.0</ele><time>2026-04-09T14:15:09.231Z</time></trkpt><trkpt lat="43.9516083" lon="12.5263242"><ele>179.0</ele><time>2026-04-09T14:15:10.178Z</time></trkpt><trkpt lat="43.9515143" lon="12.5263826"><ele>177.79999999999998</ele><time>2026-04-09T14:15:11.223Z</time></trkpt><trkpt lat="43.9514179" lon="12.5264468"><ele>176.6</ele><time>2026-04-09T14:15:12.223Z</time></trkpt><trkpt lat="43.9513246" lon="12.5265105"><ele>175.4</ele><time>2026-04-09T14:15:13.234Z</time></trkpt><trkpt lat="43.9512277" lon="12.5265768"><ele>174.2</ele><time>2026-04-09T14:15:14.228Z</time></trkpt><trkpt lat="43.951127" lon="12.526639"><ele>173.0</ele><time>2026-04-09T14:15:15.152Z</time></trkpt><trkpt lat="43.9510296" lon="12.5267096"><ele>173.0</ele><time>2026-04-09T14:15:16.22Z</time></trkpt><trkpt lat="43.95093" lon="12.5267773"><ele>173.0</ele><time>2026-04-09T14:15:17.186Z</time></trkpt><trkpt lat="43.9508316" lon="12.5268492"><ele>173.0</ele><time>2026-04-09T14:15:18.215Z</time></trkpt><trkpt lat="43.9507397" lon="12.5269268"><ele>173.0</ele><time>2026-04-09T14:15:19.208Z</time></trkpt><trkpt lat="43.9506479" lon="12.5269947"><ele>173.0</ele><time>2026-04-09T14:15:20.24Z</time></trkpt><trkpt lat="43.9505519" lon="12.5270572"><ele>170.60000000000002</ele><time>2026-04-09T14:15:21.224Z</time></trkpt><trkpt lat="43.9504579" lon="12.5271189"><ele>168.20000000000002</ele><time>2026-04-09T14:15:22.222Z</time></trkpt><trkpt lat="43.9503678" lon="12.5271908"><ele>165.8</ele><time>2026-04-09T14:15:23.225Z</time></trkpt><trkpt lat="43.9502761" lon="12.527256"><ele>163.4</ele><time>2026-04-09T14:15:24.212Z</time></trkpt><trkpt lat="43.9501808" lon="12.5273249"><ele>161.0</ele><time>2026-04-09T14:15:25.226Z</time></trkpt><trkpt lat="43.9500857" lon="12.5273967"><ele>160.5</ele><time>2026-04-09T14:15:26.211Z</time></trkpt><trkpt lat="43.949987" lon="12.5274696"><ele>160.0</ele><time>2026-04-09T14:15:27.233Z</time></trkpt><trkpt lat="43.9498843" lon="12.5275479"><ele>159.5</ele><time>2026-04-09T14:15:28.24Z</time></trkpt><trkpt lat="43.9497801" lon="12.5276234"><ele>159.0</ele><time>2026-04-09T14:15:29.228Z</time></trkpt><trkpt lat="43.949674" lon="12.5277022"><ele>159.0</ele><time>2026-04-09T14:15:30.239Z</time></trkpt><trkpt lat="43.9495714" lon="12.5277773"><ele>159.0</ele><time>2026-04-09T14:15:31.218Z</time></trkpt><trkpt lat="43.9494588" lon="12.5278512"><ele>159.0</ele><time>2026-04-09T14:15:32.209Z</time></trkpt><trkpt lat="43.9493525" lon="12.5279252"><ele>159.0</ele><time>2026-04-09T14:15:33.205Z</time></trkpt><trkpt lat="43.9492474" lon="12.5280085"><ele>157.5</ele><time>2026-04-09T14:15:34.196Z</time></trkpt><trkpt lat="43.9491439" lon="12.5280867"><ele>156.0</ele><time>2026-04-09T14:15:35.213Z</time></trkpt><trkpt lat="43.9490431" lon="12.5281557"><ele>154.5</ele><time>2026-04-09T14:15:36.194Z</time></trkpt><trkpt lat="43.9489416" lon="12.528222"><ele>153.0</ele><time>2026-04-09T14:15:37.227Z</time></trkpt><trkpt lat="43.9488448" lon="12.5282983"><ele>153.0</ele><time>2026-04-09T14:15:38.228Z</time></trkpt><trkpt lat="43.9487482" lon="12.5283681"><ele>153.0</ele><time>2026-04-09T14:15:39.22Z</time></trkpt><trkpt lat="43.9486507" lon="12.5284359"><ele>153.0</ele><time>2026-04-09T14:15:40.185Z</time></trkpt><trkpt lat="43.948551" lon="12.5284956"><ele>153.0</ele><time>2026-04-09T14:15:41.248Z</time></trkpt><trkpt lat="43.9484503" lon="12.5285409"><ele>153.0</ele><time>2026-04-09T14:15:42.207Z</time></trkpt><trkpt lat="43.9483444" lon="12.5285865"><ele>151.75</ele><time>2026-04-09T14:15:43.217Z</time></trkpt><trkpt lat="43.9482364" lon="12.5286178"><ele>150.5</ele><time>2026-04-09T14:15:44.208Z</time></trkpt><trkpt lat="43.9481241" lon="12.5286235"><ele>149.25</ele><time>2026-04-09T14:15:45.213Z</time></trkpt><trkpt lat="43.94801" lon="12.5286072"><ele>148.0</ele><time>2026-04-09T14:15:46.228Z</time></trkpt><trkpt lat="43.9478987" lon="12.5285504"><ele>148.0</ele><time>2026-04-09T14:15:47.21Z</time></trkpt><trkpt lat="43.9477881" lon="12.5284644"><ele>148.0</ele><time>2026-04-09T14:15:48.233Z</time></trkpt><trkpt lat="43.9476866" lon="12.5283699"><ele>148.0</ele><time>2026-04-09T14:15:49.221Z</time></trkpt><trkpt lat="43.9475828" lon="12.5282734"><ele>148.0</ele><time>2026-04-09T14:15:50.226Z</time></trkpt><trkpt lat="43.9474915" lon="12.5281553"><ele>145.5</ele><time>2026-04-09T14:15:51.23Z</time></trkpt><trkpt lat="43.9474093" lon="12.5280344"><ele>143.0</ele><time>2026-04-09T14:15:52.228Z</time></trkpt><trkpt lat="43.9473266" lon="12.5279102"><ele>140.5</ele><time>2026-04-09T14:15:53.159Z</time></trkpt><trkpt lat="43.9472441" lon="12.5277849"><ele>138.0</ele><time>2026-04-09T14:15:54.236Z</time></trkpt><trkpt lat="43.9471663" lon="12.5276416"><ele>138.0</ele><time>2026-04-09T14:15:55.207Z</time></trkpt><trkpt lat="43.9470952" lon="12.5274967"><ele>138.0</ele><time>2026-04-09T14:15:56.228Z</time></trkpt><trkpt lat="43.9470455" lon="12.5273421"><ele>138.0</ele><time>2026-04-09T14:15:57.22Z</time></trkpt><trkpt lat="43.9470141" lon="12.5271834"><ele>138.0</ele><time>2026-04-09T14:15:58.221Z</time></trkpt><trkpt lat="43.9470248" lon="12.5270214"><ele>136.0</ele><time>2026-04-09T14:15:59.242Z</time></trkpt><trkpt lat="43.9470644" lon="12.5268705"><ele>134.0</ele><time>2026-04-09T14:16:00.219Z</time></trkpt><trkpt lat="43.9471245" lon="12.5267345"><ele>132.0</ele><time>2026-04-09T14:16:01.221Z</time></trkpt><trkpt lat="43.9472029" lon="12.5266188"><ele>130.0</ele><time>2026-04-09T14:16:02.242Z</time></trkpt><trkpt lat="43.9472816" lon="12.5265209"><ele>130.0</ele><time>2026-04-09T14:16:03.212Z</time></trkpt><trkpt lat="43.9473585" lon="12.526441"><ele>130.0</ele><time>2026-04-09T14:16:04.235Z</time></trkpt><trkpt lat="43.9474102" lon="12.5263624"><ele>130.0</ele><time>2026-04-09T14:16:05.212Z</time></trkpt><trkpt lat="43.9473694" lon="12.5262135"><ele>130.0</ele><time>2026-04-09T14:16:07.225Z</time></trkpt><trkpt lat="43.947274" lon="12.5261845"><ele>130.0</ele><time>2026-04-09T14:16:08.197Z</time></trkpt><trkpt lat="43.9471692" lon="12.5261774"><ele>126.6</ele><time>2026-04-09T14:16:09.202Z</time></trkpt><trkpt lat="43.9470695" lon="12.5261533"><ele>123.2</ele><time>2026-04-09T14:16:10.23Z</time></trkpt><trkpt lat="43.9469701" lon="12.5261324"><ele>119.80000000000001</ele><time>2026-04-09T14:16:11.236Z</time></trkpt><trkpt lat="43.9468601" lon="12.5261191"><ele>116.4</ele><time>2026-04-09T14:16:12.217Z</time></trkpt><trkpt lat="43.9467364" lon="12.5260977"><ele>113.0</ele><time>2026-04-09T14:16:13.224Z</time></trkpt><trkpt lat="43.9466047" lon="12.5260652"><ele>110.5</ele><time>2026-04-09T14:16:14.231Z</time></trkpt><trkpt lat="43.9464713" lon="12.5260453"><ele>108.0</ele><time>2026-04-09T14:16:15.198Z</time></trkpt><trkpt lat="43.9463292" lon="12.5260381"><ele>105.5</ele><time>2026-04-09T14:16:16.224Z</time></trkpt><trkpt lat="43.9461894" lon="12.5260334"><ele>103.0</ele><time>2026-04-09T14:16:17.193Z</time></trkpt><trkpt lat="43.9460516" lon="12.5260465"><ele>103.0</ele><time>2026-04-09T14:16:18.228Z</time></trkpt><trkpt lat="43.945923" lon="12.5260808"><ele>103.0</ele><time>2026-04-09T14:16:19.224Z</time></trkpt><trkpt lat="43.945815" lon="12.5261481"><ele>103.0</ele><time>2026-04-09T14:16:20.213Z</time></trkpt><trkpt lat="43.9457173" lon="12.526217"><ele>103.0</ele><time>2026-04-09T14:16:21.211Z</time></trkpt><trkpt lat="43.945637" lon="12.5262869"><ele>102.16666666666667</ele><time>2026-04-09T14:16:22.236Z</time></trkpt><trkpt lat="43.9455665" lon="12.526333"><ele>101.33333333333334</ele><time>2026-04-09T14:16:23.199Z</time></trkpt><trkpt lat="43.9455026" lon="12.5263684"><ele>100.5</ele><time>2026-04-09T14:16:24.203Z</time></trkpt><trkpt lat="43.9453923" lon="12.5263235"><ele>99.66666666666666</ele><time>2026-04-09T14:16:26.205Z</time></trkpt><trkpt lat="43.9452964" lon="12.5262344"><ele>98.83333333333333</ele><time>2026-04-09T14:16:28.203Z</time></trkpt><trkpt lat="43.9452399" lon="12.5261852"><ele>98.0</ele><time>2026-04-09T14:16:29.215Z</time></trkpt><trkpt lat="43.945186" lon="12.5261336"><ele>98.0</ele><time>2026-04-09T14:16:30.2Z</time></trkpt><trkpt lat="43.945103" lon="12.5260401"><ele>98.0</ele><time>2026-04-09T14:16:32.218Z</time></trkpt><trkpt lat="43.9450221" lon="12.5260117"><ele>98.0</ele><time>2026-04-09T14:16:34.234Z</time></trkpt><trkpt lat="43.9449332" lon="12.5260667"><ele>98.0</ele><time>2026-04-09T14:16:36.226Z</time></trkpt><trkpt lat="43.9448364" lon="12.5261019"><ele>98.0</ele><time>2026-04-09T14:16:38.23Z</time></trkpt><trkpt lat="43.9447402" lon="12.5260506"><ele>97.60000000000001</ele><time>2026-04-09T14:16:40.201Z</time></trkpt><trkpt lat="43.9446282" lon="12.526019"><ele>97.2</ele><time>2026-04-09T14:16:42.233Z</time></trkpt><trkpt lat="43.9445601" lon="12.5260455"><ele>96.8</ele><time>2026-04-09T14:16:43.216Z</time></trkpt><trkpt lat="43.9444499" lon="12.5261176"><ele>96.4</ele><time>2026-04-09T14:16:45.23Z</time></trkpt><trkpt lat="43.9443495" lon="12.526209"><ele>96.0</ele><time>2026-04-09T14:16:47.201Z</time></trkpt><trkpt lat="43.9442495" lon="12.5262845"><ele>95.6</ele><time>2026-04-09T14:16:49.214Z</time></trkpt><trkpt lat="43.9441381" lon="12.5263576"><ele>95.19999999999999</ele><time>2026-04-09T14:16:51.21Z</time></trkpt><trkpt lat="43.9440361" lon="12.5264334"><ele>94.80000000000001</ele><time>2026-04-09T14:16:53.235Z</time></trkpt><trkpt lat="43.9439451" lon="12.5265139"><ele>94.4</ele><time>2026-04-09T14:16:55.224Z</time></trkpt><trkpt lat="43.9438766" lon="12.526599"><ele>94.0</ele><time>2026-04-09T14:16:57.227Z</time></trkpt><trkpt lat="43.9438213" lon="12.5266997"><ele>94.0</ele><time>2026-04-09T14:16:59.237Z</time></trkpt><trkpt lat="43.9437697" lon="12.5267924"><ele>94.0</ele><time>2026-04-09T14:17:01.239Z</time></trkpt><trkpt lat="43.9437209" lon="12.5268577"><ele>94.0</ele><time>2026-04-09T14:17:03.207Z</time></trkpt><trkpt lat="43.9436693" lon="12.5269136"><ele>94.0</ele><time>2026-04-09T14:17:05.211Z</time></trkpt><trkpt lat="43.9436113" lon="12.526952"><ele>94.0</ele><time>2026-04-09T14:17:07.214Z</time></trkpt><trkpt lat="43.9435248" lon="12.5269855"><ele>94.0</ele><time>2026-04-09T14:17:10.19Z</time></trkpt><trkpt lat="43.943462" lon="12.5270095"><ele>94.0</ele><time>2026-04-09T14:17:12.226Z</time></trkpt><trkpt lat="43.9433708" lon="12.5270306"><ele>94.66666666666666</ele><time>2026-04-09T14:17:15.219Z</time></trkpt><trkpt lat="43.943282" lon="12.5270493"><ele>95.33333333333333</ele><time>2026-04-09T14:17:18.182Z</time></trkpt><trkpt lat="43.9432195" lon="12.5270681"><ele>96.0</ele><time>2026-04-09T14:17:20.215Z</time></trkpt><trkpt lat="43.9431325" lon="12.5270887"><ele>96.66666666666666</ele><time>2026-04-09T14:17:23.218Z</time></trkpt><trkpt lat="43.9430472" lon="12.527114"><ele>97.33333333333333</ele><time>2026-04-09T14:17:26.209Z</time></trkpt><trkpt lat="43.9429657" lon="12.5271443"><ele>98.0</ele><time>2026-04-09T14:17:29.221Z</time></trkpt><trkpt lat="43.9428833" lon="12.5271642"><ele>97.99999999999999</ele><time>2026-04-09T14:17:32.221Z</time></trkpt><trkpt lat="43.942804" lon="12.5271922"><ele>98.0</ele><time>2026-04-09T14:17:35.223Z</time></trkpt><trkpt lat="43.9427253" lon="12.5272092"><ele>98.0</ele><time>2026-04-09T14:17:38.224Z</time></trkpt><trkpt lat="43.9426404" lon="12.5272403"><ele>98.0</ele><time>2026-04-09T14:17:41.209Z</time></trkpt><trkpt lat="43.9425575" lon="12.5272583"><ele>97.99999999999999</ele><time>2026-04-09T14:17:44.214Z</time></trkpt><trkpt lat="43.942478" lon="12.5272745"><ele>98.0</ele><time>2026-04-09T14:17:47.225Z</time></trkpt><trkpt lat="43.9423981" lon="12.5272967"><ele>99.66666666666666</ele><time>2026-04-09T14:17:50.212Z</time></trkpt><trkpt lat="43.9423245" lon="12.5273191"><ele>101.33333333333333</ele><time>2026-04-09T14:17:53.2Z</time></trkpt><trkpt lat="43.9422465" lon="12.5273416"><ele>103.0</ele><time>2026-04-09T14:17:56.194Z</time></trkpt><trkpt lat="43.9421759" lon="12.5273788"><ele>104.66666666666666</ele><time>2026-04-09T14:17:59.219Z</time></trkpt><trkpt lat="43.9421106" lon="12.5274158"><ele>106.33333333333333</ele><time>2026-04-09T14:18:02.233Z</time></trkpt><trkpt lat="43.9420451" lon="12.527452"><ele>108.0</ele><time>2026-04-09T14:18:06.219Z</time></trkpt><trkpt lat="43.941978" lon="12.5275077"><ele>108.0</ele><time>2026-04-09T14:18:10.212Z</time></trkpt><trkpt lat="43.9419219" lon="12.5275685"><ele>108.0</ele><time>2026-04-09T14:18:14.234Z</time></trkpt><trkpt lat="43.9418621" lon="12.5276374"><ele>108.0</ele><time>2026-04-09T14:18:19.19Z</time></trkpt><trkpt lat="43.9418048" lon="12.5276888"><ele>108.0</ele><time>2026-04-09T14:18:23.196Z</time></trkpt><trkpt lat="43.9417343" lon="12.5277092"><ele>108.0</ele><time>2026-04-09T14:18:28.222Z</time></trkpt><trkpt lat="43.9416785" lon="12.527636"><ele>108.0</ele><time>2026-04-09T14:18:33.222Z</time></trkpt><trkpt lat="43.9416375" lon="12.5275476"><ele>108.0</ele><time>2026-04-09T14:18:38.198Z</time></trkpt><trkpt lat="43.9416038" lon="12.5274653"><ele>110.5</ele><time>2026-04-09T14:18:42.217Z</time></trkpt><trkpt lat="43.9415677" lon="12.5273932"><ele>113.0</ele><time>2026-04-09T14:18:46.221Z</time></trkpt><trkpt lat="43.9415059" lon="12.527326"><ele>115.5</ele><time>2026-04-09T14:18:50.173Z</time></trkpt><trkpt lat="43.9414524" lon="12.5272554"><ele>118.0</ele><time>2026-04-09T14:18:54.232Z</time></trkpt><trkpt lat="43.9413839" lon="12.5272426"><ele>120.5</ele><time>2026-04-09T14:18:58.191Z</time></trkpt><trkpt lat="43.9412996" lon="12.5272678"><ele>123.0</ele><time>2026-04-09T14:19:01.232Z</time></trkpt><trkpt lat="43.9412291" lon="12.5273389"><ele>123.0</ele><time>2026-04-09T14:19:04.192Z</time></trkpt><trkpt lat="43.9411722" lon="12.5274005"><ele>123.0</ele><time>2026-04-09T14:19:06.248Z</time></trkpt><trkpt lat="43.9411139" lon="12.5274719"><ele>123.0</ele><time>2026-04-09T14:19:08.179Z</time></trkpt><trkpt lat="43.941039" lon="12.5275621"><ele>123.0</ele><time>2026-04-09T14:19:10.218Z</time></trkpt><trkpt lat="43.9409738" lon="12.527622"><ele>123.0</ele><time>2026-04-09T14:19:12.201Z</time></trkpt><trkpt lat="43.9409121" lon="12.5276807"><ele>123.0</ele><time>2026-04-09T14:19:14.224Z</time></trkpt><trkpt lat="43.9408497" lon="12.52772"><ele>123.57142857142858</ele><time>2026-04-09T14:19:16.208Z</time></trkpt><trkpt lat="43.9407759" lon="12.5277587"><ele>124.14285714285714</ele><time>2026-04-09T14:19:18.193Z</time></trkpt><trkpt lat="43.9407056" lon="12.5277713"><ele>124.71428571428572</ele><time>2026-04-09T14:19:20.213Z</time></trkpt><trkpt lat="43.9406378" lon="12.5277778"><ele>125.28571428571429</ele><time>2026-04-09T14:19:22.229Z</time></trkpt><trkpt lat="43.9405634" lon="12.527774"><ele>125.85714285714286</ele><time>2026-04-09T14:19:24.225Z</time></trkpt><trkpt lat="43.9405003" lon="12.5277584"><ele>126.42857142857143</ele><time>2026-04-09T14:19:26.225Z</time></trkpt><trkpt lat="43.9404123" lon="12.5277474"><ele>127.0</ele><time>2026-04-09T14:19:29.222Z</time></trkpt><trkpt lat="43.9403295" lon="12.5277338"><ele>127.00000000000001</ele><time>2026-04-09T14:19:32.217Z</time></trkpt><trkpt lat="43.9402405" lon="12.5277382"><ele>127.0</ele><time>2026-04-09T14:19:35.228Z</time></trkpt><trkpt lat="43.9401542" lon="12.5277274"><ele>127.0</ele><time>2026-04-09T14:19:38.23Z</time></trkpt><trkpt lat="43.9400659" lon="12.5277361"><ele>127.0</ele><time>2026-04-09T14:19:41.232Z</time></trkpt><trkpt lat="43.9399772" lon="12.5277734"><ele>127.00000000000001</ele><time>2026-04-09T14:19:44.207Z</time></trkpt><trkpt lat="43.939892" lon="12.5278056"><ele>127.0</ele><time>2026-04-09T14:19:47.185Z</time></trkpt><trkpt lat="43.9398062" lon="12.5278388"><ele>127.83333333333334</ele><time>2026-04-09T14:19:50.221Z</time></trkpt><trkpt lat="43.9397266" lon="12.5278691"><ele>128.66666666666669</ele><time>2026-04-09T14:19:53.22Z</time></trkpt><trkpt lat="43.9396477" lon="12.5279071"><ele>129.5</ele><time>2026-04-09T14:19:56.214Z</time></trkpt><trkpt lat="43.9395713" lon="12.5279451"><ele>130.33333333333334</ele><time>2026-04-09T14:19:59.23Z</time></trkpt><trkpt lat="43.9394933" lon="12.5279897"><ele>131.16666666666666</ele><time>2026-04-09T14:20:02.233Z</time></trkpt><trkpt lat="43.9394165" lon="12.5280318"><ele>132.0</ele><time>2026-04-09T14:20:05.204Z</time></trkpt><trkpt lat="43.9393319" lon="12.5280722"><ele>132.0</ele><time>2026-04-09T14:20:08.218Z</time></trkpt><trkpt lat="43.9392594" lon="12.5281206"><ele>132.0</ele><time>2026-04-09T14:20:11.215Z</time></trkpt><trkpt lat="43.9391924" lon="12.5281655"><ele>132.0</ele><time>2026-04-09T14:20:14.211Z</time></trkpt><trkpt lat="43.9391163" lon="12.528205"><ele>132.0</ele><time>2026-04-09T14:20:17.196Z</time></trkpt><trkpt lat="43.9390466" lon="12.5282502"><ele>132.0</ele><time>2026-04-09T14:20:20.223Z</time></trkpt><trkpt lat="43.9389825" lon="12.5282995"><ele>132.0</ele><time>2026-04-09T14:20:23.202Z</time></trkpt><trkpt lat="43.938919" lon="12.5283511"><ele>133.33333333333334</ele><time>2026-04-09T14:20:26.207Z</time></trkpt><trkpt lat="43.9388552" lon="12.5284018"><ele>134.66666666666666</ele><time>2026-04-09T14:20:29.204Z</time></trkpt><trkpt lat="43.9387824" lon="12.5284619"><ele>136.0</ele><time>2026-04-09T14:20:32.167Z</time></trkpt><trkpt lat="43.9387145" lon="12.5284981"><ele>137.33333333333331</ele><time>2026-04-09T14:20:35.219Z</time></trkpt><trkpt lat="43.9386319" lon="12.5285377"><ele>138.66666666666666</ele><time>2026-04-09T14:20:38.214Z</time></trkpt><trkpt lat="43.9385556" lon="12.5285882"><ele>140.0</ele><time>2026-04-09T14:20:41.211Z</time></trkpt><trkpt lat="43.9384859" lon="12.5286509"><ele>140.0</ele><time>2026-04-09T14:20:44.175Z</time></trkpt><trkpt lat="43.9384168" lon="12.5287136"><ele>140.0</ele><time>2026-04-09T14:20:47.217Z</time></trkpt><trkpt lat="43.9383514" lon="12.5287654"><ele>140.0</ele><time>2026-04-09T14:20:50.216Z</time></trkpt><trkpt lat="43.9382902" lon="12.5288268"><ele>140.0</ele><time>2026-04-09T14:20:53.216Z</time></trkpt><trkpt lat="43.9382256" lon="12.5288844"><ele>140.0</ele><time>2026-04-09T14:20:56.224Z</time></trkpt><trkpt lat="43.9381552" lon="12.5289369"><ele>140.0</ele><time>2026-04-09T14:20:59.213Z</time></trkpt><trkpt lat="43.9380923" lon="12.5290069"><ele>141.0</ele><time>2026-04-09T14:21:02.195Z</time></trkpt><trkpt lat="43.9380308" lon="12.5290843"><ele>142.0</ele><time>2026-04-09T14:21:05.201Z</time></trkpt><trkpt lat="43.9379627" lon="12.5291581"><ele>143.0</ele><time>2026-04-09T14:21:08.21Z</time></trkpt><trkpt lat="43.9379026" lon="12.5292285"><ele>144.0</ele><time>2026-04-09T14:21:11.195Z</time></trkpt><trkpt lat="43.9378408" lon="12.5293092"><ele>145.0</ele><time>2026-04-09T14:21:14.217Z</time></trkpt><trkpt lat="43.9377824" lon="12.5293947"><ele>146.0</ele><time>2026-04-09T14:21:17.204Z</time></trkpt><trkpt lat="43.9377192" lon="12.5294793"><ele>146.0</ele><time>2026-04-09T14:21:20.211Z</time></trkpt><trkpt lat="43.9376554" lon="12.5295634"><ele>146.0</ele><time>2026-04-09T14:21:23.167Z</time></trkpt><trkpt lat="43.9375955" lon="12.5296444"><ele>146.0</ele><time>2026-04-09T14:21:26.225Z</time></trkpt><trkpt lat="43.9375385" lon="12.5297238"><ele>146.0</ele><time>2026-04-09T14:21:29.212Z</time></trkpt><trkpt lat="43.937477" lon="12.5298051"><ele>146.0</ele><time>2026-04-09T14:21:32.202Z</time></trkpt><trkpt lat="43.9374173" lon="12.5298897"><ele>146.0</ele><time>2026-04-09T14:21:35.211Z</time></trkpt><trkpt lat="43.9373592" lon="12.5299797"><ele>147.5</ele><time>2026-04-09T14:21:38.215Z</time></trkpt><trkpt lat="43.9372936" lon="12.5300626"><ele>149.0</ele><time>2026-04-09T14:21:41.193Z</time></trkpt><trkpt lat="43.9372344" lon="12.5301612"><ele>150.5</ele><time>2026-04-09T14:21:44.175Z</time></trkpt><trkpt lat="43.9371768" lon="12.5302568"><ele>152.0</ele><time>2026-04-09T14:21:47.204Z</time></trkpt><trkpt lat="43.9371241" lon="12.5303427"><ele>153.5</ele><time>2026-04-09T14:21:50.216Z</time></trkpt><trkpt lat="43.9370723" lon="12.5304267"><ele>155.0</ele><time>2026-04-09T14:21:53.223Z</time></trkpt><trkpt lat="43.9370206" lon="12.5305106"><ele>155.2</ele><time>2026-04-09T14:21:56.203Z</time></trkpt><trkpt lat="43.9369694" lon="12.5305907"><ele>155.4</ele><time>2026-04-09T14:21:59.211Z</time></trkpt><trkpt lat="43.9368985" lon="12.5306727"><ele>155.6</ele><time>2026-04-09T14:22:02.15Z</time></trkpt><trkpt lat="43.9368483" lon="12.5307548"><ele>155.8</ele><time>2026-04-09T14:22:04.147Z</time></trkpt><trkpt lat="43.9367814" lon="12.5308727"><ele>156.0</ele><time>2026-04-09T14:22:06.159Z</time></trkpt><trkpt lat="43.9366953" lon="12.5309756"><ele>155.66666666666666</ele><time>2026-04-09T14:22:08.179Z</time></trkpt><trkpt lat="43.9366189" lon="12.5310602"><ele>155.33333333333334</ele><time>2026-04-09T14:22:10.187Z</time></trkpt><trkpt lat="43.9365401" lon="12.5311548"><ele>155.0</ele><time>2026-04-09T14:22:12.197Z</time></trkpt><trkpt lat="43.9364523" lon="12.5312629"><ele>154.66666666666669</ele><time>2026-04-09T14:22:14.213Z</time></trkpt><trkpt lat="43.9364042" lon="12.5313226"><ele>154.33333333333334</ele><time>2026-04-09T14:22:15.209Z</time></trkpt><trkpt lat="43.936354" lon="12.531378"><ele>154.0</ele><time>2026-04-09T14:22:16.223Z</time></trkpt><trkpt lat="43.9362552" lon="12.5314953"><ele>154.0</ele><time>2026-04-09T14:22:18.204Z</time></trkpt><trkpt lat="43.9361928" lon="12.5315668"><ele>154.0</ele><time>2026-04-09T14:22:19.197Z</time></trkpt><trkpt lat="43.9361291" lon="12.5316505"><ele>154.0</ele><time>2026-04-09T14:22:20.174Z</time></trkpt><trkpt lat="43.9360639" lon="12.5317395"><ele>154.0</ele><time>2026-04-09T14:22:21.208Z</time></trkpt><trkpt lat="43.9360028" lon="12.531846"><ele>154.0</ele><time>2026-04-09T14:22:22.206Z</time></trkpt><trkpt lat="43.9359399" lon="12.531961"><ele>152.8</ele><time>2026-04-09T14:22:23.207Z</time></trkpt><trkpt lat="43.9358786" lon="12.5320821"><ele>151.60000000000002</ele><time>2026-04-09T14:22:24.213Z</time></trkpt><trkpt lat="43.9358185" lon="12.5321981"><ele>150.4</ele><time>2026-04-09T14:22:25.175Z</time></trkpt><trkpt lat="43.9357571" lon="12.5323076"><ele>149.20000000000002</ele><time>2026-04-09T14:22:26.19Z</time></trkpt><trkpt lat="43.9356998" lon="12.5324212"><ele>148.0</ele><time>2026-04-09T14:22:27.151Z</time></trkpt><trkpt lat="43.9356449" lon="12.532522"><ele>148.0</ele><time>2026-04-09T14:22:28.196Z</time></trkpt><trkpt lat="43.9355895" lon="12.5326153"><ele>148.0</ele><time>2026-04-09T14:22:29.186Z</time></trkpt><trkpt lat="43.9355327" lon="12.5327014"><ele>148.0</ele><time>2026-04-09T14:22:30.208Z</time></trkpt><trkpt lat="43.9354774" lon="12.5327806"><ele>148.0</ele><time>2026-04-09T14:22:31.164Z</time></trkpt><trkpt lat="43.9354185" lon="12.5328509"><ele>148.0</ele><time>2026-04-09T14:22:32.196Z</time></trkpt><trkpt lat="43.9353575" lon="12.5329153"><ele>148.0</ele><time>2026-04-09T14:22:33.171Z</time></trkpt><trkpt lat="43.9352989" lon="12.5329767"><ele>147.66666666666669</ele><time>2026-04-09T14:22:34.166Z</time></trkpt><trkpt lat="43.9352295" lon="12.5330302"><ele>147.33333333333334</ele><time>2026-04-09T14:22:35.211Z</time></trkpt><trkpt lat="43.9351596" lon="12.5330863"><ele>147.0</ele><time>2026-04-09T14:22:36.215Z</time></trkpt><trkpt lat="43.9350916" lon="12.5331475"><ele>146.66666666666666</ele><time>2026-04-09T14:22:37.21Z</time></trkpt><trkpt lat="43.9350309" lon="12.5332135"><ele>146.33333333333331</ele><time>2026-04-09T14:22:38.196Z</time></trkpt><trkpt lat="43.9349681" lon="12.5332807"><ele>146.0</ele><time>2026-04-09T14:22:39.215Z</time></trkpt><trkpt lat="43.9349021" lon="12.5333451"><ele>146.0</ele><time>2026-04-09T14:22:40.206Z</time></trkpt><trkpt lat="43.9348417" lon="12.5334011"><ele>146.0</ele><time>2026-04-09T14:22:41.211Z</time></trkpt><trkpt lat="43.9347723" lon="12.5334478"><ele>146.0</ele><time>2026-04-09T14:22:42.209Z</time></trkpt><trkpt lat="43.934697" lon="12.5334729"><ele>146.0</ele><time>2026-04-09T14:22:43.226Z</time></trkpt><trkpt lat="43.9346211" lon="12.5334769"><ele>146.0</ele><time>2026-04-09T14:22:44.201Z</time></trkpt><trkpt lat="43.9345475" lon="12.5334857"><ele>146.0</ele><time>2026-04-09T14:22:45.204Z</time></trkpt><trkpt lat="43.934475" lon="12.5334836"><ele>146.0</ele><time>2026-04-09T14:22:46.204Z</time></trkpt><trkpt lat="43.9344029" lon="12.5334824"><ele>146.0</ele><time>2026-04-09T14:22:47.18Z</time></trkpt><trkpt lat="43.9343331" lon="12.5334735"><ele>146.0</ele><time>2026-04-09T14:22:48.17Z</time></trkpt><trkpt lat="43.9342673" lon="12.5334648"><ele>146.0</ele><time>2026-04-09T14:22:49.201Z</time></trkpt><trkpt lat="43.9341442" lon="12.5334455"><ele>146.0</ele><time>2026-04-09T14:22:51.184Z</time></trkpt><trkpt lat="43.9340313" lon="12.5334477"><ele>146.0</ele><time>2026-04-09T14:22:53.202Z</time></trkpt><trkpt lat="43.9339167" lon="12.5334789"><ele>146.0</ele><time>2026-04-09T14:22:55.218Z</time></trkpt><trkpt lat="43.9338038" lon="12.5335358"><ele>146.0</ele><time>2026-04-09T14:22:57.208Z</time></trkpt><trkpt lat="43.9336886" lon="12.5336093"><ele>146.0</ele><time>2026-04-09T14:22:59.195Z</time></trkpt><trkpt lat="43.9336261" lon="12.5336473"><ele>146.0</ele><time>2026-04-09T14:23:00.214Z</time></trkpt><trkpt lat="43.9335605" lon="12.533688"><ele>146.0</ele><time>2026-04-09T14:23:01.21Z</time></trkpt><trkpt lat="43.9334931" lon="12.533729"><ele>146.0</ele><time>2026-04-09T14:23:02.224Z</time></trkpt><trkpt lat="43.933421" lon="12.5337701"><ele>146.0</ele><time>2026-04-09T14:23:03.212Z</time></trkpt><trkpt lat="43.933354" lon="12.5338128"><ele>146.0</ele><time>2026-04-09T14:23:04.212Z</time></trkpt><trkpt lat="43.9332879" lon="12.5338599"><ele>146.0</ele><time>2026-04-09T14:23:05.168Z</time></trkpt><trkpt lat="43.933224" lon="12.5339116"><ele>146.0</ele><time>2026-04-09T14:23:06.205Z</time></trkpt><trkpt lat="43.9331652" lon="12.5339654"><ele>146.0</ele><time>2026-04-09T14:23:07.22Z</time></trkpt><trkpt lat="43.9331043" lon="12.5340177"><ele>146.0</ele><time>2026-04-09T14:23:08.207Z</time></trkpt><trkpt lat="43.9330456" lon="12.5340799"><ele>146.28571428571428</ele><time>2026-04-09T14:23:09.209Z</time></trkpt><trkpt lat="43.9329947" lon="12.5341453"><ele>146.57142857142858</ele><time>2026-04-09T14:23:10.202Z</time></trkpt><trkpt lat="43.9329458" lon="12.5342198"><ele>146.85714285714286</ele><time>2026-04-09T14:23:11.226Z</time></trkpt><trkpt lat="43.9328999" lon="12.5343023"><ele>147.14285714285714</ele><time>2026-04-09T14:23:12.174Z</time></trkpt><trkpt lat="43.9328598" lon="12.5343901"><ele>147.42857142857142</ele><time>2026-04-09T14:23:13.213Z</time></trkpt><trkpt lat="43.9328212" lon="12.5344781"><ele>147.71428571428572</ele><time>2026-04-09T14:23:14.226Z</time></trkpt><trkpt lat="43.9327843" lon="12.5345614"><ele>148.0</ele><time>2026-04-09T14:23:15.223Z</time></trkpt><trkpt lat="43.9327492" lon="12.5346531"><ele>146.83333333333334</ele><time>2026-04-09T14:23:16.195Z</time></trkpt><trkpt lat="43.932725" lon="12.5347536"><ele>145.66666666666669</ele><time>2026-04-09T14:23:17.186Z</time></trkpt><trkpt lat="43.932716" lon="12.5348665"><ele>144.5</ele><time>2026-04-09T14:23:18.149Z</time></trkpt><trkpt lat="43.932723" lon="12.5349836"><ele>143.33333333333334</ele><time>2026-04-09T14:23:19.169Z</time></trkpt><trkpt lat="43.9327378" lon="12.5351105"><ele>142.16666666666666</ele><time>2026-04-09T14:23:20.217Z</time></trkpt><trkpt lat="43.9327826" lon="12.5352397"><ele>141.0</ele><time>2026-04-09T14:23:21.215Z</time></trkpt><trkpt lat="43.93285" lon="12.5353577"><ele>140.0</ele><time>2026-04-09T14:23:22.174Z</time></trkpt><trkpt lat="43.9329302" lon="12.5354716"><ele>139.0</ele><time>2026-04-09T14:23:23.192Z</time></trkpt><trkpt lat="43.93301" lon="12.5355866"><ele>138.0</ele><time>2026-04-09T14:23:24.205Z</time></trkpt><trkpt lat="43.9330573" lon="12.5357211"><ele>137.0</ele><time>2026-04-09T14:23:25.191Z</time></trkpt><trkpt lat="43.9330656" lon="12.5358704"><ele>136.0</ele><time>2026-04-09T14:23:26.198Z</time></trkpt><trkpt lat="43.9330669" lon="12.5360144"><ele>135.99999999999997</ele><time>2026-04-09T14:23:27.215Z</time></trkpt><trkpt lat="43.9330825" lon="12.5361248"><ele>136.0</ele><time>2026-04-09T14:23:28.208Z</time></trkpt><trkpt lat="43.9331183" lon="12.5362206"><ele>136.0</ele><time>2026-04-09T14:23:29.207Z</time></trkpt><trkpt lat="43.9330506" lon="12.5362362"><ele>136.0</ele><time>2026-04-09T14:23:38.173Z</time></trkpt><trkpt lat="43.9331149" lon="12.5362516"><ele>136.0</ele><time>2026-04-09T14:23:43.173Z</time></trkpt><trkpt lat="43.9330485" lon="12.5362402"><ele>135.99999999999997</ele><time>2026-04-09T14:23:47.177Z</time></trkpt><trkpt lat="43.9329839" lon="12.5362152"><ele>136.0</ele><time>2026-04-09T14:23:51.21Z</time></trkpt><trkpt lat="43.9329129" lon="12.5362173"><ele>137.7142857142857</ele><time>2026-04-09T14:23:55.221Z</time></trkpt><trkpt lat="43.9328287" lon="12.5362439"><ele>139.42857142857142</ele><time>2026-04-09T14:23:59.198Z</time></trkpt><trkpt lat="43.9327693" lon="12.5362917"><ele>141.14285714285714</ele><time>2026-04-09T14:24:03.204Z</time></trkpt><trkpt lat="43.9327074" lon="12.5363422"><ele>142.85714285714283</ele><time>2026-04-09T14:24:09.166Z</time></trkpt><trkpt lat="43.932649" lon="12.5364132"><ele>144.57142857142856</ele><time>2026-04-09T14:24:14.201Z</time></trkpt><trkpt lat="43.9325949" lon="12.5364786"><ele>146.28571428571428</ele><time>2026-04-09T14:24:18.226Z</time></trkpt><trkpt lat="43.9325429" lon="12.5365357"><ele>148.0</ele><time>2026-04-09T14:24:22.22Z</time></trkpt><trkpt lat="43.9324835" lon="12.5365888"><ele>149.0</ele><time>2026-04-09T14:24:26.208Z</time></trkpt><trkpt lat="43.9324239" lon="12.5366357"><ele>150.0</ele><time>2026-04-09T14:24:30.203Z</time></trkpt><trkpt lat="43.9323547" lon="12.5366815"><ele>151.0</ele><time>2026-04-09T14:24:34.203Z</time></trkpt><trkpt lat="43.9322887" lon="12.5367094"><ele>152.0</ele><time>2026-04-09T14:24:38.201Z</time></trkpt><trkpt lat="43.9322175" lon="12.5367331"><ele>153.0</ele><time>2026-04-09T14:24:43.199Z</time></trkpt><trkpt lat="43.9321532" lon="12.5367703"><ele>154.0</ele><time>2026-04-09T14:24:48.18Z</time></trkpt><trkpt lat="43.9320893" lon="12.536815"><ele>155.0</ele><time>2026-04-09T14:24:53.211Z</time></trkpt><trkpt lat="43.932017" lon="12.5368325"><ele>155.0</ele><time>2026-04-09T14:24:58.187Z</time></trkpt><trkpt lat="43.9319529" lon="12.5368565"><ele>155.0</ele><time>2026-04-09T14:25:02.199Z</time></trkpt><trkpt lat="43.9318881" lon="12.5368896"><ele>155.0</ele><time>2026-04-09T14:25:06.211Z</time></trkpt><trkpt lat="43.9318299" lon="12.5369349"><ele>155.0</ele><time>2026-04-09T14:25:10.199Z</time></trkpt><trkpt lat="43.9317601" lon="12.5369908"><ele>155.0</ele><time>2026-04-09T14:25:14.215Z</time></trkpt><trkpt lat="43.931704" lon="12.5370484"><ele>155.0</ele><time>2026-04-09T14:25:18.201Z</time></trkpt><trkpt lat="43.9316497" lon="12.5370968"><ele>155.0</ele><time>2026-04-09T14:25:22.201Z</time></trkpt><trkpt lat="43.9316107" lon="12.5371746"><ele>157.71428571428572</ele><time>2026-04-09T14:25:26.22Z</time></trkpt><trkpt lat="43.9316493" lon="12.5372632"><ele>160.42857142857142</ele><time>2026-04-09T14:25:30.215Z</time></trkpt><trkpt lat="43.9317105" lon="12.5373089"><ele>163.14285714285714</ele><time>2026-04-09T14:25:34.209Z</time></trkpt><trkpt lat="43.9317826" lon="12.5373216"><ele>165.85714285714286</ele><time>2026-04-09T14:25:38.213Z</time></trkpt><trkpt lat="43.9318516" lon="12.5373326"><ele>168.57142857142858</ele><time>2026-04-09T14:25:42.202Z</time></trkpt><trkpt lat="43.9319212" lon="12.5373562"><ele>171.28571428571428</ele><time>2026-04-09T14:25:46.194Z</time></trkpt><trkpt lat="43.9319957" lon="12.5373488"><ele>174.0</ele><time>2026-04-09T14:25:50.178Z</time></trkpt><trkpt lat="43.9320722" lon="12.5373435"><ele>174.57142857142856</ele><time>2026-04-09T14:25:54.182Z</time></trkpt><trkpt lat="43.9321437" lon="12.5373546"><ele>175.14285714285714</ele><time>2026-04-09T14:25:58.191Z</time></trkpt><trkpt lat="43.9322103" lon="12.5373555"><ele>175.71428571428572</ele><time>2026-04-09T14:26:02.213Z</time></trkpt><trkpt lat="43.9322886" lon="12.5373437"><ele>176.28571428571428</ele><time>2026-04-09T14:26:06.206Z</time></trkpt><trkpt lat="43.9323687" lon="12.5373454"><ele>176.85714285714286</ele><time>2026-04-09T14:26:10.216Z</time></trkpt><trkpt lat="43.9324351" lon="12.5373437"><ele>177.42857142857142</ele><time>2026-04-09T14:26:14.204Z</time></trkpt><trkpt lat="43.9325082" lon="12.5373421"><ele>178.0</ele><time>2026-04-09T14:26:18.195Z</time></trkpt><trkpt lat="43.9325772" lon="12.5373399"><ele>177.99999999999997</ele><time>2026-04-09T14:26:22.202Z</time></trkpt><trkpt lat="43.9326313" lon="12.5373906"><ele>178.0</ele><time>2026-04-09T14:26:27.21Z</time></trkpt><trkpt lat="43.9325733" lon="12.5374371"><ele>178.0</ele><time>2026-04-09T14:26:33.22Z</time></trkpt><trkpt lat="43.9325029" lon="12.5374758"><ele>178.0</ele><time>2026-04-09T14:26:38.214Z</time></trkpt><trkpt lat="43.9324321" lon="12.5375241"><ele>178.0</ele><time>2026-04-09T14:26:43.21Z</time></trkpt><trkpt lat="43.9323768" lon="12.5375823"><ele>177.99999999999997</ele><time>2026-04-09T14:26:47.199Z</time></trkpt><trkpt lat="43.932318" lon="12.5376399"><ele>178.0</ele><time>2026-04-09T14:26:51.185Z</time></trkpt><trkpt lat="43.9322527" lon="12.5376924"><ele>178.0</ele><time>2026-04-09T14:26:55.217Z</time></trkpt><trkpt lat="43.9321918" lon="12.5377444"><ele>178.0</ele><time>2026-04-09T14:27:00.22Z</time></trkpt><trkpt lat="43.9321365" lon="12.5378206"><ele>178.0</ele><time>2026-04-09T14:27:05.212Z</time></trkpt><trkpt lat="43.9320755" lon="12.5378874"><ele>178.0</ele><time>2026-04-09T14:27:10.202Z</time></trkpt><trkpt lat="43.932017" lon="12.537942"><ele>178.0</ele><time>2026-04-09T14:27:15.197Z</time></trkpt><trkpt lat="43.931977" lon="12.5380326"><ele>178.0</ele><time>2026-04-09T14:27:22.212Z</time></trkpt><trkpt lat="43.9319362" lon="12.5381299"><ele>180.99999999999997</ele><time>2026-04-09T14:27:26.215Z</time></trkpt><trkpt lat="43.93191" lon="12.5382429"><ele>184.0</ele><time>2026-04-09T14:27:30.202Z</time></trkpt><trkpt lat="43.9319007" lon="12.5383299"><ele>187.0</ele><time>2026-04-09T14:27:33.217Z</time></trkpt><trkpt lat="43.9318789" lon="12.538434"><ele>190.0</ele><time>2026-04-09T14:27:38.188Z</time></trkpt><trkpt lat="43.9318699" lon="12.5385417"><ele>193.0</ele><time>2026-04-09T14:27:43.206Z</time></trkpt><trkpt lat="43.9318605" lon="12.5386341"><ele>195.99999999999997</ele><time>2026-04-09T14:27:47.203Z</time></trkpt><trkpt lat="43.9318404" lon="12.5387312"><ele>199.0</ele><time>2026-04-09T14:27:51.202Z</time></trkpt><trkpt lat="43.9318282" lon="12.5388277"><ele>200.57142857142856</ele><time>2026-04-09T14:27:55.212Z</time></trkpt><trkpt lat="43.9318246" lon="12.5389238"><ele>202.14285714285714</ele><time>2026-04-09T14:27:59.19Z</time></trkpt><trkpt lat="43.9318051" lon="12.5390199"><ele>203.71428571428572</ele><time>2026-04-09T14:28:03.226Z</time></trkpt><trkpt lat="43.9317835" lon="12.5391033"><ele>205.28571428571428</ele><time>2026-04-09T14:28:07.204Z</time></trkpt><trkpt lat="43.9317457" lon="12.5391956"><ele>206.85714285714286</ele><time>2026-04-09T14:28:12.175Z</time></trkpt><trkpt lat="43.9317089" lon="12.5392668"><ele>208.42857142857142</ele><time>2026-04-09T14:28:16.214Z</time></trkpt><trkpt lat="43.9316473" lon="12.53932"><ele>210.0</ele><time>2026-04-09T14:28:20.19Z</time></trkpt><trkpt lat="43.9315829" lon="12.5393835"><ele>210.0</ele><time>2026-04-09T14:28:24.207Z</time></trkpt><trkpt lat="43.9315299" lon="12.5394558"><ele>210.0</ele><time>2026-04-09T14:28:28.188Z</time></trkpt><trkpt lat="43.9314949" lon="12.5395343"><ele>210.0</ele><time>2026-04-09T14:28:32.235Z</time></trkpt><trkpt lat="43.9314529" lon="12.5396071"><ele>210.0</ele><time>2026-04-09T14:28:36.198Z</time></trkpt><trkpt lat="43.9314054" lon="12.5396933"><ele>210.0</ele><time>2026-04-09T14:28:40.173Z</time></trkpt><trkpt lat="43.9313615" lon="12.5398244"><ele>210.0</ele><time>2026-04-09T14:28:45.15Z</time></trkpt><trkpt lat="43.931333" lon="12.5399168"><ele>211.71428571428572</ele><time>2026-04-09T14:28:48.234Z</time></trkpt><trkpt lat="43.9313288" lon="12.5400083"><ele>213.42857142857144</ele><time>2026-04-09T14:28:51.156Z</time></trkpt><trkpt lat="43.9313213" lon="12.5401043"><ele>215.14285714285714</ele><time>2026-04-09T14:28:55.194Z</time></trkpt><trkpt lat="43.9313089" lon="12.5402134"><ele>216.85714285714286</ele><time>2026-04-09T14:28:59.154Z</time></trkpt><trkpt lat="43.9313058" lon="12.5403108"><ele>218.57142857142858</ele><time>2026-04-09T14:29:03.166Z</time></trkpt><trkpt lat="43.9312997" lon="12.540412"><ele>220.28571428571428</ele><time>2026-04-09T14:29:07.208Z</time></trkpt><trkpt lat="43.9312815" lon="12.5405046"><ele>222.0</ele><time>2026-04-09T14:29:11.198Z</time></trkpt><trkpt lat="43.9312676" lon="12.5406046"><ele>223.42857142857142</ele><time>2026-04-09T14:29:15.202Z</time></trkpt><trkpt lat="43.9312496" lon="12.5406944"><ele>224.8571428571429</ele><time>2026-04-09T14:29:19.208Z</time></trkpt><trkpt lat="43.9312349" lon="12.5408026"><ele>226.2857142857143</ele><time>2026-04-09T14:29:24.222Z</time></trkpt><trkpt lat="43.9312244" lon="12.5408911"><ele>227.71428571428572</ele><time>2026-04-09T14:29:28.207Z</time></trkpt><trkpt lat="43.931209" lon="12.5409764"><ele>229.14285714285717</ele><time>2026-04-09T14:29:32.208Z</time></trkpt><trkpt lat="43.9311958" lon="12.541078"><ele>230.5714285714286</ele><time>2026-04-09T14:29:37.195Z</time></trkpt><trkpt lat="43.9311884" lon="12.5411659"><ele>232.00000000000003</ele><time>2026-04-09T14:29:41.215Z</time></trkpt><trkpt lat="43.9311802" lon="12.541254"><ele>232.8571428571429</ele><time>2026-04-09T14:29:45.222Z</time></trkpt><trkpt lat="43.9311785" lon="12.5413542"><ele>233.71428571428572</ele><time>2026-04-09T14:29:49.185Z</time></trkpt><trkpt lat="43.9311726" lon="12.5414463"><ele>234.57142857142858</ele><time>2026-04-09T14:29:53.222Z</time></trkpt><trkpt lat="43.9311841" lon="12.5415324"><ele>235.42857142857144</ele><time>2026-04-09T14:29:57.225Z</time></trkpt><trkpt lat="43.9311954" lon="12.5416189"><ele>236.28571428571428</ele><time>2026-04-09T14:30:01.181Z</time></trkpt><trkpt lat="43.9312182" lon="12.5417007"><ele>237.14285714285714</ele><time>2026-04-09T14:30:05.203Z</time></trkpt><trkpt lat="43.9312528" lon="12.5417774"><ele>238.0</ele><time>2026-04-09T14:30:09.192Z</time></trkpt><trkpt lat="43.9313082" lon="12.5418492"><ele>238.0</ele><time>2026-04-09T14:30:13.211Z</time></trkpt><trkpt lat="43.9313552" lon="12.5419148"><ele>238.0</ele><time>2026-04-09T14:30:17.236Z</time></trkpt><trkpt lat="43.9312813" lon="12.5419345"><ele>238.0</ele><time>2026-04-09T14:30:34.209Z</time></trkpt><trkpt lat="43.9312172" lon="12.541896"><ele>238.0</ele><time>2026-04-09T14:30:37.202Z</time></trkpt><trkpt lat="43.9311488" lon="12.541861"><ele>238.0</ele><time>2026-04-09T14:30:40.213Z</time></trkpt><trkpt lat="43.9310906" lon="12.5418018"><ele>238.0</ele><time>2026-04-09T14:30:43.178Z</time></trkpt><trkpt lat="43.9310399" lon="12.5417337"><ele>238.0</ele><time>2026-04-09T14:30:46.194Z</time></trkpt><trkpt lat="43.9309859" lon="12.5416751"><ele>238.0</ele><time>2026-04-09T14:30:49.223Z</time></trkpt><trkpt lat="43.9309351" lon="12.5416049"><ele>238.0</ele><time>2026-04-09T14:30:52.182Z</time></trkpt><trkpt lat="43.9308835" lon="12.5415363"><ele>238.0</ele><time>2026-04-09T14:30:55.17Z</time></trkpt><trkpt lat="43.9308285" lon="12.5414675"><ele>238.0</ele><time>2026-04-09T14:30:58.203Z</time></trkpt><trkpt lat="43.9307752" lon="12.5414059"><ele>238.0</ele><time>2026-04-09T14:31:01.223Z</time></trkpt><trkpt lat="43.9307033" lon="12.5413507"><ele>238.0</ele><time>2026-04-09T14:31:04.216Z</time></trkpt><trkpt lat="43.9306378" lon="12.5412897"><ele>238.0</ele><time>2026-04-09T14:31:07.208Z</time></trkpt><trkpt lat="43.9305587" lon="12.5412266"><ele>237.49999999999997</ele><time>2026-04-09T14:31:10.19Z</time></trkpt><trkpt lat="43.9304901" lon="12.5411834"><ele>237.0</ele><time>2026-04-09T14:31:13.191Z</time></trkpt><trkpt lat="43.9304095" lon="12.5411479"><ele>236.5</ele><time>2026-04-09T14:31:16.203Z</time></trkpt><trkpt lat="43.9303176" lon="12.5411345"><ele>236.0</ele><time>2026-04-09T14:31:19.212Z</time></trkpt><trkpt lat="43.9302341" lon="12.5411133"><ele>235.49999999999997</ele><time>2026-04-09T14:31:22.22Z</time></trkpt><trkpt lat="43.9301509" lon="12.5411217"><ele>235.0</ele><time>2026-04-09T14:31:25.188Z</time></trkpt><trkpt lat="43.9300646" lon="12.5411446"><ele>236.49999999999997</ele><time>2026-04-09T14:31:28.21Z</time></trkpt><trkpt lat="43.9299756" lon="12.5411712"><ele>238.0</ele><time>2026-04-09T14:31:31.177Z</time></trkpt><trkpt lat="43.9299079" lon="12.541185"><ele>239.5</ele><time>2026-04-09T14:31:34.187Z</time></trkpt><trkpt lat="43.9298271" lon="12.5412232"><ele>241.0</ele><time>2026-04-09T14:31:37.204Z</time></trkpt><trkpt lat="43.9297455" lon="12.5412607"><ele>242.49999999999997</ele><time>2026-04-09T14:31:40.217Z</time></trkpt><trkpt lat="43.9296777" lon="12.5412777"><ele>244.0</ele><time>2026-04-09T14:31:43.219Z</time></trkpt><trkpt lat="43.9295855" lon="12.5413104"><ele>244.71428571428567</ele><time>2026-04-09T14:31:46.202Z</time></trkpt><trkpt lat="43.9294945" lon="12.5413212"><ele>245.42857142857142</ele><time>2026-04-09T14:31:49.214Z</time></trkpt><trkpt lat="43.9294244" lon="12.5413343"><ele>246.1428571428571</ele><time>2026-04-09T14:31:51.224Z</time></trkpt><trkpt lat="43.9293528" lon="12.5413543"><ele>246.85714285714283</ele><time>2026-04-09T14:31:53.209Z</time></trkpt><trkpt lat="43.9292863" lon="12.5413769"><ele>247.57142857142856</ele><time>2026-04-09T14:31:55.188Z</time></trkpt><trkpt lat="43.9292196" lon="12.5413999"><ele>248.28571428571428</ele><time>2026-04-09T14:31:57.219Z</time></trkpt><trkpt lat="43.9291488" lon="12.5414239"><ele>249.0</ele><time>2026-04-09T14:31:59.202Z</time></trkpt><trkpt lat="43.9290855" lon="12.5414591"><ele>249.0</ele><time>2026-04-09T14:32:01.234Z</time></trkpt><trkpt lat="43.9290153" lon="12.541511"><ele>248.99999999999997</ele><time>2026-04-09T14:32:03.205Z</time></trkpt><trkpt lat="43.9289566" lon="12.5415737"><ele>249.0</ele><time>2026-04-09T14:32:05.218Z</time></trkpt><trkpt lat="43.9289032" lon="12.5416325"><ele>249.0</ele><time>2026-04-09T14:32:07.195Z</time></trkpt><trkpt lat="43.9288492" lon="12.5416916"><ele>248.99999999999997</ele><time>2026-04-09T14:32:09.222Z</time></trkpt><trkpt lat="43.9287944" lon="12.541739"><ele>249.0</ele><time>2026-04-09T14:32:11.22Z</time></trkpt><trkpt lat="43.9287442" lon="12.541798"><ele>249.0</ele><time>2026-04-09T14:32:13.22Z</time></trkpt><trkpt lat="43.9286703" lon="12.5418725"><ele>249.0</ele><time>2026-04-09T14:32:16.213Z</time></trkpt><trkpt lat="43.9286079" lon="12.5419347"><ele>248.99999999999997</ele><time>2026-04-09T14:32:19.202Z</time></trkpt><trkpt lat="43.9285427" lon="12.5419778"><ele>249.0</ele><time>2026-04-09T14:32:22.184Z</time></trkpt><trkpt lat="43.928467" lon="12.5420223"><ele>249.0</ele><time>2026-04-09T14:32:26.176Z</time></trkpt><trkpt lat="43.9284011" lon="12.5420499"><ele>248.99999999999997</ele><time>2026-04-09T14:32:29.203Z</time></trkpt><trkpt lat="43.928339" lon="12.5420747"><ele>249.0</ele><time>2026-04-09T14:32:32.223Z</time></trkpt><trkpt lat="43.9282771" lon="12.5421025"><ele>249.0</ele><time>2026-04-09T14:32:35.212Z</time></trkpt><trkpt lat="43.9282" lon="12.5421222"><ele>250.28571428571428</ele><time>2026-04-09T14:32:39.219Z</time></trkpt><trkpt lat="43.9281313" lon="12.5421276"><ele>251.57142857142856</ele><time>2026-04-09T14:32:42.212Z</time></trkpt><trkpt lat="43.9280615" lon="12.542143"><ele>252.85714285714283</ele><time>2026-04-09T14:32:45.218Z</time></trkpt><trkpt lat="43.9279952" lon="12.5421613"><ele>254.1428571428571</ele><time>2026-04-09T14:32:48.237Z</time></trkpt><trkpt lat="43.9279153" lon="12.5421818"><ele>255.42857142857142</ele><time>2026-04-09T14:32:52.223Z</time></trkpt><trkpt lat="43.9278526" lon="12.5421953"><ele>256.71428571428567</ele><time>2026-04-09T14:32:55.237Z</time></trkpt><trkpt lat="43.9277907" lon="12.542222"><ele>258.0</ele><time>2026-04-09T14:32:58.224Z</time></trkpt><trkpt lat="43.9277274" lon="12.5422401"><ele>257.99999999999994</ele><time>2026-04-09T14:33:01.218Z</time></trkpt><trkpt lat="43.9276647" lon="12.5422574"><ele>258.0</ele><time>2026-04-09T14:33:04.189Z</time></trkpt><trkpt lat="43.9275882" lon="12.5422989"><ele>258.0</ele><time>2026-04-09T14:33:08.183Z</time></trkpt><trkpt lat="43.9275259" lon="12.5423395"><ele>258.0</ele><time>2026-04-09T14:33:11.21Z</time></trkpt><trkpt lat="43.9274617" lon="12.5423832"><ele>258.0</ele><time>2026-04-09T14:33:14.192Z</time></trkpt><trkpt lat="43.9273989" lon="12.5424305"><ele>257.99999999999994</ele><time>2026-04-09T14:33:17.191Z</time></trkpt><trkpt lat="43.9273316" lon="12.5424884"><ele>258.0</ele><time>2026-04-09T14:33:21.172Z</time></trkpt><trkpt lat="43.9272742" lon="12.5425501"><ele>258.71428571428567</ele><time>2026-04-09T14:33:24.216Z</time></trkpt><trkpt lat="43.9272153" lon="12.5426112"><ele>259.42857142857144</ele><time>2026-04-09T14:33:27.206Z</time></trkpt><trkpt lat="43.9271555" lon="12.5426715"><ele>260.1428571428571</ele><time>2026-04-09T14:33:30.215Z</time></trkpt><trkpt lat="43.927096" lon="12.54275"><ele>260.85714285714283</ele><time>2026-04-09T14:33:33.221Z</time></trkpt><trkpt lat="43.9270306" lon="12.5428243"><ele>261.57142857142856</ele><time>2026-04-09T14:33:36.194Z</time></trkpt><trkpt lat="43.9269777" lon="12.5428817"><ele>262.2857142857143</ele><time>2026-04-09T14:33:38.216Z</time></trkpt><trkpt lat="43.9269314" lon="12.5429434"><ele>263.0</ele><time>2026-04-09T14:33:40.212Z</time></trkpt><trkpt lat="43.9268793" lon="12.5430003"><ele>263.0</ele><time>2026-04-09T14:33:42.227Z</time></trkpt><trkpt lat="43.9268264" lon="12.5430557"><ele>263.0</ele><time>2026-04-09T14:33:44.223Z</time></trkpt><trkpt lat="43.9267685" lon="12.5431199"><ele>263.0</ele><time>2026-04-09T14:33:46.21Z</time></trkpt><trkpt lat="43.9267046" lon="12.5431782"><ele>263.0</ele><time>2026-04-09T14:33:48.183Z</time></trkpt><trkpt lat="43.926638" lon="12.5432157"><ele>263.0</ele><time>2026-04-09T14:33:50.202Z</time></trkpt><trkpt lat="43.9265668" lon="12.5432569"><ele>263.0</ele><time>2026-04-09T14:33:52.227Z</time></trkpt><trkpt lat="43.9265005" lon="12.5432837"><ele>263.0</ele><time>2026-04-09T14:33:54.22Z</time></trkpt><trkpt lat="43.926423" lon="12.5433187"><ele>265.6666666666667</ele><time>2026-04-09T14:33:56.219Z</time></trkpt><trkpt lat="43.9263401" lon="12.5433297"><ele>268.33333333333337</ele><time>2026-04-09T14:33:58.205Z</time></trkpt><trkpt lat="43.9262544" lon="12.5433552"><ele>271.0</ele><time>2026-04-09T14:34:00.212Z</time></trkpt><trkpt lat="43.9261633" lon="12.5433697"><ele>273.6666666666667</ele><time>2026-04-09T14:34:02.215Z</time></trkpt><trkpt lat="43.9260775" lon="12.5433857"><ele>276.3333333333333</ele><time>2026-04-09T14:34:04.222Z</time></trkpt><trkpt lat="43.9259953" lon="12.5433984"><ele>279.0</ele><time>2026-04-09T14:34:06.222Z</time></trkpt><trkpt lat="43.9258998" lon="12.5434224"><ele>279.4</ele><time>2026-04-09T14:34:08.188Z</time></trkpt><trkpt lat="43.9257987" lon="12.543427"><ele>279.79999999999995</ele><time>2026-04-09T14:34:10.214Z</time></trkpt><trkpt lat="43.92569" lon="12.5434288"><ele>280.20000000000005</ele><time>2026-04-09T14:34:12.219Z</time></trkpt><trkpt lat="43.9255844" lon="12.5434313"><ele>280.6</ele><time>2026-04-09T14:34:14.23Z</time></trkpt><trkpt lat="43.9254753" lon="12.54342"><ele>281.0</ele><time>2026-04-09T14:34:16.226Z</time></trkpt><trkpt lat="43.9253703" lon="12.5433961"><ele>281.0</ele><time>2026-04-09T14:34:18.213Z</time></trkpt><trkpt lat="43.9252653" lon="12.5433519"><ele>281.0</ele><time>2026-04-09T14:34:20.226Z</time></trkpt><trkpt lat="43.9251696" lon="12.5432968"><ele>281.0</ele><time>2026-04-09T14:34:22.224Z</time></trkpt><trkpt lat="43.9250816" lon="12.5432304"><ele>281.0</ele><time>2026-04-09T14:34:24.225Z</time></trkpt><trkpt lat="43.9250002" lon="12.5431655"><ele>281.0</ele><time>2026-04-09T14:34:26.23Z</time></trkpt><trkpt lat="43.9249318" lon="12.5430968"><ele>281.0</ele><time>2026-04-09T14:34:28.232Z</time></trkpt><trkpt lat="43.9248745" lon="12.5430362"><ele>281.0</ele><time>2026-04-09T14:34:30.179Z</time></trkpt><trkpt lat="43.9248228" lon="12.5429755"><ele>281.0</ele><time>2026-04-09T14:34:32.206Z</time></trkpt><trkpt lat="43.9247738" lon="12.5429154"><ele>281.0</ele><time>2026-04-09T14:34:34.208Z</time></trkpt><trkpt lat="43.9247091" lon="12.5428356"><ele>281.0</ele><time>2026-04-09T14:34:37.217Z</time></trkpt><trkpt lat="43.9246519" lon="12.5427569"><ele>281.0</ele><time>2026-04-09T14:34:40.218Z</time></trkpt><trkpt lat="43.9245949" lon="12.5426802"><ele>280.83333333333337</ele><time>2026-04-09T14:34:43.194Z</time></trkpt><trkpt lat="43.9245384" lon="12.5426051"><ele>280.6666666666667</ele><time>2026-04-09T14:34:46.226Z</time></trkpt><trkpt lat="43.9244862" lon="12.5425298"><ele>280.5</ele><time>2026-04-09T14:34:49.222Z</time></trkpt><trkpt lat="43.9244393" lon="12.5424527"><ele>280.3333333333333</ele><time>2026-04-09T14:34:52.22Z</time></trkpt><trkpt lat="43.9243852" lon="12.5423729"><ele>280.16666666666663</ele><time>2026-04-09T14:34:55.226Z</time></trkpt><trkpt lat="43.9243302" lon="12.5423031"><ele>280.0</ele><time>2026-04-09T14:34:58.231Z</time></trkpt><trkpt lat="43.9242769" lon="12.5422335"><ele>281.85714285714283</ele><time>2026-04-09T14:35:01.244Z</time></trkpt><trkpt lat="43.9242269" lon="12.5421598"><ele>283.7142857142857</ele><time>2026-04-09T14:35:04.211Z</time></trkpt><trkpt lat="43.9241774" lon="12.5420908"><ele>285.57142857142856</ele><time>2026-04-09T14:35:07.231Z</time></trkpt><trkpt lat="43.9241273" lon="12.5420205"><ele>287.42857142857144</ele><time>2026-04-09T14:35:10.242Z</time></trkpt><trkpt lat="43.9240824" lon="12.5419519"><ele>289.2857142857143</ele><time>2026-04-09T14:35:13.223Z</time></trkpt><trkpt lat="43.9240375" lon="12.5418851"><ele>291.1428571428571</ele><time>2026-04-09T14:35:16.234Z</time></trkpt><trkpt lat="43.9239878" lon="12.5418296"><ele>293.0</ele><time>2026-04-09T14:35:19.165Z</time></trkpt><trkpt lat="43.9239356" lon="12.5417705"><ele>292.99999999999994</ele><time>2026-04-09T14:35:22.224Z</time></trkpt><trkpt lat="43.9238827" lon="12.541685"><ele>293.0</ele><time>2026-04-09T14:35:26.219Z</time></trkpt><trkpt lat="43.9238343" lon="12.5416235"><ele>293.0</ele><time>2026-04-09T14:35:29.217Z</time></trkpt><trkpt lat="43.9237831" lon="12.5415644"><ele>293.0</ele><time>2026-04-09T14:35:32.226Z</time></trkpt><trkpt lat="43.9237339" lon="12.5414992"><ele>293.0</ele><time>2026-04-09T14:35:35.192Z</time></trkpt><trkpt lat="43.9236892" lon="12.5414287"><ele>292.99999999999994</ele><time>2026-04-09T14:35:38.199Z</time></trkpt><trkpt lat="43.923641" lon="12.5413707"><ele>293.0</ele><time>2026-04-09T14:35:41.195Z</time></trkpt><trkpt lat="43.9235951" lon="12.5413075"><ele>292.99999999999994</ele><time>2026-04-09T14:35:44.219Z</time></trkpt><trkpt lat="43.9235473" lon="12.5412235"><ele>293.0</ele><time>2026-04-09T14:35:48.211Z</time></trkpt><trkpt lat="43.9234898" lon="12.5411569"><ele>293.0</ele><time>2026-04-09T14:35:52.224Z</time></trkpt><trkpt lat="43.9234381" lon="12.5410925"><ele>293.0</ele><time>2026-04-09T14:35:56.22Z</time></trkpt><trkpt lat="43.9233843" lon="12.541016"><ele>293.0</ele><time>2026-04-09T14:36:01.17Z</time></trkpt><trkpt lat="43.9233302" lon="12.5409536"><ele>292.99999999999994</ele><time>2026-04-09T14:36:05.226Z</time></trkpt><trkpt lat="43.9232849" lon="12.5408859"><ele>293.0</ele><time>2026-04-09T14:36:09.219Z</time></trkpt><trkpt lat="43.9232271" lon="12.5408081"><ele>295.85714285714283</ele><time>2026-04-09T14:36:13.175Z</time></trkpt><trkpt lat="43.9231727" lon="12.5407426"><ele>298.7142857142857</ele><time>2026-04-09T14:36:17.216Z</time></trkpt><trkpt lat="43.9231124" lon="12.5406853"><ele>301.57142857142856</ele><time>2026-04-09T14:36:21.227Z</time></trkpt><trkpt lat="43.9230404" lon="12.5406283"><ele>304.42857142857144</ele><time>2026-04-09T14:36:25.228Z</time></trkpt><trkpt lat="43.9229784" lon="12.5405868"><ele>307.2857142857143</ele><time>2026-04-09T14:36:29.233Z</time></trkpt><trkpt lat="43.9229187" lon="12.540553"><ele>310.1428571428571</ele><time>2026-04-09T14:36:32.223Z</time></trkpt><trkpt lat="43.9228619" lon="12.5405137"><ele>313.0</ele><time>2026-04-09T14:36:35.226Z</time></trkpt><trkpt lat="43.9228024" lon="12.5404844"><ele>313.0</ele><time>2026-04-09T14:36:38.205Z</time></trkpt><trkpt lat="43.9227416" lon="12.5404559"><ele>313.0</ele><time>2026-04-09T14:36:41.213Z</time></trkpt><trkpt lat="43.9226601" lon="12.5404343"><ele>313.0</ele><time>2026-04-09T14:36:45.224Z</time></trkpt><trkpt lat="43.9225824" lon="12.5404595"><ele>313.0</ele><time>2026-04-09T14:36:49.227Z</time></trkpt><trkpt lat="43.9225284" lon="12.5405121"><ele>313.0</ele><time>2026-04-09T14:36:52.187Z</time></trkpt><trkpt lat="43.9224687" lon="12.5405915"><ele>313.0</ele><time>2026-04-09T14:36:56.224Z</time></trkpt><trkpt lat="43.9224404" lon="12.5406729"><ele>313.0</ele><time>2026-04-09T14:36:59.215Z</time></trkpt><trkpt lat="43.9224196" lon="12.5407781"><ele>313.0</ele><time>2026-04-09T14:37:03.229Z</time></trkpt><trkpt lat="43.9224246" lon="12.5408666"><ele>313.0</ele><time>2026-04-09T14:37:06.235Z</time></trkpt><trkpt lat="43.9224584" lon="12.5409546"><ele>313.0</ele><time>2026-04-09T14:37:09.221Z</time></trkpt><trkpt lat="43.922494" lon="12.5410328"><ele>313.0</ele><time>2026-04-09T14:37:12.25Z</time></trkpt><trkpt lat="43.9225493" lon="12.5411"><ele>313.0</ele><time>2026-04-09T14:37:15.183Z</time></trkpt><trkpt lat="43.9226028" lon="12.5411619"><ele>313.0</ele><time>2026-04-09T14:37:18.21Z</time></trkpt><trkpt lat="43.9226647" lon="12.5412212"><ele>313.0</ele><time>2026-04-09T14:37:21.222Z</time></trkpt><trkpt lat="43.9227216" lon="12.5412786"><ele>314.3333333333333</ele><time>2026-04-09T14:37:24.234Z</time></trkpt><trkpt lat="43.9227775" lon="12.541339"><ele>315.66666666666663</ele><time>2026-04-09T14:37:27.204Z</time></trkpt><trkpt lat="43.9228324" lon="12.5414283"><ele>317.0</ele><time>2026-04-09T14:37:31.236Z</time></trkpt><trkpt lat="43.9228723" lon="12.541518"><ele>318.3333333333333</ele><time>2026-04-09T14:37:34.23Z</time></trkpt><trkpt lat="43.922903" lon="12.541631"><ele>319.6666666666667</ele><time>2026-04-09T14:37:37.225Z</time></trkpt><trkpt lat="43.922928" lon="12.5417338"><ele>321.0</ele><time>2026-04-09T14:37:40.222Z</time></trkpt><trkpt lat="43.9229334" lon="12.5418478"><ele>321.0</ele><time>2026-04-09T14:37:43.21Z</time></trkpt><trkpt lat="43.9229191" lon="12.5419639"><ele>321.0</ele><time>2026-04-09T14:37:46.223Z</time></trkpt><trkpt lat="43.9228873" lon="12.542067"><ele>321.0</ele><time>2026-04-09T14:37:49.21Z</time></trkpt><trkpt lat="43.9228436" lon="12.5421624"><ele>321.0</ele><time>2026-04-09T14:37:52.224Z</time></trkpt><trkpt lat="43.9227974" lon="12.542246"><ele>321.0</ele><time>2026-04-09T14:37:55.192Z</time></trkpt><trkpt lat="43.922754" lon="12.5423274"><ele>321.0</ele><time>2026-04-09T14:37:58.212Z</time></trkpt><trkpt lat="43.9227107" lon="12.5423954"><ele>320.1428571428571</ele><time>2026-04-09T14:38:01.224Z</time></trkpt><trkpt lat="43.922667" lon="12.5424623"><ele>319.2857142857143</ele><time>2026-04-09T14:38:04.22Z</time></trkpt><trkpt lat="43.9226151" lon="12.5425328"><ele>318.42857142857144</ele><time>2026-04-09T14:38:07.207Z</time></trkpt><trkpt lat="43.9225734" lon="12.5426082"><ele>317.57142857142856</ele><time>2026-04-09T14:38:10.238Z</time></trkpt><trkpt lat="43.9225286" lon="12.5426735"><ele>316.7142857142857</ele><time>2026-04-09T14:38:13.178Z</time></trkpt><trkpt lat="43.9224774" lon="12.5427433"><ele>315.85714285714283</ele><time>2026-04-09T14:38:16.214Z</time></trkpt><trkpt lat="43.9224271" lon="12.5428042"><ele>315.0</ele><time>2026-04-09T14:38:19.207Z</time></trkpt><trkpt lat="43.9223825" lon="12.5428783"><ele>317.2857142857143</ele><time>2026-04-09T14:38:22.221Z</time></trkpt><trkpt lat="43.9223261" lon="12.5429275"><ele>319.57142857142856</ele><time>2026-04-09T14:38:25.232Z</time></trkpt><trkpt lat="43.9222606" lon="12.542961"><ele>321.8571428571429</ele><time>2026-04-09T14:38:28.172Z</time></trkpt><trkpt lat="43.9221879" lon="12.5430128"><ele>324.1428571428571</ele><time>2026-04-09T14:38:32.218Z</time></trkpt><trkpt lat="43.9221257" lon="12.5430403"><ele>326.42857142857144</ele><time>2026-04-09T14:38:35.21Z</time></trkpt><trkpt lat="43.9220638" lon="12.5430578"><ele>328.7142857142857</ele><time>2026-04-09T14:38:38.217Z</time></trkpt><trkpt lat="43.9219875" lon="12.5430682"><ele>331.0</ele><time>2026-04-09T14:38:42.212Z</time></trkpt><trkpt lat="43.9219093" lon="12.5430685"><ele>331.0</ele><time>2026-04-09T14:38:46.22Z</time></trkpt><trkpt lat="43.9218404" lon="12.5430539"><ele>331.0</ele><time>2026-04-09T14:38:49.201Z</time></trkpt><trkpt lat="43.9217658" lon="12.5430543"><ele>331.0</ele><time>2026-04-09T14:38:52.222Z</time></trkpt><trkpt lat="43.9216869" lon="12.5430486"><ele>331.0</ele><time>2026-04-09T14:38:56.222Z</time></trkpt><trkpt lat="43.9216148" lon="12.5430496"><ele>331.0</ele><time>2026-04-09T14:38:59.213Z</time></trkpt><trkpt lat="43.9215462" lon="12.543053"><ele>331.0</ele><time>2026-04-09T14:39:02.229Z</time></trkpt><trkpt lat="43.9214753" lon="12.5430502"><ele>331.0</ele><time>2026-04-09T14:39:05.168Z</time></trkpt><trkpt lat="43.9214117" lon="12.5430473"><ele>333.2857142857143</ele><time>2026-04-09T14:39:08.228Z</time></trkpt><trkpt lat="43.9213419" lon="12.5430499"><ele>335.57142857142856</ele><time>2026-04-09T14:39:11.211Z</time></trkpt><trkpt lat="43.9212586" lon="12.543055"><ele>337.8571428571429</ele><time>2026-04-09T14:39:15.223Z</time></trkpt><trkpt lat="43.9211813" lon="12.5430708"><ele>340.1428571428571</ele><time>2026-04-09T14:39:18.199Z</time></trkpt><trkpt lat="43.9211196" lon="12.5430884"><ele>342.4285714285714</ele><time>2026-04-09T14:39:21.22Z</time></trkpt><trkpt lat="43.9210476" lon="12.5430856"><ele>344.7142857142857</ele><time>2026-04-09T14:39:24.218Z</time></trkpt><trkpt lat="43.9209723" lon="12.5431005"><ele>347.0</ele><time>2026-04-09T14:39:27.238Z</time></trkpt><trkpt lat="43.9209101" lon="12.5431312"><ele>347.83333333333337</ele><time>2026-04-09T14:39:30.217Z</time></trkpt><trkpt lat="43.9208493" lon="12.5431982"><ele>348.6666666666667</ele><time>2026-04-09T14:39:33.227Z</time></trkpt><trkpt lat="43.9207964" lon="12.5432832"><ele>349.5</ele><time>2026-04-09T14:39:36.211Z</time></trkpt><trkpt lat="43.9207536" lon="12.543391"><ele>350.3333333333333</ele><time>2026-04-09T14:39:39.158Z</time></trkpt><trkpt lat="43.9207258" lon="12.5435135"><ele>351.16666666666663</ele><time>2026-04-09T14:39:42.192Z</time></trkpt><trkpt lat="43.9206881" lon="12.5436271"><ele>352.0</ele><time>2026-04-09T14:39:45.206Z</time></trkpt><trkpt lat="43.9206512" lon="12.5437426"><ele>352.0</ele><time>2026-04-09T14:39:48.224Z</time></trkpt><trkpt lat="43.9205931" lon="12.5438135"><ele>352.0</ele><time>2026-04-09T14:39:51.2Z</time></trkpt><trkpt lat="43.9205292" lon="12.5438689"><ele>352.0</ele><time>2026-04-09T14:39:54.204Z</time></trkpt><trkpt lat="43.9204807" lon="12.5439576"><ele>352.0</ele><time>2026-04-09T14:39:57.219Z</time></trkpt><trkpt lat="43.920406" lon="12.5440218"><ele>352.0</ele><time>2026-04-09T14:40:00.198Z</time></trkpt><trkpt lat="43.920336" lon="12.5441028"><ele>352.0</ele><time>2026-04-09T14:40:03.222Z</time></trkpt><trkpt lat="43.9202762" lon="12.54418"><ele>352.0</ele><time>2026-04-09T14:40:06.251Z</time></trkpt><trkpt lat="43.9202231" lon="12.5442779"><ele>352.0</ele><time>2026-04-09T14:40:09.207Z</time></trkpt><trkpt lat="43.9201575" lon="12.5443396"><ele>352.0</ele><time>2026-04-09T14:40:12.213Z</time></trkpt><trkpt lat="43.9201003" lon="12.5444063"><ele>352.0</ele><time>2026-04-09T14:40:15.187Z</time></trkpt><trkpt lat="43.9200413" lon="12.544485"><ele>352.0</ele><time>2026-04-09T14:40:18.226Z</time></trkpt><trkpt lat="43.9199687" lon="12.5445607"><ele>352.0</ele><time>2026-04-09T14:40:21.222Z</time></trkpt><trkpt lat="43.9198999" lon="12.5446367"><ele>353.66666666666663</ele><time>2026-04-09T14:40:24.238Z</time></trkpt><trkpt lat="43.9198336" lon="12.5446979"><ele>355.3333333333333</ele><time>2026-04-09T14:40:27.217Z</time></trkpt><trkpt lat="43.919779" lon="12.544772"><ele>357.0</ele><time>2026-04-09T14:40:30.22Z</time></trkpt><trkpt lat="43.9197075" lon="12.5448384"><ele>358.6666666666667</ele><time>2026-04-09T14:40:33.184Z</time></trkpt><trkpt lat="43.9196392" lon="12.5448413"><ele>360.33333333333337</ele><time>2026-04-09T14:40:36.222Z</time></trkpt><trkpt lat="43.9195934" lon="12.544771"><ele>362.0</ele><time>2026-04-09T14:40:40.214Z</time></trkpt><trkpt lat="43.9196131" lon="12.5446466"><ele>362.0</ele><time>2026-04-09T14:40:43.207Z</time></trkpt><trkpt lat="43.9196093" lon="12.5445547"><ele>362.0</ele><time>2026-04-09T14:40:45.202Z</time></trkpt><trkpt lat="43.9196217" lon="12.5444624"><ele>362.0</ele><time>2026-04-09T14:40:47.166Z</time></trkpt><trkpt lat="43.9196322" lon="12.5443731"><ele>362.0</ele><time>2026-04-09T14:40:49.198Z</time></trkpt><trkpt lat="43.9196344" lon="12.5442678"><ele>362.0</ele><time>2026-04-09T14:40:51.204Z</time></trkpt><trkpt lat="43.9196381" lon="12.5441609"><ele>362.0</ele><time>2026-04-09T14:40:53.234Z</time></trkpt><trkpt lat="43.9196397" lon="12.5440367"><ele>362.0</ele><time>2026-04-09T14:40:55.214Z</time></trkpt><trkpt lat="43.9196234" lon="12.5438726"><ele>362.83333333333337</ele><time>2026-04-09T14:40:57.177Z</time></trkpt><trkpt lat="43.9196111" lon="12.5437839"><ele>363.6666666666667</ele><time>2026-04-09T14:40:58.214Z</time></trkpt><trkpt lat="43.9195886" lon="12.5436168"><ele>364.5</ele><time>2026-04-09T14:41:00.222Z</time></trkpt><trkpt lat="43.9195723" lon="12.5435261"><ele>365.3333333333333</ele><time>2026-04-09T14:41:01.216Z</time></trkpt><trkpt lat="43.9195586" lon="12.5434406"><ele>366.16666666666663</ele><time>2026-04-09T14:41:02.215Z</time></trkpt><trkpt lat="43.9195522" lon="12.5433496"><ele>367.0</ele><time>2026-04-09T14:41:03.189Z</time></trkpt><trkpt lat="43.9195436" lon="12.5432581"><ele>367.8</ele><time>2026-04-09T14:41:04.207Z</time></trkpt><trkpt lat="43.9195343" lon="12.5431679"><ele>368.6</ele><time>2026-04-09T14:41:05.204Z</time></trkpt><trkpt lat="43.9195229" lon="12.5429964"><ele>369.40000000000003</ele><time>2026-04-09T14:41:07.215Z</time></trkpt><trkpt lat="43.9195226" lon="12.5428199"><ele>370.20000000000005</ele><time>2026-04-09T14:41:09.215Z</time></trkpt><trkpt lat="43.9195067" lon="12.5426455"><ele>371.0</ele><time>2026-04-09T14:41:11.223Z</time></trkpt><trkpt lat="43.9194855" lon="12.54256"><ele>371.0</ele><time>2026-04-09T14:41:12.192Z</time></trkpt><trkpt lat="43.9194631" lon="12.5424706"><ele>371.0</ele><time>2026-04-09T14:41:13.235Z</time></trkpt><trkpt lat="43.9194453" lon="12.5423838"><ele>371.0</ele><time>2026-04-09T14:41:14.216Z</time></trkpt><trkpt lat="43.9194215" lon="12.5423003"><ele>371.0</ele><time>2026-04-09T14:41:15.209Z</time></trkpt><trkpt lat="43.9193928" lon="12.5422212"><ele>371.0</ele><time>2026-04-09T14:41:16.214Z</time></trkpt><trkpt lat="43.9193312" lon="12.5420702"><ele>371.0</ele><time>2026-04-09T14:41:18.158Z</time></trkpt><trkpt lat="43.9192746" lon="12.5419291"><ele>370.83333333333337</ele><time>2026-04-09T14:41:20.214Z</time></trkpt><trkpt lat="43.919221" lon="12.5417814"><ele>370.6666666666667</ele><time>2026-04-09T14:41:22.212Z</time></trkpt><trkpt lat="43.9191981" lon="12.5416473"><ele>370.5</ele><time>2026-04-09T14:41:24.227Z</time></trkpt><trkpt lat="43.9191671" lon="12.5415657"><ele>370.3333333333333</ele><time>2026-04-09T14:41:26.221Z</time></trkpt><trkpt lat="43.9191245" lon="12.5414552"><ele>370.16666666666663</ele><time>2026-04-09T14:41:28.234Z</time></trkpt><trkpt lat="43.9190696" lon="12.5413888"><ele>370.0</ele><time>2026-04-09T14:41:30.235Z</time></trkpt><trkpt lat="43.9190032" lon="12.5413314"><ele>370.0</ele><time>2026-04-09T14:41:32.22Z</time></trkpt><trkpt lat="43.9189401" lon="12.5412566"><ele>370.0</ele><time>2026-04-09T14:41:34.221Z</time></trkpt><trkpt lat="43.9188823" lon="12.5411863"><ele>370.0</ele><time>2026-04-09T14:41:36.221Z</time></trkpt><trkpt lat="43.9188331" lon="12.5411248"><ele>370.0</ele><time>2026-04-09T14:41:38.192Z</time></trkpt><trkpt lat="43.9187743" lon="12.5410335"><ele>370.0</ele><time>2026-04-09T14:41:41.222Z</time></trkpt><trkpt lat="43.9187145" lon="12.5409418"><ele>370.0</ele><time>2026-04-09T14:41:44.23Z</time></trkpt><trkpt lat="43.9186627" lon="12.5408873"><ele>370.1428571428571</ele><time>2026-04-09T14:41:46.197Z</time></trkpt><trkpt lat="43.9186114" lon="12.5408247"><ele>370.2857142857143</ele><time>2026-04-09T14:41:48.213Z</time></trkpt><trkpt lat="43.9185705" lon="12.5407512"><ele>370.42857142857144</ele><time>2026-04-09T14:41:50.202Z</time></trkpt><trkpt lat="43.9185254" lon="12.5406835"><ele>370.57142857142856</ele><time>2026-04-09T14:41:52.188Z</time></trkpt><trkpt lat="43.9184817" lon="12.5405839"><ele>370.7142857142857</ele><time>2026-04-09T14:41:55.23Z</time></trkpt><trkpt lat="43.9184736" lon="12.5404967"><ele>370.85714285714283</ele><time>2026-04-09T14:41:57.216Z</time></trkpt><trkpt lat="43.9184739" lon="12.5404006"><ele>371.0</ele><time>2026-04-09T14:41:59.215Z</time></trkpt><trkpt lat="43.9184845" lon="12.5402982"><ele>371.0</ele><time>2026-04-09T14:42:01.216Z</time></trkpt><trkpt lat="43.9184921" lon="12.5402031"><ele>371.0</ele><time>2026-04-09T14:42:03.181Z</time></trkpt><trkpt lat="43.9185025" lon="12.5400965"><ele>371.0</ele><time>2026-04-09T14:42:05.226Z</time></trkpt><trkpt lat="43.9185137" lon="12.5399848"><ele>371.0</ele><time>2026-04-09T14:42:07.228Z</time></trkpt><trkpt lat="43.9185298" lon="12.53987"><ele>371.0</ele><time>2026-04-09T14:42:09.199Z</time></trkpt><trkpt lat="43.9185327" lon="12.5397296"><ele>371.0</ele><time>2026-04-09T14:42:11.226Z</time></trkpt><trkpt lat="43.9185243" lon="12.5396189"><ele>370.0</ele><time>2026-04-09T14:42:13.2Z</time></trkpt><trkpt lat="43.9185344" lon="12.5395107"><ele>369.0</ele><time>2026-04-09T14:42:15.189Z</time></trkpt><trkpt lat="43.9185392" lon="12.5394015"><ele>368.0</ele><time>2026-04-09T14:42:17.202Z</time></trkpt><trkpt lat="43.9185563" lon="12.5392887"><ele>367.0</ele><time>2026-04-09T14:42:19.203Z</time></trkpt><trkpt lat="43.9185781" lon="12.5391828"><ele>366.0</ele><time>2026-04-09T14:42:21.192Z</time></trkpt><trkpt lat="43.9185774" lon="12.539064"><ele>365.0</ele><time>2026-04-09T14:42:23.23Z</time></trkpt><trkpt lat="43.9185683" lon="12.5389582"><ele>365.00000000000006</ele><time>2026-04-09T14:42:25.178Z</time></trkpt><trkpt lat="43.9185552" lon="12.5388556"><ele>365.0</ele><time>2026-04-09T14:42:27.214Z</time></trkpt><trkpt lat="43.9185455" lon="12.5387645"><ele>365.0</ele><time>2026-04-09T14:42:29.207Z</time></trkpt><trkpt lat="43.9185397" lon="12.5386673"><ele>365.0</ele><time>2026-04-09T14:42:31.22Z</time></trkpt><trkpt lat="43.9185298" lon="12.5385449"><ele>365.0</ele><time>2026-04-09T14:42:34.221Z</time></trkpt><trkpt lat="43.9185348" lon="12.5384536"><ele>365.00000000000006</ele><time>2026-04-09T14:42:36.249Z</time></trkpt><trkpt lat="43.9185584" lon="12.5383592"><ele>365.0</ele><time>2026-04-09T14:42:38.209Z</time></trkpt><trkpt lat="43.9185968" lon="12.5382548"><ele>365.0</ele><time>2026-04-09T14:42:40.21Z</time></trkpt><trkpt lat="43.9186383" lon="12.5381481"><ele>365.0</ele><time>2026-04-09T14:42:42.215Z</time></trkpt><trkpt lat="43.9186731" lon="12.5380188"><ele>365.0</ele><time>2026-04-09T14:42:44.198Z</time></trkpt><trkpt lat="43.9187066" lon="12.537884"><ele>365.0</ele><time>2026-04-09T14:42:46.227Z</time></trkpt><trkpt lat="43.9187506" lon="12.537752"><ele>365.0</ele><time>2026-04-09T14:42:48.212Z</time></trkpt><trkpt lat="43.9187976" lon="12.5376125"><ele>366.1666666666667</ele><time>2026-04-09T14:42:50.238Z</time></trkpt><trkpt lat="43.9188575" lon="12.5374603"><ele>367.33333333333337</ele><time>2026-04-09T14:42:52.218Z</time></trkpt><trkpt lat="43.9188878" lon="12.5373793"><ele>368.5</ele><time>2026-04-09T14:42:53.206Z</time></trkpt><trkpt lat="43.9189199" lon="12.5372988"><ele>369.6666666666667</ele><time>2026-04-09T14:42:54.194Z</time></trkpt><trkpt lat="43.9189502" lon="12.53721"><ele>370.8333333333333</ele><time>2026-04-09T14:42:55.214Z</time></trkpt><trkpt lat="43.9189797" lon="12.5371168"><ele>372.0</ele><time>2026-04-09T14:42:56.232Z</time></trkpt><trkpt lat="43.9190042" lon="12.5370173"><ele>373.3333333333333</ele><time>2026-04-09T14:42:57.215Z</time></trkpt><trkpt lat="43.9190378" lon="12.5369105"><ele>374.6666666666667</ele><time>2026-04-09T14:42:58.224Z</time></trkpt><trkpt lat="43.9190621" lon="12.5368039"><ele>376.0</ele><time>2026-04-09T14:42:59.19Z</time></trkpt><trkpt lat="43.9190908" lon="12.5366936"><ele>377.33333333333337</ele><time>2026-04-09T14:43:00.188Z</time></trkpt><trkpt lat="43.9191172" lon="12.5365827"><ele>378.6666666666667</ele><time>2026-04-09T14:43:01.213Z</time></trkpt><trkpt lat="43.9191417" lon="12.5364615"><ele>380.0</ele><time>2026-04-09T14:43:02.204Z</time></trkpt><trkpt lat="43.9191621" lon="12.5363388"><ele>381.1666666666667</ele><time>2026-04-09T14:43:03.17Z</time></trkpt><trkpt lat="43.9191815" lon="12.5362155"><ele>382.33333333333337</ele><time>2026-04-09T14:43:04.196Z</time></trkpt><trkpt lat="43.9192048" lon="12.5361005"><ele>383.5</ele><time>2026-04-09T14:43:05.172Z</time></trkpt><trkpt lat="43.9192411" lon="12.5359854"><ele>384.6666666666667</ele><time>2026-04-09T14:43:06.225Z</time></trkpt><trkpt lat="43.919283" lon="12.5358751"><ele>385.8333333333333</ele><time>2026-04-09T14:43:07.213Z</time></trkpt><trkpt lat="43.9193326" lon="12.5357826"><ele>387.0</ele><time>2026-04-09T14:43:08.201Z</time></trkpt><trkpt lat="43.9193873" lon="12.5356974"><ele>386.3333333333333</ele><time>2026-04-09T14:43:09.213Z</time></trkpt><trkpt lat="43.9194427" lon="12.5356192"><ele>385.6666666666667</ele><time>2026-04-09T14:43:10.209Z</time></trkpt><trkpt lat="43.9195096" lon="12.5355538"><ele>385.0</ele><time>2026-04-09T14:43:11.212Z</time></trkpt><trkpt lat="43.9195802" lon="12.5355112"><ele>384.33333333333337</ele><time>2026-04-09T14:43:12.223Z</time></trkpt><trkpt lat="43.9196497" lon="12.5354783"><ele>383.6666666666667</ele><time>2026-04-09T14:43:13.216Z</time></trkpt><trkpt lat="43.91972" lon="12.535428"><ele>383.0</ele><time>2026-04-09T14:43:14.232Z</time></trkpt><trkpt lat="43.9197909" lon="12.5353731"><ele>383.0</ele><time>2026-04-09T14:43:15.211Z</time></trkpt><trkpt lat="43.9198535" lon="12.535302"><ele>383.0</ele><time>2026-04-09T14:43:16.212Z</time></trkpt><trkpt lat="43.9199142" lon="12.5352272"><ele>383.0</ele><time>2026-04-09T14:43:17.152Z</time></trkpt><trkpt lat="43.9199731" lon="12.5351395"><ele>383.0</ele><time>2026-04-09T14:43:18.182Z</time></trkpt><trkpt lat="43.9200279" lon="12.5350478"><ele>383.0</ele><time>2026-04-09T14:43:19.228Z</time></trkpt><trkpt lat="43.9200834" lon="12.5349582"><ele>383.0</ele><time>2026-04-09T14:43:20.202Z</time></trkpt><trkpt lat="43.920141" lon="12.5348753"><ele>379.6666666666667</ele><time>2026-04-09T14:43:21.207Z</time></trkpt><trkpt lat="43.920201" lon="12.5348085"><ele>376.33333333333337</ele><time>2026-04-09T14:43:22.199Z</time></trkpt><trkpt lat="43.9202714" lon="12.5347518"><ele>373.0</ele><time>2026-04-09T14:43:23.212Z</time></trkpt><trkpt lat="43.9203393" lon="12.5346943"><ele>369.6666666666667</ele><time>2026-04-09T14:43:24.206Z</time></trkpt><trkpt lat="43.9204123" lon="12.534651"><ele>366.3333333333333</ele><time>2026-04-09T14:43:25.215Z</time></trkpt><trkpt lat="43.9204858" lon="12.5346057"><ele>363.0</ele><time>2026-04-09T14:43:26.208Z</time></trkpt><trkpt lat="43.9205541" lon="12.5345602"><ele>361.8333333333333</ele><time>2026-04-09T14:43:27.217Z</time></trkpt><trkpt lat="43.9206283" lon="12.5345038"><ele>360.6666666666667</ele><time>2026-04-09T14:43:28.21Z</time></trkpt><trkpt lat="43.9206966" lon="12.5344558"><ele>359.5</ele><time>2026-04-09T14:43:29.16Z</time></trkpt><trkpt lat="43.9207604" lon="12.5343999"><ele>358.33333333333337</ele><time>2026-04-09T14:43:30.198Z</time></trkpt><trkpt lat="43.9208145" lon="12.5343443"><ele>357.1666666666667</ele><time>2026-04-09T14:43:31.168Z</time></trkpt><trkpt lat="43.9208684" lon="12.5342716"><ele>356.0</ele><time>2026-04-09T14:43:32.2Z</time></trkpt><trkpt lat="43.9209152" lon="12.5341957"><ele>356.0</ele><time>2026-04-09T14:43:33.204Z</time></trkpt><trkpt lat="43.9209488" lon="12.5341131"><ele>356.0</ele><time>2026-04-09T14:43:34.168Z</time></trkpt><trkpt lat="43.9209788" lon="12.5340323"><ele>356.0</ele><time>2026-04-09T14:43:35.198Z</time></trkpt><trkpt lat="43.9210135" lon="12.5338771"><ele>356.0</ele><time>2026-04-09T14:43:37.147Z</time></trkpt><trkpt lat="43.9210405" lon="12.5337264"><ele>356.0</ele><time>2026-04-09T14:43:39.176Z</time></trkpt><trkpt lat="43.9210538" lon="12.5335792"><ele>356.6</ele><time>2026-04-09T14:43:41.151Z</time></trkpt><trkpt lat="43.9210721" lon="12.5334319"><ele>357.20000000000005</ele><time>2026-04-09T14:43:43.151Z</time></trkpt><trkpt lat="43.9210866" lon="12.5332932"><ele>357.79999999999995</ele><time>2026-04-09T14:43:45.15Z</time></trkpt><trkpt lat="43.9211011" lon="12.5331628"><ele>358.4</ele><time>2026-04-09T14:43:47.15Z</time></trkpt><trkpt lat="43.9211305" lon="12.53304"><ele>359.0</ele><time>2026-04-09T14:43:49.152Z</time></trkpt><trkpt lat="43.9211645" lon="12.5329027"><ele>361.4</ele><time>2026-04-09T14:43:51.176Z</time></trkpt><trkpt lat="43.9212158" lon="12.5327818"><ele>363.79999999999995</ele><time>2026-04-09T14:43:53.203Z</time></trkpt><trkpt lat="43.9212784" lon="12.5326638"><ele>366.20000000000005</ele><time>2026-04-09T14:43:55.197Z</time></trkpt><trkpt lat="43.9213475" lon="12.5325483"><ele>368.6</ele><time>2026-04-09T14:43:57.204Z</time></trkpt><trkpt lat="43.921417" lon="12.5324401"><ele>371.0</ele><time>2026-04-09T14:43:59.194Z</time></trkpt><trkpt lat="43.9214739" lon="12.5323437"><ele>371.0</ele><time>2026-04-09T14:44:01.225Z</time></trkpt><trkpt lat="43.9215186" lon="12.5322592"><ele>371.0</ele><time>2026-04-09T14:44:03.181Z</time></trkpt><trkpt lat="43.9215622" lon="12.5321795"><ele>371.0</ele><time>2026-04-09T14:44:05.178Z</time></trkpt><trkpt lat="43.9216043" lon="12.5321104"><ele>371.0</ele><time>2026-04-09T14:44:07.176Z</time></trkpt><trkpt lat="43.9216396" lon="12.5320372"><ele>371.0</ele><time>2026-04-09T14:44:09.183Z</time></trkpt><trkpt lat="43.9216713" lon="12.5319444"><ele>371.0</ele><time>2026-04-09T14:44:11.176Z</time></trkpt><trkpt lat="43.921697" lon="12.531838"><ele>371.0</ele><time>2026-04-09T14:44:13.185Z</time></trkpt><trkpt lat="43.9217251" lon="12.5317433"><ele>368.85714285714283</ele><time>2026-04-09T14:44:15.209Z</time></trkpt><trkpt lat="43.9217335" lon="12.5316391"><ele>366.7142857142857</ele><time>2026-04-09T14:44:17.219Z</time></trkpt><trkpt lat="43.9217593" lon="12.5315406"><ele>364.57142857142856</ele><time>2026-04-09T14:44:19.167Z</time></trkpt><trkpt lat="43.9217685" lon="12.5314474"><ele>362.42857142857144</ele><time>2026-04-09T14:44:21.218Z</time></trkpt><trkpt lat="43.9217736" lon="12.531357"><ele>360.2857142857143</ele><time>2026-04-09T14:44:23.156Z</time></trkpt><trkpt lat="43.9217684" lon="12.5312695"><ele>358.1428571428571</ele><time>2026-04-09T14:44:25.203Z</time></trkpt><trkpt lat="43.9217588" lon="12.5311415"><ele>356.0</ele><time>2026-04-09T14:44:28.189Z</time></trkpt><trkpt lat="43.9217382" lon="12.5310242"><ele>360.83333333333337</ele><time>2026-04-09T14:44:31.216Z</time></trkpt><trkpt lat="43.9217226" lon="12.5309391"><ele>365.6666666666667</ele><time>2026-04-09T14:44:33.208Z</time></trkpt><trkpt lat="43.9217003" lon="12.5308307"><ele>370.5</ele><time>2026-04-09T14:44:36.223Z</time></trkpt><trkpt lat="43.9216468" lon="12.5307297"><ele>375.33333333333337</ele><time>2026-04-09T14:44:39.187Z</time></trkpt><trkpt lat="43.9215969" lon="12.5306345"><ele>380.1666666666667</ele><time>2026-04-09T14:44:42.207Z</time></trkpt><trkpt lat="43.921547" lon="12.5305408"><ele>385.0</ele><time>2026-04-09T14:44:45.153Z</time></trkpt><trkpt lat="43.921507" lon="12.5304729"><ele>383.6666666666667</ele><time>2026-04-09T14:44:47.15Z</time></trkpt><trkpt lat="43.9214677" lon="12.5303798"><ele>382.33333333333337</ele><time>2026-04-09T14:44:50.152Z</time></trkpt><trkpt lat="43.9214242" lon="12.5302669"><ele>381.0</ele><time>2026-04-09T14:44:53.206Z</time></trkpt><trkpt lat="43.9213809" lon="12.530184"><ele>379.6666666666667</ele><time>2026-04-09T14:44:55.228Z</time></trkpt><trkpt lat="43.9213373" lon="12.5300687"><ele>378.33333333333337</ele><time>2026-04-09T14:44:58.188Z</time></trkpt><trkpt lat="43.9213121" lon="12.5299852"><ele>377.0</ele><time>2026-04-09T14:45:00.216Z</time></trkpt><trkpt lat="43.9212862" lon="12.5299047"><ele>376.99999999999994</ele><time>2026-04-09T14:45:02.211Z</time></trkpt><trkpt lat="43.9212609" lon="12.5298206"><ele>377.0</ele><time>2026-04-09T14:45:04.211Z</time></trkpt><trkpt lat="43.921222" lon="12.5297051"><ele>377.0</ele><time>2026-04-09T14:45:07.226Z</time></trkpt><trkpt lat="43.9211993" lon="12.5296205"><ele>377.0</ele><time>2026-04-09T14:45:09.217Z</time></trkpt><trkpt lat="43.9211835" lon="12.5295274"><ele>377.0</ele><time>2026-04-09T14:45:11.195Z</time></trkpt><trkpt lat="43.9211558" lon="12.5294355"><ele>376.99999999999994</ele><time>2026-04-09T14:45:13.218Z</time></trkpt><trkpt lat="43.9211331" lon="12.5293458"><ele>377.0</ele><time>2026-04-09T14:45:15.199Z</time></trkpt><trkpt lat="43.9211132" lon="12.5292518"><ele>376.6666666666667</ele><time>2026-04-09T14:45:17.202Z</time></trkpt><trkpt lat="43.9210935" lon="12.5291477"><ele>376.33333333333337</ele><time>2026-04-09T14:45:19.159Z</time></trkpt><trkpt lat="43.921086" lon="12.5290417"><ele>376.0</ele><time>2026-04-09T14:45:21.208Z</time></trkpt><trkpt lat="43.9210789" lon="12.5289221"><ele>375.6666666666667</ele><time>2026-04-09T14:45:23.157Z</time></trkpt><trkpt lat="43.921095" lon="12.5288002"><ele>375.3333333333333</ele><time>2026-04-09T14:45:25.219Z</time></trkpt><trkpt lat="43.9211166" lon="12.5286769"><ele>375.0</ele><time>2026-04-09T14:45:27.209Z</time></trkpt><trkpt lat="43.9211395" lon="12.5285535"><ele>376.0</ele><time>2026-04-09T14:45:29.163Z</time></trkpt><trkpt lat="43.9211589" lon="12.528429"><ele>377.0</ele><time>2026-04-09T14:45:31.17Z</time></trkpt><trkpt lat="43.9211885" lon="12.5282998"><ele>378.0</ele><time>2026-04-09T14:45:33.189Z</time></trkpt><trkpt lat="43.9212202" lon="12.5281816"><ele>379.0</ele><time>2026-04-09T14:45:35.179Z</time></trkpt><trkpt lat="43.9212472" lon="12.5280599"><ele>380.0</ele><time>2026-04-09T14:45:37.223Z</time></trkpt><trkpt lat="43.9212856" lon="12.5279336"><ele>382.4</ele><time>2026-04-09T14:45:39.193Z</time></trkpt><trkpt lat="43.9213209" lon="12.5278122"><ele>384.8</ele><time>2026-04-09T14:45:41.207Z</time></trkpt><trkpt lat="43.9213605" lon="12.5276851"><ele>387.20000000000005</ele><time>2026-04-09T14:45:43.241Z</time></trkpt><trkpt lat="43.9214107" lon="12.5275688"><ele>389.6</ele><time>2026-04-09T14:45:45.2Z</time></trkpt><trkpt lat="43.921463" lon="12.5274531"><ele>392.0</ele><time>2026-04-09T14:45:47.203Z</time></trkpt><trkpt lat="43.9215338" lon="12.5273482"><ele>392.0</ele><time>2026-04-09T14:45:49.175Z</time></trkpt><trkpt lat="43.9216227" lon="12.5272705"><ele>392.0</ele><time>2026-04-09T14:45:51.226Z</time></trkpt><trkpt lat="43.9217177" lon="12.5272234"><ele>392.0</ele><time>2026-04-09T14:45:53.225Z</time></trkpt><trkpt lat="43.9218142" lon="12.5271829"><ele>392.0</ele><time>2026-04-09T14:45:55.247Z</time></trkpt><trkpt lat="43.9219107" lon="12.5271542"><ele>392.0</ele><time>2026-04-09T14:45:57.227Z</time></trkpt><trkpt lat="43.922004" lon="12.5271228"><ele>391.6</ele><time>2026-04-09T14:45:59.224Z</time></trkpt><trkpt lat="43.9220951" lon="12.5270762"><ele>391.20000000000005</ele><time>2026-04-09T14:46:01.171Z</time></trkpt><trkpt lat="43.9221734" lon="12.5270047"><ele>390.8</ele><time>2026-04-09T14:46:03.216Z</time></trkpt><trkpt lat="43.9222481" lon="12.5269156"><ele>390.4</ele><time>2026-04-09T14:46:05.218Z</time></trkpt><trkpt lat="43.9223115" lon="12.5268129"><ele>390.0</ele><time>2026-04-09T14:46:07.225Z</time></trkpt><trkpt lat="43.9223676" lon="12.5266932"><ele>390.0</ele><time>2026-04-09T14:46:09.217Z</time></trkpt><trkpt lat="43.922407" lon="12.5265419"><ele>390.0</ele><time>2026-04-09T14:46:11.177Z</time></trkpt><trkpt lat="43.9224278" lon="12.526379"><ele>390.0</ele><time>2026-04-09T14:46:13.193Z</time></trkpt><trkpt lat="43.9224525" lon="12.5262159"><ele>390.0</ele><time>2026-04-09T14:46:15.192Z</time></trkpt><trkpt lat="43.9224668" lon="12.5261294"><ele>390.0</ele><time>2026-04-09T14:46:16.236Z</time></trkpt><trkpt lat="43.9224863" lon="12.5260454"><ele>391.42857142857144</ele><time>2026-04-09T14:46:17.211Z</time></trkpt><trkpt lat="43.9225058" lon="12.5259601"><ele>392.85714285714283</ele><time>2026-04-09T14:46:18.216Z</time></trkpt><trkpt lat="43.9225284" lon="12.5258748"><ele>394.28571428571433</ele><time>2026-04-09T14:46:19.216Z</time></trkpt><trkpt lat="43.9225551" lon="12.5257898"><ele>395.7142857142857</ele><time>2026-04-09T14:46:20.191Z</time></trkpt><trkpt lat="43.922582" lon="12.5257055"><ele>397.14285714285717</ele><time>2026-04-09T14:46:21.207Z</time></trkpt><trkpt lat="43.9226081" lon="12.5256254"><ele>398.5714285714286</ele><time>2026-04-09T14:46:22.213Z</time></trkpt><trkpt lat="43.9226386" lon="12.5255443"><ele>400.0</ele><time>2026-04-09T14:46:23.176Z</time></trkpt><trkpt lat="43.9226681" lon="12.5254636"><ele>399.14285714285717</ele><time>2026-04-09T14:46:24.24Z</time></trkpt><trkpt lat="43.9227007" lon="12.5253792"><ele>398.2857142857143</ele><time>2026-04-09T14:46:25.196Z</time></trkpt><trkpt lat="43.922742" lon="12.5252989"><ele>397.42857142857144</ele><time>2026-04-09T14:46:26.195Z</time></trkpt><trkpt lat="43.9227949" lon="12.525231"><ele>396.57142857142856</ele><time>2026-04-09T14:46:27.217Z</time></trkpt><trkpt lat="43.9228557" lon="12.5251924"><ele>395.7142857142857</ele><time>2026-04-09T14:46:28.207Z</time></trkpt><trkpt lat="43.922927" lon="12.5251688"><ele>394.8571428571429</ele><time>2026-04-09T14:46:29.172Z</time></trkpt><trkpt lat="43.9229919" lon="12.5251555"><ele>394.0</ele><time>2026-04-09T14:46:30.205Z</time></trkpt><trkpt lat="43.9230588" lon="12.525144"><ele>394.0</ele><time>2026-04-09T14:46:31.203Z</time></trkpt><trkpt lat="43.9231287" lon="12.5251309"><ele>394.0</ele><time>2026-04-09T14:46:32.209Z</time></trkpt><trkpt lat="43.9231933" lon="12.5251152"><ele>394.0</ele><time>2026-04-09T14:46:33.179Z</time></trkpt><trkpt lat="43.9232519" lon="12.5250807"><ele>394.0</ele><time>2026-04-09T14:46:34.21Z</time></trkpt><trkpt lat="43.9233116" lon="12.5250433"><ele>394.0</ele><time>2026-04-09T14:46:35.203Z</time></trkpt><trkpt lat="43.9233757" lon="12.5249993"><ele>394.0</ele><time>2026-04-09T14:46:36.237Z</time></trkpt><trkpt lat="43.923432" lon="12.5249474"><ele>394.0</ele><time>2026-04-09T14:46:37.207Z</time></trkpt><trkpt lat="43.9234947" lon="12.5249003"><ele>391.6666666666667</ele><time>2026-04-09T14:46:38.223Z</time></trkpt><trkpt lat="43.9235543" lon="12.5248439"><ele>389.33333333333337</ele><time>2026-04-09T14:46:39.216Z</time></trkpt><trkpt lat="43.923618" lon="12.5247754"><ele>387.0</ele><time>2026-04-09T14:46:40.207Z</time></trkpt><trkpt lat="43.9236811" lon="12.524703"><ele>384.6666666666667</ele><time>2026-04-09T14:46:41.19Z</time></trkpt><trkpt lat="43.9237456" lon="12.5246259"><ele>382.33333333333337</ele><time>2026-04-09T14:46:42.202Z</time></trkpt><trkpt lat="43.9238037" lon="12.5245338"><ele>380.0</ele><time>2026-04-09T14:46:43.244Z</time></trkpt><trkpt lat="43.9238467" lon="12.5244316"><ele>380.0</ele><time>2026-04-09T14:46:44.191Z</time></trkpt><trkpt lat="43.92388" lon="12.5243177"><ele>380.0</ele><time>2026-04-09T14:46:45.237Z</time></trkpt><trkpt lat="43.9239068" lon="12.5242026"><ele>380.0</ele><time>2026-04-09T14:46:46.224Z</time></trkpt><trkpt lat="43.9239255" lon="12.5240859"><ele>380.0</ele><time>2026-04-09T14:46:47.239Z</time></trkpt><trkpt lat="43.9239259" lon="12.5239761"><ele>380.0</ele><time>2026-04-09T14:46:48.216Z</time></trkpt><trkpt lat="43.9239214" lon="12.5238642"><ele>380.0</ele><time>2026-04-09T14:46:49.206Z</time></trkpt><trkpt lat="43.9239031" lon="12.5237544"><ele>379.5</ele><time>2026-04-09T14:46:50.229Z</time></trkpt><trkpt lat="43.9238776" lon="12.5236457"><ele>379.0</ele><time>2026-04-09T14:46:51.221Z</time></trkpt><trkpt lat="43.9238426" lon="12.5235367"><ele>378.5</ele><time>2026-04-09T14:46:52.179Z</time></trkpt><trkpt lat="43.9238057" lon="12.5234315"><ele>378.0</ele><time>2026-04-09T14:46:53.186Z</time></trkpt><trkpt lat="43.9237698" lon="12.5233178"><ele>377.5</ele><time>2026-04-09T14:46:54.151Z</time></trkpt><trkpt lat="43.9237416" lon="12.5231961"><ele>377.0</ele><time>2026-04-09T14:46:55.217Z</time></trkpt><trkpt lat="43.9237165" lon="12.523067"><ele>377.0</ele><time>2026-04-09T14:46:56.222Z</time></trkpt><trkpt lat="43.9236919" lon="12.5229413"><ele>377.0</ele><time>2026-04-09T14:46:57.208Z</time></trkpt><trkpt lat="43.9236769" lon="12.5228147"><ele>377.0</ele><time>2026-04-09T14:46:58.225Z</time></trkpt><trkpt lat="43.9236703" lon="12.5226944"><ele>377.0</ele><time>2026-04-09T14:46:59.222Z</time></trkpt><trkpt lat="43.9236772" lon="12.5225716"><ele>377.0</ele><time>2026-04-09T14:47:00.19Z</time></trkpt><trkpt lat="43.9237003" lon="12.5224557"><ele>377.0</ele><time>2026-04-09T14:47:01.193Z</time></trkpt><trkpt lat="43.9237268" lon="12.522334"><ele>376.8</ele><time>2026-04-09T14:47:02.213Z</time></trkpt><trkpt lat="43.9237524" lon="12.5222123"><ele>376.6</ele><time>2026-04-09T14:47:03.218Z</time></trkpt><trkpt lat="43.9237797" lon="12.5220945"><ele>376.40000000000003</ele><time>2026-04-09T14:47:04.221Z</time></trkpt><trkpt lat="43.9238217" lon="12.5219749"><ele>376.20000000000005</ele><time>2026-04-09T14:47:05.193Z</time></trkpt><trkpt lat="43.9238714" lon="12.5218542"><ele>376.0</ele><time>2026-04-09T14:47:06.19Z</time></trkpt><trkpt lat="43.9239341" lon="12.5217321"><ele>376.0</ele><time>2026-04-09T14:47:07.231Z</time></trkpt><trkpt lat="43.9240169" lon="12.5216197"><ele>376.0</ele><time>2026-04-09T14:47:08.185Z</time></trkpt><trkpt lat="43.9241042" lon="12.5215151"><ele>376.0</ele><time>2026-04-09T14:47:09.196Z</time></trkpt><trkpt lat="43.9242118" lon="12.5214115"><ele>376.0</ele><time>2026-04-09T14:47:10.223Z</time></trkpt><trkpt lat="43.9243168" lon="12.521303"><ele>372.5</ele><time>2026-04-09T14:47:11.224Z</time></trkpt><trkpt lat="43.9244191" lon="12.5212081"><ele>369.0</ele><time>2026-04-09T14:47:12.224Z</time></trkpt><trkpt lat="43.9245192" lon="12.5211046"><ele>365.5</ele><time>2026-04-09T14:47:13.215Z</time></trkpt><trkpt lat="43.9246268" lon="12.5209968"><ele>362.0</ele><time>2026-04-09T14:47:14.189Z</time></trkpt><trkpt lat="43.9247304" lon="12.520891"><ele>362.0</ele><time>2026-04-09T14:47:15.164Z</time></trkpt><trkpt lat="43.9248305" lon="12.5207913"><ele>362.0</ele><time>2026-04-09T14:47:16.215Z</time></trkpt><trkpt lat="43.9249291" lon="12.5206838"><ele>362.0</ele><time>2026-04-09T14:47:17.228Z</time></trkpt><trkpt lat="43.9250292" lon="12.5205825"><ele>362.0</ele><time>2026-04-09T14:47:18.172Z</time></trkpt><trkpt lat="43.9251334" lon="12.5204769"><ele>359.25</ele><time>2026-04-09T14:47:19.189Z</time></trkpt><trkpt lat="43.9252408" lon="12.5203711"><ele>356.5</ele><time>2026-04-09T14:47:20.19Z</time></trkpt><trkpt lat="43.9253408" lon="12.5202711"><ele>353.75</ele><time>2026-04-09T14:47:21.187Z</time></trkpt><trkpt lat="43.9254312" lon="12.5201825"><ele>351.0</ele><time>2026-04-09T14:47:22.212Z</time></trkpt><trkpt lat="43.9255182" lon="12.5200982"><ele>351.0</ele><time>2026-04-09T14:47:23.209Z</time></trkpt><trkpt lat="43.9255867" lon="12.5200066"><ele>351.0</ele><time>2026-04-09T14:47:24.198Z</time></trkpt><trkpt lat="43.9256009" lon="12.5198887"><ele>351.0</ele><time>2026-04-09T14:47:25.204Z</time></trkpt><trkpt lat="43.9255506" lon="12.5197417"><ele>351.0</ele><time>2026-04-09T14:47:26.232Z</time></trkpt><trkpt lat="43.9254627" lon="12.5196284"><ele>351.0</ele><time>2026-04-09T14:47:27.213Z</time></trkpt><trkpt lat="43.9253693" lon="12.5195329"><ele>347.75</ele><time>2026-04-09T14:47:28.226Z</time></trkpt><trkpt lat="43.925288" lon="12.5194168"><ele>344.5</ele><time>2026-04-09T14:47:29.162Z</time></trkpt><trkpt lat="43.9252322" lon="12.5192711"><ele>341.25</ele><time>2026-04-09T14:47:30.204Z</time></trkpt><trkpt lat="43.92519" lon="12.519118"><ele>338.0</ele><time>2026-04-09T14:47:31.186Z</time></trkpt><trkpt lat="43.9251545" lon="12.5189598"><ele>338.0</ele><time>2026-04-09T14:47:32.221Z</time></trkpt><trkpt lat="43.9251205" lon="12.5188028"><ele>338.0</ele><time>2026-04-09T14:47:33.224Z</time></trkpt><trkpt lat="43.9250932" lon="12.5186428"><ele>338.0</ele><time>2026-04-09T14:47:34.213Z</time></trkpt><trkpt lat="43.9250656" lon="12.5184757"><ele>338.0</ele><time>2026-04-09T14:47:35.196Z</time></trkpt><trkpt lat="43.9250462" lon="12.5183045"><ele>338.5</ele><time>2026-04-09T14:47:36.177Z</time></trkpt><trkpt lat="43.9250368" lon="12.51814"><ele>339.0</ele><time>2026-04-09T14:47:37.195Z</time></trkpt><trkpt lat="43.925042" lon="12.5179778"><ele>339.5</ele><time>2026-04-09T14:47:38.214Z</time></trkpt><trkpt lat="43.9250804" lon="12.5178384"><ele>340.0</ele><time>2026-04-09T14:47:39.198Z</time></trkpt><trkpt lat="43.9251378" lon="12.5177042"><ele>337.0</ele><time>2026-04-09T14:47:40.169Z</time></trkpt><trkpt lat="43.9251883" lon="12.5175516"><ele>334.0</ele><time>2026-04-09T14:47:41.195Z</time></trkpt><trkpt lat="43.9252083" lon="12.5173788"><ele>331.0</ele><time>2026-04-09T14:47:42.218Z</time></trkpt><trkpt lat="43.9252279" lon="12.5172108"><ele>328.0</ele><time>2026-04-09T14:47:43.188Z</time></trkpt><trkpt lat="43.925212" lon="12.517053"><ele>328.0</ele><time>2026-04-09T14:47:44.191Z</time></trkpt><trkpt lat="43.9251752" lon="12.516895"><ele>328.0</ele><time>2026-04-09T14:47:45.186Z</time></trkpt><trkpt lat="43.9251355" lon="12.5167346"><ele>328.0</ele><time>2026-04-09T14:47:46.216Z</time></trkpt><trkpt lat="43.9250872" lon="12.5165856"><ele>328.0</ele><time>2026-04-09T14:47:47.215Z</time></trkpt><trkpt lat="43.9250407" lon="12.5164427"><ele>328.0</ele><time>2026-04-09T14:47:48.213Z</time></trkpt><trkpt lat="43.9250052" lon="12.5162959"><ele>328.0</ele><time>2026-04-09T14:47:49.218Z</time></trkpt><trkpt lat="43.9249706" lon="12.5161493"><ele>328.0</ele><time>2026-04-09T14:47:50.234Z</time></trkpt><trkpt lat="43.9249311" lon="12.5160063"><ele>328.0</ele><time>2026-04-09T14:47:51.166Z</time></trkpt><trkpt lat="43.9248962" lon="12.5158625"><ele>328.0</ele><time>2026-04-09T14:47:52.236Z</time></trkpt><trkpt lat="43.9248693" lon="12.515709"><ele>326.79999999999995</ele><time>2026-04-09T14:47:53.198Z</time></trkpt><trkpt lat="43.9248368" lon="12.5155605"><ele>325.6</ele><time>2026-04-09T14:47:54.214Z</time></trkpt><trkpt lat="43.9248057" lon="12.5154167"><ele>324.4</ele><time>2026-04-09T14:47:55.218Z</time></trkpt><trkpt lat="43.9247765" lon="12.5152746"><ele>323.20000000000005</ele><time>2026-04-09T14:47:56.226Z</time></trkpt><trkpt lat="43.9247561" lon="12.5151367"><ele>322.0</ele><time>2026-04-09T14:47:57.204Z</time></trkpt><trkpt lat="43.9247398" lon="12.5150061"><ele>321.16666666666663</ele><time>2026-04-09T14:47:58.218Z</time></trkpt><trkpt lat="43.9247345" lon="12.5148861"><ele>320.3333333333333</ele><time>2026-04-09T14:47:59.227Z</time></trkpt><trkpt lat="43.9247388" lon="12.5147745"><ele>319.5</ele><time>2026-04-09T14:48:00.213Z</time></trkpt><trkpt lat="43.9247415" lon="12.5146669"><ele>318.6666666666667</ele><time>2026-04-09T14:48:01.192Z</time></trkpt><trkpt lat="43.9247446" lon="12.5145613"><ele>317.83333333333337</ele><time>2026-04-09T14:48:02.223Z</time></trkpt><trkpt lat="43.9247458" lon="12.5144537"><ele>317.0</ele><time>2026-04-09T14:48:03.22Z</time></trkpt><trkpt lat="43.9247443" lon="12.5143467"><ele>316.33333333333337</ele><time>2026-04-09T14:48:04.218Z</time></trkpt><trkpt lat="43.9247449" lon="12.5142409"><ele>315.6666666666667</ele><time>2026-04-09T14:48:05.225Z</time></trkpt><trkpt lat="43.924747" lon="12.5141233"><ele>315.0</ele><time>2026-04-09T14:48:06.21Z</time></trkpt><trkpt lat="43.9247553" lon="12.5140029"><ele>314.3333333333333</ele><time>2026-04-09T14:48:07.222Z</time></trkpt><trkpt lat="43.924758" lon="12.5138797"><ele>313.66666666666663</ele><time>2026-04-09T14:48:08.23Z</time></trkpt><trkpt lat="43.9247585" lon="12.5137446"><ele>313.0</ele><time>2026-04-09T14:48:09.226Z</time></trkpt><trkpt lat="43.9247617" lon="12.51361"><ele>312.6</ele><time>2026-04-09T14:48:10.21Z</time></trkpt><trkpt lat="43.9247728" lon="12.5134729"><ele>312.20000000000005</ele><time>2026-04-09T14:48:11.201Z</time></trkpt><trkpt lat="43.9247845" lon="12.5133332"><ele>311.8</ele><time>2026-04-09T14:48:12.206Z</time></trkpt><trkpt lat="43.9248055" lon="12.5132012"><ele>311.40000000000003</ele><time>2026-04-09T14:48:13.216Z</time></trkpt><trkpt lat="43.924835" lon="12.5130608"><ele>311.0</ele><time>2026-04-09T14:48:14.217Z</time></trkpt><trkpt lat="43.924871" lon="12.5129102"><ele>310.25</ele><time>2026-04-09T14:48:15.225Z</time></trkpt><trkpt lat="43.9248959" lon="12.5127496"><ele>309.5</ele><time>2026-04-09T14:48:16.229Z</time></trkpt><trkpt lat="43.9248978" lon="12.5125722"><ele>308.75</ele><time>2026-04-09T14:48:17.182Z</time></trkpt><trkpt lat="43.9248839" lon="12.5123983"><ele>308.0</ele><time>2026-04-09T14:48:18.229Z</time></trkpt><trkpt lat="43.924859" lon="12.5122078"><ele>307.5</ele><time>2026-04-09T14:48:19.206Z</time></trkpt><trkpt lat="43.9248331" lon="12.512022"><ele>307.0</ele><time>2026-04-09T14:48:20.201Z</time></trkpt><trkpt lat="43.9248062" lon="12.5118167"><ele>306.5</ele><time>2026-04-09T14:48:21.234Z</time></trkpt><trkpt lat="43.9247786" lon="12.5116073"><ele>306.0</ele><time>2026-04-09T14:48:22.207Z</time></trkpt><trkpt lat="43.9247499" lon="12.5114048"><ele>306.0</ele><time>2026-04-09T14:48:23.199Z</time></trkpt><trkpt lat="43.92472" lon="12.5112126"><ele>306.0</ele><time>2026-04-09T14:48:24.21Z</time></trkpt><trkpt lat="43.9246817" lon="12.5110365"><ele>306.0</ele><time>2026-04-09T14:48:25.224Z</time></trkpt><trkpt lat="43.92464" lon="12.5108788"><ele>306.0</ele><time>2026-04-09T14:48:26.247Z</time></trkpt><trkpt lat="43.9246004" lon="12.5107475"><ele>306.0</ele><time>2026-04-09T14:48:27.171Z</time></trkpt><trkpt lat="43.9245623" lon="12.510612"><ele>306.0</ele><time>2026-04-09T14:48:28.199Z</time></trkpt><trkpt lat="43.9245283" lon="12.5104819"><ele>306.0</ele><time>2026-04-09T14:48:29.216Z</time></trkpt><trkpt lat="43.9245311" lon="12.5103458"><ele>306.0</ele><time>2026-04-09T14:48:30.193Z</time></trkpt><trkpt lat="43.9245709" lon="12.5102136"><ele>306.0</ele><time>2026-04-09T14:48:31.199Z</time></trkpt><trkpt lat="43.9246501" lon="12.5100912"><ele>301.75</ele><time>2026-04-09T14:48:32.221Z</time></trkpt><trkpt lat="43.924732" lon="12.5099756"><ele>297.5</ele><time>2026-04-09T14:48:33.212Z</time></trkpt><trkpt lat="43.9248231" lon="12.5098532"><ele>293.25</ele><time>2026-04-09T14:48:34.207Z</time></trkpt><trkpt lat="43.9249229" lon="12.5097481"><ele>289.0</ele><time>2026-04-09T14:48:35.198Z</time></trkpt><trkpt lat="43.9250359" lon="12.5096458"><ele>285.75</ele><time>2026-04-09T14:48:36.219Z</time></trkpt><trkpt lat="43.9251485" lon="12.5095477"><ele>282.5</ele><time>2026-04-09T14:48:37.21Z</time></trkpt><trkpt lat="43.9252644" lon="12.5094418"><ele>279.25</ele><time>2026-04-09T14:48:38.219Z</time></trkpt><trkpt lat="43.9253674" lon="12.5093257"><ele>276.0</ele><time>2026-04-09T14:48:39.213Z</time></trkpt><trkpt lat="43.9254705" lon="12.5091972"><ele>276.0</ele><time>2026-04-09T14:48:40.199Z</time></trkpt><trkpt lat="43.9255673" lon="12.5090556"><ele>276.0</ele><time>2026-04-09T14:48:41.217Z</time></trkpt><trkpt lat="43.9256639" lon="12.508899"><ele>276.0</ele><time>2026-04-09T14:48:42.206Z</time></trkpt><trkpt lat="43.9257637" lon="12.5087411"><ele>276.0</ele><time>2026-04-09T14:48:43.217Z</time></trkpt><trkpt lat="43.9258584" lon="12.5085779"><ele>268.0</ele><time>2026-04-09T14:48:44.196Z</time></trkpt><trkpt lat="43.9259464" lon="12.5084352"><ele>260.0</ele><time>2026-04-09T14:48:45.212Z</time></trkpt><trkpt lat="43.9260249" lon="12.5082972"><ele>252.0</ele><time>2026-04-09T14:48:46.222Z</time></trkpt><trkpt lat="43.9260946" lon="12.5081724"><ele>244.0</ele><time>2026-04-09T14:48:47.211Z</time></trkpt><trkpt lat="43.9261864" lon="12.5080777"><ele>244.0</ele><time>2026-04-09T14:48:48.228Z</time></trkpt><trkpt lat="43.9262765" lon="12.5079977"><ele>243.99999999999997</ele><time>2026-04-09T14:48:49.218Z</time></trkpt><trkpt lat="43.9263559" lon="12.5079518"><ele>243.99999999999997</ele><time>2026-04-09T14:48:50.228Z</time></trkpt><trkpt lat="43.9264191" lon="12.5079098"><ele>244.0</ele><time>2026-04-09T14:48:51.206Z</time></trkpt><trkpt lat="43.9264311" lon="12.5077748"><ele>244.0</ele><time>2026-04-09T14:48:53.175Z</time></trkpt><trkpt lat="43.9263449" lon="12.5077342"><ele>242.16666666666666</ele><time>2026-04-09T14:48:54.232Z</time></trkpt><trkpt lat="43.9262559" lon="12.5077233"><ele>240.33333333333331</ele><time>2026-04-09T14:48:55.216Z</time></trkpt><trkpt lat="43.9261768" lon="12.5077298"><ele>238.5</ele><time>2026-04-09T14:48:56.222Z</time></trkpt><trkpt lat="43.926096" lon="12.5077463"><ele>236.66666666666669</ele><time>2026-04-09T14:48:57.22Z</time></trkpt><trkpt lat="43.9260073" lon="12.5077628"><ele>234.83333333333334</ele><time>2026-04-09T14:48:58.218Z</time></trkpt><trkpt lat="43.9259269" lon="12.5077802"><ele>233.0</ele><time>2026-04-09T14:48:59.236Z</time></trkpt><trkpt lat="43.9258562" lon="12.507794"><ele>233.00000000000003</ele><time>2026-04-09T14:49:00.221Z</time></trkpt><trkpt lat="43.9258012" lon="12.5077342"><ele>233.0</ele><time>2026-04-09T14:49:02.227Z</time></trkpt><trkpt lat="43.9258513" lon="12.5076565"><ele>233.0</ele><time>2026-04-09T14:49:03.214Z</time></trkpt><trkpt lat="43.9259126" lon="12.5075969"><ele>233.0</ele><time>2026-04-09T14:49:04.209Z</time></trkpt><trkpt lat="43.9259783" lon="12.5075391"><ele>233.00000000000003</ele><time>2026-04-09T14:49:05.207Z</time></trkpt><trkpt lat="43.9260438" lon="12.507489"><ele>233.0</ele><time>2026-04-09T14:49:06.217Z</time></trkpt><trkpt lat="43.9261167" lon="12.5074312"><ele>233.00000000000003</ele><time>2026-04-09T14:49:07.216Z</time></trkpt><trkpt lat="43.9261921" lon="12.5073769"><ele>233.0</ele><time>2026-04-09T14:49:08.199Z</time></trkpt><trkpt lat="43.9262687" lon="12.5073265"><ele>233.0</ele><time>2026-04-09T14:49:09.163Z</time></trkpt><trkpt lat="43.9263322" lon="12.5072825"><ele>233.0</ele><time>2026-04-09T14:49:10.205Z</time></trkpt><trkpt lat="43.926416" lon="12.5071876"><ele>233.00000000000003</ele><time>2026-04-09T14:49:12.214Z</time></trkpt><trkpt lat="43.9263958" lon="12.5070983"><ele>233.0</ele><time>2026-04-09T14:49:13.215Z</time></trkpt><trkpt lat="43.926319" lon="12.507063"><ele>233.00000000000003</ele><time>2026-04-09T14:49:14.228Z</time></trkpt><trkpt lat="43.9262415" lon="12.5070636"><ele>233.0</ele><time>2026-04-09T14:49:15.197Z</time></trkpt><trkpt lat="43.9261572" lon="12.5070794"><ele>233.0</ele><time>2026-04-09T14:49:16.175Z</time></trkpt><trkpt lat="43.92607" lon="12.5071077"><ele>233.0</ele><time>2026-04-09T14:49:17.222Z</time></trkpt><trkpt lat="43.9259761" lon="12.5071304"><ele>233.00000000000003</ele><time>2026-04-09T14:49:18.163Z</time></trkpt><trkpt lat="43.925883" lon="12.5071495"><ele>233.0</ele><time>2026-04-09T14:49:19.234Z</time></trkpt><trkpt lat="43.9257835" lon="12.507177"><ele>233.0</ele><time>2026-04-09T14:49:20.212Z</time></trkpt><trkpt lat="43.9256797" lon="12.5072077"><ele>233.0</ele><time>2026-04-09T14:49:21.222Z</time></trkpt><trkpt lat="43.9255714" lon="12.5072417"><ele>233.0</ele><time>2026-04-09T14:49:22.193Z</time></trkpt><trkpt lat="43.9254586" lon="12.5072913"><ele>233.0</ele><time>2026-04-09T14:49:23.211Z</time></trkpt><trkpt lat="43.925333" lon="12.5073421"><ele>233.0</ele><time>2026-04-09T14:49:24.22Z</time></trkpt><trkpt lat="43.9252033" lon="12.507407"><ele>233.0</ele><time>2026-04-09T14:49:25.206Z</time></trkpt><trkpt lat="43.9250787" lon="12.5074725"><ele>233.0</ele><time>2026-04-09T14:49:26.217Z</time></trkpt><trkpt lat="43.9249651" lon="12.50755"><ele>233.0</ele><time>2026-04-09T14:49:27.221Z</time></trkpt><trkpt lat="43.9248692" lon="12.5076652"><ele>232.0</ele><time>2026-04-09T14:49:28.224Z</time></trkpt><trkpt lat="43.9248001" lon="12.5078116"><ele>231.0</ele><time>2026-04-09T14:49:29.219Z</time></trkpt><trkpt lat="43.9247333" lon="12.5079564"><ele>230.0</ele><time>2026-04-09T14:49:30.199Z</time></trkpt><trkpt lat="43.9246879" lon="12.5080507"><ele>229.0</ele><time>2026-04-09T14:49:31.208Z</time></trkpt><trkpt lat="43.9245802" lon="12.508095"><ele>228.0</ele><time>2026-04-09T14:49:33.211Z</time></trkpt><trkpt lat="43.9245593" lon="12.5079062"><ele>225.0</ele><time>2026-04-09T14:49:35.209Z</time></trkpt><trkpt lat="43.924595" lon="12.5078022"><ele>222.0</ele><time>2026-04-09T14:49:36.226Z</time></trkpt><trkpt lat="43.9246362" lon="12.5077175"><ele>219.0</ele><time>2026-04-09T14:49:37.197Z</time></trkpt><trkpt lat="43.9246724" lon="12.5076322"><ele>216.0</ele><time>2026-04-09T14:49:38.206Z</time></trkpt><trkpt lat="43.9246405" lon="12.5075141"><ele>213.0</ele><time>2026-04-09T14:49:40.204Z</time></trkpt><trkpt lat="43.9245527" lon="12.5074984"><ele>210.0</ele><time>2026-04-09T14:49:41.208Z</time></trkpt><trkpt lat="43.924468" lon="12.5074895"><ele>210.0</ele><time>2026-04-09T14:49:42.209Z</time></trkpt><trkpt lat="43.9243714" lon="12.5074834"><ele>210.0</ele><time>2026-04-09T14:49:43.237Z</time></trkpt><trkpt lat="43.9242726" lon="12.5074624"><ele>210.0</ele><time>2026-04-09T14:49:44.198Z</time></trkpt><trkpt lat="43.92418" lon="12.5074566"><ele>210.0</ele><time>2026-04-09T14:49:45.198Z</time></trkpt><trkpt lat="43.9240881" lon="12.5074462"><ele>210.0</ele><time>2026-04-09T14:49:46.212Z</time></trkpt><trkpt lat="43.924004" lon="12.5074409"><ele>206.6</ele><time>2026-04-09T14:49:47.189Z</time></trkpt><trkpt lat="43.9239395" lon="12.5074019"><ele>203.2</ele><time>2026-04-09T14:49:48.218Z</time></trkpt><trkpt lat="43.9239187" lon="12.5072433"><ele>199.8</ele><time>2026-04-09T14:49:50.162Z</time></trkpt><trkpt lat="43.9239757" lon="12.5071442"><ele>196.4</ele><time>2026-04-09T14:49:51.186Z</time></trkpt><trkpt lat="43.9240333" lon="12.5070567"><ele>193.0</ele><time>2026-04-09T14:49:52.186Z</time></trkpt><trkpt lat="43.9241008" lon="12.5069795"><ele>192.8</ele><time>2026-04-09T14:49:53.206Z</time></trkpt><trkpt lat="43.9241902" lon="12.5069111"><ele>192.60000000000002</ele><time>2026-04-09T14:49:54.183Z</time></trkpt><trkpt lat="43.9242727" lon="12.5068434"><ele>192.39999999999998</ele><time>2026-04-09T14:49:55.216Z</time></trkpt><trkpt lat="43.9243214" lon="12.5067792"><ele>192.2</ele><time>2026-04-09T14:49:56.202Z</time></trkpt><trkpt lat="43.9242406" lon="12.5066723"><ele>192.0</ele><time>2026-04-09T14:49:58.225Z</time></trkpt><trkpt lat="43.9241466" lon="12.5066617"><ele>189.8</ele><time>2026-04-09T14:49:59.188Z</time></trkpt><trkpt lat="43.9240549" lon="12.5066707"><ele>187.6</ele><time>2026-04-09T14:50:00.202Z</time></trkpt><trkpt lat="43.9239647" lon="12.5066759"><ele>185.4</ele><time>2026-04-09T14:50:01.214Z</time></trkpt><trkpt lat="43.9238629" lon="12.5066886"><ele>183.20000000000002</ele><time>2026-04-09T14:50:02.204Z</time></trkpt><trkpt lat="43.9237594" lon="12.5067071"><ele>181.0</ele><time>2026-04-09T14:50:03.216Z</time></trkpt><trkpt lat="43.9236581" lon="12.5067397"><ele>181.0</ele><time>2026-04-09T14:50:04.205Z</time></trkpt><trkpt lat="43.923555" lon="12.506778"><ele>181.0</ele><time>2026-04-09T14:50:05.201Z</time></trkpt><trkpt lat="43.9234712" lon="12.5067981"><ele>181.0</ele><time>2026-04-09T14:50:06.169Z</time></trkpt><trkpt lat="43.9233994" lon="12.5067798"><ele>181.0</ele><time>2026-04-09T14:50:07.185Z</time></trkpt><trkpt lat="43.9233417" lon="12.5066837"><ele>181.0</ele><time>2026-04-09T14:50:08.209Z</time></trkpt><trkpt lat="43.9233124" lon="12.5065627"><ele>181.0</ele><time>2026-04-09T14:50:09.221Z</time></trkpt><trkpt lat="43.9232998" lon="12.5064193"><ele>178.20000000000002</ele><time>2026-04-09T14:50:10.213Z</time></trkpt><trkpt lat="43.9233081" lon="12.5062878"><ele>175.4</ele><time>2026-04-09T14:50:11.22Z</time></trkpt><trkpt lat="43.9233339" lon="12.5061392"><ele>172.6</ele><time>2026-04-09T14:50:12.226Z</time></trkpt><trkpt lat="43.9233704" lon="12.5059902"><ele>169.8</ele><time>2026-04-09T14:50:13.214Z</time></trkpt><trkpt lat="43.9234166" lon="12.5058464"><ele>167.0</ele><time>2026-04-09T14:50:14.2Z</time></trkpt><trkpt lat="43.9234733" lon="12.505707"><ele>166.6</ele><time>2026-04-09T14:50:15.215Z</time></trkpt><trkpt lat="43.9235397" lon="12.5055725"><ele>166.2</ele><time>2026-04-09T14:50:16.211Z</time></trkpt><trkpt lat="43.9236089" lon="12.5054576"><ele>165.8</ele><time>2026-04-09T14:50:17.216Z</time></trkpt><trkpt lat="43.9236724" lon="12.5053435"><ele>165.4</ele><time>2026-04-09T14:50:18.217Z</time></trkpt><trkpt lat="43.9237258" lon="12.5052458"><ele>165.0</ele><time>2026-04-09T14:50:19.192Z</time></trkpt><trkpt lat="43.923754" lon="12.5051226"><ele>162.0</ele><time>2026-04-09T14:50:20.225Z</time></trkpt><trkpt lat="43.9237401" lon="12.5049659"><ele>159.0</ele><time>2026-04-09T14:50:21.214Z</time></trkpt><trkpt lat="43.9237223" lon="12.5048001"><ele>156.0</ele><time>2026-04-09T14:50:22.213Z</time></trkpt><trkpt lat="43.9236923" lon="12.5046379"><ele>153.0</ele><time>2026-04-09T14:50:23.202Z</time></trkpt><trkpt lat="43.923666" lon="12.5044855"><ele>151.4</ele><time>2026-04-09T14:50:24.207Z</time></trkpt><trkpt lat="43.9236406" lon="12.5043376"><ele>149.8</ele><time>2026-04-09T14:50:25.208Z</time></trkpt><trkpt lat="43.9236182" lon="12.5041972"><ele>148.2</ele><time>2026-04-09T14:50:26.208Z</time></trkpt><trkpt lat="43.9236081" lon="12.5040587"><ele>146.6</ele><time>2026-04-09T14:50:27.243Z</time></trkpt><trkpt lat="43.9236207" lon="12.5039283"><ele>145.0</ele><time>2026-04-09T14:50:28.222Z</time></trkpt><trkpt lat="43.923673" lon="12.5038106"><ele>144.6</ele><time>2026-04-09T14:50:29.203Z</time></trkpt><trkpt lat="43.9237343" lon="12.5037037"><ele>144.2</ele><time>2026-04-09T14:50:30.217Z</time></trkpt><trkpt lat="43.9237904" lon="12.5035979"><ele>143.8</ele><time>2026-04-09T14:50:31.216Z</time></trkpt><trkpt lat="43.923845" lon="12.5034917"><ele>143.4</ele><time>2026-04-09T14:50:32.235Z</time></trkpt><trkpt lat="43.9238954" lon="12.5033886"><ele>143.0</ele><time>2026-04-09T14:50:33.227Z</time></trkpt><trkpt lat="43.9239461" lon="12.5033021"><ele>143.0</ele><time>2026-04-09T14:50:34.21Z</time></trkpt><trkpt lat="43.9239933" lon="12.5032109"><ele>143.0</ele><time>2026-04-09T14:50:35.184Z</time></trkpt><trkpt lat="43.9240382" lon="12.5031119"><ele>143.0</ele><time>2026-04-09T14:50:36.203Z</time></trkpt><trkpt lat="43.9240812" lon="12.5030266"><ele>143.0</ele><time>2026-04-09T14:50:37.202Z</time></trkpt><trkpt lat="43.9241186" lon="12.5029504"><ele>143.0</ele><time>2026-04-09T14:50:38.224Z</time></trkpt><trkpt lat="43.9241669" lon="12.5028288"><ele>143.0</ele><time>2026-04-09T14:50:40.224Z</time></trkpt><trkpt lat="43.9242005" lon="12.5027399"><ele>143.5</ele><time>2026-04-09T14:50:44.207Z</time></trkpt><trkpt lat="43.9241555" lon="12.5026448"><ele>144.0</ele><time>2026-04-09T14:50:48.188Z</time></trkpt><trkpt lat="43.9240671" lon="12.5025845"><ele>144.5</ele><time>2026-04-09T14:50:51.21Z</time></trkpt><trkpt lat="43.9239957" lon="12.5025354"><ele>145.0</ele><time>2026-04-09T14:50:53.194Z</time></trkpt><trkpt lat="43.9239103" lon="12.502499"><ele>145.5</ele><time>2026-04-09T14:50:55.207Z</time></trkpt><trkpt lat="43.923826" lon="12.5024369"><ele>146.0</ele><time>2026-04-09T14:50:57.167Z</time></trkpt><trkpt lat="43.9237607" lon="12.5023762"><ele>146.0</ele><time>2026-04-09T14:50:59.206Z</time></trkpt><trkpt lat="43.9237058" lon="12.5022871"><ele>146.0</ele><time>2026-04-09T14:51:01.218Z</time></trkpt><trkpt lat="43.9236711" lon="12.5022037"><ele>146.0</ele><time>2026-04-09T14:51:03.165Z</time></trkpt><trkpt lat="43.9236467" lon="12.5021161"><ele>146.0</ele><time>2026-04-09T14:51:05.205Z</time></trkpt><trkpt lat="43.9236307" lon="12.5020275"><ele>146.0</ele><time>2026-04-09T14:51:07.203Z</time></trkpt><trkpt lat="43.923625" lon="12.5019384"><ele>146.0</ele><time>2026-04-09T14:51:09.216Z</time></trkpt><trkpt lat="43.9236184" lon="12.5018104"><ele>146.0</ele><time>2026-04-09T14:51:12.157Z</time></trkpt><trkpt lat="43.9236215" lon="12.5017224"><ele>148.33333333333331</ele><time>2026-04-09T14:51:14.203Z</time></trkpt><trkpt lat="43.9236196" lon="12.5016341"><ele>150.66666666666666</ele><time>2026-04-09T14:51:16.177Z</time></trkpt><trkpt lat="43.9236156" lon="12.5015458"><ele>153.0</ele><time>2026-04-09T14:51:18.177Z</time></trkpt><trkpt lat="43.9236085" lon="12.5014183"><ele>155.33333333333334</ele><time>2026-04-09T14:51:21.19Z</time></trkpt><trkpt lat="43.9235924" lon="12.5013113"><ele>157.66666666666669</ele><time>2026-04-09T14:51:24.174Z</time></trkpt><trkpt lat="43.9235679" lon="12.5011932"><ele>160.0</ele><time>2026-04-09T14:51:27.212Z</time></trkpt><trkpt lat="43.9235465" lon="12.5010789"><ele>162.5</ele><time>2026-04-09T14:51:30.175Z</time></trkpt><trkpt lat="43.9235249" lon="12.5009768"><ele>165.0</ele><time>2026-04-09T14:51:33.22Z</time></trkpt><trkpt lat="43.9235315" lon="12.5008509"><ele>167.5</ele><time>2026-04-09T14:51:36.196Z</time></trkpt><trkpt lat="43.9235278" lon="12.5007325"><ele>170.0</ele><time>2026-04-09T14:51:39.212Z</time></trkpt><trkpt lat="43.9235302" lon="12.5006407"><ele>172.5</ele><time>2026-04-09T14:51:41.208Z</time></trkpt><trkpt lat="43.9235417" lon="12.500553"><ele>175.0</ele><time>2026-04-09T14:51:43.184Z</time></trkpt><trkpt lat="43.9235574" lon="12.5004629"><ele>178.0</ele><time>2026-04-09T14:51:45.215Z</time></trkpt><trkpt lat="43.9235903" lon="12.5003393"><ele>181.0</ele><time>2026-04-09T14:51:48.19Z</time></trkpt><trkpt lat="43.9236255" lon="12.5002359"><ele>184.0</ele><time>2026-04-09T14:51:50.157Z</time></trkpt><trkpt lat="43.9236504" lon="12.500122"><ele>187.0</ele><time>2026-04-09T14:51:52.204Z</time></trkpt><trkpt lat="43.9236176" lon="12.4999776"><ele>190.0</ele><time>2026-04-09T14:51:54.197Z</time></trkpt><trkpt lat="43.923588" lon="12.4998346"><ele>190.0</ele><time>2026-04-09T14:51:56.167Z</time></trkpt><trkpt lat="43.9235751" lon="12.4997429"><ele>190.0</ele><time>2026-04-09T14:51:57.183Z</time></trkpt><trkpt lat="43.9235513" lon="12.4995944"><ele>190.0</ele><time>2026-04-09T14:51:59.221Z</time></trkpt><trkpt lat="43.9235232" lon="12.4994453"><ele>190.0</ele><time>2026-04-09T14:52:01.194Z</time></trkpt><trkpt lat="43.9234926" lon="12.4992843"><ele>190.0</ele><time>2026-04-09T14:52:03.199Z</time></trkpt><trkpt lat="43.9234791" lon="12.4991947"><ele>191.0</ele><time>2026-04-09T14:52:04.205Z</time></trkpt><trkpt lat="43.9234628" lon="12.4991036"><ele>192.0</ele><time>2026-04-09T14:52:05.2Z</time></trkpt><trkpt lat="43.9234467" lon="12.4990161"><ele>193.0</ele><time>2026-04-09T14:52:06.205Z</time></trkpt><trkpt lat="43.9234307" lon="12.4989278"><ele>194.0</ele><time>2026-04-09T14:52:07.212Z</time></trkpt><trkpt lat="43.9234163" lon="12.4988288"><ele>194.99999999999997</ele><time>2026-04-09T14:52:08.208Z</time></trkpt><trkpt lat="43.9233997" lon="12.4987399"><ele>196.0</ele><time>2026-04-09T14:52:09.155Z</time></trkpt><trkpt lat="43.9233652" lon="12.4985697"><ele>189.33333333333331</ele><time>2026-04-09T14:52:11.216Z</time></trkpt><trkpt lat="43.9233503" lon="12.4984796"><ele>182.66666666666666</ele><time>2026-04-09T14:52:12.212Z</time></trkpt><trkpt lat="43.9233354" lon="12.498392"><ele>176.0</ele><time>2026-04-09T14:52:13.22Z</time></trkpt><trkpt lat="43.9233193" lon="12.4983058"><ele>169.33333333333331</ele><time>2026-04-09T14:52:14.206Z</time></trkpt><trkpt lat="43.9232874" lon="12.4981396"><ele>162.66666666666666</ele><time>2026-04-09T14:52:16.215Z</time></trkpt><trkpt lat="43.9232621" lon="12.4980549"><ele>156.0</ele><time>2026-04-09T14:52:17.205Z</time></trkpt><trkpt lat="43.9232275" lon="12.497887"><ele>155.75</ele><time>2026-04-09T14:52:19.202Z</time></trkpt><trkpt lat="43.9232091" lon="12.4977268"><ele>155.5</ele><time>2026-04-09T14:52:21.192Z</time></trkpt><trkpt lat="43.9232412" lon="12.4975643"><ele>155.25</ele><time>2026-04-09T14:52:23.204Z</time></trkpt><trkpt lat="43.9232306" lon="12.4973993"><ele>155.0</ele><time>2026-04-09T14:52:25.238Z</time></trkpt><trkpt lat="43.923154" lon="12.4972675"><ele>155.0</ele><time>2026-04-09T14:52:27.21Z</time></trkpt><trkpt lat="43.9231176" lon="12.4971921"><ele>155.0</ele><time>2026-04-09T14:52:28.219Z</time></trkpt><trkpt lat="43.9230922" lon="12.4970411"><ele>155.0</ele><time>2026-04-09T14:52:30.22Z</time></trkpt><trkpt lat="43.9230575" lon="12.4968857"><ele>155.0</ele><time>2026-04-09T14:52:32.182Z</time></trkpt><trkpt lat="43.9230203" lon="12.4967439"><ele>155.0</ele><time>2026-04-09T14:52:34.214Z</time></trkpt><trkpt lat="43.9229655" lon="12.4966232"><ele>155.0</ele><time>2026-04-09T14:52:36.229Z</time></trkpt><trkpt lat="43.9229239" lon="12.4965305"><ele>155.0</ele><time>2026-04-09T14:52:38.202Z</time></trkpt><trkpt lat="43.9228692" lon="12.4964566"><ele>155.0</ele><time>2026-04-09T14:52:40.207Z</time></trkpt><trkpt lat="43.9228081" lon="12.4964054"><ele>155.0</ele><time>2026-04-09T14:52:42.218Z</time></trkpt><trkpt lat="43.9227203" lon="12.4963577"><ele>155.0</ele><time>2026-04-09T14:52:45.207Z</time></trkpt><trkpt lat="43.9226332" lon="12.4963367"><ele>155.0</ele><time>2026-04-09T14:52:48.206Z</time></trkpt><trkpt lat="43.9225436" lon="12.496323"><ele>154.66666666666666</ele><time>2026-04-09T14:52:51.211Z</time></trkpt><trkpt lat="43.9224542" lon="12.4963031"><ele>154.33333333333331</ele><time>2026-04-09T14:52:54.172Z</time></trkpt><trkpt lat="43.9223868" lon="12.4963002"><ele>154.0</ele><time>2026-04-09T14:52:56.173Z</time></trkpt><trkpt lat="43.9222967" lon="12.4962827"><ele>153.66666666666666</ele><time>2026-04-09T14:52:59.22Z</time></trkpt><trkpt lat="43.9222326" lon="12.4962577"><ele>153.33333333333334</ele><time>2026-04-09T14:53:02.22Z</time></trkpt><trkpt lat="43.9222082" lon="12.4961678"><ele>153.0</ele><time>2026-04-09T14:53:05.186Z</time></trkpt><trkpt lat="43.9222409" lon="12.4960719"><ele>153.66666666666666</ele><time>2026-04-09T14:53:09.215Z</time></trkpt><trkpt lat="43.9223143" lon="12.4960114"><ele>154.33333333333334</ele><time>2026-04-09T14:53:13.221Z</time></trkpt><trkpt lat="43.9223874" lon="12.4959968"><ele>155.0</ele><time>2026-04-09T14:53:17.197Z</time></trkpt><trkpt lat="43.9224488" lon="12.4959663"><ele>155.66666666666669</ele><time>2026-04-09T14:53:20.174Z</time></trkpt><trkpt lat="43.9225235" lon="12.4959261"><ele>156.33333333333334</ele><time>2026-04-09T14:53:24.183Z</time></trkpt><trkpt lat="43.9225997" lon="12.4958747"><ele>157.0</ele><time>2026-04-09T14:53:28.215Z</time></trkpt><trkpt lat="43.9226522" lon="12.4958241"><ele>156.99999999999997</ele><time>2026-04-09T14:53:31.213Z</time></trkpt><trkpt lat="43.92271" lon="12.4957493"><ele>157.0</ele><time>2026-04-09T14:53:34.217Z</time></trkpt><trkpt lat="43.9227639" lon="12.4956755"><ele>157.0</ele><time>2026-04-09T14:53:37.186Z</time></trkpt><trkpt lat="43.9228078" lon="12.4956065"><ele>157.0</ele><time>2026-04-09T14:53:40.233Z</time></trkpt><trkpt lat="43.9228524" lon="12.4955315"><ele>157.0</ele><time>2026-04-09T14:53:43.22Z</time></trkpt><trkpt lat="43.9229002" lon="12.4954615"><ele>156.99999999999997</ele><time>2026-04-09T14:53:46.212Z</time></trkpt><trkpt lat="43.9229277" lon="12.4953635"><ele>157.0</ele><time>2026-04-09T14:53:49.202Z</time></trkpt><trkpt lat="43.9229521" lon="12.4952642"><ele>157.66666666666669</ele><time>2026-04-09T14:53:52.205Z</time></trkpt><trkpt lat="43.9229441" lon="12.4951594"><ele>158.33333333333334</ele><time>2026-04-09T14:53:55.18Z</time></trkpt><trkpt lat="43.9229019" lon="12.4950802"><ele>159.0</ele><time>2026-04-09T14:53:58.203Z</time></trkpt><trkpt lat="43.9228324" lon="12.4950351"><ele>159.66666666666666</ele><time>2026-04-09T14:54:01.198Z</time></trkpt><trkpt lat="43.9227439" lon="12.4950406"><ele>160.33333333333331</ele><time>2026-04-09T14:54:04.203Z</time></trkpt><trkpt lat="43.9226825" lon="12.4950726"><ele>161.0</ele><time>2026-04-09T14:54:06.212Z</time></trkpt><trkpt lat="43.9226073" lon="12.4951414"><ele>164.0</ele><time>2026-04-09T14:54:09.224Z</time></trkpt><trkpt lat="43.9225516" lon="12.4952264"><ele>167.0</ele><time>2026-04-09T14:54:12.217Z</time></trkpt><trkpt lat="43.9224921" lon="12.495312"><ele>170.0</ele><time>2026-04-09T14:54:15.229Z</time></trkpt><trkpt lat="43.9224361" lon="12.4953826"><ele>173.0</ele><time>2026-04-09T14:54:18.204Z</time></trkpt><trkpt lat="43.9223618" lon="12.4953978"><ele>176.0</ele><time>2026-04-09T14:54:22.223Z</time></trkpt><trkpt lat="43.9222987" lon="12.4953322"><ele>179.0</ele><time>2026-04-09T14:54:26.217Z</time></trkpt><trkpt lat="43.9223052" lon="12.4952297"><ele>179.00000000000003</ele><time>2026-04-09T14:54:30.201Z</time></trkpt><trkpt lat="43.9223413" lon="12.4951469"><ele>179.0</ele><time>2026-04-09T14:54:33.228Z</time></trkpt><trkpt lat="43.9223853" lon="12.4950735"><ele>179.0</ele><time>2026-04-09T14:54:36.224Z</time></trkpt><trkpt lat="43.9224291" lon="12.4950028"><ele>179.0</ele><time>2026-04-09T14:54:39.188Z</time></trkpt><trkpt lat="43.9224746" lon="12.4949271"><ele>179.0</ele><time>2026-04-09T14:54:42.208Z</time></trkpt><trkpt lat="43.9225202" lon="12.4948579"><ele>179.00000000000003</ele><time>2026-04-09T14:54:45.228Z</time></trkpt><trkpt lat="43.9225589" lon="12.4947814"><ele>179.0</ele><time>2026-04-09T14:54:48.216Z</time></trkpt><trkpt lat="43.9225991" lon="12.4947004"><ele>177.2857142857143</ele><time>2026-04-09T14:54:51.195Z</time></trkpt><trkpt lat="43.9226337" lon="12.4946215"><ele>175.57142857142858</ele><time>2026-04-09T14:54:54.201Z</time></trkpt><trkpt lat="43.9226612" lon="12.4945397"><ele>173.85714285714286</ele><time>2026-04-09T14:54:57.225Z</time></trkpt><trkpt lat="43.9226805" lon="12.4944529"><ele>172.14285714285717</ele><time>2026-04-09T14:55:00.226Z</time></trkpt><trkpt lat="43.9226994" lon="12.4943638"><ele>170.42857142857144</ele><time>2026-04-09T14:55:03.227Z</time></trkpt><trkpt lat="43.9227165" lon="12.4942654"><ele>168.71428571428572</ele><time>2026-04-09T14:55:06.217Z</time></trkpt><trkpt lat="43.9227261" lon="12.4941753"><ele>167.0</ele><time>2026-04-09T14:55:09.205Z</time></trkpt><trkpt lat="43.9227284" lon="12.494086"><ele>167.0</ele><time>2026-04-09T14:55:12.228Z</time></trkpt><trkpt lat="43.9227302" lon="12.4939779"><ele>167.0</ele><time>2026-04-09T14:55:16.242Z</time></trkpt><trkpt lat="43.9227265" lon="12.4938831"><ele>167.0</ele><time>2026-04-09T14:55:19.197Z</time></trkpt><trkpt lat="43.9227174" lon="12.4937966"><ele>167.0</ele><time>2026-04-09T14:55:22.213Z</time></trkpt><trkpt lat="43.9227135" lon="12.493706"><ele>167.0</ele><time>2026-04-09T14:55:25.211Z</time></trkpt><trkpt lat="43.9226989" lon="12.4935911"><ele>167.0</ele><time>2026-04-09T14:55:29.212Z</time></trkpt><trkpt lat="43.9226765" lon="12.4934909"><ele>167.0</ele><time>2026-04-09T14:55:33.216Z</time></trkpt><trkpt lat="43.9226496" lon="12.4933827"><ele>168.14285714285714</ele><time>2026-04-09T14:55:37.174Z</time></trkpt><trkpt lat="43.9226178" lon="12.4932999"><ele>169.28571428571428</ele><time>2026-04-09T14:55:40.224Z</time></trkpt><trkpt lat="43.9225864" lon="12.4932183"><ele>170.42857142857144</ele><time>2026-04-09T14:55:43.214Z</time></trkpt><trkpt lat="43.9225484" lon="12.4931208"><ele>171.57142857142856</ele><time>2026-04-09T14:55:47.223Z</time></trkpt><trkpt lat="43.9225059" lon="12.493051"><ele>172.71428571428572</ele><time>2026-04-09T14:55:50.199Z</time></trkpt><trkpt lat="43.9224552" lon="12.4929624"><ele>173.85714285714286</ele><time>2026-04-09T14:55:54.167Z</time></trkpt><trkpt lat="43.922404" lon="12.492904"><ele>175.0</ele><time>2026-04-09T14:55:57.236Z</time></trkpt><trkpt lat="43.9223465" lon="12.4928387"><ele>178.5</ele><time>2026-04-09T14:56:00.22Z</time></trkpt><trkpt lat="43.9222977" lon="12.4927759"><ele>182.0</ele><time>2026-04-09T14:56:03.222Z</time></trkpt><trkpt lat="43.922235" lon="12.4927345"><ele>185.5</ele><time>2026-04-09T14:56:06.207Z</time></trkpt><trkpt lat="43.9221688" lon="12.4926805"><ele>189.0</ele><time>2026-04-09T14:56:09.202Z</time></trkpt><trkpt lat="43.9221017" lon="12.4926225"><ele>192.49999999999997</ele><time>2026-04-09T14:56:13.193Z</time></trkpt><trkpt lat="43.9220246" lon="12.4925824"><ele>196.0</ele><time>2026-04-09T14:56:17.216Z</time></trkpt><trkpt lat="43.9219589" lon="12.4925302"><ele>196.0</ele><time>2026-04-09T14:56:20.176Z</time></trkpt><trkpt lat="43.9218979" lon="12.4924917"><ele>196.0</ele><time>2026-04-09T14:56:23.21Z</time></trkpt><trkpt lat="43.921835" lon="12.4924494"><ele>196.0</ele><time>2026-04-09T14:56:26.221Z</time></trkpt><trkpt lat="43.921777" lon="12.4924074"><ele>196.0</ele><time>2026-04-09T14:56:29.188Z</time></trkpt><trkpt lat="43.9217127" lon="12.4923791"><ele>196.0</ele><time>2026-04-09T14:56:32.234Z</time></trkpt><trkpt lat="43.9216563" lon="12.4923343"><ele>196.0</ele><time>2026-04-09T14:56:35.215Z</time></trkpt><trkpt lat="43.9215943" lon="12.4922906"><ele>196.0</ele><time>2026-04-09T14:56:38.178Z</time></trkpt><trkpt lat="43.9215349" lon="12.4922509"><ele>198.14285714285714</ele><time>2026-04-09T14:56:41.209Z</time></trkpt><trkpt lat="43.9214677" lon="12.4921935"><ele>200.28571428571428</ele><time>2026-04-09T14:56:45.208Z</time></trkpt><trkpt lat="43.9214102" lon="12.4921463"><ele>202.42857142857144</ele><time>2026-04-09T14:56:48.211Z</time></trkpt><trkpt lat="43.9213531" lon="12.492101"><ele>204.57142857142856</ele><time>2026-04-09T14:56:51.211Z</time></trkpt><trkpt lat="43.9212853" lon="12.4920301"><ele>206.71428571428572</ele><time>2026-04-09T14:56:55.204Z</time></trkpt><trkpt lat="43.9212433" lon="12.4919566"><ele>208.85714285714286</ele><time>2026-04-09T14:56:58.214Z</time></trkpt><trkpt lat="43.9212193" lon="12.4918535"><ele>211.0</ele><time>2026-04-09T14:57:02.21Z</time></trkpt><trkpt lat="43.9212093" lon="12.4917625"><ele>211.28571428571428</ele><time>2026-04-09T14:57:05.231Z</time></trkpt><trkpt lat="43.9212268" lon="12.4916478"><ele>211.57142857142858</ele><time>2026-04-09T14:57:09.204Z</time></trkpt><trkpt lat="43.9212517" lon="12.4915658"><ele>211.85714285714283</ele><time>2026-04-09T14:57:12.22Z</time></trkpt><trkpt lat="43.9212872" lon="12.4914914"><ele>212.14285714285714</ele><time>2026-04-09T14:57:15.199Z</time></trkpt><trkpt lat="43.9213281" lon="12.4914179"><ele>212.42857142857142</ele><time>2026-04-09T14:57:18.184Z</time></trkpt><trkpt lat="43.921366" lon="12.4913366"><ele>212.7142857142857</ele><time>2026-04-09T14:57:21.207Z</time></trkpt><trkpt lat="43.9214149" lon="12.4912434"><ele>213.0</ele><time>2026-04-09T14:57:25.211Z</time></trkpt><trkpt lat="43.9214561" lon="12.4911462"><ele>213.14285714285714</ele><time>2026-04-09T14:57:29.196Z</time></trkpt><trkpt lat="43.9214969" lon="12.4910776"><ele>213.28571428571428</ele><time>2026-04-09T14:57:32.226Z</time></trkpt><trkpt lat="43.9215443" lon="12.490994"><ele>213.42857142857144</ele><time>2026-04-09T14:57:36.227Z</time></trkpt><trkpt lat="43.9215933" lon="12.4909058"><ele>213.57142857142856</ele><time>2026-04-09T14:57:40.202Z</time></trkpt><trkpt lat="43.9216324" lon="12.4908371"><ele>213.71428571428572</ele><time>2026-04-09T14:57:43.218Z</time></trkpt><trkpt lat="43.9216793" lon="12.4907715"><ele>213.85714285714286</ele><time>2026-04-09T14:57:46.201Z</time></trkpt><trkpt lat="43.9217283" lon="12.4906756"><ele>214.0</ele><time>2026-04-09T14:57:50.217Z</time></trkpt><trkpt lat="43.9217718" lon="12.4905801"><ele>214.00000000000003</ele><time>2026-04-09T14:57:54.179Z</time></trkpt><trkpt lat="43.9217897" lon="12.4904812"><ele>214.0</ele><time>2026-04-09T14:57:57.21Z</time></trkpt><trkpt lat="43.921785" lon="12.490392"><ele>214.0</ele><time>2026-04-09T14:58:00.223Z</time></trkpt><trkpt lat="43.9217501" lon="12.4903023"><ele>214.0</ele><time>2026-04-09T14:58:03.211Z</time></trkpt><trkpt lat="43.9216847" lon="12.4902315"><ele>214.0</ele><time>2026-04-09T14:58:06.216Z</time></trkpt><trkpt lat="43.9216003" lon="12.4902026"><ele>214.00000000000003</ele><time>2026-04-09T14:58:09.186Z</time></trkpt><trkpt lat="43.9215364" lon="12.4902091"><ele>214.0</ele><time>2026-04-09T14:58:11.205Z</time></trkpt><trkpt lat="43.9214596" lon="12.4902558"><ele>216.0</ele><time>2026-04-09T14:58:14.225Z</time></trkpt><trkpt lat="43.9213987" lon="12.4902865"><ele>218.0</ele><time>2026-04-09T14:58:16.233Z</time></trkpt><trkpt lat="43.9213427" lon="12.490331"><ele>220.0</ele><time>2026-04-09T14:58:18.219Z</time></trkpt><trkpt lat="43.9212868" lon="12.490372"><ele>222.0</ele><time>2026-04-09T14:58:20.197Z</time></trkpt><trkpt lat="43.9212248" lon="12.4904085"><ele>223.99999999999997</ele><time>2026-04-09T14:58:22.183Z</time></trkpt><trkpt lat="43.9211655" lon="12.4904576"><ele>226.0</ele><time>2026-04-09T14:58:24.189Z</time></trkpt><trkpt lat="43.9211056" lon="12.4905156"><ele>228.0</ele><time>2026-04-09T14:58:26.166Z</time></trkpt><trkpt lat="43.9210493" lon="12.4905653"><ele>228.0</ele><time>2026-04-09T14:58:28.203Z</time></trkpt><trkpt lat="43.9209953" lon="12.490614"><ele>228.0</ele><time>2026-04-09T14:58:30.184Z</time></trkpt><trkpt lat="43.9209302" lon="12.4906358"><ele>228.0</ele><time>2026-04-09T14:58:32.198Z</time></trkpt><trkpt lat="43.9208408" lon="12.4906792"><ele>228.0</ele><time>2026-04-09T14:58:35.203Z</time></trkpt><trkpt lat="43.9207766" lon="12.4906991"><ele>228.0</ele><time>2026-04-09T14:58:37.218Z</time></trkpt><trkpt lat="43.9206942" lon="12.4907142"><ele>228.0</ele><time>2026-04-09T14:58:40.211Z</time></trkpt><trkpt lat="43.920614" lon="12.4907188"><ele>229.66666666666666</ele><time>2026-04-09T14:58:43.209Z</time></trkpt><trkpt lat="43.9205266" lon="12.4907077"><ele>231.33333333333331</ele><time>2026-04-09T14:58:46.189Z</time></trkpt><trkpt lat="43.92045" lon="12.4906976"><ele>233.0</ele><time>2026-04-09T14:58:49.216Z</time></trkpt><trkpt lat="43.9203783" lon="12.4906694"><ele>234.66666666666666</ele><time>2026-04-09T14:58:52.176Z</time></trkpt><trkpt lat="43.9203133" lon="12.4906154"><ele>236.33333333333331</ele><time>2026-04-09T14:58:55.219Z</time></trkpt><trkpt lat="43.9202785" lon="12.4905389"><ele>238.0</ele><time>2026-04-09T14:58:58.213Z</time></trkpt><trkpt lat="43.9202881" lon="12.4904337"><ele>239.66666666666666</ele><time>2026-04-09T14:59:01.214Z</time></trkpt><trkpt lat="43.9203328" lon="12.4903573"><ele>241.33333333333331</ele><time>2026-04-09T14:59:04.227Z</time></trkpt><trkpt lat="43.9203941" lon="12.4902844"><ele>243.0</ele><time>2026-04-09T14:59:07.182Z</time></trkpt><trkpt lat="43.9204678" lon="12.490223"><ele>244.66666666666669</ele><time>2026-04-09T14:59:10.23Z</time></trkpt><trkpt lat="43.9205375" lon="12.4901647"><ele>246.33333333333334</ele><time>2026-04-09T14:59:13.193Z</time></trkpt><trkpt lat="43.9206074" lon="12.4901003"><ele>248.0</ele><time>2026-04-09T14:59:16.195Z</time></trkpt><trkpt lat="43.9206708" lon="12.4900468"><ele>248.00000000000003</ele><time>2026-04-09T14:59:19.217Z</time></trkpt><trkpt lat="43.9207328" lon="12.4899921"><ele>248.0</ele><time>2026-04-09T14:59:22.231Z</time></trkpt><trkpt lat="43.9207865" lon="12.4899142"><ele>248.0</ele><time>2026-04-09T14:59:25.209Z</time></trkpt><trkpt lat="43.9208327" lon="12.489835"><ele>248.0</ele><time>2026-04-09T14:59:28.214Z</time></trkpt><trkpt lat="43.9208746" lon="12.4897385"><ele>248.00000000000003</ele><time>2026-04-09T14:59:31.196Z</time></trkpt><trkpt lat="43.9208938" lon="12.4896158"><ele>248.0</ele><time>2026-04-09T14:59:34.221Z</time></trkpt><trkpt lat="43.9208966" lon="12.4895282"><ele>248.16666666666669</ele><time>2026-04-09T14:59:36.22Z</time></trkpt><trkpt lat="43.9208656" lon="12.4894122"><ele>248.33333333333334</ele><time>2026-04-09T14:59:39.22Z</time></trkpt><trkpt lat="43.9208147" lon="12.4893143"><ele>248.5</ele><time>2026-04-09T14:59:42.228Z</time></trkpt><trkpt lat="43.9207513" lon="12.4892424"><ele>248.66666666666669</ele><time>2026-04-09T14:59:45.152Z</time></trkpt><trkpt lat="43.92067" lon="12.4891927"><ele>248.83333333333334</ele><time>2026-04-09T14:59:48.172Z</time></trkpt><trkpt lat="43.9206097" lon="12.4891578"><ele>249.0</ele><time>2026-04-09T14:59:50.186Z</time></trkpt><trkpt lat="43.9205239" lon="12.48912"><ele>249.0</ele><time>2026-04-09T14:59:53.208Z</time></trkpt><trkpt lat="43.9204365" lon="12.489083"><ele>249.0</ele><time>2026-04-09T14:59:56.206Z</time></trkpt><trkpt lat="43.9203547" lon="12.4890491"><ele>249.0</ele><time>2026-04-09T14:59:59.21Z</time></trkpt><trkpt lat="43.9202834" lon="12.4890153"><ele>249.0</ele><time>2026-04-09T15:00:02.203Z</time></trkpt><trkpt lat="43.9202127" lon="12.488985"><ele>249.0</ele><time>2026-04-09T15:00:05.222Z</time></trkpt><trkpt lat="43.9201338" lon="12.4889526"><ele>249.0</ele><time>2026-04-09T15:00:08.243Z</time></trkpt><trkpt lat="43.9200647" lon="12.4889095"><ele>250.14285714285714</ele><time>2026-04-09T15:00:11.215Z</time></trkpt><trkpt lat="43.9199992" lon="12.4888711"><ele>251.28571428571428</ele><time>2026-04-09T15:00:14.205Z</time></trkpt><trkpt lat="43.9199401" lon="12.4888229"><ele>252.42857142857142</ele><time>2026-04-09T15:00:17.226Z</time></trkpt><trkpt lat="43.9198785" lon="12.4887762"><ele>253.57142857142856</ele><time>2026-04-09T15:00:20.216Z</time></trkpt><trkpt lat="43.9198198" lon="12.4887186"><ele>254.71428571428572</ele><time>2026-04-09T15:00:23.211Z</time></trkpt><trkpt lat="43.9197539" lon="12.4886562"><ele>255.85714285714283</ele><time>2026-04-09T15:00:26.216Z</time></trkpt><trkpt lat="43.9196876" lon="12.4885945"><ele>257.0</ele><time>2026-04-09T15:00:29.165Z</time></trkpt><trkpt lat="43.9196301" lon="12.4885285"><ele>257.0</ele><time>2026-04-09T15:00:32.209Z</time></trkpt><trkpt lat="43.9195722" lon="12.48847"><ele>257.0</ele><time>2026-04-09T15:00:35.203Z</time></trkpt><trkpt lat="43.9195194" lon="12.4884074"><ele>257.0</ele><time>2026-04-09T15:00:38.176Z</time></trkpt><trkpt lat="43.9194656" lon="12.4883409"><ele>257.0</ele><time>2026-04-09T15:00:41.225Z</time></trkpt><trkpt lat="43.9194089" lon="12.4882801"><ele>257.0</ele><time>2026-04-09T15:00:44.176Z</time></trkpt><trkpt lat="43.9193498" lon="12.4882167"><ele>257.0</ele><time>2026-04-09T15:00:47.218Z</time></trkpt><trkpt lat="43.9192958" lon="12.4881496"><ele>257.0</ele><time>2026-04-09T15:00:50.206Z</time></trkpt><trkpt lat="43.9192298" lon="12.4880825"><ele>258.5</ele><time>2026-04-09T15:00:53.24Z</time></trkpt><trkpt lat="43.9191687" lon="12.4880092"><ele>260.0</ele><time>2026-04-09T15:00:56.22Z</time></trkpt><trkpt lat="43.9191121" lon="12.4879353"><ele>261.5</ele><time>2026-04-09T15:00:59.222Z</time></trkpt><trkpt lat="43.9190616" lon="12.4878551"><ele>263.0</ele><time>2026-04-09T15:01:02.197Z</time></trkpt><trkpt lat="43.9190008" lon="12.4877703"><ele>264.5</ele><time>2026-04-09T15:01:05.23Z</time></trkpt><trkpt lat="43.9189443" lon="12.4876898"><ele>266.0</ele><time>2026-04-09T15:01:08.205Z</time></trkpt><trkpt lat="43.9188931" lon="12.487605"><ele>266.1666666666667</ele><time>2026-04-09T15:01:11.22Z</time></trkpt><trkpt lat="43.9188355" lon="12.4875192"><ele>266.33333333333337</ele><time>2026-04-09T15:01:14.214Z</time></trkpt><trkpt lat="43.9187862" lon="12.4874279"><ele>266.5</ele><time>2026-04-09T15:01:17.22Z</time></trkpt><trkpt lat="43.9187256" lon="12.4873504"><ele>266.6666666666667</ele><time>2026-04-09T15:01:20.227Z</time></trkpt><trkpt lat="43.9186679" lon="12.4872746"><ele>266.8333333333333</ele><time>2026-04-09T15:01:23.21Z</time></trkpt><trkpt lat="43.9186163" lon="12.4871894"><ele>267.0</ele><time>2026-04-09T15:01:26.211Z</time></trkpt><trkpt lat="43.9185544" lon="12.4871099"><ele>266.8333333333333</ele><time>2026-04-09T15:01:29.198Z</time></trkpt><trkpt lat="43.9185011" lon="12.4870256"><ele>266.6666666666667</ele><time>2026-04-09T15:01:32.2Z</time></trkpt><trkpt lat="43.9184552" lon="12.4869367"><ele>266.5</ele><time>2026-04-09T15:01:35.204Z</time></trkpt><trkpt lat="43.9183941" lon="12.4868615"><ele>266.33333333333337</ele><time>2026-04-09T15:01:38.21Z</time></trkpt><trkpt lat="43.9183396" lon="12.4867777"><ele>266.1666666666667</ele><time>2026-04-09T15:01:41.23Z</time></trkpt><trkpt lat="43.9182834" lon="12.4866962"><ele>266.0</ele><time>2026-04-09T15:01:44.215Z</time></trkpt><trkpt lat="43.9182275" lon="12.4866202"><ele>268.0</ele><time>2026-04-09T15:01:47.196Z</time></trkpt><trkpt lat="43.9181748" lon="12.4865499"><ele>270.0</ele><time>2026-04-09T15:01:50.205Z</time></trkpt><trkpt lat="43.9181248" lon="12.4864702"><ele>272.0</ele><time>2026-04-09T15:01:53.187Z</time></trkpt><trkpt lat="43.9180745" lon="12.4863895"><ele>274.0</ele><time>2026-04-09T15:01:56.197Z</time></trkpt><trkpt lat="43.9180186" lon="12.4863061"><ele>276.0</ele><time>2026-04-09T15:01:59.211Z</time></trkpt><trkpt lat="43.9179688" lon="12.4862294"><ele>278.0</ele><time>2026-04-09T15:02:02.23Z</time></trkpt><trkpt lat="43.9179131" lon="12.4861594"><ele>278.33333333333337</ele><time>2026-04-09T15:02:05.164Z</time></trkpt><trkpt lat="43.917857" lon="12.4860949"><ele>278.6666666666667</ele><time>2026-04-09T15:02:08.186Z</time></trkpt><trkpt lat="43.917795" lon="12.4860368"><ele>279.0</ele><time>2026-04-09T15:02:11.226Z</time></trkpt><trkpt lat="43.917733" lon="12.4859811"><ele>279.3333333333333</ele><time>2026-04-09T15:02:14.22Z</time></trkpt><trkpt lat="43.9176544" lon="12.4859226"><ele>279.66666666666663</ele><time>2026-04-09T15:02:17.216Z</time></trkpt><trkpt lat="43.9175759" lon="12.4858762"><ele>280.0</ele><time>2026-04-09T15:02:20.216Z</time></trkpt><trkpt lat="43.9174991" lon="12.4858296"><ele>281.66666666666663</ele><time>2026-04-09T15:02:23.219Z</time></trkpt><trkpt lat="43.9174326" lon="12.4857867"><ele>283.3333333333333</ele><time>2026-04-09T15:02:26.213Z</time></trkpt><trkpt lat="43.9173622" lon="12.4857362"><ele>285.0</ele><time>2026-04-09T15:02:29.223Z</time></trkpt><trkpt lat="43.9172924" lon="12.4856863"><ele>286.6666666666667</ele><time>2026-04-09T15:02:32.223Z</time></trkpt><trkpt lat="43.9172283" lon="12.4856344"><ele>288.33333333333337</ele><time>2026-04-09T15:02:35.241Z</time></trkpt><trkpt lat="43.9171652" lon="12.4855785"><ele>290.0</ele><time>2026-04-09T15:02:38.224Z</time></trkpt><trkpt lat="43.9170984" lon="12.4855269"><ele>290.0</ele><time>2026-04-09T15:02:41.229Z</time></trkpt><trkpt lat="43.917031" lon="12.485475"><ele>290.0</ele><time>2026-04-09T15:02:44.22Z</time></trkpt><trkpt lat="43.9169666" lon="12.4854189"><ele>290.0</ele><time>2026-04-09T15:02:47.216Z</time></trkpt><trkpt lat="43.9169026" lon="12.4853433"><ele>290.0</ele><time>2026-04-09T15:02:50.235Z</time></trkpt><trkpt lat="43.9168425" lon="12.4852732"><ele>290.0</ele><time>2026-04-09T15:02:53.231Z</time></trkpt><trkpt lat="43.9167766" lon="12.4852044"><ele>290.0</ele><time>2026-04-09T15:02:56.226Z</time></trkpt><trkpt lat="43.9167196" lon="12.4851249"><ele>291.6666666666667</ele><time>2026-04-09T15:02:59.208Z</time></trkpt><trkpt lat="43.9166609" lon="12.485055"><ele>293.33333333333337</ele><time>2026-04-09T15:03:02.194Z</time></trkpt><trkpt lat="43.9165949" lon="12.4849908"><ele>295.0</ele><time>2026-04-09T15:03:05.209Z</time></trkpt><trkpt lat="43.9165386" lon="12.4849216"><ele>296.6666666666667</ele><time>2026-04-09T15:03:08.208Z</time></trkpt><trkpt lat="43.9164774" lon="12.4848532"><ele>298.3333333333333</ele><time>2026-04-09T15:03:11.224Z</time></trkpt><trkpt lat="43.9164085" lon="12.484785"><ele>300.0</ele><time>2026-04-09T15:03:14.225Z</time></trkpt><trkpt lat="43.9163384" lon="12.4847341"><ele>300.0</ele><time>2026-04-09T15:03:17.238Z</time></trkpt><trkpt lat="43.9162607" lon="12.4846902"><ele>300.0</ele><time>2026-04-09T15:03:20.192Z</time></trkpt><trkpt lat="43.9161894" lon="12.4846477"><ele>300.0</ele><time>2026-04-09T15:03:23.192Z</time></trkpt><trkpt lat="43.9161141" lon="12.4846273"><ele>300.0</ele><time>2026-04-09T15:03:26.213Z</time></trkpt><trkpt lat="43.9160255" lon="12.4846118"><ele>300.0</ele><time>2026-04-09T15:03:29.164Z</time></trkpt><trkpt lat="43.9159615" lon="12.4846009"><ele>300.0</ele><time>2026-04-09T15:03:31.17Z</time></trkpt><trkpt lat="43.9158948" lon="12.4845898"><ele>300.4285714285714</ele><time>2026-04-09T15:03:33.189Z</time></trkpt><trkpt lat="43.9158008" lon="12.4845773"><ele>300.85714285714283</ele><time>2026-04-09T15:03:36.21Z</time></trkpt><trkpt lat="43.9157311" lon="12.4845729"><ele>301.2857142857143</ele><time>2026-04-09T15:03:38.221Z</time></trkpt><trkpt lat="43.9156645" lon="12.4845661"><ele>301.71428571428567</ele><time>2026-04-09T15:03:40.206Z</time></trkpt><trkpt lat="43.9155898" lon="12.4845546"><ele>302.1428571428571</ele><time>2026-04-09T15:03:42.215Z</time></trkpt><trkpt lat="43.9155144" lon="12.4845372"><ele>302.57142857142856</ele><time>2026-04-09T15:03:44.22Z</time></trkpt><trkpt lat="43.9154512" lon="12.4845342"><ele>303.0</ele><time>2026-04-09T15:03:46.215Z</time></trkpt><trkpt lat="43.9153861" lon="12.4845223"><ele>303.0</ele><time>2026-04-09T15:03:48.224Z</time></trkpt><trkpt lat="43.9153132" lon="12.4845153"><ele>303.0</ele><time>2026-04-09T15:03:50.184Z</time></trkpt><trkpt lat="43.915249" lon="12.4845092"><ele>303.0</ele><time>2026-04-09T15:03:52.214Z</time></trkpt><trkpt lat="43.9151845" lon="12.4845036"><ele>303.0</ele><time>2026-04-09T15:03:54.209Z</time></trkpt><trkpt lat="43.9151172" lon="12.4844952"><ele>303.0</ele><time>2026-04-09T15:03:56.207Z</time></trkpt><trkpt lat="43.9150528" lon="12.4844859"><ele>303.0</ele><time>2026-04-09T15:03:58.219Z</time></trkpt><trkpt lat="43.9149567" lon="12.484477"><ele>303.0</ele><time>2026-04-09T15:04:01.222Z</time></trkpt><trkpt lat="43.9148674" lon="12.4844735"><ele>303.8333333333333</ele><time>2026-04-09T15:04:04.192Z</time></trkpt><trkpt lat="43.9147741" lon="12.4844531"><ele>304.6666666666667</ele><time>2026-04-09T15:04:07.222Z</time></trkpt><trkpt lat="43.9147032" lon="12.4844282"><ele>305.5</ele><time>2026-04-09T15:04:09.214Z</time></trkpt><trkpt lat="43.9146346" lon="12.4844108"><ele>306.33333333333337</ele><time>2026-04-09T15:04:11.217Z</time></trkpt><trkpt lat="43.9145605" lon="12.4843903"><ele>307.1666666666667</ele><time>2026-04-09T15:04:13.188Z</time></trkpt><trkpt lat="43.9144926" lon="12.4843721"><ele>308.0</ele><time>2026-04-09T15:04:15.203Z</time></trkpt><trkpt lat="43.9144251" lon="12.4843385"><ele>308.0</ele><time>2026-04-09T15:04:17.224Z</time></trkpt><trkpt lat="43.9143624" lon="12.4842983"><ele>308.0</ele><time>2026-04-09T15:04:19.211Z</time></trkpt><trkpt lat="43.9143023" lon="12.484261"><ele>308.0</ele><time>2026-04-09T15:04:21.219Z</time></trkpt><trkpt lat="43.9142428" lon="12.4842197"><ele>308.0</ele><time>2026-04-09T15:04:23.211Z</time></trkpt><trkpt lat="43.9141667" lon="12.4841461"><ele>308.0</ele><time>2026-04-09T15:04:26.207Z</time></trkpt><trkpt lat="43.9140931" lon="12.4840849"><ele>308.0</ele><time>2026-04-09T15:04:29.2Z</time></trkpt><trkpt lat="43.9140349" lon="12.4840297"><ele>308.5</ele><time>2026-04-09T15:04:32.214Z</time></trkpt><trkpt lat="43.9139717" lon="12.4839684"><ele>309.0</ele><time>2026-04-09T15:04:35.189Z</time></trkpt><trkpt lat="43.9139113" lon="12.4839235"><ele>309.5</ele><time>2026-04-09T15:04:37.222Z</time></trkpt><trkpt lat="43.9138379" lon="12.4838669"><ele>310.0</ele><time>2026-04-09T15:04:40.195Z</time></trkpt><trkpt lat="43.9137651" lon="12.4838044"><ele>310.5</ele><time>2026-04-09T15:04:43.183Z</time></trkpt><trkpt lat="43.9136979" lon="12.4837479"><ele>311.0</ele><time>2026-04-09T15:04:46.196Z</time></trkpt><trkpt lat="43.9136209" lon="12.483697"><ele>311.0</ele><time>2026-04-09T15:04:49.201Z</time></trkpt><trkpt lat="43.9135493" lon="12.4836311"><ele>311.0</ele><time>2026-04-09T15:04:52.214Z</time></trkpt><trkpt lat="43.913486" lon="12.4835683"><ele>311.0</ele><time>2026-04-09T15:04:55.205Z</time></trkpt><trkpt lat="43.9134213" lon="12.4835056"><ele>311.0</ele><time>2026-04-09T15:04:58.229Z</time></trkpt><trkpt lat="43.9133541" lon="12.4834432"><ele>311.0</ele><time>2026-04-09T15:05:01.217Z</time></trkpt><trkpt lat="43.9132812" lon="12.4833883"><ele>311.0</ele><time>2026-04-09T15:05:04.205Z</time></trkpt><trkpt lat="43.9132132" lon="12.4833219"><ele>312.5</ele><time>2026-04-09T15:05:07.224Z</time></trkpt><trkpt lat="43.9131379" lon="12.483257"><ele>314.0</ele><time>2026-04-09T15:05:10.2Z</time></trkpt><trkpt lat="43.9130733" lon="12.4831945"><ele>315.5</ele><time>2026-04-09T15:05:13.212Z</time></trkpt><trkpt lat="43.9130067" lon="12.4831225"><ele>317.0</ele><time>2026-04-09T15:05:16.216Z</time></trkpt><trkpt lat="43.9129335" lon="12.4830571"><ele>318.5</ele><time>2026-04-09T15:05:19.21Z</time></trkpt><trkpt lat="43.9128637" lon="12.4829919"><ele>320.0</ele><time>2026-04-09T15:05:22.191Z</time></trkpt><trkpt lat="43.9127906" lon="12.4829326"><ele>320.33333333333337</ele><time>2026-04-09T15:05:25.203Z</time></trkpt><trkpt lat="43.9127349" lon="12.482886"><ele>320.6666666666667</ele><time>2026-04-09T15:05:27.218Z</time></trkpt><trkpt lat="43.9126486" lon="12.4828626"><ele>321.0</ele><time>2026-04-09T15:05:30.233Z</time></trkpt><trkpt lat="43.9125772" lon="12.4828616"><ele>321.3333333333333</ele><time>2026-04-09T15:05:32.197Z</time></trkpt><trkpt lat="43.9125063" lon="12.4828748"><ele>321.66666666666663</ele><time>2026-04-09T15:05:34.153Z</time></trkpt><trkpt lat="43.9124372" lon="12.4829073"><ele>322.0</ele><time>2026-04-09T15:05:36.181Z</time></trkpt><trkpt lat="43.9123614" lon="12.4829536"><ele>322.0</ele><time>2026-04-09T15:05:38.171Z</time></trkpt><trkpt lat="43.9122835" lon="12.4829929"><ele>322.0</ele><time>2026-04-09T15:05:40.165Z</time></trkpt><trkpt lat="43.9122154" lon="12.4830355"><ele>322.0</ele><time>2026-04-09T15:05:42.171Z</time></trkpt><trkpt lat="43.9121414" lon="12.4830853"><ele>322.0</ele><time>2026-04-09T15:05:44.192Z</time></trkpt><trkpt lat="43.9120547" lon="12.4831343"><ele>322.0</ele><time>2026-04-09T15:05:46.203Z</time></trkpt><trkpt lat="43.9119768" lon="12.4831746"><ele>322.0</ele><time>2026-04-09T15:05:48.209Z</time></trkpt><trkpt lat="43.9118988" lon="12.4832152"><ele>322.0</ele><time>2026-04-09T15:05:50.211Z</time></trkpt><trkpt lat="43.911819" lon="12.4832557"><ele>322.0</ele><time>2026-04-09T15:05:52.217Z</time></trkpt><trkpt lat="43.9117466" lon="12.4832806"><ele>322.0</ele><time>2026-04-09T15:05:54.215Z</time></trkpt><trkpt lat="43.9116704" lon="12.4833151"><ele>322.0</ele><time>2026-04-09T15:05:56.224Z</time></trkpt><trkpt lat="43.9115892" lon="12.4833496"><ele>322.0</ele><time>2026-04-09T15:05:58.178Z</time></trkpt><trkpt lat="43.9115146" lon="12.4833747"><ele>322.0</ele><time>2026-04-09T15:06:00.207Z</time></trkpt><trkpt lat="43.9114387" lon="12.4834102"><ele>323.8333333333333</ele><time>2026-04-09T15:06:02.169Z</time></trkpt><trkpt lat="43.9113635" lon="12.48341"><ele>325.66666666666663</ele><time>2026-04-09T15:06:04.212Z</time></trkpt><trkpt lat="43.9112841" lon="12.4833858"><ele>327.5</ele><time>2026-04-09T15:06:06.214Z</time></trkpt><trkpt lat="43.9112136" lon="12.4833299"><ele>329.3333333333333</ele><time>2026-04-09T15:06:08.208Z</time></trkpt><trkpt lat="43.9111412" lon="12.4832665"><ele>331.1666666666667</ele><time>2026-04-09T15:06:10.17Z</time></trkpt><trkpt lat="43.911062" lon="12.4832124"><ele>333.0</ele><time>2026-04-09T15:06:12.184Z</time></trkpt><trkpt lat="43.9109776" lon="12.483165"><ele>333.59999999999997</ele><time>2026-04-09T15:06:14.198Z</time></trkpt><trkpt lat="43.9108631" lon="12.4831546"><ele>334.2</ele><time>2026-04-09T15:06:16.213Z</time></trkpt><trkpt lat="43.9107579" lon="12.4832171"><ele>334.8</ele><time>2026-04-09T15:06:18.209Z</time></trkpt><trkpt lat="43.9106696" lon="12.4833017"><ele>335.4</ele><time>2026-04-09T15:06:20.212Z</time></trkpt><trkpt lat="43.9105924" lon="12.4833806"><ele>336.0</ele><time>2026-04-09T15:06:22.184Z</time></trkpt><trkpt lat="43.9105198" lon="12.4834553"><ele>336.0</ele><time>2026-04-09T15:06:24.236Z</time></trkpt><trkpt lat="43.9104254" lon="12.483524"><ele>336.0</ele><time>2026-04-09T15:06:26.218Z</time></trkpt><trkpt lat="43.9103288" lon="12.4835901"><ele>336.0</ele><time>2026-04-09T15:06:28.227Z</time></trkpt><trkpt lat="43.9102456" lon="12.4836403"><ele>336.0</ele><time>2026-04-09T15:06:30.23Z</time></trkpt><trkpt lat="43.9101634" lon="12.4836909"><ele>336.0</ele><time>2026-04-09T15:06:32.216Z</time></trkpt><trkpt lat="43.9100804" lon="12.4837446"><ele>335.6</ele><time>2026-04-09T15:06:34.2Z</time></trkpt><trkpt lat="43.9099881" lon="12.4838097"><ele>335.20000000000005</ele><time>2026-04-09T15:06:36.2Z</time></trkpt><trkpt lat="43.9098897" lon="12.4838735"><ele>334.79999999999995</ele><time>2026-04-09T15:06:38.216Z</time></trkpt><trkpt lat="43.9098055" lon="12.4839336"><ele>334.4</ele><time>2026-04-09T15:06:40.233Z</time></trkpt><trkpt lat="43.9097363" lon="12.4840392"><ele>334.0</ele><time>2026-04-09T15:06:42.218Z</time></trkpt><trkpt lat="43.9096886" lon="12.4841773"><ele>334.0</ele><time>2026-04-09T15:06:44.197Z</time></trkpt><trkpt lat="43.9096733" lon="12.4843259"><ele>334.0</ele><time>2026-04-09T15:06:46.198Z</time></trkpt><trkpt lat="43.9096571" lon="12.4844885"><ele>334.0</ele><time>2026-04-09T15:06:48.214Z</time></trkpt><trkpt lat="43.9096475" lon="12.4846506"><ele>334.0</ele><time>2026-04-09T15:06:50.213Z</time></trkpt><trkpt lat="43.9096442" lon="12.484826"><ele>333.25</ele><time>2026-04-09T15:06:52.217Z</time></trkpt><trkpt lat="43.9096444" lon="12.4849923"><ele>332.5</ele><time>2026-04-09T15:06:54.226Z</time></trkpt><trkpt lat="43.9096391" lon="12.4851488"><ele>331.75</ele><time>2026-04-09T15:06:56.214Z</time></trkpt><trkpt lat="43.9096403" lon="12.4853046"><ele>331.0</ele><time>2026-04-09T15:06:58.201Z</time></trkpt><trkpt lat="43.9096346" lon="12.4854647"><ele>331.0</ele><time>2026-04-09T15:07:00.208Z</time></trkpt><trkpt lat="43.9096364" lon="12.4856255"><ele>331.0</ele><time>2026-04-09T15:07:02.222Z</time></trkpt><trkpt lat="43.9096226" lon="12.4857851"><ele>331.0</ele><time>2026-04-09T15:07:04.209Z</time></trkpt><trkpt lat="43.909583" lon="12.4859065"><ele>331.0</ele><time>2026-04-09T15:07:06.211Z</time></trkpt><trkpt lat="43.9095056" lon="12.4859794"><ele>331.0</ele><time>2026-04-09T15:07:08.212Z</time></trkpt><trkpt lat="43.9094215" lon="12.4860111"><ele>331.0</ele><time>2026-04-09T15:07:10.206Z</time></trkpt><trkpt lat="43.9093486" lon="12.4860371"><ele>331.0</ele><time>2026-04-09T15:07:12.203Z</time></trkpt><trkpt lat="43.9092753" lon="12.4860605"><ele>331.0</ele><time>2026-04-09T15:07:14.208Z</time></trkpt><trkpt lat="43.9092038" lon="12.4860667"><ele>331.0</ele><time>2026-04-09T15:07:16.175Z</time></trkpt><trkpt lat="43.9091343" lon="12.4860513"><ele>331.0</ele><time>2026-04-09T15:07:18.176Z</time></trkpt><trkpt lat="43.9090644" lon="12.4860306"><ele>331.0</ele><time>2026-04-09T15:07:20.187Z</time></trkpt><trkpt lat="43.9089851" lon="12.4859599"><ele>332.57142857142856</ele><time>2026-04-09T15:07:23.217Z</time></trkpt><trkpt lat="43.9089347" lon="12.4858746"><ele>334.1428571428571</ele><time>2026-04-09T15:07:26.217Z</time></trkpt><trkpt lat="43.9089096" lon="12.4857733"><ele>335.71428571428567</ele><time>2026-04-09T15:07:29.225Z</time></trkpt><trkpt lat="43.9088928" lon="12.4856799"><ele>337.2857142857143</ele><time>2026-04-09T15:07:32.221Z</time></trkpt><trkpt lat="43.9088982" lon="12.4855819"><ele>338.85714285714283</ele><time>2026-04-09T15:07:35.223Z</time></trkpt><trkpt lat="43.9088989" lon="12.4854848"><ele>340.4285714285714</ele><time>2026-04-09T15:07:38.214Z</time></trkpt><trkpt lat="43.9089016" lon="12.485397"><ele>342.0</ele><time>2026-04-09T15:07:41.22Z</time></trkpt><trkpt lat="43.9089173" lon="12.4853116"><ele>342.4285714285714</ele><time>2026-04-09T15:07:44.223Z</time></trkpt><trkpt lat="43.9089241" lon="12.4852236"><ele>342.85714285714283</ele><time>2026-04-09T15:07:47.207Z</time></trkpt><trkpt lat="43.9089321" lon="12.4851352"><ele>343.2857142857143</ele><time>2026-04-09T15:07:50.218Z</time></trkpt><trkpt lat="43.9089355" lon="12.4850421"><ele>343.71428571428567</ele><time>2026-04-09T15:07:53.193Z</time></trkpt><trkpt lat="43.9089296" lon="12.4849153"><ele>344.1428571428571</ele><time>2026-04-09T15:07:56.204Z</time></trkpt><trkpt lat="43.9089175" lon="12.4848191"><ele>344.57142857142856</ele><time>2026-04-09T15:07:59.218Z</time></trkpt><trkpt lat="43.9088727" lon="12.4847377"><ele>345.0</ele><time>2026-04-09T15:08:04.195Z</time></trkpt><trkpt lat="43.9088086" lon="12.4847201"><ele>345.0</ele><time>2026-04-09T15:08:08.206Z</time></trkpt><trkpt lat="43.9088902" lon="12.4847216"><ele>345.0</ele><time>2026-04-09T15:08:49.17Z</time></trkpt><trkpt lat="43.9089254" lon="12.4846426"><ele>345.0</ele><time>2026-04-09T15:08:52.201Z</time></trkpt><trkpt lat="43.9089479" lon="12.4845569"><ele>345.0</ele><time>2026-04-09T15:08:55.236Z</time></trkpt><trkpt lat="43.9089668" lon="12.4844564"><ele>345.0</ele><time>2026-04-09T15:08:58.215Z</time></trkpt><trkpt lat="43.9089787" lon="12.4843506"><ele>345.0</ele><time>2026-04-09T15:09:01.177Z</time></trkpt><trkpt lat="43.9089999" lon="12.4842453"><ele>345.0</ele><time>2026-04-09T15:09:04.17Z</time></trkpt><trkpt lat="43.9090057" lon="12.4841271"><ele>345.6666666666667</ele><time>2026-04-09T15:09:07.186Z</time></trkpt><trkpt lat="43.9090109" lon="12.4840131"><ele>346.3333333333333</ele><time>2026-04-09T15:09:10.17Z</time></trkpt><trkpt lat="43.9090202" lon="12.4839012"><ele>347.0</ele><time>2026-04-09T15:09:13.187Z</time></trkpt><trkpt lat="43.9090248" lon="12.4837886"><ele>347.66666666666663</ele><time>2026-04-09T15:09:16.194Z</time></trkpt><trkpt lat="43.9090327" lon="12.4836664"><ele>348.3333333333333</ele><time>2026-04-09T15:09:19.208Z</time></trkpt><trkpt lat="43.9090366" lon="12.4835698"><ele>349.0</ele><time>2026-04-09T15:09:22.188Z</time></trkpt><trkpt lat="43.9090472" lon="12.483462"><ele>350.3333333333333</ele><time>2026-04-09T15:09:25.205Z</time></trkpt><trkpt lat="43.9090479" lon="12.4833434"><ele>351.66666666666663</ele><time>2026-04-09T15:09:28.212Z</time></trkpt><trkpt lat="43.9090592" lon="12.4832393"><ele>353.0</ele><time>2026-04-09T15:09:31.204Z</time></trkpt><trkpt lat="43.9090723" lon="12.4831387"><ele>354.3333333333333</ele><time>2026-04-09T15:09:34.196Z</time></trkpt><trkpt lat="43.9090754" lon="12.4830296"><ele>355.6666666666667</ele><time>2026-04-09T15:09:37.198Z</time></trkpt><trkpt lat="43.909081" lon="12.4829307"><ele>357.0</ele><time>2026-04-09T15:09:40.167Z</time></trkpt><trkpt lat="43.909086" lon="12.4828257"><ele>356.6666666666667</ele><time>2026-04-09T15:09:43.213Z</time></trkpt><trkpt lat="43.9091063" lon="12.4827376"><ele>356.3333333333333</ele><time>2026-04-09T15:09:46.144Z</time></trkpt><trkpt lat="43.9091324" lon="12.4826459"><ele>356.0</ele><time>2026-04-09T15:09:49.188Z</time></trkpt><trkpt lat="43.9091743" lon="12.4825735"><ele>355.66666666666663</ele><time>2026-04-09T15:09:52.202Z</time></trkpt><trkpt lat="43.9092359" lon="12.4825127"><ele>355.3333333333333</ele><time>2026-04-09T15:09:55.206Z</time></trkpt><trkpt lat="43.9093052" lon="12.4824396"><ele>355.0</ele><time>2026-04-09T15:09:58.191Z</time></trkpt><trkpt lat="43.9093719" lon="12.4823639"><ele>355.0</ele><time>2026-04-09T15:10:01.198Z</time></trkpt><trkpt lat="43.9094344" lon="12.4822889"><ele>355.0</ele><time>2026-04-09T15:10:04.181Z</time></trkpt><trkpt lat="43.9094947" lon="12.4822222"><ele>355.0</ele><time>2026-04-09T15:10:07.186Z</time></trkpt><trkpt lat="43.9095558" lon="12.4821408"><ele>355.0</ele><time>2026-04-09T15:10:10.204Z</time></trkpt><trkpt lat="43.9095908" lon="12.4820446"><ele>355.0</ele><time>2026-04-09T15:10:13.218Z</time></trkpt><trkpt lat="43.9095804" lon="12.4819157"><ele>355.0</ele><time>2026-04-09T15:10:16.21Z</time></trkpt><trkpt lat="43.9095493" lon="12.4818048"><ele>356.3333333333333</ele><time>2026-04-09T15:10:19.211Z</time></trkpt><trkpt lat="43.9094812" lon="12.4817332"><ele>357.66666666666663</ele><time>2026-04-09T15:10:22.2Z</time></trkpt><trkpt lat="43.9094211" lon="12.4817018"><ele>359.0</ele><time>2026-04-09T15:10:24.185Z</time></trkpt><trkpt lat="43.9093519" lon="12.4816995"><ele>360.3333333333333</ele><time>2026-04-09T15:10:26.167Z</time></trkpt><trkpt lat="43.9092639" lon="12.4817288"><ele>361.6666666666667</ele><time>2026-04-09T15:10:29.166Z</time></trkpt><trkpt lat="43.9091833" lon="12.4817687"><ele>363.0</ele><time>2026-04-09T15:10:32.201Z</time></trkpt><trkpt lat="43.909118" lon="12.4818171"><ele>363.4285714285714</ele><time>2026-04-09T15:10:35.222Z</time></trkpt><trkpt lat="43.9090515" lon="12.4818658"><ele>363.85714285714283</ele><time>2026-04-09T15:10:38.216Z</time></trkpt><trkpt lat="43.9089913" lon="12.4818959"><ele>364.2857142857143</ele><time>2026-04-09T15:10:40.204Z</time></trkpt><trkpt lat="43.9089254" lon="12.4819413"><ele>364.71428571428567</ele><time>2026-04-09T15:10:43.193Z</time></trkpt><trkpt lat="43.9088607" lon="12.4819927"><ele>365.14285714285717</ele><time>2026-04-09T15:10:46.183Z</time></trkpt><trkpt lat="43.9087986" lon="12.4820338"><ele>365.57142857142856</ele><time>2026-04-09T15:10:49.153Z</time></trkpt><trkpt lat="43.9087344" lon="12.4820713"><ele>366.0</ele><time>2026-04-09T15:10:52.172Z</time></trkpt><trkpt lat="43.9086754" lon="12.4821141"><ele>366.0</ele><time>2026-04-09T15:10:55.187Z</time></trkpt><trkpt lat="43.9086109" lon="12.4821466"><ele>366.0</ele><time>2026-04-09T15:10:58.206Z</time></trkpt><trkpt lat="43.9085483" lon="12.4821852"><ele>366.0</ele><time>2026-04-09T15:11:01.175Z</time></trkpt><trkpt lat="43.9084898" lon="12.4822264"><ele>366.0</ele><time>2026-04-09T15:11:04.204Z</time></trkpt><trkpt lat="43.9084315" lon="12.482274"><ele>366.0</ele><time>2026-04-09T15:11:07.195Z</time></trkpt><trkpt lat="43.9083648" lon="12.4823188"><ele>366.0</ele><time>2026-04-09T15:11:10.211Z</time></trkpt><trkpt lat="43.9083064" lon="12.4823571"><ele>366.0</ele><time>2026-04-09T15:11:13.203Z</time></trkpt><trkpt lat="43.9082426" lon="12.4824018"><ele>368.57142857142856</ele><time>2026-04-09T15:11:16.195Z</time></trkpt><trkpt lat="43.9081766" lon="12.4824285"><ele>371.14285714285717</ele><time>2026-04-09T15:11:19.214Z</time></trkpt><trkpt lat="43.9081088" lon="12.4823871"><ele>373.71428571428567</ele><time>2026-04-09T15:11:23.197Z</time></trkpt><trkpt lat="43.9080762" lon="12.4823058"><ele>376.2857142857143</ele><time>2026-04-09T15:11:26.199Z</time></trkpt><trkpt lat="43.9080349" lon="12.482203"><ele>378.85714285714283</ele><time>2026-04-09T15:11:30.155Z</time></trkpt><trkpt lat="43.9080044" lon="12.4821223"><ele>381.4285714285714</ele><time>2026-04-09T15:11:33.177Z</time></trkpt><trkpt lat="43.9079706" lon="12.482043"><ele>384.0</ele><time>2026-04-09T15:11:36.205Z</time></trkpt><trkpt lat="43.9079295" lon="12.4819552"><ele>384.2857142857143</ele><time>2026-04-09T15:11:39.178Z</time></trkpt><trkpt lat="43.9079006" lon="12.4818754"><ele>384.57142857142856</ele><time>2026-04-09T15:11:42.191Z</time></trkpt><trkpt lat="43.9078487" lon="12.4817827"><ele>384.8571428571429</ele><time>2026-04-09T15:11:46.206Z</time></trkpt><trkpt lat="43.9078105" lon="12.4816973"><ele>385.1428571428571</ele><time>2026-04-09T15:11:49.181Z</time></trkpt><trkpt lat="43.9077669" lon="12.4816115"><ele>385.42857142857144</ele><time>2026-04-09T15:11:52.19Z</time></trkpt><trkpt lat="43.9077368" lon="12.4815237"><ele>385.7142857142857</ele><time>2026-04-09T15:11:55.195Z</time></trkpt><trkpt lat="43.9077024" lon="12.4814382"><ele>386.0</ele><time>2026-04-09T15:11:58.199Z</time></trkpt><trkpt lat="43.9076643" lon="12.4813369"><ele>385.28571428571433</ele><time>2026-04-09T15:12:01.197Z</time></trkpt><trkpt lat="43.9076177" lon="12.4812511"><ele>384.57142857142856</ele><time>2026-04-09T15:12:04.208Z</time></trkpt><trkpt lat="43.9075773" lon="12.4811738"><ele>383.8571428571429</ele><time>2026-04-09T15:12:07.172Z</time></trkpt><trkpt lat="43.9075285" lon="12.4811038"><ele>383.14285714285717</ele><time>2026-04-09T15:12:10.205Z</time></trkpt><trkpt lat="43.9074651" lon="12.4810448"><ele>382.42857142857144</ele><time>2026-04-09T15:12:13.211Z</time></trkpt><trkpt lat="43.9073979" lon="12.481001"><ele>381.7142857142857</ele><time>2026-04-09T15:12:16.212Z</time></trkpt><trkpt lat="43.9073214" lon="12.4809743"><ele>381.0</ele><time>2026-04-09T15:12:19.202Z</time></trkpt><trkpt lat="43.9072505" lon="12.480958"><ele>383.0</ele><time>2026-04-09T15:12:22.182Z</time></trkpt><trkpt lat="43.9071803" lon="12.4809474"><ele>385.0</ele><time>2026-04-09T15:12:25.189Z</time></trkpt><trkpt lat="43.907113" lon="12.4809345"><ele>387.0</ele><time>2026-04-09T15:12:28.221Z</time></trkpt><trkpt lat="43.9070429" lon="12.4809344"><ele>389.0</ele><time>2026-04-09T15:12:31.191Z</time></trkpt><trkpt lat="43.9069757" lon="12.4809406"><ele>391.0</ele><time>2026-04-09T15:12:34.21Z</time></trkpt><trkpt lat="43.9068948" lon="12.480943"><ele>393.0</ele><time>2026-04-09T15:12:37.223Z</time></trkpt><trkpt lat="43.9068228" lon="12.4809429"><ele>395.0</ele><time>2026-04-09T15:12:40.193Z</time></trkpt><trkpt lat="43.9067568" lon="12.4809298"><ele>396.2857142857143</ele><time>2026-04-09T15:12:43.205Z</time></trkpt><trkpt lat="43.9066817" lon="12.4809147"><ele>397.5714285714286</ele><time>2026-04-09T15:12:47.18Z</time></trkpt><trkpt lat="43.906602" lon="12.4808863"><ele>398.8571428571429</ele><time>2026-04-09T15:12:51.19Z</time></trkpt><trkpt lat="43.9065314" lon="12.4808739"><ele>400.1428571428571</ele><time>2026-04-09T15:12:54.213Z</time></trkpt><trkpt lat="43.9064716" lon="12.4808448"><ele>401.42857142857144</ele><time>2026-04-09T15:12:57.187Z</time></trkpt><trkpt lat="43.9064069" lon="12.4808003"><ele>402.7142857142857</ele><time>2026-04-09T15:13:00.212Z</time></trkpt><trkpt lat="43.9063473" lon="12.4807556"><ele>404.0</ele><time>2026-04-09T15:13:03.175Z</time></trkpt><trkpt lat="43.906294" lon="12.4807089"><ele>404.0</ele><time>2026-04-09T15:13:06.215Z</time></trkpt><trkpt lat="43.90624" lon="12.4806542"><ele>404.0</ele><time>2026-04-09T15:13:09.211Z</time></trkpt><trkpt lat="43.9061789" lon="12.4806"><ele>404.0</ele><time>2026-04-09T15:13:12.211Z</time></trkpt><trkpt lat="43.9061162" lon="12.4805481"><ele>404.0</ele><time>2026-04-09T15:13:15.22Z</time></trkpt><trkpt lat="43.906052" lon="12.4804965"><ele>404.0</ele><time>2026-04-09T15:13:18.174Z</time></trkpt><trkpt lat="43.9059919" lon="12.4804357"><ele>404.0</ele><time>2026-04-09T15:13:21.187Z</time></trkpt><trkpt lat="43.9059324" lon="12.4803801"><ele>404.0</ele><time>2026-04-09T15:13:24.225Z</time></trkpt><trkpt lat="43.9058757" lon="12.4803206"><ele>405.1428571428571</ele><time>2026-04-09T15:13:27.16Z</time></trkpt><trkpt lat="43.9058158" lon="12.4802679"><ele>406.2857142857143</ele><time>2026-04-09T15:13:30.189Z</time></trkpt><trkpt lat="43.9057591" lon="12.4801991"><ele>407.42857142857144</ele><time>2026-04-09T15:13:33.195Z</time></trkpt><trkpt lat="43.9056999" lon="12.4801331"><ele>408.57142857142856</ele><time>2026-04-09T15:13:36.204Z</time></trkpt><trkpt lat="43.9056415" lon="12.4800711"><ele>409.7142857142857</ele><time>2026-04-09T15:13:39.209Z</time></trkpt><trkpt lat="43.9055798" lon="12.4800177"><ele>410.85714285714283</ele><time>2026-04-09T15:13:42.205Z</time></trkpt><trkpt lat="43.9055233" lon="12.4799692"><ele>412.0</ele><time>2026-04-09T15:13:45.202Z</time></trkpt><trkpt lat="43.9054591" lon="12.4799062"><ele>411.99999999999994</ele><time>2026-04-09T15:13:48.191Z</time></trkpt><trkpt lat="43.9054013" lon="12.479831"><ele>412.0</ele><time>2026-04-09T15:13:51.187Z</time></trkpt><trkpt lat="43.9053402" lon="12.4797482"><ele>412.0</ele><time>2026-04-09T15:13:54.208Z</time></trkpt><trkpt lat="43.9052964" lon="12.4796826"><ele>412.0</ele><time>2026-04-09T15:13:56.203Z</time></trkpt><trkpt lat="43.9052441" lon="12.4796166"><ele>412.0</ele><time>2026-04-09T15:13:58.206Z</time></trkpt><trkpt lat="43.905198" lon="12.4795437"><ele>411.99999999999994</ele><time>2026-04-09T15:14:00.213Z</time></trkpt><trkpt lat="43.9051557" lon="12.4794689"><ele>412.0</ele><time>2026-04-09T15:14:02.17Z</time></trkpt><trkpt lat="43.9051056" lon="12.4793519"><ele>413.2857142857143</ele><time>2026-04-09T15:14:05.216Z</time></trkpt><trkpt lat="43.9050699" lon="12.4792783"><ele>414.57142857142856</ele><time>2026-04-09T15:14:07.189Z</time></trkpt><trkpt lat="43.9050345" lon="12.4791968"><ele>415.8571428571429</ele><time>2026-04-09T15:14:09.22Z</time></trkpt><trkpt lat="43.9050015" lon="12.47911"><ele>417.1428571428571</ele><time>2026-04-09T15:14:11.18Z</time></trkpt><trkpt lat="43.904976" lon="12.4790171"><ele>418.42857142857144</ele><time>2026-04-09T15:14:13.188Z</time></trkpt><trkpt lat="43.9049526" lon="12.4789278"><ele>419.7142857142857</ele><time>2026-04-09T15:14:15.198Z</time></trkpt><trkpt lat="43.9049279" lon="12.4788381"><ele>421.0</ele><time>2026-04-09T15:14:17.204Z</time></trkpt><trkpt lat="43.9049049" lon="12.4787503"><ele>421.00000000000006</ele><time>2026-04-09T15:14:19.207Z</time></trkpt><trkpt lat="43.904878" lon="12.4786315"><ele>421.0</ele><time>2026-04-09T15:14:22.174Z</time></trkpt><trkpt lat="43.9048519" lon="12.478548"><ele>421.0</ele><time>2026-04-09T15:14:24.194Z</time></trkpt><trkpt lat="43.9048101" lon="12.4784712"><ele>421.0</ele><time>2026-04-09T15:14:26.227Z</time></trkpt><trkpt lat="43.9047647" lon="12.4783973"><ele>421.0</ele><time>2026-04-09T15:14:28.175Z</time></trkpt><trkpt lat="43.9047096" lon="12.4783241"><ele>421.00000000000006</ele><time>2026-04-09T15:14:30.218Z</time></trkpt><trkpt lat="43.9046592" lon="12.4782491"><ele>421.0</ele><time>2026-04-09T15:14:32.199Z</time></trkpt><trkpt lat="43.9045977" lon="12.4781844"><ele>421.00000000000006</ele><time>2026-04-09T15:14:34.212Z</time></trkpt><trkpt lat="43.9045284" lon="12.478122"><ele>421.0</ele><time>2026-04-09T15:14:36.199Z</time></trkpt><trkpt lat="43.9044682" lon="12.4780497"><ele>421.0</ele><time>2026-04-09T15:14:38.211Z</time></trkpt><trkpt lat="43.9044134" lon="12.4779839"><ele>421.0</ele><time>2026-04-09T15:14:40.192Z</time></trkpt><trkpt lat="43.904353" lon="12.4779233"><ele>421.00000000000006</ele><time>2026-04-09T15:14:42.187Z</time></trkpt><trkpt lat="43.9042842" lon="12.4778661"><ele>421.0</ele><time>2026-04-09T15:14:44.173Z</time></trkpt><trkpt lat="43.9042154" lon="12.4778044"><ele>421.33333333333337</ele><time>2026-04-09T15:14:46.179Z</time></trkpt><trkpt lat="43.9041455" lon="12.4777554"><ele>421.6666666666667</ele><time>2026-04-09T15:14:48.205Z</time></trkpt><trkpt lat="43.9040766" lon="12.4777075"><ele>422.0</ele><time>2026-04-09T15:14:50.213Z</time></trkpt><trkpt lat="43.9040064" lon="12.4776661"><ele>422.33333333333337</ele><time>2026-04-09T15:14:52.22Z</time></trkpt><trkpt lat="43.9039359" lon="12.4776311"><ele>422.6666666666667</ele><time>2026-04-09T15:14:54.206Z</time></trkpt><trkpt lat="43.9038517" lon="12.4776026"><ele>423.0</ele><time>2026-04-09T15:14:56.203Z</time></trkpt><trkpt lat="43.9037741" lon="12.4775694"><ele>423.0</ele><time>2026-04-09T15:14:58.219Z</time></trkpt><trkpt lat="43.9036996" lon="12.4775335"><ele>423.0</ele><time>2026-04-09T15:15:00.204Z</time></trkpt><trkpt lat="43.9036258" lon="12.4774964"><ele>423.0</ele><time>2026-04-09T15:15:02.217Z</time></trkpt><trkpt lat="43.9035531" lon="12.4774616"><ele>423.0</ele><time>2026-04-09T15:15:04.2Z</time></trkpt><trkpt lat="43.9034801" lon="12.4774309"><ele>423.0</ele><time>2026-04-09T15:15:06.202Z</time></trkpt><trkpt lat="43.9034044" lon="12.4774026"><ele>423.0</ele><time>2026-04-09T15:15:08.204Z</time></trkpt><trkpt lat="43.9033286" lon="12.4773665"><ele>423.4285714285714</ele><time>2026-04-09T15:15:10.215Z</time></trkpt><trkpt lat="43.9032628" lon="12.477332"><ele>423.8571428571429</ele><time>2026-04-09T15:15:12.161Z</time></trkpt><trkpt lat="43.9031958" lon="12.4772992"><ele>424.2857142857143</ele><time>2026-04-09T15:15:14.2Z</time></trkpt><trkpt lat="43.9031334" lon="12.4772445"><ele>424.71428571428567</ele><time>2026-04-09T15:15:16.166Z</time></trkpt><trkpt lat="43.9030757" lon="12.4771714"><ele>425.1428571428571</ele><time>2026-04-09T15:15:18.183Z</time></trkpt><trkpt lat="43.9030187" lon="12.4771063"><ele>425.57142857142856</ele><time>2026-04-09T15:15:20.205Z</time></trkpt><trkpt lat="43.9029454" lon="12.4770865"><ele>426.0</ele><time>2026-04-09T15:15:22.189Z</time></trkpt><trkpt lat="43.9028767" lon="12.4770766"><ele>426.57142857142856</ele><time>2026-04-09T15:15:24.205Z</time></trkpt><trkpt lat="43.9027879" lon="12.4770671"><ele>427.1428571428571</ele><time>2026-04-09T15:15:27.24Z</time></trkpt><trkpt lat="43.9027196" lon="12.4770681"><ele>427.71428571428567</ele><time>2026-04-09T15:15:30.186Z</time></trkpt><trkpt lat="43.9026456" lon="12.4770513"><ele>428.2857142857143</ele><time>2026-04-09T15:15:33.201Z</time></trkpt><trkpt lat="43.9025753" lon="12.477043"><ele>428.8571428571429</ele><time>2026-04-09T15:15:36.208Z</time></trkpt><trkpt lat="43.9024987" lon="12.4770374"><ele>429.4285714285714</ele><time>2026-04-09T15:15:40.202Z</time></trkpt><trkpt lat="43.9024369" lon="12.4770059"><ele>430.0</ele><time>2026-04-09T15:15:43.193Z</time></trkpt><trkpt lat="43.9023644" lon="12.4769862"><ele>432.2857142857143</ele><time>2026-04-09T15:15:46.159Z</time></trkpt><trkpt lat="43.9022934" lon="12.4769551"><ele>434.5714285714286</ele><time>2026-04-09T15:15:49.215Z</time></trkpt><trkpt lat="43.9022195" lon="12.4769267"><ele>436.8571428571429</ele><time>2026-04-09T15:15:52.171Z</time></trkpt><trkpt lat="43.9021476" lon="12.4769025"><ele>439.1428571428571</ele><time>2026-04-09T15:15:55.186Z</time></trkpt><trkpt lat="43.9020747" lon="12.4768815"><ele>441.42857142857144</ele><time>2026-04-09T15:15:58.186Z</time></trkpt><trkpt lat="43.9019994" lon="12.4768501"><ele>443.7142857142857</ele><time>2026-04-09T15:16:02.185Z</time></trkpt><trkpt lat="43.9019346" lon="12.4768299"><ele>446.0</ele><time>2026-04-09T15:16:06.185Z</time></trkpt><trkpt lat="43.9018693" lon="12.4768287"><ele>446.0</ele><time>2026-04-09T15:16:10.177Z</time></trkpt><trkpt lat="43.9017901" lon="12.4768109"><ele>446.0</ele><time>2026-04-09T15:16:15.171Z</time></trkpt><trkpt lat="43.901725" lon="12.4768021"><ele>446.0</ele><time>2026-04-09T15:16:20.21Z</time></trkpt><trkpt lat="43.90166" lon="12.476804"><ele>446.0</ele><time>2026-04-09T15:16:24.2Z</time></trkpt><trkpt lat="43.9015918" lon="12.4768012"><ele>446.0</ele><time>2026-04-09T15:16:29.16Z</time></trkpt><trkpt lat="43.9015128" lon="12.4768051"><ele>446.0</ele><time>2026-04-09T15:16:35.179Z</time></trkpt><trkpt lat="43.9014441" lon="12.4768085"><ele>446.0</ele><time>2026-04-09T15:16:40.204Z</time></trkpt><trkpt lat="43.9013663" lon="12.4767973"><ele>447.2857142857143</ele><time>2026-04-09T15:16:44.21Z</time></trkpt><trkpt lat="43.9012986" lon="12.476794"><ele>448.57142857142856</ele><time>2026-04-09T15:16:49.192Z</time></trkpt><trkpt lat="43.9012358" lon="12.4767836"><ele>449.8571428571429</ele><time>2026-04-09T15:16:54.212Z</time></trkpt><trkpt lat="43.9011718" lon="12.4767658"><ele>451.1428571428571</ele><time>2026-04-09T15:16:58.194Z</time></trkpt><trkpt lat="43.9010951" lon="12.4767552"><ele>452.42857142857144</ele><time>2026-04-09T15:17:03.154Z</time></trkpt><trkpt lat="43.9010255" lon="12.4767264"><ele>453.7142857142857</ele><time>2026-04-09T15:17:09.176Z</time></trkpt><trkpt lat="43.9009618" lon="12.476704"><ele>455.0</ele><time>2026-04-09T15:17:13.163Z</time></trkpt><trkpt lat="43.9008926" lon="12.476661"><ele>455.57142857142856</ele><time>2026-04-09T15:17:18.175Z</time></trkpt><trkpt lat="43.9008385" lon="12.4765909"><ele>456.1428571428571</ele><time>2026-04-09T15:17:23.152Z</time></trkpt><trkpt lat="43.9008272" lon="12.4764939"><ele>456.7142857142857</ele><time>2026-04-09T15:17:29.161Z</time></trkpt><trkpt lat="43.9008397" lon="12.4764047"><ele>457.2857142857143</ele><time>2026-04-09T15:17:34.211Z</time></trkpt><trkpt lat="43.9008539" lon="12.4763164"><ele>457.85714285714283</ele><time>2026-04-09T15:17:40.194Z</time></trkpt><trkpt lat="43.9008736" lon="12.4762282"><ele>458.42857142857144</ele><time>2026-04-09T15:17:47.208Z</time></trkpt><trkpt lat="43.9009367" lon="12.4762271"><ele>459.0</ele><time>2026-04-09T15:17:53.175Z</time></trkpt><trkpt lat="43.9009979" lon="12.4762607"><ele>458.42857142857144</ele><time>2026-04-09T15:18:00.205Z</time></trkpt><trkpt lat="43.9010625" lon="12.4762812"><ele>457.85714285714283</ele><time>2026-04-09T15:18:06.218Z</time></trkpt><trkpt lat="43.9011301" lon="12.4762896"><ele>457.2857142857143</ele><time>2026-04-09T15:18:12.231Z</time></trkpt><trkpt lat="43.9011948" lon="12.4762807"><ele>456.7142857142857</ele><time>2026-04-09T15:18:17.2Z</time></trkpt><trkpt lat="43.9012538" lon="12.4762396"><ele>456.1428571428571</ele><time>2026-04-09T15:18:22.193Z</time></trkpt><trkpt lat="43.9012919" lon="12.4761487"><ele>455.57142857142856</ele><time>2026-04-09T15:18:27.224Z</time></trkpt><trkpt lat="43.9013392" lon="12.47608"><ele>455.0</ele><time>2026-04-09T15:18:32.198Z</time></trkpt><trkpt lat="43.9013922" lon="12.4760242"><ele>457.8571428571429</ele><time>2026-04-09T15:18:36.22Z</time></trkpt><trkpt lat="43.9014415" lon="12.4759631"><ele>460.7142857142857</ele><time>2026-04-09T15:18:41.204Z</time></trkpt><trkpt lat="43.9014931" lon="12.4758941"><ele>463.57142857142856</ele><time>2026-04-09T15:18:48.219Z</time></trkpt><trkpt lat="43.9014898" lon="12.4757905"><ele>466.42857142857144</ele><time>2026-04-09T15:18:54.201Z</time></trkpt><trkpt lat="43.9014705" lon="12.475695"><ele>469.28571428571433</ele><time>2026-04-09T15:19:00.161Z</time></trkpt><trkpt lat="43.9014803" lon="12.4755961"><ele>472.14285714285717</ele><time>2026-04-09T15:19:06.217Z</time></trkpt><trkpt lat="43.9014753" lon="12.4754967"><ele>475.0</ele><time>2026-04-09T15:19:12.181Z</time></trkpt><trkpt lat="43.9014708" lon="12.4753979"><ele>476.8571428571429</ele><time>2026-04-09T15:19:17.153Z</time></trkpt><trkpt lat="43.9014746" lon="12.4752904"><ele>478.7142857142858</ele><time>2026-04-09T15:19:22.155Z</time></trkpt><trkpt lat="43.9014633" lon="12.4751961"><ele>480.57142857142856</ele><time>2026-04-09T15:19:26.222Z</time></trkpt><trkpt lat="43.901454" lon="12.4750866"><ele>482.42857142857144</ele><time>2026-04-09T15:19:31.209Z</time></trkpt><trkpt lat="43.9014497" lon="12.4749919"><ele>484.2857142857143</ele><time>2026-04-09T15:19:36.215Z</time></trkpt><trkpt lat="43.901443" lon="12.4749047"><ele>486.1428571428571</ele><time>2026-04-09T15:19:40.216Z</time></trkpt><trkpt lat="43.9014464" lon="12.4748139"><ele>487.99999999999994</ele><time>2026-04-09T15:19:44.204Z</time></trkpt><trkpt lat="43.9014325" lon="12.474711"><ele>487.99999999999994</ele><time>2026-04-09T15:19:49.2Z</time></trkpt><trkpt lat="43.9014243" lon="12.4746067"><ele>488.0</ele><time>2026-04-09T15:19:54.23Z</time></trkpt><trkpt lat="43.9013998" lon="12.4745262"><ele>487.99999999999994</ele><time>2026-04-09T15:19:58.214Z</time></trkpt><trkpt lat="43.9013767" lon="12.4744448"><ele>487.99999999999994</ele><time>2026-04-09T15:20:03.234Z</time></trkpt><trkpt lat="43.9013495" lon="12.474355"><ele>488.0</ele><time>2026-04-09T15:20:08.208Z</time></trkpt><trkpt lat="43.901315" lon="12.4742816"><ele>487.99999999999994</ele><time>2026-04-09T15:20:12.201Z</time></trkpt><trkpt lat="43.9012772" lon="12.474209"><ele>487.99999999999994</ele><time>2026-04-09T15:20:16.189Z</time></trkpt><trkpt lat="43.9012224" lon="12.474148"><ele>488.5714285714285</ele><time>2026-04-09T15:20:20.2Z</time></trkpt><trkpt lat="43.9011485" lon="12.4741029"><ele>489.1428571428571</ele><time>2026-04-09T15:20:24.215Z</time></trkpt><trkpt lat="43.9010936" lon="12.47406"><ele>489.7142857142857</ele><time>2026-04-09T15:20:27.206Z</time></trkpt><trkpt lat="43.9010231" lon="12.474023"><ele>490.2857142857143</ele><time>2026-04-09T15:20:30.207Z</time></trkpt><trkpt lat="43.9009466" lon="12.4739826"><ele>490.8571428571429</ele><time>2026-04-09T15:20:33.211Z</time></trkpt><trkpt lat="43.9008779" lon="12.4739517"><ele>491.4285714285715</ele><time>2026-04-09T15:20:36.209Z</time></trkpt><trkpt lat="43.9008144" lon="12.4738969"><ele>492.00000000000006</ele><time>2026-04-09T15:20:39.2Z</time></trkpt><trkpt lat="43.900754" lon="12.4738377"><ele>493.3333333333333</ele><time>2026-04-09T15:20:42.219Z</time></trkpt><trkpt lat="43.9006935" lon="12.4737586"><ele>494.66666666666663</ele><time>2026-04-09T15:20:46.193Z</time></trkpt><trkpt lat="43.9006348" lon="12.4736998"><ele>496.0</ele><time>2026-04-09T15:20:49.151Z</time></trkpt><trkpt lat="43.9005714" lon="12.4736376"><ele>497.3333333333333</ele><time>2026-04-09T15:20:52.204Z</time></trkpt><trkpt lat="43.9005054" lon="12.4736031"><ele>498.66666666666663</ele><time>2026-04-09T15:20:54.205Z</time></trkpt><trkpt lat="43.9004378" lon="12.4735587"><ele>500.0</ele><time>2026-04-09T15:20:56.2Z</time></trkpt><trkpt lat="43.9003586" lon="12.4734957"><ele>500.0</ele><time>2026-04-09T15:20:58.213Z</time></trkpt><trkpt lat="43.9002766" lon="12.4734368"><ele>500.0</ele><time>2026-04-09T15:21:00.171Z</time></trkpt><trkpt lat="43.9001916" lon="12.4733641"><ele>500.0</ele><time>2026-04-09T15:21:02.214Z</time></trkpt><trkpt lat="43.9001157" lon="12.4732805"><ele>500.0</ele><time>2026-04-09T15:21:04.208Z</time></trkpt><trkpt lat="43.9000497" lon="12.473187"><ele>500.0</ele><time>2026-04-09T15:21:06.216Z</time></trkpt><trkpt lat="43.9000048" lon="12.4730964"><ele>500.8333333333333</ele><time>2026-04-09T15:21:08.21Z</time></trkpt><trkpt lat="43.8999517" lon="12.4730102"><ele>501.66666666666663</ele><time>2026-04-09T15:21:10.196Z</time></trkpt><trkpt lat="43.8999035" lon="12.4729284"><ele>502.5</ele><time>2026-04-09T15:21:12.206Z</time></trkpt><trkpt lat="43.8998538" lon="12.4728617"><ele>503.33333333333337</ele><time>2026-04-09T15:21:14.223Z</time></trkpt><trkpt lat="43.8997805" lon="12.472795"><ele>504.1666666666667</ele><time>2026-04-09T15:21:17.201Z</time></trkpt><trkpt lat="43.8997201" lon="12.4727499"><ele>505.0</ele><time>2026-04-09T15:21:20.227Z</time></trkpt><trkpt lat="43.8996572" lon="12.472717"><ele>505.0</ele><time>2026-04-09T15:21:23.175Z</time></trkpt><trkpt lat="43.8995808" lon="12.4726872"><ele>504.99999999999994</ele><time>2026-04-09T15:21:28.212Z</time></trkpt><trkpt lat="43.8995097" lon="12.4726413"><ele>505.0</ele><time>2026-04-09T15:21:33.215Z</time></trkpt><trkpt lat="43.8994508" lon="12.4725948"><ele>505.0</ele><time>2026-04-09T15:21:38.209Z</time></trkpt><trkpt lat="43.8994015" lon="12.4725204"><ele>504.99999999999994</ele><time>2026-04-09T15:21:43.206Z</time></trkpt><trkpt lat="43.8993632" lon="12.4724379"><ele>505.0</ele><time>2026-04-09T15:21:48.222Z</time></trkpt><trkpt lat="43.8993262" lon="12.472366"><ele>505.0</ele><time>2026-04-09T15:21:53.194Z</time></trkpt><trkpt lat="43.8992816" lon="12.4722985"><ele>506.71428571428567</ele><time>2026-04-09T15:21:58.213Z</time></trkpt><trkpt lat="43.8992421" lon="12.4722285"><ele>508.4285714285714</ele><time>2026-04-09T15:22:02.2Z</time></trkpt><trkpt lat="43.899199" lon="12.4721543"><ele>510.1428571428571</ele><time>2026-04-09T15:22:06.216Z</time></trkpt><trkpt lat="43.8991657" lon="12.4720736"><ele>511.8571428571429</ele><time>2026-04-09T15:22:10.214Z</time></trkpt><trkpt lat="43.8991353" lon="12.4719768"><ele>513.5714285714287</ele><time>2026-04-09T15:22:15.228Z</time></trkpt><trkpt lat="43.8991132" lon="12.4718805"><ele>515.2857142857143</ele><time>2026-04-09T15:22:20.221Z</time></trkpt><trkpt lat="43.8990885" lon="12.471776"><ele>517.0</ele><time>2026-04-09T15:22:25.215Z</time></trkpt><trkpt lat="43.8990628" lon="12.4716807"><ele>518.4285714285714</ele><time>2026-04-09T15:22:30.197Z</time></trkpt><trkpt lat="43.8990361" lon="12.4715982"><ele>519.8571428571429</ele><time>2026-04-09T15:22:34.191Z</time></trkpt><trkpt lat="43.8990045" lon="12.4715052"><ele>521.2857142857143</ele><time>2026-04-09T15:22:39.205Z</time></trkpt><trkpt lat="43.8989819" lon="12.4714049"><ele>522.7142857142858</ele><time>2026-04-09T15:22:44.206Z</time></trkpt><trkpt lat="43.898948" lon="12.4713217"><ele>524.1428571428571</ele><time>2026-04-09T15:22:49.156Z</time></trkpt><trkpt lat="43.8989134" lon="12.4712331"><ele>525.5714285714287</ele><time>2026-04-09T15:22:54.209Z</time></trkpt><trkpt lat="43.8988926" lon="12.4711476"><ele>527.0</ele><time>2026-04-09T15:22:59.216Z</time></trkpt><trkpt lat="43.8988737" lon="12.4710607"><ele>528.5714285714287</ele><time>2026-04-09T15:23:03.184Z</time></trkpt><trkpt lat="43.8988382" lon="12.4709698"><ele>530.1428571428571</ele><time>2026-04-09T15:23:08.188Z</time></trkpt><trkpt lat="43.8987866" lon="12.4708923"><ele>531.7142857142858</ele><time>2026-04-09T15:23:14.196Z</time></trkpt><trkpt lat="43.898747" lon="12.4708235"><ele>533.2857142857143</ele><time>2026-04-09T15:23:19.194Z</time></trkpt><trkpt lat="43.8986872" lon="12.4707912"><ele>534.8571428571429</ele><time>2026-04-09T15:23:23.204Z</time></trkpt><trkpt lat="43.8986281" lon="12.4707541"><ele>536.4285714285714</ele><time>2026-04-09T15:23:27.217Z</time></trkpt><trkpt lat="43.8985675" lon="12.4707195"><ele>538.0</ele><time>2026-04-09T15:23:32.214Z</time></trkpt><trkpt lat="43.8985083" lon="12.4706804"><ele>538.0</ele><time>2026-04-09T15:23:37.205Z</time></trkpt><trkpt lat="43.8984392" lon="12.4706559"><ele>538.0</ele><time>2026-04-09T15:23:41.211Z</time></trkpt><trkpt lat="43.8983758" lon="12.4707214"><ele>538.0</ele><time>2026-04-09T15:23:45.211Z</time></trkpt><trkpt lat="43.8983215" lon="12.4707718"><ele>538.0</ele><time>2026-04-09T15:23:48.215Z</time></trkpt><trkpt lat="43.8982685" lon="12.4707181"><ele>538.0</ele><time>2026-04-09T15:23:52.185Z</time></trkpt><trkpt lat="43.8982726" lon="12.4708082"><ele>538.0</ele><time>2026-04-09T15:23:57.199Z</time></trkpt><trkpt lat="43.8983378" lon="12.4708405"><ele>538.0</ele><time>2026-04-09T15:23:59.2Z</time></trkpt><trkpt lat="43.898418" lon="12.4708137"><ele>538.0</ele><time>2026-04-09T15:24:02.186Z</time></trkpt><trkpt lat="43.8984787" lon="12.4707633"><ele>538.0</ele><time>2026-04-09T15:24:05.231Z</time></trkpt><trkpt lat="43.8985287" lon="12.4706978"><ele>538.0</ele><time>2026-04-09T15:24:08.211Z</time></trkpt><trkpt lat="43.8985954" lon="12.4706795"><ele>538.0</ele><time>2026-04-09T15:24:11.202Z</time></trkpt><trkpt lat="43.8986864" lon="12.4706838"><ele>538.0</ele><time>2026-04-09T15:24:14.193Z</time></trkpt><trkpt lat="43.8987797" lon="12.4706716"><ele>538.0</ele><time>2026-04-09T15:24:17.22Z</time></trkpt><trkpt lat="43.8988698" lon="12.4706439"><ele>538.0</ele><time>2026-04-09T15:24:20.209Z</time></trkpt><trkpt lat="43.8989672" lon="12.4705856"><ele>538.0</ele><time>2026-04-09T15:24:23.198Z</time></trkpt><trkpt lat="43.8990503" lon="12.4704909"><ele>538.0</ele><time>2026-04-09T15:24:25.215Z</time></trkpt><trkpt lat="43.8990984" lon="12.4704289"><ele>538.0</ele><time>2026-04-09T15:24:26.211Z</time></trkpt><trkpt lat="43.8991476" lon="12.4703644"><ele>538.0</ele><time>2026-04-09T15:24:27.171Z</time></trkpt><trkpt lat="43.8992024" lon="12.470295"><ele>538.0</ele><time>2026-04-09T15:24:28.204Z</time></trkpt><trkpt lat="43.8992565" lon="12.4702174"><ele>536.6666666666667</ele><time>2026-04-09T15:24:29.182Z</time></trkpt><trkpt lat="43.8993092" lon="12.4701322"><ele>535.3333333333334</ele><time>2026-04-09T15:24:30.201Z</time></trkpt><trkpt lat="43.8993664" lon="12.4700461"><ele>534.0</ele><time>2026-04-09T15:24:31.197Z</time></trkpt><trkpt lat="43.8994256" lon="12.4699532"><ele>532.6666666666666</ele><time>2026-04-09T15:24:32.22Z</time></trkpt><trkpt lat="43.8994843" lon="12.4698545"><ele>531.3333333333333</ele><time>2026-04-09T15:24:33.223Z</time></trkpt><trkpt lat="43.899545" lon="12.4697555"><ele>530.0</ele><time>2026-04-09T15:24:34.2Z</time></trkpt><trkpt lat="43.899607" lon="12.4696601"><ele>531.8</ele><time>2026-04-09T15:24:35.189Z</time></trkpt><trkpt lat="43.8996736" lon="12.4695663"><ele>533.6</ele><time>2026-04-09T15:24:36.219Z</time></trkpt><trkpt lat="43.899736" lon="12.4694623"><ele>535.4</ele><time>2026-04-09T15:24:37.231Z</time></trkpt><trkpt lat="43.8998017" lon="12.469357"><ele>537.2</ele><time>2026-04-09T15:24:38.222Z</time></trkpt><trkpt lat="43.8998664" lon="12.4692573"><ele>539.0</ele><time>2026-04-09T15:24:39.23Z</time></trkpt><trkpt lat="43.8999276" lon="12.4691509"><ele>539.0</ele><time>2026-04-09T15:24:40.225Z</time></trkpt><trkpt lat="43.8999668" lon="12.4690321"><ele>539.0</ele><time>2026-04-09T15:24:41.213Z</time></trkpt><trkpt lat="43.899983" lon="12.4689004"><ele>539.0</ele><time>2026-04-09T15:24:42.17Z</time></trkpt><trkpt lat="43.8999601" lon="12.4687898"><ele>539.0</ele><time>2026-04-09T15:24:43.162Z</time></trkpt><trkpt lat="43.8998781" lon="12.4687104"><ele>539.0</ele><time>2026-04-09T15:24:44.19Z</time></trkpt><trkpt lat="43.8997877" lon="12.4686509"><ele>539.0</ele><time>2026-04-09T15:24:45.155Z</time></trkpt><trkpt lat="43.8997007" lon="12.4686408"><ele>539.0</ele><time>2026-04-09T15:24:46.207Z</time></trkpt><trkpt lat="43.8996167" lon="12.4686558"><ele>539.0</ele><time>2026-04-09T15:24:47.176Z</time></trkpt><trkpt lat="43.8995313" lon="12.4687128"><ele>539.0</ele><time>2026-04-09T15:24:48.197Z</time></trkpt><trkpt lat="43.8994457" lon="12.468783"><ele>539.0</ele><time>2026-04-09T15:24:49.186Z</time></trkpt><trkpt lat="43.8993675" lon="12.4688516"><ele>539.0</ele><time>2026-04-09T15:24:50.195Z</time></trkpt><trkpt lat="43.8992795" lon="12.4689121"><ele>539.0</ele><time>2026-04-09T15:24:51.159Z</time></trkpt><trkpt lat="43.8991941" lon="12.4689591"><ele>539.0</ele><time>2026-04-09T15:24:52.183Z</time></trkpt><trkpt lat="43.899105" lon="12.4689749"><ele>539.0</ele><time>2026-04-09T15:24:53.207Z</time></trkpt><trkpt lat="43.8990126" lon="12.4689358"><ele>539.0</ele><time>2026-04-09T15:24:54.203Z</time></trkpt><trkpt lat="43.898946" lon="12.4688313"><ele>537.4</ele><time>2026-04-09T15:24:55.226Z</time></trkpt><trkpt lat="43.898922" lon="12.4686938"><ele>535.8</ele><time>2026-04-09T15:24:56.19Z</time></trkpt><trkpt lat="43.8989366" lon="12.4685659"><ele>534.2</ele><time>2026-04-09T15:24:57.189Z</time></trkpt><trkpt lat="43.898988" lon="12.4684577"><ele>532.6</ele><time>2026-04-09T15:24:58.177Z</time></trkpt><trkpt lat="43.8990505" lon="12.4683497"><ele>531.0</ele><time>2026-04-09T15:24:59.165Z</time></trkpt><trkpt lat="43.8991093" lon="12.468242"><ele>531.0</ele><time>2026-04-09T15:25:00.175Z</time></trkpt><trkpt lat="43.8991593" lon="12.4681308"><ele>531.0</ele><time>2026-04-09T15:25:01.177Z</time></trkpt><trkpt lat="43.8992084" lon="12.4680238"><ele>531.0</ele><time>2026-04-09T15:25:02.177Z</time></trkpt><trkpt lat="43.8992721" lon="12.4679131"><ele>531.0</ele><time>2026-04-09T15:25:03.211Z</time></trkpt><trkpt lat="43.8993406" lon="12.4678021"><ele>531.0</ele><time>2026-04-09T15:25:04.188Z</time></trkpt><trkpt lat="43.8994055" lon="12.4676839"><ele>531.0</ele><time>2026-04-09T15:25:05.161Z</time></trkpt><trkpt lat="43.899466" lon="12.4675738"><ele>531.0</ele><time>2026-04-09T15:25:06.202Z</time></trkpt><trkpt lat="43.8995284" lon="12.4674626"><ele>531.0</ele><time>2026-04-09T15:25:07.215Z</time></trkpt><trkpt lat="43.8995963" lon="12.4673496"><ele>531.0</ele><time>2026-04-09T15:25:08.205Z</time></trkpt><trkpt lat="43.8996595" lon="12.4672318"><ele>531.0</ele><time>2026-04-09T15:25:09.201Z</time></trkpt><trkpt lat="43.8997165" lon="12.4671101"><ele>529.2</ele><time>2026-04-09T15:25:10.21Z</time></trkpt><trkpt lat="43.8997791" lon="12.4669839"><ele>527.4000000000001</ele><time>2026-04-09T15:25:11.205Z</time></trkpt><trkpt lat="43.8998447" lon="12.4668608"><ele>525.6</ele><time>2026-04-09T15:25:12.198Z</time></trkpt><trkpt lat="43.8999043" lon="12.4667376"><ele>523.8000000000001</ele><time>2026-04-09T15:25:13.178Z</time></trkpt><trkpt lat="43.8999706" lon="12.4666094"><ele>522.0</ele><time>2026-04-09T15:25:14.174Z</time></trkpt><trkpt lat="43.9000462" lon="12.4664917"><ele>521.5</ele><time>2026-04-09T15:25:15.163Z</time></trkpt><trkpt lat="43.9001314" lon="12.4663797"><ele>521.0</ele><time>2026-04-09T15:25:16.157Z</time></trkpt><trkpt lat="43.900221" lon="12.4662821"><ele>520.5</ele><time>2026-04-09T15:25:17.151Z</time></trkpt><trkpt lat="43.9003181" lon="12.4661909"><ele>520.0</ele><time>2026-04-09T15:25:18.182Z</time></trkpt><trkpt lat="43.9004234" lon="12.4661279"><ele>517.5</ele><time>2026-04-09T15:25:19.201Z</time></trkpt><trkpt lat="43.9005289" lon="12.466086"><ele>515.0</ele><time>2026-04-09T15:25:20.218Z</time></trkpt><trkpt lat="43.9006425" lon="12.4660568"><ele>512.5</ele><time>2026-04-09T15:25:21.185Z</time></trkpt><trkpt lat="43.9007574" lon="12.4660442"><ele>510.0</ele><time>2026-04-09T15:25:22.194Z</time></trkpt><trkpt lat="43.9008691" lon="12.4660378"><ele>508.25</ele><time>2026-04-09T15:25:23.208Z</time></trkpt><trkpt lat="43.9009849" lon="12.4660581"><ele>506.5</ele><time>2026-04-09T15:25:24.187Z</time></trkpt><trkpt lat="43.9010941" lon="12.4661144"><ele>504.75</ele><time>2026-04-09T15:25:25.218Z</time></trkpt><trkpt lat="43.9012021" lon="12.4661848"><ele>503.0</ele><time>2026-04-09T15:25:26.205Z</time></trkpt><trkpt lat="43.9013037" lon="12.4662556"><ele>503.25</ele><time>2026-04-09T15:25:27.216Z</time></trkpt><trkpt lat="43.9014088" lon="12.4663095"><ele>503.5</ele><time>2026-04-09T15:25:28.203Z</time></trkpt><trkpt lat="43.9015119" lon="12.4663675"><ele>503.75</ele><time>2026-04-09T15:25:29.208Z</time></trkpt><trkpt lat="43.9016221" lon="12.4664127"><ele>504.0</ele><time>2026-04-09T15:25:30.199Z</time></trkpt><trkpt lat="43.9017319" lon="12.4664391"><ele>502.25</ele><time>2026-04-09T15:25:31.212Z</time></trkpt><trkpt lat="43.9018476" lon="12.4664468"><ele>500.5</ele><time>2026-04-09T15:25:32.221Z</time></trkpt><trkpt lat="43.9019564" lon="12.4664374"><ele>498.75</ele><time>2026-04-09T15:25:33.214Z</time></trkpt><trkpt lat="43.9020739" lon="12.4664126"><ele>497.0</ele><time>2026-04-09T15:25:34.204Z</time></trkpt><trkpt lat="43.9021836" lon="12.4663861"><ele>497.0</ele><time>2026-04-09T15:25:35.174Z</time></trkpt><trkpt lat="43.9022951" lon="12.46636"><ele>497.00000000000006</ele><time>2026-04-09T15:25:36.212Z</time></trkpt><trkpt lat="43.9024004" lon="12.466339"><ele>497.00000000000006</ele><time>2026-04-09T15:25:37.22Z</time></trkpt><trkpt lat="43.9025" lon="12.4663164"><ele>497.0</ele><time>2026-04-09T15:25:38.194Z</time></trkpt><trkpt lat="43.902599" lon="12.4662928"><ele>497.0</ele><time>2026-04-09T15:25:39.22Z</time></trkpt><trkpt lat="43.902698" lon="12.4662725"><ele>498.20000000000005</ele><time>2026-04-09T15:25:40.199Z</time></trkpt><trkpt lat="43.9027953" lon="12.4662551"><ele>499.40000000000003</ele><time>2026-04-09T15:25:41.211Z</time></trkpt><trkpt lat="43.9028875" lon="12.4662395"><ele>500.59999999999997</ele><time>2026-04-09T15:25:42.211Z</time></trkpt><trkpt lat="43.902977" lon="12.4662248"><ele>501.79999999999995</ele><time>2026-04-09T15:25:43.208Z</time></trkpt><trkpt lat="43.9030613" lon="12.4662066"><ele>503.0</ele><time>2026-04-09T15:25:44.172Z</time></trkpt><trkpt lat="43.9031462" lon="12.4661878"><ele>502.99999999999994</ele><time>2026-04-09T15:25:45.203Z</time></trkpt><trkpt lat="43.9032258" lon="12.4661685"><ele>503.0</ele><time>2026-04-09T15:25:46.179Z</time></trkpt><trkpt lat="43.9033015" lon="12.466152"><ele>503.0</ele><time>2026-04-09T15:25:47.23Z</time></trkpt><trkpt lat="43.9033737" lon="12.4661355"><ele>503.0</ele><time>2026-04-09T15:25:48.223Z</time></trkpt><trkpt lat="43.9034482" lon="12.4661171"><ele>502.99999999999994</ele><time>2026-04-09T15:25:49.218Z</time></trkpt><trkpt lat="43.9035224" lon="12.4660938"><ele>503.0</ele><time>2026-04-09T15:25:50.22Z</time></trkpt><trkpt lat="43.9035979" lon="12.4660705"><ele>503.14285714285717</ele><time>2026-04-09T15:25:51.196Z</time></trkpt><trkpt lat="43.9036724" lon="12.4660483"><ele>503.28571428571433</ele><time>2026-04-09T15:25:52.211Z</time></trkpt><trkpt lat="43.903741" lon="12.4660225"><ele>503.42857142857144</ele><time>2026-04-09T15:25:53.209Z</time></trkpt><trkpt lat="43.9038107" lon="12.46599"><ele>503.57142857142856</ele><time>2026-04-09T15:25:54.214Z</time></trkpt><trkpt lat="43.9038744" lon="12.4659531"><ele>503.7142857142857</ele><time>2026-04-09T15:25:55.229Z</time></trkpt><trkpt lat="43.9039383" lon="12.4659106"><ele>503.8571428571429</ele><time>2026-04-09T15:25:56.214Z</time></trkpt><trkpt lat="43.9040035" lon="12.4658645"><ele>504.0</ele><time>2026-04-09T15:25:57.218Z</time></trkpt><trkpt lat="43.904061" lon="12.4658177"><ele>504.0</ele><time>2026-04-09T15:25:58.208Z</time></trkpt><trkpt lat="43.9041245" lon="12.4657686"><ele>504.0</ele><time>2026-04-09T15:25:59.214Z</time></trkpt><trkpt lat="43.9041889" lon="12.4657236"><ele>504.0</ele><time>2026-04-09T15:26:00.209Z</time></trkpt><trkpt lat="43.904251" lon="12.4656805"><ele>504.0</ele><time>2026-04-09T15:26:01.224Z</time></trkpt><trkpt lat="43.9043137" lon="12.4656362"><ele>504.0</ele><time>2026-04-09T15:26:02.203Z</time></trkpt><trkpt lat="43.9043738" lon="12.4655929"><ele>504.0</ele><time>2026-04-09T15:26:03.211Z</time></trkpt><trkpt lat="43.904434" lon="12.465549"><ele>504.0</ele><time>2026-04-09T15:26:04.226Z</time></trkpt><trkpt lat="43.9044946" lon="12.4655074"><ele>503.42857142857144</ele><time>2026-04-09T15:26:05.189Z</time></trkpt><trkpt lat="43.9045563" lon="12.4654656"><ele>502.8571428571429</ele><time>2026-04-09T15:26:06.22Z</time></trkpt><trkpt lat="43.9046208" lon="12.4654211"><ele>502.2857142857143</ele><time>2026-04-09T15:26:07.225Z</time></trkpt><trkpt lat="43.9046883" lon="12.4653745"><ele>501.7142857142857</ele><time>2026-04-09T15:26:08.206Z</time></trkpt><trkpt lat="43.9047545" lon="12.4653341"><ele>501.14285714285717</ele><time>2026-04-09T15:26:09.213Z</time></trkpt><trkpt lat="43.9048237" lon="12.4652817"><ele>500.57142857142856</ele><time>2026-04-09T15:26:10.206Z</time></trkpt><trkpt lat="43.9048934" lon="12.4652365"><ele>500.0</ele><time>2026-04-09T15:26:11.214Z</time></trkpt><trkpt lat="43.9049591" lon="12.4651922"><ele>499.99999999999994</ele><time>2026-04-09T15:26:12.206Z</time></trkpt><trkpt lat="43.9050321" lon="12.4651416"><ele>500.0</ele><time>2026-04-09T15:26:13.216Z</time></trkpt><trkpt lat="43.9051091" lon="12.4650875"><ele>500.0</ele><time>2026-04-09T15:26:14.199Z</time></trkpt><trkpt lat="43.9051829" lon="12.4650331"><ele>500.0</ele><time>2026-04-09T15:26:15.213Z</time></trkpt><trkpt lat="43.9052587" lon="12.4649817"><ele>499.99999999999994</ele><time>2026-04-09T15:26:16.213Z</time></trkpt><trkpt lat="43.9053346" lon="12.4649283"><ele>500.0</ele><time>2026-04-09T15:26:17.212Z</time></trkpt><trkpt lat="43.9054114" lon="12.4648721"><ele>500.3333333333333</ele><time>2026-04-09T15:26:18.212Z</time></trkpt><trkpt lat="43.9054878" lon="12.4648181"><ele>500.66666666666663</ele><time>2026-04-09T15:26:19.188Z</time></trkpt><trkpt lat="43.9055613" lon="12.4647637"><ele>501.0</ele><time>2026-04-09T15:26:20.19Z</time></trkpt><trkpt lat="43.9056418" lon="12.4647078"><ele>501.33333333333337</ele><time>2026-04-09T15:26:21.204Z</time></trkpt><trkpt lat="43.9057215" lon="12.4646519"><ele>501.6666666666667</ele><time>2026-04-09T15:26:22.226Z</time></trkpt><trkpt lat="43.905801" lon="12.4645961"><ele>502.0</ele><time>2026-04-09T15:26:23.216Z</time></trkpt><trkpt lat="43.9058811" lon="12.464538"><ele>502.33333333333337</ele><time>2026-04-09T15:26:24.224Z</time></trkpt><trkpt lat="43.9059562" lon="12.4644852"><ele>502.6666666666667</ele><time>2026-04-09T15:26:25.237Z</time></trkpt><trkpt lat="43.9060281" lon="12.4644229"><ele>503.0</ele><time>2026-04-09T15:26:26.215Z</time></trkpt><trkpt lat="43.906103" lon="12.4643574"><ele>503.33333333333337</ele><time>2026-04-09T15:26:27.19Z</time></trkpt><trkpt lat="43.9061792" lon="12.4642846"><ele>503.6666666666667</ele><time>2026-04-09T15:26:28.218Z</time></trkpt><trkpt lat="43.9062469" lon="12.4642143"><ele>504.0</ele><time>2026-04-09T15:26:29.215Z</time></trkpt><trkpt lat="43.9063104" lon="12.4641451"><ele>504.0</ele><time>2026-04-09T15:26:30.213Z</time></trkpt><trkpt lat="43.9063757" lon="12.4640613"><ele>504.0</ele><time>2026-04-09T15:26:31.217Z</time></trkpt><trkpt lat="43.906435" lon="12.4639732"><ele>504.0</ele><time>2026-04-09T15:26:32.212Z</time></trkpt><trkpt lat="43.9064965" lon="12.4638763"><ele>504.0</ele><time>2026-04-09T15:26:33.219Z</time></trkpt><trkpt lat="43.9065563" lon="12.4637825"><ele>504.0</ele><time>2026-04-09T15:26:34.212Z</time></trkpt><trkpt lat="43.9066168" lon="12.4636798"><ele>502.79999999999995</ele><time>2026-04-09T15:26:35.213Z</time></trkpt><trkpt lat="43.9066758" lon="12.4635799"><ele>501.59999999999997</ele><time>2026-04-09T15:26:36.209Z</time></trkpt><trkpt lat="43.9067398" lon="12.4634878"><ele>500.4</ele><time>2026-04-09T15:26:37.209Z</time></trkpt><trkpt lat="43.906808" lon="12.4634004"><ele>499.2</ele><time>2026-04-09T15:26:38.2Z</time></trkpt><trkpt lat="43.9068834" lon="12.463324"><ele>498.0</ele><time>2026-04-09T15:26:39.208Z</time></trkpt><trkpt lat="43.9069671" lon="12.4632624"><ele>498.0</ele><time>2026-04-09T15:26:40.207Z</time></trkpt><trkpt lat="43.9070586" lon="12.4632108"><ele>497.99999999999994</ele><time>2026-04-09T15:26:41.172Z</time></trkpt><trkpt lat="43.9071486" lon="12.4631709"><ele>497.99999999999994</ele><time>2026-04-09T15:26:42.213Z</time></trkpt><trkpt lat="43.9072388" lon="12.4631403"><ele>498.0</ele><time>2026-04-09T15:26:43.203Z</time></trkpt><trkpt lat="43.9073291" lon="12.4631043"><ele>498.0</ele><time>2026-04-09T15:26:44.22Z</time></trkpt><trkpt lat="43.9074169" lon="12.4630682"><ele>498.0</ele><time>2026-04-09T15:26:45.21Z</time></trkpt><trkpt lat="43.9075022" lon="12.4630328"><ele>498.0</ele><time>2026-04-09T15:26:46.194Z</time></trkpt><trkpt lat="43.9075884" lon="12.4629993"><ele>498.0</ele><time>2026-04-09T15:26:47.203Z</time></trkpt><trkpt lat="43.9076693" lon="12.4629611"><ele>498.0</ele><time>2026-04-09T15:26:48.224Z</time></trkpt><trkpt lat="43.9077534" lon="12.462922"><ele>498.0</ele><time>2026-04-09T15:26:49.204Z</time></trkpt><trkpt lat="43.9078332" lon="12.4628776"><ele>498.0</ele><time>2026-04-09T15:26:50.213Z</time></trkpt><trkpt lat="43.9079055" lon="12.4628279"><ele>497.3333333333333</ele><time>2026-04-09T15:26:51.184Z</time></trkpt><trkpt lat="43.9079759" lon="12.4627683"><ele>496.66666666666663</ele><time>2026-04-09T15:26:52.226Z</time></trkpt><trkpt lat="43.9080451" lon="12.4626976"><ele>496.0</ele><time>2026-04-09T15:26:53.214Z</time></trkpt><trkpt lat="43.9081053" lon="12.4626207"><ele>495.3333333333333</ele><time>2026-04-09T15:26:54.236Z</time></trkpt><trkpt lat="43.9081608" lon="12.462538"><ele>494.66666666666663</ele><time>2026-04-09T15:26:55.21Z</time></trkpt><trkpt lat="43.9082113" lon="12.4624594"><ele>494.0</ele><time>2026-04-09T15:26:56.216Z</time></trkpt><trkpt lat="43.9082527" lon="12.4623737"><ele>493.99999999999994</ele><time>2026-04-09T15:26:57.232Z</time></trkpt><trkpt lat="43.9083087" lon="12.4622857"><ele>494.0</ele><time>2026-04-09T15:26:58.223Z</time></trkpt><trkpt lat="43.9083632" lon="12.4621985"><ele>494.0</ele><time>2026-04-09T15:26:59.226Z</time></trkpt><trkpt lat="43.9084152" lon="12.4621155"><ele>494.0</ele><time>2026-04-09T15:27:00.226Z</time></trkpt><trkpt lat="43.9084703" lon="12.4620333"><ele>493.99999999999994</ele><time>2026-04-09T15:27:01.205Z</time></trkpt><trkpt lat="43.9085255" lon="12.4619485"><ele>494.0</ele><time>2026-04-09T15:27:02.221Z</time></trkpt><trkpt lat="43.9085846" lon="12.4618663"><ele>492.49999999999994</ele><time>2026-04-09T15:27:03.217Z</time></trkpt><trkpt lat="43.9086399" lon="12.4617876"><ele>491.0</ele><time>2026-04-09T15:27:04.215Z</time></trkpt><trkpt lat="43.9086914" lon="12.4617064"><ele>489.5</ele><time>2026-04-09T15:27:05.213Z</time></trkpt><trkpt lat="43.9087464" lon="12.4616256"><ele>488.0</ele><time>2026-04-09T15:27:06.211Z</time></trkpt><trkpt lat="43.9087954" lon="12.4615523"><ele>486.49999999999994</ele><time>2026-04-09T15:27:07.23Z</time></trkpt><trkpt lat="43.9088451" lon="12.4614707"><ele>485.0</ele><time>2026-04-09T15:27:08.226Z</time></trkpt><trkpt lat="43.9088929" lon="12.4613936"><ele>485.00000000000006</ele><time>2026-04-09T15:27:09.243Z</time></trkpt><trkpt lat="43.9089387" lon="12.4613201"><ele>485.0</ele><time>2026-04-09T15:27:10.211Z</time></trkpt><trkpt lat="43.9089884" lon="12.4612394"><ele>485.00000000000006</ele><time>2026-04-09T15:27:11.218Z</time></trkpt><trkpt lat="43.9090308" lon="12.4611647"><ele>485.00000000000006</ele><time>2026-04-09T15:27:12.226Z</time></trkpt><trkpt lat="43.9090736" lon="12.4610894"><ele>485.0</ele><time>2026-04-09T15:27:13.203Z</time></trkpt><trkpt lat="43.9091161" lon="12.4610215"><ele>485.00000000000006</ele><time>2026-04-09T15:27:14.217Z</time></trkpt><trkpt lat="43.9091612" lon="12.4609579"><ele>485.00000000000006</ele><time>2026-04-09T15:27:15.217Z</time></trkpt><trkpt lat="43.909206" lon="12.4608918"><ele>484.57142857142867</ele><time>2026-04-09T15:27:16.207Z</time></trkpt><trkpt lat="43.9092494" lon="12.4608166"><ele>484.14285714285717</ele><time>2026-04-09T15:27:17.206Z</time></trkpt><trkpt lat="43.9092989" lon="12.4607358"><ele>483.7142857142858</ele><time>2026-04-09T15:27:18.172Z</time></trkpt><trkpt lat="43.9093478" lon="12.460659"><ele>483.28571428571433</ele><time>2026-04-09T15:27:19.206Z</time></trkpt><trkpt lat="43.9093965" lon="12.4605849"><ele>482.8571428571429</ele><time>2026-04-09T15:27:20.213Z</time></trkpt><trkpt lat="43.9094384" lon="12.4605127"><ele>482.42857142857144</ele><time>2026-04-09T15:27:21.191Z</time></trkpt><trkpt lat="43.9094775" lon="12.4604439"><ele>482.0</ele><time>2026-04-09T15:27:22.213Z</time></trkpt><trkpt lat="43.9095174" lon="12.4603763"><ele>484.20000000000005</ele><time>2026-04-09T15:27:23.148Z</time></trkpt><trkpt lat="43.90956" lon="12.4603078"><ele>486.40000000000003</ele><time>2026-04-09T15:27:24.191Z</time></trkpt><trkpt lat="43.9096445" lon="12.4601835"><ele>488.59999999999997</ele><time>2026-04-09T15:27:26.236Z</time></trkpt><trkpt lat="43.909734" lon="12.460057"><ele>490.79999999999995</ele><time>2026-04-09T15:27:28.191Z</time></trkpt><trkpt lat="43.9098125" lon="12.4599346"><ele>493.0</ele><time>2026-04-09T15:27:30.207Z</time></trkpt><trkpt lat="43.909902" lon="12.4598169"><ele>493.0</ele><time>2026-04-09T15:27:32.211Z</time></trkpt><trkpt lat="43.9099858" lon="12.4597002"><ele>493.0</ele><time>2026-04-09T15:27:34.221Z</time></trkpt><trkpt lat="43.9100697" lon="12.4595807"><ele>493.0</ele><time>2026-04-09T15:27:36.214Z</time></trkpt><trkpt lat="43.9101618" lon="12.4594666"><ele>493.0</ele><time>2026-04-09T15:27:38.207Z</time></trkpt><trkpt lat="43.910245" lon="12.4593517"><ele>492.79999999999995</ele><time>2026-04-09T15:27:40.209Z</time></trkpt><trkpt lat="43.9102934" lon="12.4592911"><ele>492.59999999999997</ele><time>2026-04-09T15:27:41.213Z</time></trkpt><trkpt lat="43.9104018" lon="12.4592046"><ele>492.40000000000003</ele><time>2026-04-09T15:27:43.232Z</time></trkpt><trkpt lat="43.9105158" lon="12.4591483"><ele>492.20000000000005</ele><time>2026-04-09T15:27:45.215Z</time></trkpt><trkpt lat="43.910581" lon="12.4591261"><ele>492.0</ele><time>2026-04-09T15:27:46.2Z</time></trkpt><trkpt lat="43.910707" lon="12.459091"><ele>492.00000000000006</ele><time>2026-04-09T15:27:48.194Z</time></trkpt><trkpt lat="43.9107706" lon="12.4590677"><ele>492.0</ele><time>2026-04-09T15:27:49.196Z</time></trkpt><trkpt lat="43.9108299" lon="12.4590365"><ele>492.00000000000006</ele><time>2026-04-09T15:27:50.199Z</time></trkpt><trkpt lat="43.9108897" lon="12.4589966"><ele>492.00000000000006</ele><time>2026-04-09T15:27:51.193Z</time></trkpt><trkpt lat="43.9109435" lon="12.4589469"><ele>492.0</ele><time>2026-04-09T15:27:52.193Z</time></trkpt><trkpt lat="43.9109955" lon="12.4588918"><ele>492.00000000000006</ele><time>2026-04-09T15:27:53.225Z</time></trkpt><trkpt lat="43.9110481" lon="12.4588277"><ele>492.00000000000006</ele><time>2026-04-09T15:27:54.214Z</time></trkpt><trkpt lat="43.9111001" lon="12.4587573"><ele>491.5</ele><time>2026-04-09T15:27:55.203Z</time></trkpt><trkpt lat="43.9111561" lon="12.4586689"><ele>491.0</ele><time>2026-04-09T15:27:56.219Z</time></trkpt><trkpt lat="43.9111953" lon="12.4585725"><ele>490.5</ele><time>2026-04-09T15:27:57.227Z</time></trkpt><trkpt lat="43.9112319" lon="12.4584738"><ele>490.0</ele><time>2026-04-09T15:27:58.221Z</time></trkpt><trkpt lat="43.9112705" lon="12.45837"><ele>489.5</ele><time>2026-04-09T15:27:59.206Z</time></trkpt><trkpt lat="43.911304" lon="12.4582635"><ele>489.0</ele><time>2026-04-09T15:28:00.209Z</time></trkpt><trkpt lat="43.9113362" lon="12.4581592"><ele>489.0</ele><time>2026-04-09T15:28:01.216Z</time></trkpt><trkpt lat="43.9113682" lon="12.4580484"><ele>489.0</ele><time>2026-04-09T15:28:02.207Z</time></trkpt><trkpt lat="43.9114043" lon="12.4579524"><ele>489.0</ele><time>2026-04-09T15:28:03.202Z</time></trkpt><trkpt lat="43.9114423" lon="12.4578517"><ele>489.0</ele><time>2026-04-09T15:28:04.204Z</time></trkpt><trkpt lat="43.9114741" lon="12.4577499"><ele>489.0</ele><time>2026-04-09T15:28:05.192Z</time></trkpt><trkpt lat="43.911509" lon="12.4576513"><ele>489.0</ele><time>2026-04-09T15:28:06.208Z</time></trkpt><trkpt lat="43.9115427" lon="12.4575536"><ele>488.6666666666667</ele><time>2026-04-09T15:28:07.217Z</time></trkpt><trkpt lat="43.9115784" lon="12.4574525"><ele>488.33333333333337</ele><time>2026-04-09T15:28:08.216Z</time></trkpt><trkpt lat="43.9116146" lon="12.4573421"><ele>488.0</ele><time>2026-04-09T15:28:09.208Z</time></trkpt><trkpt lat="43.9116527" lon="12.4572422"><ele>487.6666666666667</ele><time>2026-04-09T15:28:10.203Z</time></trkpt><trkpt lat="43.9116921" lon="12.4571509"><ele>487.33333333333337</ele><time>2026-04-09T15:28:11.218Z</time></trkpt><trkpt lat="43.9117334" lon="12.4570578"><ele>487.0</ele><time>2026-04-09T15:28:12.205Z</time></trkpt><trkpt lat="43.9117685" lon="12.456973"><ele>486.7142857142857</ele><time>2026-04-09T15:28:13.195Z</time></trkpt><trkpt lat="43.9118067" lon="12.456884"><ele>486.42857142857144</ele><time>2026-04-09T15:28:14.21Z</time></trkpt><trkpt lat="43.9118405" lon="12.456794"><ele>486.14285714285717</ele><time>2026-04-09T15:28:15.214Z</time></trkpt><trkpt lat="43.9118604" lon="12.4567004"><ele>485.8571428571429</ele><time>2026-04-09T15:28:16.203Z</time></trkpt><trkpt lat="43.9118491" lon="12.456598"><ele>485.57142857142856</ele><time>2026-04-09T15:28:17.175Z</time></trkpt><trkpt lat="43.9118082" lon="12.456503"><ele>485.28571428571433</ele><time>2026-04-09T15:28:18.205Z</time></trkpt><trkpt lat="43.9117654" lon="12.456416"><ele>485.00000000000006</ele><time>2026-04-09T15:28:19.221Z</time></trkpt><trkpt lat="43.9117243" lon="12.4563311"><ele>486.4285714285715</ele><time>2026-04-09T15:28:20.202Z</time></trkpt><trkpt lat="43.9116949" lon="12.4562528"><ele>487.8571428571429</ele><time>2026-04-09T15:28:21.183Z</time></trkpt><trkpt lat="43.9116546" lon="12.4561323"><ele>489.2857142857143</ele><time>2026-04-09T15:28:23.199Z</time></trkpt><trkpt lat="43.9116242" lon="12.4560358"><ele>490.7142857142857</ele><time>2026-04-09T15:28:25.182Z</time></trkpt><trkpt lat="43.9115979" lon="12.4559375"><ele>492.1428571428571</ele><time>2026-04-09T15:28:27.186Z</time></trkpt><trkpt lat="43.9115667" lon="12.4558536"><ele>493.5714285714285</ele><time>2026-04-09T15:28:29.199Z</time></trkpt><trkpt lat="43.9115556" lon="12.4557592"><ele>494.99999999999994</ele><time>2026-04-09T15:28:31.159Z</time></trkpt><trkpt lat="43.9115323" lon="12.4556434"><ele>495.0</ele><time>2026-04-09T15:28:34.198Z</time></trkpt><trkpt lat="43.9115055" lon="12.455518"><ele>495.0</ele><time>2026-04-09T15:28:37.165Z</time></trkpt><trkpt lat="43.9114729" lon="12.455399"><ele>495.0</ele><time>2026-04-09T15:28:40.194Z</time></trkpt><trkpt lat="43.9114526" lon="12.4552767"><ele>495.0</ele><time>2026-04-09T15:28:43.205Z</time></trkpt><trkpt lat="43.9114362" lon="12.4551899"><ele>495.0</ele><time>2026-04-09T15:28:45.206Z</time></trkpt><trkpt lat="43.9114255" lon="12.4550758"><ele>495.0</ele><time>2026-04-09T15:28:48.202Z</time></trkpt><trkpt lat="43.9114147" lon="12.4549511"><ele>497.3333333333333</ele><time>2026-04-09T15:28:51.204Z</time></trkpt><trkpt lat="43.9113968" lon="12.4548402"><ele>499.66666666666663</ele><time>2026-04-09T15:28:54.201Z</time></trkpt><trkpt lat="43.9113713" lon="12.4547132"><ele>502.0</ele><time>2026-04-09T15:28:57.217Z</time></trkpt><trkpt lat="43.9113645" lon="12.4546152"><ele>504.3333333333333</ele><time>2026-04-09T15:28:59.189Z</time></trkpt><trkpt lat="43.9113552" lon="12.4544825"><ele>506.66666666666663</ele><time>2026-04-09T15:29:02.202Z</time></trkpt><trkpt lat="43.911337" lon="12.4543841"><ele>509.0</ele><time>2026-04-09T15:29:04.214Z</time></trkpt><trkpt lat="43.9113032" lon="12.45426"><ele>511.16666666666663</ele><time>2026-04-09T15:29:07.213Z</time></trkpt><trkpt lat="43.9112663" lon="12.4541625"><ele>513.3333333333333</ele><time>2026-04-09T15:29:10.171Z</time></trkpt><trkpt lat="43.9112161" lon="12.4540521"><ele>515.5</ele><time>2026-04-09T15:29:13.189Z</time></trkpt><trkpt lat="43.9111792" lon="12.4539386"><ele>517.6666666666666</ele><time>2026-04-09T15:29:16.182Z</time></trkpt><trkpt lat="43.9111406" lon="12.4538349"><ele>519.8333333333334</ele><time>2026-04-09T15:29:19.205Z</time></trkpt><trkpt lat="43.911087" lon="12.4537333"><ele>522.0</ele><time>2026-04-09T15:29:22.173Z</time></trkpt><trkpt lat="43.9110446" lon="12.4536616"><ele>522.7142857142858</ele><time>2026-04-09T15:29:24.182Z</time></trkpt><trkpt lat="43.9110083" lon="12.4535892"><ele>523.4285714285714</ele><time>2026-04-09T15:29:26.191Z</time></trkpt><trkpt lat="43.9109601" lon="12.4534861"><ele>524.1428571428571</ele><time>2026-04-09T15:29:29.214Z</time></trkpt><trkpt lat="43.9109215" lon="12.4534146"><ele>524.8571428571429</ele><time>2026-04-09T15:29:31.2Z</time></trkpt><trkpt lat="43.9108873" lon="12.4533357"><ele>525.5714285714286</ele><time>2026-04-09T15:29:33.199Z</time></trkpt><trkpt lat="43.9108525" lon="12.4532626"><ele>526.2857142857143</ele><time>2026-04-09T15:29:35.196Z</time></trkpt><trkpt lat="43.9108024" lon="12.4531521"><ele>527.0</ele><time>2026-04-09T15:29:38.204Z</time></trkpt><trkpt lat="43.9107529" lon="12.4530461"><ele>524.5</ele><time>2026-04-09T15:29:41.201Z</time></trkpt><trkpt lat="43.9107017" lon="12.4529436"><ele>522.0</ele><time>2026-04-09T15:29:44.194Z</time></trkpt><trkpt lat="43.9106611" lon="12.452822"><ele>519.5</ele><time>2026-04-09T15:29:47.208Z</time></trkpt><trkpt lat="43.9106157" lon="12.4527094"><ele>517.0</ele><time>2026-04-09T15:29:50.2Z</time></trkpt><trkpt lat="43.9105889" lon="12.452618"><ele>514.5</ele><time>2026-04-09T15:29:52.216Z</time></trkpt><trkpt lat="43.9105618" lon="12.452529"><ele>512.0</ele><time>2026-04-09T15:29:54.225Z</time></trkpt><trkpt lat="43.9105435" lon="12.4524427"><ele>511.99999999999994</ele><time>2026-04-09T15:29:56.208Z</time></trkpt><trkpt lat="43.9105315" lon="12.4523132"><ele>512.0</ele><time>2026-04-09T15:29:59.233Z</time></trkpt><trkpt lat="43.9105192" lon="12.4521863"><ele>512.0</ele><time>2026-04-09T15:30:02.209Z</time></trkpt><trkpt lat="43.9105147" lon="12.4520499"><ele>512.0</ele><time>2026-04-09T15:30:05.188Z</time></trkpt><trkpt lat="43.9105228" lon="12.4519616"><ele>511.99999999999994</ele><time>2026-04-09T15:30:07.219Z</time></trkpt><trkpt lat="43.9105476" lon="12.4518786"><ele>512.0</ele><time>2026-04-09T15:30:09.161Z</time></trkpt><trkpt lat="43.9105799" lon="12.451803"><ele>512.4285714285714</ele><time>2026-04-09T15:30:11.192Z</time></trkpt><trkpt lat="43.9106253" lon="12.4517399"><ele>512.8571428571428</ele><time>2026-04-09T15:30:13.207Z</time></trkpt><trkpt lat="43.910676" lon="12.4516793"><ele>513.2857142857142</ele><time>2026-04-09T15:30:15.197Z</time></trkpt><trkpt lat="43.9107669" lon="12.4516527"><ele>513.7142857142857</ele><time>2026-04-09T15:30:18.211Z</time></trkpt><trkpt lat="43.9108538" lon="12.4516885"><ele>514.1428571428571</ele><time>2026-04-09T15:30:21.186Z</time></trkpt><trkpt lat="43.9109165" lon="12.4517189"><ele>514.5714285714286</ele><time>2026-04-09T15:30:23.19Z</time></trkpt><trkpt lat="43.9109775" lon="12.4517506"><ele>515.0</ele><time>2026-04-09T15:30:25.193Z</time></trkpt><trkpt lat="43.9110438" lon="12.4517803"><ele>515.8571428571429</ele><time>2026-04-09T15:30:27.21Z</time></trkpt><trkpt lat="43.9111183" lon="12.451805"><ele>516.7142857142857</ele><time>2026-04-09T15:30:29.216Z</time></trkpt><trkpt lat="43.9111887" lon="12.451826"><ele>517.5714285714286</ele><time>2026-04-09T15:30:31.207Z</time></trkpt><trkpt lat="43.9112603" lon="12.4518534"><ele>518.4285714285714</ele><time>2026-04-09T15:30:33.171Z</time></trkpt><trkpt lat="43.9113246" lon="12.4518778"><ele>519.2857142857143</ele><time>2026-04-09T15:30:35.208Z</time></trkpt><trkpt lat="43.9114111" lon="12.4518991"><ele>520.1428571428571</ele><time>2026-04-09T15:30:38.219Z</time></trkpt><trkpt lat="43.9114734" lon="12.4519129"><ele>521.0</ele><time>2026-04-09T15:30:40.226Z</time></trkpt><trkpt lat="43.9115389" lon="12.4519377"><ele>521.0</ele><time>2026-04-09T15:30:42.176Z</time></trkpt><trkpt lat="43.9116155" lon="12.45196"><ele>521.0</ele><time>2026-04-09T15:30:44.207Z</time></trkpt><trkpt lat="43.9116851" lon="12.4519972"><ele>521.0</ele><time>2026-04-09T15:30:46.188Z</time></trkpt><trkpt lat="43.9117677" lon="12.4520186"><ele>521.0</ele><time>2026-04-09T15:30:48.193Z</time></trkpt><trkpt lat="43.9118524" lon="12.45205"><ele>521.0</ele><time>2026-04-09T15:30:50.198Z</time></trkpt><trkpt lat="43.9119302" lon="12.4520842"><ele>521.0</ele><time>2026-04-09T15:30:52.17Z</time></trkpt><trkpt lat="43.9120102" lon="12.4521286"><ele>521.5</ele><time>2026-04-09T15:30:54.206Z</time></trkpt><trkpt lat="43.912094" lon="12.4521693"><ele>522.0</ele><time>2026-04-09T15:30:56.198Z</time></trkpt><trkpt lat="43.9121749" lon="12.4521858"><ele>522.5</ele><time>2026-04-09T15:30:58.202Z</time></trkpt><trkpt lat="43.9122567" lon="12.4522082"><ele>523.0</ele><time>2026-04-09T15:31:00.211Z</time></trkpt><trkpt lat="43.912346" lon="12.4522475"><ele>523.5</ele><time>2026-04-09T15:31:02.191Z</time></trkpt><trkpt lat="43.9124417" lon="12.4522767"><ele>524.0</ele><time>2026-04-09T15:31:04.194Z</time></trkpt><trkpt lat="43.9125477" lon="12.4523075"><ele>523.2</ele><time>2026-04-09T15:31:06.215Z</time></trkpt><trkpt lat="43.9126361" lon="12.4523382"><ele>522.4</ele><time>2026-04-09T15:31:08.182Z</time></trkpt><trkpt lat="43.9127217" lon="12.4523822"><ele>521.6</ele><time>2026-04-09T15:31:10.229Z</time></trkpt><trkpt lat="43.9128127" lon="12.4524215"><ele>520.8</ele><time>2026-04-09T15:31:12.205Z</time></trkpt><trkpt lat="43.9129219" lon="12.452462"><ele>520.0</ele><time>2026-04-09T15:31:14.216Z</time></trkpt><trkpt lat="43.9130277" lon="12.4525086"><ele>520.0</ele><time>2026-04-09T15:31:16.204Z</time></trkpt><trkpt lat="43.9131446" lon="12.4525474"><ele>520.0</ele><time>2026-04-09T15:31:18.191Z</time></trkpt><trkpt lat="43.913262" lon="12.4525835"><ele>520.0</ele><time>2026-04-09T15:31:20.213Z</time></trkpt><trkpt lat="43.9133707" lon="12.4526421"><ele>520.0</ele><time>2026-04-09T15:31:22.204Z</time></trkpt><trkpt lat="43.9134805" lon="12.4527088"><ele>521.5</ele><time>2026-04-09T15:31:24.212Z</time></trkpt><trkpt lat="43.913587" lon="12.4527847"><ele>523.0</ele><time>2026-04-09T15:31:26.209Z</time></trkpt><trkpt lat="43.9136826" lon="12.4528646"><ele>524.5</ele><time>2026-04-09T15:31:28.162Z</time></trkpt><trkpt lat="43.9137797" lon="12.4529529"><ele>526.0</ele><time>2026-04-09T15:31:30.226Z</time></trkpt><trkpt lat="43.9138737" lon="12.4530374"><ele>526.0</ele><time>2026-04-09T15:31:32.208Z</time></trkpt><trkpt lat="43.9139768" lon="12.4531204"><ele>526.0</ele><time>2026-04-09T15:31:34.208Z</time></trkpt><trkpt lat="43.9140299" lon="12.4531689"><ele>526.0</ele><time>2026-04-09T15:31:35.213Z</time></trkpt><trkpt lat="43.9141392" lon="12.4532676"><ele>526.0</ele><time>2026-04-09T15:31:37.204Z</time></trkpt><trkpt lat="43.9141957" lon="12.4533178"><ele>526.0</ele><time>2026-04-09T15:31:38.214Z</time></trkpt><trkpt lat="43.9142508" lon="12.4533614"><ele>526.0</ele><time>2026-04-09T15:31:39.212Z</time></trkpt><trkpt lat="43.9143591" lon="12.4534514"><ele>524.0</ele><time>2026-04-09T15:31:41.193Z</time></trkpt><trkpt lat="43.9144186" lon="12.453494"><ele>522.0</ele><time>2026-04-09T15:31:42.206Z</time></trkpt><trkpt lat="43.9144723" lon="12.4535457"><ele>520.0</ele><time>2026-04-09T15:31:43.186Z</time></trkpt><trkpt lat="43.9145287" lon="12.4535879"><ele>518.0</ele><time>2026-04-09T15:31:44.2Z</time></trkpt><trkpt lat="43.9145854" lon="12.4536374"><ele>516.0</ele><time>2026-04-09T15:31:45.196Z</time></trkpt><trkpt lat="43.9146425" lon="12.4536776"><ele>514.0</ele><time>2026-04-09T15:31:46.186Z</time></trkpt><trkpt lat="43.9147027" lon="12.453715"><ele>512.0</ele><time>2026-04-09T15:31:47.199Z</time></trkpt><trkpt lat="43.9148119" lon="12.4537868"><ele>513.4285714285714</ele><time>2026-04-09T15:31:49.189Z</time></trkpt><trkpt lat="43.9148733" lon="12.453827"><ele>514.8571428571428</ele><time>2026-04-09T15:31:50.196Z</time></trkpt><trkpt lat="43.9149348" lon="12.4538653"><ele>516.2857142857142</ele><time>2026-04-09T15:31:51.216Z</time></trkpt><trkpt lat="43.9149974" lon="12.4539089"><ele>517.7142857142857</ele><time>2026-04-09T15:31:52.191Z</time></trkpt><trkpt lat="43.9150565" lon="12.4539472"><ele>519.1428571428571</ele><time>2026-04-09T15:31:53.197Z</time></trkpt><trkpt lat="43.9151217" lon="12.4539689"><ele>520.5714285714286</ele><time>2026-04-09T15:31:54.196Z</time></trkpt><trkpt lat="43.9151866" lon="12.4540049"><ele>522.0</ele><time>2026-04-09T15:31:55.205Z</time></trkpt><trkpt lat="43.9152564" lon="12.4540373"><ele>522.0</ele><time>2026-04-09T15:31:56.202Z</time></trkpt><trkpt lat="43.9153194" lon="12.4540658"><ele>522.0</ele><time>2026-04-09T15:31:57.208Z</time></trkpt><trkpt lat="43.9153838" lon="12.4540879"><ele>522.0</ele><time>2026-04-09T15:31:58.194Z</time></trkpt><trkpt lat="43.9154464" lon="12.4541215"><ele>522.0</ele><time>2026-04-09T15:31:59.207Z</time></trkpt><trkpt lat="43.9155135" lon="12.4541562"><ele>522.0</ele><time>2026-04-09T15:32:00.178Z</time></trkpt><trkpt lat="43.9155799" lon="12.4541849"><ele>522.0</ele><time>2026-04-09T15:32:01.207Z</time></trkpt><trkpt lat="43.9156406" lon="12.4542088"><ele>522.0</ele><time>2026-04-09T15:32:02.207Z</time></trkpt><trkpt lat="43.915705" lon="12.4542398"><ele>522.0</ele><time>2026-04-09T15:32:03.201Z</time></trkpt><trkpt lat="43.9157719" lon="12.4542732"><ele>522.0</ele><time>2026-04-09T15:32:04.198Z</time></trkpt><trkpt lat="43.9158326" lon="12.4543085"><ele>522.0</ele><time>2026-04-09T15:32:05.211Z</time></trkpt><trkpt lat="43.9159014" lon="12.4543423"><ele>522.0</ele><time>2026-04-09T15:32:06.202Z</time></trkpt><trkpt lat="43.915967" lon="12.4543728"><ele>522.0</ele><time>2026-04-09T15:32:07.199Z</time></trkpt><trkpt lat="43.9160407" lon="12.4544043"><ele>522.0</ele><time>2026-04-09T15:32:08.157Z</time></trkpt><trkpt lat="43.9161091" lon="12.4544412"><ele>522.0</ele><time>2026-04-09T15:32:09.175Z</time></trkpt><trkpt lat="43.9161804" lon="12.4544634"><ele>521.2857142857143</ele><time>2026-04-09T15:32:10.181Z</time></trkpt><trkpt lat="43.9162495" lon="12.4544812"><ele>520.5714285714286</ele><time>2026-04-09T15:32:11.16Z</time></trkpt><trkpt lat="43.916322" lon="12.4545006"><ele>519.8571428571429</ele><time>2026-04-09T15:32:12.173Z</time></trkpt><trkpt lat="43.916388" lon="12.4545138"><ele>519.1428571428571</ele><time>2026-04-09T15:32:13.22Z</time></trkpt><trkpt lat="43.9164581" lon="12.4545189"><ele>518.4285714285714</ele><time>2026-04-09T15:32:14.21Z</time></trkpt><trkpt lat="43.9165242" lon="12.4545136"><ele>517.7142857142858</ele><time>2026-04-09T15:32:15.194Z</time></trkpt><trkpt lat="43.9165886" lon="12.4545017"><ele>517.0</ele><time>2026-04-09T15:32:16.208Z</time></trkpt><trkpt lat="43.9166602" lon="12.4544788"><ele>517.0</ele><time>2026-04-09T15:32:17.206Z</time></trkpt><trkpt lat="43.9167327" lon="12.4544479"><ele>517.0</ele><time>2026-04-09T15:32:18.22Z</time></trkpt><trkpt lat="43.9167991" lon="12.4543969"><ele>517.0</ele><time>2026-04-09T15:32:19.207Z</time></trkpt><trkpt lat="43.9168629" lon="12.4543486"><ele>517.0</ele><time>2026-04-09T15:32:20.213Z</time></trkpt><trkpt lat="43.9169287" lon="12.4543004"><ele>517.0</ele><time>2026-04-09T15:32:21.208Z</time></trkpt><trkpt lat="43.9169838" lon="12.4542471"><ele>517.0</ele><time>2026-04-09T15:32:22.214Z</time></trkpt><trkpt lat="43.9170411" lon="12.4542048"><ele>517.0</ele><time>2026-04-09T15:32:23.215Z</time></trkpt><trkpt lat="43.9170964" lon="12.4541606"><ele>517.2</ele><time>2026-04-09T15:32:24.196Z</time></trkpt><trkpt lat="43.917183" lon="12.4540925"><ele>517.4000000000001</ele><time>2026-04-09T15:32:26.151Z</time></trkpt><trkpt lat="43.917256" lon="12.4540184"><ele>517.5999999999999</ele><time>2026-04-09T15:32:28.197Z</time></trkpt><trkpt lat="43.9173339" lon="12.4539429"><ele>517.8</ele><time>2026-04-09T15:32:30.154Z</time></trkpt><trkpt lat="43.9174244" lon="12.4538"><ele>518.0</ele><time>2026-04-09T15:32:33.146Z</time></trkpt><trkpt lat="43.9174754" lon="12.4537186"><ele>518.3333333333333</ele><time>2026-04-09T15:32:35.175Z</time></trkpt><trkpt lat="43.9175269" lon="12.4536631"><ele>518.6666666666666</ele><time>2026-04-09T15:32:37.15Z</time></trkpt><trkpt lat="43.9175921" lon="12.4536016"><ele>519.0</ele><time>2026-04-09T15:32:39.154Z</time></trkpt><trkpt lat="43.9176475" lon="12.4535499"><ele>519.3333333333334</ele><time>2026-04-09T15:32:41.152Z</time></trkpt><trkpt lat="43.9177279" lon="12.4534747"><ele>519.6666666666667</ele><time>2026-04-09T15:32:44.144Z</time></trkpt><trkpt lat="43.9178071" lon="12.4534153"><ele>520.0</ele><time>2026-04-09T15:32:46.151Z</time></trkpt><trkpt lat="43.9178722" lon="12.4533501"><ele>520.0</ele><time>2026-04-09T15:32:48.151Z</time></trkpt><trkpt lat="43.9179346" lon="12.4532861"><ele>520.0</ele><time>2026-04-09T15:32:50.166Z</time></trkpt><trkpt lat="43.9180072" lon="12.4532308"><ele>520.0</ele><time>2026-04-09T15:32:52.148Z</time></trkpt><trkpt lat="43.9180715" lon="12.4531786"><ele>520.0</ele><time>2026-04-09T15:32:54.152Z</time></trkpt><trkpt lat="43.9181412" lon="12.4531153"><ele>520.0</ele><time>2026-04-09T15:32:56.154Z</time></trkpt><trkpt lat="43.9182062" lon="12.453065"><ele>520.0</ele><time>2026-04-09T15:32:58.166Z</time></trkpt><trkpt lat="43.9182756" lon="12.4530415"><ele>520.0</ele><time>2026-04-09T15:33:00.216Z</time></trkpt><trkpt lat="43.9183493" lon="12.4530123"><ele>520.0</ele><time>2026-04-09T15:33:02.19Z</time></trkpt><trkpt lat="43.9184395" lon="12.4529926"><ele>520.0</ele><time>2026-04-09T15:33:05.221Z</time></trkpt><trkpt lat="43.9185319" lon="12.4529719"><ele>520.0</ele><time>2026-04-09T15:33:08.187Z</time></trkpt><trkpt lat="43.9185992" lon="12.4529509"><ele>520.0</ele><time>2026-04-09T15:33:10.179Z</time></trkpt><trkpt lat="43.9186689" lon="12.4529346"><ele>520.0</ele><time>2026-04-09T15:33:12.223Z</time></trkpt><trkpt lat="43.9187641" lon="12.4528999"><ele>522.7142857142858</ele><time>2026-04-09T15:33:15.196Z</time></trkpt><trkpt lat="43.9188282" lon="12.4528874"><ele>525.4285714285714</ele><time>2026-04-09T15:33:17.204Z</time></trkpt><trkpt lat="43.918896" lon="12.4528675"><ele>528.1428571428571</ele><time>2026-04-09T15:33:19.202Z</time></trkpt><trkpt lat="43.9189656" lon="12.4528468"><ele>530.8571428571429</ele><time>2026-04-09T15:33:21.195Z</time></trkpt><trkpt lat="43.9190579" lon="12.4528176"><ele>533.5714285714286</ele><time>2026-04-09T15:33:24.208Z</time></trkpt><trkpt lat="43.9191193" lon="12.4527978"><ele>536.2857142857143</ele><time>2026-04-09T15:33:26.164Z</time></trkpt><trkpt lat="43.9191838" lon="12.4527816"><ele>539.0</ele><time>2026-04-09T15:33:28.171Z</time></trkpt><trkpt lat="43.9192757" lon="12.4527494"><ele>539.0</ele><time>2026-04-09T15:33:31.194Z</time></trkpt><trkpt lat="43.9193452" lon="12.4527439"><ele>539.0</ele><time>2026-04-09T15:33:33.191Z</time></trkpt><trkpt lat="43.9194302" lon="12.4527324"><ele>539.0</ele><time>2026-04-09T15:33:36.189Z</time></trkpt><trkpt lat="43.9194931" lon="12.4527458"><ele>539.0</ele><time>2026-04-09T15:33:38.15Z</time></trkpt><trkpt lat="43.919557" lon="12.4527423"><ele>539.0</ele><time>2026-04-09T15:33:40.192Z</time></trkpt><trkpt lat="43.9196208" lon="12.4527369"><ele>539.0</ele><time>2026-04-09T15:33:42.175Z</time></trkpt><trkpt lat="43.9196837" lon="12.4527254"><ele>539.0</ele><time>2026-04-09T15:33:44.185Z</time></trkpt><trkpt lat="43.9197544" lon="12.4527193"><ele>539.0</ele><time>2026-04-09T15:33:47.155Z</time></trkpt><trkpt lat="43.9198427" lon="12.4527226"><ele>539.0</ele><time>2026-04-09T15:33:50.215Z</time></trkpt><trkpt lat="43.9199051" lon="12.4527502"><ele>539.0</ele><time>2026-04-09T15:33:52.21Z</time></trkpt><trkpt lat="43.9199642" lon="12.4527816"><ele>539.0</ele><time>2026-04-09T15:33:54.186Z</time></trkpt><trkpt lat="43.920048" lon="12.452836"><ele>539.0</ele><time>2026-04-09T15:33:57.181Z</time></trkpt><trkpt lat="43.9201318" lon="12.4528876"><ele>539.0</ele><time>2026-04-09T15:34:00.215Z</time></trkpt><trkpt lat="43.9202003" lon="12.4529153"><ele>539.6666666666666</ele><time>2026-04-09T15:34:02.204Z</time></trkpt><trkpt lat="43.9202799" lon="12.4528913"><ele>540.3333333333333</ele><time>2026-04-09T15:34:04.198Z</time></trkpt><trkpt lat="43.9203471" lon="12.4528361"><ele>541.0</ele><time>2026-04-09T15:34:06.221Z</time></trkpt><trkpt lat="43.920387" lon="12.4527566"><ele>541.6666666666666</ele><time>2026-04-09T15:34:08.195Z</time></trkpt><trkpt lat="43.9204188" lon="12.4526656"><ele>542.3333333333334</ele><time>2026-04-09T15:34:10.217Z</time></trkpt><trkpt lat="43.9204739" lon="12.4525567"><ele>543.0</ele><time>2026-04-09T15:34:13.168Z</time></trkpt><trkpt lat="43.9205299" lon="12.4525024"><ele>543.0</ele><time>2026-04-09T15:34:15.223Z</time></trkpt><trkpt lat="43.9206209" lon="12.4524804"><ele>543.0</ele><time>2026-04-09T15:34:18.197Z</time></trkpt><trkpt lat="43.9207154" lon="12.4524645"><ele>543.0</ele><time>2026-04-09T15:34:21.221Z</time></trkpt><trkpt lat="43.9207838" lon="12.4524374"><ele>543.0</ele><time>2026-04-09T15:34:23.205Z</time></trkpt><trkpt lat="43.9208475" lon="12.4524045"><ele>543.0</ele><time>2026-04-09T15:34:25.2Z</time></trkpt><trkpt lat="43.9209179" lon="12.4523796"><ele>543.0</ele><time>2026-04-09T15:34:27.19Z</time></trkpt><trkpt lat="43.9209877" lon="12.452366"><ele>544.8333333333334</ele><time>2026-04-09T15:34:29.209Z</time></trkpt><trkpt lat="43.9210578" lon="12.4523312"><ele>546.6666666666666</ele><time>2026-04-09T15:34:31.211Z</time></trkpt><trkpt lat="43.9211261" lon="12.4523118"><ele>548.5</ele><time>2026-04-09T15:34:33.222Z</time></trkpt><trkpt lat="43.9211892" lon="12.4522841"><ele>550.3333333333333</ele><time>2026-04-09T15:34:35.204Z</time></trkpt><trkpt lat="43.921279" lon="12.4522506"><ele>552.1666666666666</ele><time>2026-04-09T15:34:38.195Z</time></trkpt><trkpt lat="43.9213621" lon="12.4522009"><ele>554.0</ele><time>2026-04-09T15:34:41.192Z</time></trkpt><trkpt lat="43.9214459" lon="12.4521625"><ele>553.5</ele><time>2026-04-09T15:34:44.206Z</time></trkpt><trkpt lat="43.9215289" lon="12.4521191"><ele>553.0</ele><time>2026-04-09T15:34:47.176Z</time></trkpt><trkpt lat="43.9216168" lon="12.4520719"><ele>552.5</ele><time>2026-04-09T15:34:50.187Z</time></trkpt><trkpt lat="43.9216788" lon="12.4520414"><ele>552.0</ele><time>2026-04-09T15:34:52.194Z</time></trkpt><trkpt lat="43.9217419" lon="12.4520098"><ele>551.5</ele><time>2026-04-09T15:34:54.187Z</time></trkpt><trkpt lat="43.9218295" lon="12.4519708"><ele>551.0</ele><time>2026-04-09T15:34:57.189Z</time></trkpt><trkpt lat="43.9219111" lon="12.4519256"><ele>552.0</ele><time>2026-04-09T15:35:00.211Z</time></trkpt><trkpt lat="43.9219697" lon="12.4518905"><ele>553.0</ele><time>2026-04-09T15:35:02.209Z</time></trkpt><trkpt lat="43.9220521" lon="12.4518359"><ele>554.0</ele><time>2026-04-09T15:35:05.209Z</time></trkpt><trkpt lat="43.9221122" lon="12.4518072"><ele>555.0</ele><time>2026-04-09T15:35:07.2Z</time></trkpt><trkpt lat="43.9221846" lon="12.4517731"><ele>556.0</ele><time>2026-04-09T15:35:10.204Z</time></trkpt><trkpt lat="43.9222709" lon="12.451738"><ele>557.0</ele><time>2026-04-09T15:35:13.195Z</time></trkpt><trkpt lat="43.9223387" lon="12.4517138"><ele>557.0</ele><time>2026-04-09T15:35:15.2Z</time></trkpt><trkpt lat="43.9224158" lon="12.4516897"><ele>557.0</ele><time>2026-04-09T15:35:17.19Z</time></trkpt><trkpt lat="43.9224804" lon="12.4516736"><ele>557.0</ele><time>2026-04-09T15:35:19.187Z</time></trkpt><trkpt lat="43.9225553" lon="12.4516394"><ele>557.0</ele><time>2026-04-09T15:35:22.198Z</time></trkpt><trkpt lat="43.9226431" lon="12.4516312"><ele>557.0</ele><time>2026-04-09T15:35:25.175Z</time></trkpt><trkpt lat="43.9227364" lon="12.451623"><ele>557.0</ele><time>2026-04-09T15:35:28.202Z</time></trkpt><trkpt lat="43.9228011" lon="12.4516068"><ele>558.5</ele><time>2026-04-09T15:35:30.201Z</time></trkpt><trkpt lat="43.9228708" lon="12.4515951"><ele>560.0</ele><time>2026-04-09T15:35:32.206Z</time></trkpt><trkpt lat="43.9229371" lon="12.4515987"><ele>561.5</ele><time>2026-04-09T15:35:34.195Z</time></trkpt><trkpt lat="43.9230026" lon="12.451596"><ele>563.0</ele><time>2026-04-09T15:35:36.2Z</time></trkpt><trkpt lat="43.9230696" lon="12.4515932"><ele>564.5</ele><time>2026-04-09T15:35:38.168Z</time></trkpt><trkpt lat="43.9231664" lon="12.4516032"><ele>566.0</ele><time>2026-04-09T15:35:41.167Z</time></trkpt><trkpt lat="43.9232523" lon="12.4515905"><ele>566.0</ele><time>2026-04-09T15:35:44.223Z</time></trkpt><trkpt lat="43.9233152" lon="12.4515793"><ele>566.0</ele><time>2026-04-09T15:35:46.207Z</time></trkpt><trkpt lat="43.9233803" lon="12.4515775"><ele>566.0</ele><time>2026-04-09T15:35:48.191Z</time></trkpt><trkpt lat="43.9234439" lon="12.4515732"><ele>566.0</ele><time>2026-04-09T15:35:50.195Z</time></trkpt><trkpt lat="43.92351" lon="12.4515762"><ele>566.0</ele><time>2026-04-09T15:35:52.221Z</time></trkpt><trkpt lat="43.9235976" lon="12.4515534"><ele>566.0</ele><time>2026-04-09T15:35:55.202Z</time></trkpt><trkpt lat="43.9236857" lon="12.4515342"><ele>566.0</ele><time>2026-04-09T15:35:58.213Z</time></trkpt><trkpt lat="43.9237775" lon="12.4514996"><ele>568.0</ele><time>2026-04-09T15:36:01.204Z</time></trkpt><trkpt lat="43.9238578" lon="12.4514545"><ele>570.0</ele><time>2026-04-09T15:36:04.196Z</time></trkpt><trkpt lat="43.9239366" lon="12.4514156"><ele>572.0</ele><time>2026-04-09T15:36:07.137Z</time></trkpt><trkpt lat="43.9240234" lon="12.4513628"><ele>574.0</ele><time>2026-04-09T15:36:10.212Z</time></trkpt><trkpt lat="43.9240912" lon="12.4513537"><ele>576.0</ele><time>2026-04-09T15:36:12.21Z</time></trkpt><trkpt lat="43.9241662" lon="12.4513479"><ele>578.0</ele><time>2026-04-09T15:36:14.194Z</time></trkpt><trkpt lat="43.924229" lon="12.4513349"><ele>578.8333333333333</ele><time>2026-04-09T15:36:16.211Z</time></trkpt><trkpt lat="43.9242932" lon="12.4513335"><ele>579.6666666666666</ele><time>2026-04-09T15:36:18.21Z</time></trkpt><trkpt lat="43.9243851" lon="12.4513389"><ele>580.5</ele><time>2026-04-09T15:36:21.189Z</time></trkpt><trkpt lat="43.9244661" lon="12.4513449"><ele>581.3333333333334</ele><time>2026-04-09T15:36:24.191Z</time></trkpt><trkpt lat="43.9245393" lon="12.4513594"><ele>582.1666666666667</ele><time>2026-04-09T15:36:27.191Z</time></trkpt><trkpt lat="43.9246276" lon="12.4513835"><ele>583.0</ele><time>2026-04-09T15:36:30.197Z</time></trkpt><trkpt lat="43.9246947" lon="12.4513881"><ele>583.0</ele><time>2026-04-09T15:36:32.189Z</time></trkpt><trkpt lat="43.9247593" lon="12.4513887"><ele>583.0</ele><time>2026-04-09T15:36:34.187Z</time></trkpt><trkpt lat="43.9248333" lon="12.4514197"><ele>583.0</ele><time>2026-04-09T15:36:36.204Z</time></trkpt><trkpt lat="43.9249019" lon="12.4514454"><ele>583.0</ele><time>2026-04-09T15:36:38.19Z</time></trkpt><trkpt lat="43.9249711" lon="12.4514891"><ele>583.0</ele><time>2026-04-09T15:36:40.2Z</time></trkpt><trkpt lat="43.9250384" lon="12.4515154"><ele>583.0</ele><time>2026-04-09T15:36:42.206Z</time></trkpt><trkpt lat="43.9251288" lon="12.4515397"><ele>585.1428571428572</ele><time>2026-04-09T15:36:45.19Z</time></trkpt><trkpt lat="43.925216" lon="12.4515516"><ele>587.2857142857143</ele><time>2026-04-09T15:36:48.215Z</time></trkpt><trkpt lat="43.9252803" lon="12.4515394"><ele>589.4285714285714</ele><time>2026-04-09T15:36:50.197Z</time></trkpt><trkpt lat="43.9253474" lon="12.4515365"><ele>591.5714285714287</ele><time>2026-04-09T15:36:52.201Z</time></trkpt><trkpt lat="43.9254102" lon="12.4515249"><ele>593.7142857142858</ele><time>2026-04-09T15:36:54.165Z</time></trkpt><trkpt lat="43.925472" lon="12.4514918"><ele>595.8571428571429</ele><time>2026-04-09T15:36:56.21Z</time></trkpt><trkpt lat="43.9255312" lon="12.4514571"><ele>598.0</ele><time>2026-04-09T15:36:58.18Z</time></trkpt><trkpt lat="43.9256003" lon="12.4514417"><ele>598.0</ele><time>2026-04-09T15:37:00.215Z</time></trkpt><trkpt lat="43.9256686" lon="12.4514126"><ele>598.0</ele><time>2026-04-09T15:37:02.2Z</time></trkpt><trkpt lat="43.9257312" lon="12.4513788"><ele>598.0</ele><time>2026-04-09T15:37:04.19Z</time></trkpt><trkpt lat="43.925791" lon="12.4513482"><ele>598.0</ele><time>2026-04-09T15:37:06.219Z</time></trkpt><trkpt lat="43.9258754" lon="12.4512945"><ele>598.0</ele><time>2026-04-09T15:37:09.198Z</time></trkpt><trkpt lat="43.9259491" lon="12.4512483"><ele>598.0</ele><time>2026-04-09T15:37:12.206Z</time></trkpt><trkpt lat="43.9260084" lon="12.4511922"><ele>598.0</ele><time>2026-04-09T15:37:14.2Z</time></trkpt><trkpt lat="43.9260648" lon="12.4511419"><ele>596.8333333333334</ele><time>2026-04-09T15:37:16.206Z</time></trkpt><trkpt lat="43.9261239" lon="12.4510953"><ele>595.6666666666667</ele><time>2026-04-09T15:37:18.162Z</time></trkpt><trkpt lat="43.9261879" lon="12.4510623"><ele>594.5</ele><time>2026-04-09T15:37:20.212Z</time></trkpt><trkpt lat="43.9262694" lon="12.4510225"><ele>593.3333333333334</ele><time>2026-04-09T15:37:23.199Z</time></trkpt><trkpt lat="43.9263308" lon="12.4509972"><ele>592.1666666666666</ele><time>2026-04-09T15:37:25.201Z</time></trkpt><trkpt lat="43.9263943" lon="12.450965"><ele>591.0</ele><time>2026-04-09T15:37:27.202Z</time></trkpt><trkpt lat="43.9264803" lon="12.4509048"><ele>591.0</ele><time>2026-04-09T15:37:30.201Z</time></trkpt><trkpt lat="43.9265403" lon="12.4508672"><ele>591.0</ele><time>2026-04-09T15:37:32.214Z</time></trkpt><trkpt lat="43.926602" lon="12.4508283"><ele>591.0</ele><time>2026-04-09T15:37:34.207Z</time></trkpt><trkpt lat="43.9266768" lon="12.450757"><ele>591.0</ele><time>2026-04-09T15:37:37.218Z</time></trkpt><trkpt lat="43.9267384" lon="12.4507384"><ele>591.0</ele><time>2026-04-09T15:37:39.208Z</time></trkpt><trkpt lat="43.9268213" lon="12.4506999"><ele>591.0</ele><time>2026-04-09T15:37:42.177Z</time></trkpt><trkpt lat="43.9268871" lon="12.4506074"><ele>590.7142857142857</ele><time>2026-04-09T15:37:45.208Z</time></trkpt><trkpt lat="43.9269641" lon="12.4505357"><ele>590.4285714285714</ele><time>2026-04-09T15:37:48.187Z</time></trkpt><trkpt lat="43.9270326" lon="12.4504653"><ele>590.1428571428571</ele><time>2026-04-09T15:37:51.207Z</time></trkpt><trkpt lat="43.9270918" lon="12.4504115"><ele>589.8571428571429</ele><time>2026-04-09T15:37:53.206Z</time></trkpt><trkpt lat="43.9271453" lon="12.4503573"><ele>589.5714285714286</ele><time>2026-04-09T15:37:55.197Z</time></trkpt><trkpt lat="43.9272005" lon="12.4503088"><ele>589.2857142857142</ele><time>2026-04-09T15:37:57.22Z</time></trkpt><trkpt lat="43.9272533" lon="12.4502491"><ele>589.0</ele><time>2026-04-09T15:37:59.196Z</time></trkpt><trkpt lat="43.9273127" lon="12.4501926"><ele>589.0</ele><time>2026-04-09T15:38:01.189Z</time></trkpt><trkpt lat="43.9273944" lon="12.4501523"><ele>589.0</ele><time>2026-04-09T15:38:04.205Z</time></trkpt><trkpt lat="43.9274651" lon="12.4502108"><ele>589.0</ele><time>2026-04-09T15:38:07.159Z</time></trkpt><trkpt lat="43.9274813" lon="12.4503344"><ele>589.0</ele><time>2026-04-09T15:38:10.177Z</time></trkpt><trkpt lat="43.927409" lon="12.4504254"><ele>589.0</ele><time>2026-04-09T15:38:13.211Z</time></trkpt><trkpt lat="43.9273508" lon="12.4504736"><ele>589.0</ele><time>2026-04-09T15:38:15.191Z</time></trkpt><trkpt lat="43.9272968" lon="12.4505252"><ele>593.0</ele><time>2026-04-09T15:38:17.229Z</time></trkpt><trkpt lat="43.9272145" lon="12.4505858"><ele>597.0</ele><time>2026-04-09T15:38:20.213Z</time></trkpt><trkpt lat="43.9271619" lon="12.4506347"><ele>601.0</ele><time>2026-04-09T15:38:22.205Z</time></trkpt><trkpt lat="43.9270861" lon="12.4507133"><ele>605.0</ele><time>2026-04-09T15:38:25.208Z</time></trkpt><trkpt lat="43.927035" lon="12.4507648"><ele>609.0</ele><time>2026-04-09T15:38:27.202Z</time></trkpt><trkpt lat="43.9269629" lon="12.4508427"><ele>613.0</ele><time>2026-04-09T15:38:30.199Z</time></trkpt><trkpt lat="43.9268903" lon="12.4509199"><ele>613.0</ele><time>2026-04-09T15:38:33.217Z</time></trkpt><trkpt lat="43.9268131" lon="12.4509838"><ele>613.0</ele><time>2026-04-09T15:38:36.204Z</time></trkpt><trkpt lat="43.9267637" lon="12.4510403"><ele>613.0</ele><time>2026-04-09T15:38:38.182Z</time></trkpt><trkpt lat="43.9266867" lon="12.4511113"><ele>613.0</ele><time>2026-04-09T15:38:41.165Z</time></trkpt><trkpt lat="43.926606" lon="12.4511688"><ele>613.0</ele><time>2026-04-09T15:38:44.195Z</time></trkpt><trkpt lat="43.926546" lon="12.4512017"><ele>613.0</ele><time>2026-04-09T15:38:46.208Z</time></trkpt><trkpt lat="43.9264608" lon="12.4512631"><ele>613.1428571428571</ele><time>2026-04-09T15:38:49.193Z</time></trkpt><trkpt lat="43.9264084" lon="12.4513234"><ele>613.2857142857142</ele><time>2026-04-09T15:38:51.19Z</time></trkpt><trkpt lat="43.9263422" lon="12.4513987"><ele>613.4285714285713</ele><time>2026-04-09T15:38:54.193Z</time></trkpt><trkpt lat="43.9262914" lon="12.451455"><ele>613.5714285714286</ele><time>2026-04-09T15:38:56.175Z</time></trkpt><trkpt lat="43.9262291" lon="12.4515178"><ele>613.7142857142857</ele><time>2026-04-09T15:38:58.164Z</time></trkpt><trkpt lat="43.9261707" lon="12.4515705"><ele>613.8571428571428</ele><time>2026-04-09T15:39:01.227Z</time></trkpt><trkpt lat="43.9261106" lon="12.4516192"><ele>614.0</ele><time>2026-04-09T15:39:04.192Z</time></trkpt><trkpt lat="43.9260342" lon="12.4516928"><ele>614.0</ele><time>2026-04-09T15:39:07.204Z</time></trkpt><trkpt lat="43.9259719" lon="12.4517538"><ele>614.0</ele><time>2026-04-09T15:39:09.184Z</time></trkpt><trkpt lat="43.9259085" lon="12.4518091"><ele>614.0</ele><time>2026-04-09T15:39:11.205Z</time></trkpt><trkpt lat="43.9258503" lon="12.4518656"><ele>614.0</ele><time>2026-04-09T15:39:13.206Z</time></trkpt><trkpt lat="43.9257747" lon="12.4519316"><ele>614.0</ele><time>2026-04-09T15:39:16.191Z</time></trkpt><trkpt lat="43.9257142" lon="12.45199"><ele>614.0</ele><time>2026-04-09T15:39:18.181Z</time></trkpt><trkpt lat="43.9256569" lon="12.4520512"><ele>614.3333333333333</ele><time>2026-04-09T15:39:20.215Z</time></trkpt><trkpt lat="43.92559" lon="12.4521476"><ele>614.6666666666666</ele><time>2026-04-09T15:39:23.2Z</time></trkpt><trkpt lat="43.925513" lon="12.4522213"><ele>615.0</ele><time>2026-04-09T15:39:26.202Z</time></trkpt><trkpt lat="43.9254427" lon="12.4522975"><ele>615.3333333333334</ele><time>2026-04-09T15:39:29.18Z</time></trkpt><trkpt lat="43.9253785" lon="12.4523453"><ele>615.6666666666667</ele><time>2026-04-09T15:39:31.205Z</time></trkpt><trkpt lat="43.9253204" lon="12.452394"><ele>616.0</ele><time>2026-04-09T15:39:33.205Z</time></trkpt><trkpt lat="43.9252418" lon="12.452459"><ele>616.0</ele><time>2026-04-09T15:39:36.197Z</time></trkpt><trkpt lat="43.9251671" lon="12.4525123"><ele>616.0</ele><time>2026-04-09T15:39:39.186Z</time></trkpt><trkpt lat="43.9250958" lon="12.4525855"><ele>616.0</ele><time>2026-04-09T15:39:42.211Z</time></trkpt><trkpt lat="43.9250759" lon="12.452702"><ele>616.0</ele><time>2026-04-09T15:39:45.2Z</time></trkpt><trkpt lat="43.9250769" lon="12.4527949"><ele>616.0</ele><time>2026-04-09T15:39:47.205Z</time></trkpt><trkpt lat="43.9251185" lon="12.4528652"><ele>616.0</ele><time>2026-04-09T15:39:49.197Z</time></trkpt><trkpt lat="43.925186" lon="12.4529122"><ele>616.0</ele><time>2026-04-09T15:39:51.211Z</time></trkpt><trkpt lat="43.9252583" lon="12.4529221"><ele>616.0</ele><time>2026-04-09T15:39:53.202Z</time></trkpt><trkpt lat="43.925344" lon="12.4528888"><ele>616.0</ele><time>2026-04-09T15:39:55.21Z</time></trkpt><trkpt lat="43.925412" lon="12.4528335"><ele>616.0</ele><time>2026-04-09T15:39:57.182Z</time></trkpt><trkpt lat="43.9254866" lon="12.4527725"><ele>616.0</ele><time>2026-04-09T15:39:59.183Z</time></trkpt><trkpt lat="43.9255568" lon="12.4527139"><ele>616.0</ele><time>2026-04-09T15:40:01.185Z</time></trkpt><trkpt lat="43.9256221" lon="12.4526649"><ele>616.0</ele><time>2026-04-09T15:40:03.169Z</time></trkpt><trkpt lat="43.9256804" lon="12.452612"><ele>616.0</ele><time>2026-04-09T15:40:05.214Z</time></trkpt><trkpt lat="43.9257394" lon="12.452561"><ele>616.0</ele><time>2026-04-09T15:40:07.205Z</time></trkpt><trkpt lat="43.9258109" lon="12.4525065"><ele>616.0</ele><time>2026-04-09T15:40:09.177Z</time></trkpt><trkpt lat="43.9258759" lon="12.4524568"><ele>616.0</ele><time>2026-04-09T15:40:11.2Z</time></trkpt><trkpt lat="43.9259373" lon="12.4524092"><ele>616.0</ele><time>2026-04-09T15:40:13.172Z</time></trkpt><trkpt lat="43.9260018" lon="12.4523698"><ele>616.0</ele><time>2026-04-09T15:40:15.197Z</time></trkpt><trkpt lat="43.926071" lon="12.4523381"><ele>615.7142857142857</ele><time>2026-04-09T15:40:17.19Z</time></trkpt><trkpt lat="43.9261372" lon="12.4522843"><ele>615.4285714285714</ele><time>2026-04-09T15:40:19.161Z</time></trkpt><trkpt lat="43.9262001" lon="12.4522375"><ele>615.1428571428571</ele><time>2026-04-09T15:40:21.205Z</time></trkpt><trkpt lat="43.9262658" lon="12.4521904"><ele>614.8571428571429</ele><time>2026-04-09T15:40:23.207Z</time></trkpt><trkpt lat="43.9263303" lon="12.4521541"><ele>614.5714285714286</ele><time>2026-04-09T15:40:25.192Z</time></trkpt><trkpt lat="43.9263926" lon="12.4521239"><ele>614.2857142857142</ele><time>2026-04-09T15:40:27.201Z</time></trkpt><trkpt lat="43.9264508" lon="12.4520762"><ele>614.0</ele><time>2026-04-09T15:40:29.15Z</time></trkpt><trkpt lat="43.9265257" lon="12.452014"><ele>614.0</ele><time>2026-04-09T15:40:31.181Z</time></trkpt><trkpt lat="43.9265917" lon="12.4519663"><ele>614.0</ele><time>2026-04-09T15:40:33.174Z</time></trkpt><trkpt lat="43.926667" lon="12.451913"><ele>614.0</ele><time>2026-04-09T15:40:35.175Z</time></trkpt><trkpt lat="43.9267392" lon="12.4518602"><ele>614.0</ele><time>2026-04-09T15:40:37.188Z</time></trkpt><trkpt lat="43.9268111" lon="12.4518103"><ele>614.0</ele><time>2026-04-09T15:40:39.168Z</time></trkpt><trkpt lat="43.926883" lon="12.4517634"><ele>614.0</ele><time>2026-04-09T15:40:41.181Z</time></trkpt><trkpt lat="43.9269515" lon="12.4517169"><ele>617.7142857142857</ele><time>2026-04-09T15:40:43.206Z</time></trkpt><trkpt lat="43.9270154" lon="12.451673"><ele>621.4285714285714</ele><time>2026-04-09T15:40:45.204Z</time></trkpt><trkpt lat="43.9270832" lon="12.4516343"><ele>625.1428571428571</ele><time>2026-04-09T15:40:47.205Z</time></trkpt><trkpt lat="43.9271463" lon="12.4515832"><ele>628.8571428571429</ele><time>2026-04-09T15:40:49.212Z</time></trkpt><trkpt lat="43.9272098" lon="12.4515319"><ele>632.5714285714286</ele><time>2026-04-09T15:40:51.169Z</time></trkpt><trkpt lat="43.927276" lon="12.4514851"><ele>636.2857142857142</ele><time>2026-04-09T15:40:53.158Z</time></trkpt><trkpt lat="43.9273416" lon="12.451438"><ele>640.0</ele><time>2026-04-09T15:40:55.199Z</time></trkpt><trkpt lat="43.9274037" lon="12.4513794"><ele>640.0</ele><time>2026-04-09T15:40:57.202Z</time></trkpt><trkpt lat="43.9274672" lon="12.451331"><ele>640.0</ele><time>2026-04-09T15:40:59.2Z</time></trkpt><trkpt lat="43.9275435" lon="12.4512698"><ele>640.0</ele><time>2026-04-09T15:41:02.218Z</time></trkpt><trkpt lat="43.9276078" lon="12.4512291"><ele>640.0</ele><time>2026-04-09T15:41:04.211Z</time></trkpt><trkpt lat="43.9276747" lon="12.4511933"><ele>640.0</ele><time>2026-04-09T15:41:06.177Z</time></trkpt><trkpt lat="43.927744" lon="12.4511584"><ele>640.0</ele><time>2026-04-09T15:41:08.207Z</time></trkpt><trkpt lat="43.9278089" lon="12.4511166"><ele>640.0</ele><time>2026-04-09T15:41:10.213Z</time></trkpt><trkpt lat="43.927869" lon="12.451067"><ele>639.4285714285714</ele><time>2026-04-09T15:41:12.204Z</time></trkpt><trkpt lat="43.9279359" lon="12.4510132"><ele>638.8571428571429</ele><time>2026-04-09T15:41:14.218Z</time></trkpt><trkpt lat="43.9280034" lon="12.4509759"><ele>638.2857142857142</ele><time>2026-04-09T15:41:16.197Z</time></trkpt><trkpt lat="43.9280713" lon="12.4509491"><ele>637.7142857142858</ele><time>2026-04-09T15:41:18.174Z</time></trkpt><trkpt lat="43.928142" lon="12.4509196"><ele>637.1428571428572</ele><time>2026-04-09T15:41:20.215Z</time></trkpt><trkpt lat="43.928204" lon="12.450878"><ele>636.5714285714286</ele><time>2026-04-09T15:41:22.22Z</time></trkpt><trkpt lat="43.9282671" lon="12.4508397"><ele>636.0</ele><time>2026-04-09T15:41:24.206Z</time></trkpt><trkpt lat="43.9283341" lon="12.4508124"><ele>638.1428571428571</ele><time>2026-04-09T15:41:26.222Z</time></trkpt><trkpt lat="43.9284015" lon="12.4507786"><ele>640.2857142857143</ele><time>2026-04-09T15:41:28.199Z</time></trkpt><trkpt lat="43.9284722" lon="12.4507492"><ele>642.4285714285714</ele><time>2026-04-09T15:41:30.163Z</time></trkpt><trkpt lat="43.928542" lon="12.4507157"><ele>644.5714285714286</ele><time>2026-04-09T15:41:32.181Z</time></trkpt><trkpt lat="43.9286134" lon="12.4506972"><ele>646.7142857142858</ele><time>2026-04-09T15:41:34.214Z</time></trkpt><trkpt lat="43.9286816" lon="12.4506584"><ele>648.8571428571429</ele><time>2026-04-09T15:41:36.204Z</time></trkpt><trkpt lat="43.9287433" lon="12.4506288"><ele>651.0</ele><time>2026-04-09T15:41:38.231Z</time></trkpt><trkpt lat="43.9288136" lon="12.4505922"><ele>651.0</ele><time>2026-04-09T15:41:40.196Z</time></trkpt><trkpt lat="43.9288898" lon="12.4505701"><ele>651.0</ele><time>2026-04-09T15:41:42.188Z</time></trkpt><trkpt lat="43.9289584" lon="12.4505358"><ele>651.0</ele><time>2026-04-09T15:41:44.2Z</time></trkpt><trkpt lat="43.9290264" lon="12.450521"><ele>651.0</ele><time>2026-04-09T15:41:46.219Z</time></trkpt><trkpt lat="43.929098" lon="12.4504981"><ele>651.0</ele><time>2026-04-09T15:41:48.201Z</time></trkpt><trkpt lat="43.929161" lon="12.4504593"><ele>651.0</ele><time>2026-04-09T15:41:50.213Z</time></trkpt><trkpt lat="43.929237" lon="12.450433"><ele>651.0</ele><time>2026-04-09T15:41:52.169Z</time></trkpt><trkpt lat="43.929314" lon="12.4504029"><ele>649.5714285714286</ele><time>2026-04-09T15:41:54.215Z</time></trkpt><trkpt lat="43.9293863" lon="12.4503729"><ele>648.1428571428571</ele><time>2026-04-09T15:41:56.197Z</time></trkpt><trkpt lat="43.9294548" lon="12.4503391"><ele>646.7142857142858</ele><time>2026-04-09T15:41:58.211Z</time></trkpt><trkpt lat="43.9295243" lon="12.4503101"><ele>645.2857142857142</ele><time>2026-04-09T15:42:00.207Z</time></trkpt><trkpt lat="43.9295848" lon="12.4502719"><ele>643.8571428571429</ele><time>2026-04-09T15:42:02.207Z</time></trkpt><trkpt lat="43.9296574" lon="12.4502503"><ele>642.4285714285714</ele><time>2026-04-09T15:42:04.21Z</time></trkpt><trkpt lat="43.9297203" lon="12.4502179"><ele>641.0</ele><time>2026-04-09T15:42:06.199Z</time></trkpt><trkpt lat="43.9297864" lon="12.4501844"><ele>641.0</ele><time>2026-04-09T15:42:08.211Z</time></trkpt><trkpt lat="43.9298505" lon="12.4501544"><ele>641.0</ele><time>2026-04-09T15:42:10.223Z</time></trkpt><trkpt lat="43.9299156" lon="12.4501241"><ele>641.0</ele><time>2026-04-09T15:42:12.206Z</time></trkpt><trkpt lat="43.929981" lon="12.4500786"><ele>641.0</ele><time>2026-04-09T15:42:14.222Z</time></trkpt><trkpt lat="43.9300497" lon="12.4500306"><ele>641.0</ele><time>2026-04-09T15:42:16.188Z</time></trkpt><trkpt lat="43.9301138" lon="12.4499915"><ele>641.0</ele><time>2026-04-09T15:42:18.203Z</time></trkpt><trkpt lat="43.9301825" lon="12.4499258"><ele>641.0</ele><time>2026-04-09T15:42:20.222Z</time></trkpt><trkpt lat="43.930255" lon="12.4498545"><ele>642.1666666666666</ele><time>2026-04-09T15:42:22.173Z</time></trkpt><trkpt lat="43.9303137" lon="12.4497906"><ele>643.3333333333333</ele><time>2026-04-09T15:42:24.176Z</time></trkpt><trkpt lat="43.9303771" lon="12.4497158"><ele>644.5</ele><time>2026-04-09T15:42:26.191Z</time></trkpt><trkpt lat="43.9304396" lon="12.4496327"><ele>645.6666666666666</ele><time>2026-04-09T15:42:28.172Z</time></trkpt><trkpt lat="43.9305018" lon="12.4495494"><ele>646.8333333333334</ele><time>2026-04-09T15:42:30.192Z</time></trkpt><trkpt lat="43.9305697" lon="12.4494681"><ele>648.0</ele><time>2026-04-09T15:42:32.194Z</time></trkpt><trkpt lat="43.930635" lon="12.4493919"><ele>648.0</ele><time>2026-04-09T15:42:34.177Z</time></trkpt><trkpt lat="43.9306995" lon="12.4493104"><ele>648.0</ele><time>2026-04-09T15:42:36.183Z</time></trkpt><trkpt lat="43.9307745" lon="12.4492353"><ele>648.0</ele><time>2026-04-09T15:42:38.189Z</time></trkpt><trkpt lat="43.9308463" lon="12.4491664"><ele>648.0</ele><time>2026-04-09T15:42:40.189Z</time></trkpt><trkpt lat="43.9309216" lon="12.4491077"><ele>648.0</ele><time>2026-04-09T15:42:42.195Z</time></trkpt><trkpt lat="43.9309931" lon="12.4490463"><ele>648.0</ele><time>2026-04-09T15:42:44.187Z</time></trkpt><trkpt lat="43.9310612" lon="12.448981"><ele>649.3333333333334</ele><time>2026-04-09T15:42:46.195Z</time></trkpt><trkpt lat="43.9311303" lon="12.4489096"><ele>650.6666666666666</ele><time>2026-04-09T15:42:48.159Z</time></trkpt><trkpt lat="43.9311978" lon="12.4488428"><ele>652.0</ele><time>2026-04-09T15:42:50.19Z</time></trkpt><trkpt lat="43.9312775" lon="12.4487811"><ele>653.3333333333333</ele><time>2026-04-09T15:42:52.201Z</time></trkpt><trkpt lat="43.9313498" lon="12.4487313"><ele>654.6666666666666</ele><time>2026-04-09T15:42:54.195Z</time></trkpt><trkpt lat="43.9314316" lon="12.4486979"><ele>656.0</ele><time>2026-04-09T15:42:56.183Z</time></trkpt><trkpt lat="43.9315235" lon="12.4486814"><ele>657.1666666666666</ele><time>2026-04-09T15:42:58.194Z</time></trkpt><trkpt lat="43.9316231" lon="12.4486569"><ele>658.3333333333333</ele><time>2026-04-09T15:43:00.197Z</time></trkpt><trkpt lat="43.9317086" lon="12.4486821"><ele>659.5</ele><time>2026-04-09T15:43:02.187Z</time></trkpt><trkpt lat="43.9317655" lon="12.448748"><ele>660.6666666666666</ele><time>2026-04-09T15:43:04.193Z</time></trkpt><trkpt lat="43.9318238" lon="12.4488192"><ele>661.8333333333334</ele><time>2026-04-09T15:43:06.208Z</time></trkpt><trkpt lat="43.9318935" lon="12.4488635"><ele>663.0</ele><time>2026-04-09T15:43:08.205Z</time></trkpt><trkpt lat="43.9319775" lon="12.4488453"><ele>658.8</ele><time>2026-04-09T15:43:10.202Z</time></trkpt><trkpt lat="43.9320468" lon="12.4487535"><ele>654.5999999999999</ele><time>2026-04-09T15:43:12.189Z</time></trkpt><trkpt lat="43.9321274" lon="12.44868"><ele>650.4000000000001</ele><time>2026-04-09T15:43:14.197Z</time></trkpt><trkpt lat="43.9322266" lon="12.4486247"><ele>646.2</ele><time>2026-04-09T15:43:16.194Z</time></trkpt><trkpt lat="43.9323308" lon="12.4485723"><ele>642.0</ele><time>2026-04-09T15:43:18.196Z</time></trkpt><trkpt lat="43.9324299" lon="12.448547"><ele>642.0</ele><time>2026-04-09T15:43:20.205Z</time></trkpt><trkpt lat="43.9325234" lon="12.4485173"><ele>642.0</ele><time>2026-04-09T15:43:22.195Z</time></trkpt><trkpt lat="43.932625" lon="12.4484904"><ele>642.0</ele><time>2026-04-09T15:43:24.185Z</time></trkpt><trkpt lat="43.9327354" lon="12.4484765"><ele>642.0</ele><time>2026-04-09T15:43:26.206Z</time></trkpt><trkpt lat="43.932851" lon="12.4484687"><ele>642.0</ele><time>2026-04-09T15:43:28.204Z</time></trkpt><trkpt lat="43.9329629" lon="12.4484451"><ele>643.8</ele><time>2026-04-09T15:43:30.206Z</time></trkpt><trkpt lat="43.9330683" lon="12.448419"><ele>645.6</ele><time>2026-04-09T15:43:32.2Z</time></trkpt><trkpt lat="43.9331691" lon="12.4483963"><ele>647.4</ele><time>2026-04-09T15:43:34.22Z</time></trkpt><trkpt lat="43.9332674" lon="12.4483703"><ele>649.1999999999999</ele><time>2026-04-09T15:43:36.201Z</time></trkpt><trkpt lat="43.9333667" lon="12.448343"><ele>651.0</ele><time>2026-04-09T15:43:38.199Z</time></trkpt><trkpt lat="43.9334757" lon="12.448303"><ele>654.8</ele><time>2026-04-09T15:43:40.173Z</time></trkpt><trkpt lat="43.9335727" lon="12.4482542"><ele>658.5999999999999</ele><time>2026-04-09T15:43:42.18Z</time></trkpt><trkpt lat="43.9336712" lon="12.4481969"><ele>662.4</ele><time>2026-04-09T15:43:44.197Z</time></trkpt><trkpt lat="43.933756" lon="12.448126"><ele>666.2</ele><time>2026-04-09T15:43:46.193Z</time></trkpt><trkpt lat="43.9338442" lon="12.4480541"><ele>670.0</ele><time>2026-04-09T15:43:48.182Z</time></trkpt><trkpt lat="43.9339325" lon="12.4479819"><ele>669.2</ele><time>2026-04-09T15:43:50.15Z</time></trkpt><trkpt lat="43.9340212" lon="12.4479098"><ele>668.4</ele><time>2026-04-09T15:43:52.181Z</time></trkpt><trkpt lat="43.9341108" lon="12.4478256"><ele>667.5999999999999</ele><time>2026-04-09T15:43:54.187Z</time></trkpt><trkpt lat="43.9342" lon="12.4477332"><ele>666.8</ele><time>2026-04-09T15:43:56.201Z</time></trkpt><trkpt lat="43.9342869" lon="12.4476611"><ele>666.0</ele><time>2026-04-09T15:43:58.175Z</time></trkpt><trkpt lat="43.9343714" lon="12.4475792"><ele>666.0</ele><time>2026-04-09T15:44:00.197Z</time></trkpt><trkpt lat="43.9344557" lon="12.4474985"><ele>666.0</ele><time>2026-04-09T15:44:02.184Z</time></trkpt><trkpt lat="43.9345373" lon="12.4474198"><ele>666.0</ele><time>2026-04-09T15:44:04.203Z</time></trkpt><trkpt lat="43.9346298" lon="12.4473436"><ele>666.0</ele><time>2026-04-09T15:44:06.204Z</time></trkpt><trkpt lat="43.9347276" lon="12.4472637"><ele>666.0</ele><time>2026-04-09T15:44:08.206Z</time></trkpt><trkpt lat="43.934823" lon="12.447196"><ele>665.8</ele><time>2026-04-09T15:44:10.203Z</time></trkpt><trkpt lat="43.9349098" lon="12.4471259"><ele>665.5999999999999</ele><time>2026-04-09T15:44:12.193Z</time></trkpt><trkpt lat="43.9349923" lon="12.4470434"><ele>665.4</ele><time>2026-04-09T15:44:14.191Z</time></trkpt><trkpt lat="43.9350743" lon="12.4469682"><ele>665.2</ele><time>2026-04-09T15:44:16.176Z</time></trkpt><trkpt lat="43.9351475" lon="12.4469027"><ele>665.0</ele><time>2026-04-09T15:44:18.203Z</time></trkpt><trkpt lat="43.935213" lon="12.4468374"><ele>665.0</ele><time>2026-04-09T15:44:20.205Z</time></trkpt><trkpt lat="43.9352784" lon="12.4467959"><ele>665.0</ele><time>2026-04-09T15:44:22.156Z</time></trkpt><trkpt lat="43.9353434" lon="12.4467438"><ele>665.0</ele><time>2026-04-09T15:44:24.174Z</time></trkpt><trkpt lat="43.9354207" lon="12.4466676"><ele>665.0</ele><time>2026-04-09T15:44:26.144Z</time></trkpt><trkpt lat="43.9354867" lon="12.446609"><ele>665.0</ele><time>2026-04-09T15:44:28.264Z</time></trkpt><trkpt lat="43.9355397" lon="12.4465479"><ele>665.0</ele><time>2026-04-09T15:44:30.177Z</time></trkpt><trkpt lat="43.9355791" lon="12.446469"><ele>665.0</ele><time>2026-04-09T15:45:17.167Z</time></trkpt><trkpt lat="43.9356404" lon="12.4463981"><ele>665.0</ele><time>2026-04-09T15:45:20.183Z</time></trkpt><trkpt lat="43.9357151" lon="12.4463232"><ele>665.0</ele><time>2026-04-09T15:45:22.206Z</time></trkpt><trkpt lat="43.935822" lon="12.446219"><ele>665.0</ele><time>2026-04-09T15:45:24.15Z</time></trkpt><trkpt lat="43.9358752" lon="12.4461609"><ele>665.0</ele><time>2026-04-09T15:45:25.192Z</time></trkpt><trkpt lat="43.9359383" lon="12.4461041"><ele>665.0</ele><time>2026-04-09T15:45:26.194Z</time></trkpt><trkpt lat="43.9360015" lon="12.4460298"><ele>663.8</ele><time>2026-04-09T15:45:27.207Z</time></trkpt><trkpt lat="43.9360606" lon="12.4459553"><ele>662.6</ele><time>2026-04-09T15:45:28.196Z</time></trkpt><trkpt lat="43.9361374" lon="12.4458919"><ele>661.4000000000001</ele><time>2026-04-09T15:45:29.205Z</time></trkpt><trkpt lat="43.9362119" lon="12.4458203"><ele>660.2</ele><time>2026-04-09T15:45:30.201Z</time></trkpt><trkpt lat="43.9362879" lon="12.4457442"><ele>659.0</ele><time>2026-04-09T15:45:31.187Z</time></trkpt><trkpt lat="43.9363649" lon="12.4456626"><ele>659.0</ele><time>2026-04-09T15:45:32.185Z</time></trkpt><trkpt lat="43.9364446" lon="12.4455694"><ele>659.0</ele><time>2026-04-09T15:45:33.187Z</time></trkpt><trkpt lat="43.9365258" lon="12.4454709"><ele>659.0</ele><time>2026-04-09T15:45:34.187Z</time></trkpt><trkpt lat="43.9366036" lon="12.4453807"><ele>659.0</ele><time>2026-04-09T15:45:35.194Z</time></trkpt><trkpt lat="43.9366934" lon="12.4452901"><ele>659.0</ele><time>2026-04-09T15:45:36.206Z</time></trkpt><trkpt lat="43.9367881" lon="12.4452052"><ele>657.25</ele><time>2026-04-09T15:45:37.185Z</time></trkpt><trkpt lat="43.9368768" lon="12.4451091"><ele>655.5</ele><time>2026-04-09T15:45:38.182Z</time></trkpt><trkpt lat="43.9369708" lon="12.445017"><ele>653.75</ele><time>2026-04-09T15:45:39.205Z</time></trkpt><trkpt lat="43.9370692" lon="12.4449178"><ele>652.0</ele><time>2026-04-09T15:45:40.216Z</time></trkpt><trkpt lat="43.9371657" lon="12.4448157"><ele>652.0</ele><time>2026-04-09T15:45:41.212Z</time></trkpt><trkpt lat="43.9372551" lon="12.4447187"><ele>652.0</ele><time>2026-04-09T15:45:42.191Z</time></trkpt><trkpt lat="43.9373447" lon="12.4446242"><ele>652.0</ele><time>2026-04-09T15:45:43.19Z</time></trkpt><trkpt lat="43.9374255" lon="12.4445265"><ele>652.0</ele><time>2026-04-09T15:45:44.191Z</time></trkpt><trkpt lat="43.9375107" lon="12.444421"><ele>652.0</ele><time>2026-04-09T15:45:45.189Z</time></trkpt><trkpt lat="43.9375932" lon="12.4443303"><ele>648.0</ele><time>2026-04-09T15:45:46.2Z</time></trkpt><trkpt lat="43.9376747" lon="12.4442526"><ele>644.0</ele><time>2026-04-09T15:45:47.204Z</time></trkpt><trkpt lat="43.9377428" lon="12.4441834"><ele>640.0</ele><time>2026-04-09T15:45:48.191Z</time></trkpt><trkpt lat="43.9377486" lon="12.4440418"><ele>636.0</ele><time>2026-04-09T15:45:50.159Z</time></trkpt><trkpt lat="43.9376565" lon="12.4439745"><ele>632.0</ele><time>2026-04-09T15:45:51.172Z</time></trkpt><trkpt lat="43.9375552" lon="12.443969"><ele>630.8000000000001</ele><time>2026-04-09T15:45:52.198Z</time></trkpt><trkpt lat="43.9374712" lon="12.4440271"><ele>629.6</ele><time>2026-04-09T15:45:53.183Z</time></trkpt><trkpt lat="43.9374033" lon="12.4441096"><ele>628.4000000000001</ele><time>2026-04-09T15:45:54.209Z</time></trkpt><trkpt lat="43.9373281" lon="12.4441793"><ele>627.2</ele><time>2026-04-09T15:45:55.208Z</time></trkpt><trkpt lat="43.937251" lon="12.4442487"><ele>626.0</ele><time>2026-04-09T15:45:56.191Z</time></trkpt><trkpt lat="43.937166" lon="12.4443018"><ele>626.0</ele><time>2026-04-09T15:45:57.213Z</time></trkpt><trkpt lat="43.9370813" lon="12.4443728"><ele>626.0</ele><time>2026-04-09T15:45:58.201Z</time></trkpt><trkpt lat="43.9369849" lon="12.4444451"><ele>626.0</ele><time>2026-04-09T15:45:59.207Z</time></trkpt><trkpt lat="43.9368857" lon="12.4445053"><ele>626.0</ele><time>2026-04-09T15:46:00.162Z</time></trkpt><trkpt lat="43.936797" lon="12.4445753"><ele>626.0</ele><time>2026-04-09T15:46:01.201Z</time></trkpt><trkpt lat="43.9367027" lon="12.4446434"><ele>628.0</ele><time>2026-04-09T15:46:02.212Z</time></trkpt><trkpt lat="43.9365972" lon="12.4447071"><ele>630.0</ele><time>2026-04-09T15:46:03.179Z</time></trkpt><trkpt lat="43.936498" lon="12.4447683"><ele>632.0</ele><time>2026-04-09T15:46:04.205Z</time></trkpt><trkpt lat="43.9363929" lon="12.4448281"><ele>634.0</ele><time>2026-04-09T15:46:05.197Z</time></trkpt><trkpt lat="43.9362966" lon="12.444889"><ele>636.0</ele><time>2026-04-09T15:46:06.211Z</time></trkpt><trkpt lat="43.9361971" lon="12.4449485"><ele>636.0</ele><time>2026-04-09T15:46:07.196Z</time></trkpt><trkpt lat="43.9361023" lon="12.4450301"><ele>636.0</ele><time>2026-04-09T15:46:08.213Z</time></trkpt><trkpt lat="43.9360077" lon="12.4451176"><ele>636.0</ele><time>2026-04-09T15:46:09.156Z</time></trkpt><trkpt lat="43.9359182" lon="12.4451943"><ele>636.0</ele><time>2026-04-09T15:46:10.186Z</time></trkpt><trkpt lat="43.9358361" lon="12.4452663"><ele>636.0</ele><time>2026-04-09T15:46:11.198Z</time></trkpt><trkpt lat="43.9357684" lon="12.4453446"><ele>636.3333333333334</ele><time>2026-04-09T15:46:12.154Z</time></trkpt><trkpt lat="43.9357003" lon="12.4454358"><ele>636.6666666666666</ele><time>2026-04-09T15:46:13.146Z</time></trkpt><trkpt lat="43.9356373" lon="12.4455251"><ele>637.0</ele><time>2026-04-09T15:46:14.172Z</time></trkpt><trkpt lat="43.9355729" lon="12.4456013"><ele>637.3333333333333</ele><time>2026-04-09T15:46:15.202Z</time></trkpt><trkpt lat="43.9355079" lon="12.4456304"><ele>637.6666666666666</ele><time>2026-04-09T15:46:16.203Z</time></trkpt><trkpt lat="43.9354276" lon="12.4455996"><ele>638.0</ele><time>2026-04-09T15:46:17.191Z</time></trkpt><trkpt lat="43.9353551" lon="12.4455549"><ele>633.4</ele><time>2026-04-09T15:46:18.2Z</time></trkpt><trkpt lat="43.9353504" lon="12.4453958"><ele>628.8</ele><time>2026-04-09T15:46:20.216Z</time></trkpt><trkpt lat="43.935417" lon="12.4453243"><ele>624.2</ele><time>2026-04-09T15:46:21.183Z</time></trkpt><trkpt lat="43.9354882" lon="12.4452613"><ele>619.6</ele><time>2026-04-09T15:46:22.179Z</time></trkpt><trkpt lat="43.9355662" lon="12.4451944"><ele>615.0</ele><time>2026-04-09T15:46:23.149Z</time></trkpt><trkpt lat="43.9356314" lon="12.4451342"><ele>615.0</ele><time>2026-04-09T15:46:24.185Z</time></trkpt><trkpt lat="43.9356961" lon="12.4450773"><ele>615.0</ele><time>2026-04-09T15:46:25.192Z</time></trkpt><trkpt lat="43.9357561" lon="12.4450205"><ele>615.0</ele><time>2026-04-09T15:46:26.171Z</time></trkpt><trkpt lat="43.93582" lon="12.4449597"><ele>615.0</ele><time>2026-04-09T15:46:27.191Z</time></trkpt><trkpt lat="43.9358912" lon="12.4448928"><ele>615.0</ele><time>2026-04-09T15:46:28.171Z</time></trkpt><trkpt lat="43.9359759" lon="12.4448285"><ele>615.0</ele><time>2026-04-09T15:46:29.15Z</time></trkpt><trkpt lat="43.9360634" lon="12.4447463"><ele>613.25</ele><time>2026-04-09T15:46:30.14Z</time></trkpt><trkpt lat="43.9361548" lon="12.4446555"><ele>611.5</ele><time>2026-04-09T15:46:31.183Z</time></trkpt><trkpt lat="43.9362464" lon="12.4445499"><ele>609.75</ele><time>2026-04-09T15:46:32.191Z</time></trkpt><trkpt lat="43.9363398" lon="12.4444537"><ele>608.0</ele><time>2026-04-09T15:46:33.17Z</time></trkpt><trkpt lat="43.9364358" lon="12.4443464"><ele>608.0</ele><time>2026-04-09T15:46:34.2Z</time></trkpt><trkpt lat="43.9365321" lon="12.4442355"><ele>608.0</ele><time>2026-04-09T15:46:35.196Z</time></trkpt><trkpt lat="43.9366262" lon="12.4441221"><ele>608.0</ele><time>2026-04-09T15:46:36.202Z</time></trkpt><trkpt lat="43.936715" lon="12.4440043"><ele>608.0</ele><time>2026-04-09T15:46:37.207Z</time></trkpt><trkpt lat="43.9368101" lon="12.4438849"><ele>606.25</ele><time>2026-04-09T15:46:38.211Z</time></trkpt><trkpt lat="43.9368995" lon="12.4437623"><ele>604.5</ele><time>2026-04-09T15:46:39.158Z</time></trkpt><trkpt lat="43.9369909" lon="12.443637"><ele>602.75</ele><time>2026-04-09T15:46:40.202Z</time></trkpt><trkpt lat="43.9370803" lon="12.4435077"><ele>601.0</ele><time>2026-04-09T15:46:41.191Z</time></trkpt><trkpt lat="43.9371657" lon="12.443387"><ele>601.0</ele><time>2026-04-09T15:46:42.166Z</time></trkpt><trkpt lat="43.9372522" lon="12.4432565"><ele>601.0</ele><time>2026-04-09T15:46:43.196Z</time></trkpt><trkpt lat="43.9373374" lon="12.4431205"><ele>601.0</ele><time>2026-04-09T15:46:44.19Z</time></trkpt><trkpt lat="43.9374283" lon="12.4429976"><ele>601.0</ele><time>2026-04-09T15:46:45.202Z</time></trkpt><trkpt lat="43.9375315" lon="12.4428956"><ele>597.5</ele><time>2026-04-09T15:46:46.189Z</time></trkpt><trkpt lat="43.9376426" lon="12.4428137"><ele>594.0</ele><time>2026-04-09T15:46:47.19Z</time></trkpt><trkpt lat="43.9377548" lon="12.4427429"><ele>590.5</ele><time>2026-04-09T15:46:48.211Z</time></trkpt><trkpt lat="43.9378679" lon="12.4426626"><ele>587.0</ele><time>2026-04-09T15:46:49.21Z</time></trkpt><trkpt lat="43.9379844" lon="12.4425928"><ele>587.0</ele><time>2026-04-09T15:46:50.192Z</time></trkpt><trkpt lat="43.9380994" lon="12.4425107"><ele>587.0</ele><time>2026-04-09T15:46:51.186Z</time></trkpt><trkpt lat="43.938209" lon="12.4424384"><ele>587.0</ele><time>2026-04-09T15:46:52.193Z</time></trkpt><trkpt lat="43.9383155" lon="12.4423676"><ele>587.0</ele><time>2026-04-09T15:46:53.2Z</time></trkpt><trkpt lat="43.9384182" lon="12.4423016"><ele>586.4</ele><time>2026-04-09T15:46:54.208Z</time></trkpt><trkpt lat="43.938517" lon="12.4422519"><ele>585.8000000000001</ele><time>2026-04-09T15:46:55.212Z</time></trkpt><trkpt lat="43.938608" lon="12.44219"><ele>585.2</ele><time>2026-04-09T15:46:56.215Z</time></trkpt><trkpt lat="43.938691" lon="12.4421313"><ele>584.6</ele><time>2026-04-09T15:46:57.206Z</time></trkpt><trkpt lat="43.9387733" lon="12.4420971"><ele>584.0</ele><time>2026-04-09T15:46:58.202Z</time></trkpt><trkpt lat="43.9388485" lon="12.4420968"><ele>584.0</ele><time>2026-04-09T15:46:59.183Z</time></trkpt><trkpt lat="43.9389178" lon="12.4421092"><ele>584.0</ele><time>2026-04-09T15:47:00.216Z</time></trkpt><trkpt lat="43.9389783" lon="12.4421347"><ele>584.0</ele><time>2026-04-09T15:47:01.198Z</time></trkpt><trkpt lat="43.9390506" lon="12.4421578"><ele>584.0</ele><time>2026-04-09T15:47:03.24Z</time></trkpt><trkpt lat="43.9390804" lon="12.442002"><ele>584.0</ele><time>2026-04-09T15:47:05.183Z</time></trkpt><trkpt lat="43.9390622" lon="12.4419154"><ele>584.0</ele><time>2026-04-09T15:47:06.2Z</time></trkpt><trkpt lat="43.9390258" lon="12.4418356"><ele>577.0</ele><time>2026-04-09T15:47:07.222Z</time></trkpt><trkpt lat="43.9389144" lon="12.4417679"><ele>570.0</ele><time>2026-04-09T15:47:09.199Z</time></trkpt><trkpt lat="43.9388389" lon="12.4417719"><ele>563.0</ele><time>2026-04-09T15:47:10.172Z</time></trkpt><trkpt lat="43.9387626" lon="12.4417966"><ele>556.0</ele><time>2026-04-09T15:47:11.147Z</time></trkpt><trkpt lat="43.9386776" lon="12.441819"><ele>549.0</ele><time>2026-04-09T15:47:12.193Z</time></trkpt><trkpt lat="43.938586" lon="12.441832"><ele>549.0</ele><time>2026-04-09T15:47:13.175Z</time></trkpt><trkpt lat="43.9384937" lon="12.4418504"><ele>549.0</ele><time>2026-04-09T15:47:14.166Z</time></trkpt><trkpt lat="43.9383927" lon="12.4418717"><ele>549.0</ele><time>2026-04-09T15:47:15.158Z</time></trkpt><trkpt lat="43.9382882" lon="12.4418946"><ele>549.0</ele><time>2026-04-09T15:47:16.171Z</time></trkpt><trkpt lat="43.9381873" lon="12.4419185"><ele>549.0</ele><time>2026-04-09T15:47:17.162Z</time></trkpt><trkpt lat="43.9380801" lon="12.4419492"><ele>549.0</ele><time>2026-04-09T15:47:18.154Z</time></trkpt><trkpt lat="43.9379692" lon="12.4419718"><ele>549.0</ele><time>2026-04-09T15:47:19.167Z</time></trkpt><trkpt lat="43.9378636" lon="12.441997"><ele>549.0</ele><time>2026-04-09T15:47:20.177Z</time></trkpt><trkpt lat="43.9377513" lon="12.4420273"><ele>549.0</ele><time>2026-04-09T15:47:21.152Z</time></trkpt><trkpt lat="43.9376454" lon="12.4420774"><ele>549.0</ele><time>2026-04-09T15:47:22.176Z</time></trkpt><trkpt lat="43.9375423" lon="12.4421241"><ele>553.8</ele><time>2026-04-09T15:47:23.205Z</time></trkpt><trkpt lat="43.9374352" lon="12.4421796"><ele>558.5999999999999</ele><time>2026-04-09T15:47:24.201Z</time></trkpt><trkpt lat="43.937334" lon="12.4422286"><ele>563.4</ele><time>2026-04-09T15:47:25.214Z</time></trkpt><trkpt lat="43.9372415" lon="12.4422628"><ele>568.1999999999999</ele><time>2026-04-09T15:47:26.197Z</time></trkpt><trkpt lat="43.9371567" lon="12.4422963"><ele>573.0</ele><time>2026-04-09T15:47:27.185Z</time></trkpt><trkpt lat="43.9370826" lon="12.4423074"><ele>573.0</ele><time>2026-04-09T15:47:28.175Z</time></trkpt><trkpt lat="43.93705" lon="12.4422135"><ele>573.0</ele><time>2026-04-09T15:47:30.192Z</time></trkpt><trkpt lat="43.9370854" lon="12.4421387"><ele>573.0</ele><time>2026-04-09T15:47:31.183Z</time></trkpt><trkpt lat="43.9371484" lon="12.4420903"><ele>573.0</ele><time>2026-04-09T15:47:32.191Z</time></trkpt><trkpt lat="43.9372179" lon="12.4420494"><ele>573.0</ele><time>2026-04-09T15:47:33.198Z</time></trkpt><trkpt lat="43.9372839" lon="12.4420063"><ele>573.0</ele><time>2026-04-09T15:47:34.202Z</time></trkpt><trkpt lat="43.9373522" lon="12.4419458"><ele>573.0</ele><time>2026-04-09T15:47:35.208Z</time></trkpt><trkpt lat="43.937422" lon="12.4418739"><ele>570.0</ele><time>2026-04-09T15:47:36.194Z</time></trkpt><trkpt lat="43.9374892" lon="12.4417862"><ele>567.0</ele><time>2026-04-09T15:47:37.19Z</time></trkpt><trkpt lat="43.9375557" lon="12.4416823"><ele>564.0</ele><time>2026-04-09T15:47:38.208Z</time></trkpt><trkpt lat="43.9376067" lon="12.4415558"><ele>561.0</ele><time>2026-04-09T15:47:39.156Z</time></trkpt><trkpt lat="43.937668" lon="12.4414393"><ele>558.0</ele><time>2026-04-09T15:47:40.193Z</time></trkpt><trkpt lat="43.9377286" lon="12.4413233"><ele>556.0</ele><time>2026-04-09T15:47:41.211Z</time></trkpt><trkpt lat="43.9377904" lon="12.4411986"><ele>554.0</ele><time>2026-04-09T15:47:42.186Z</time></trkpt><trkpt lat="43.9378431" lon="12.4410725"><ele>552.0</ele><time>2026-04-09T15:47:43.159Z</time></trkpt><trkpt lat="43.9379077" lon="12.4409414"><ele>550.0</ele><time>2026-04-09T15:47:44.183Z</time></trkpt><trkpt lat="43.9379692" lon="12.4408135"><ele>548.0</ele><time>2026-04-09T15:47:45.185Z</time></trkpt><trkpt lat="43.9380285" lon="12.4406905"><ele>548.0</ele><time>2026-04-09T15:47:46.198Z</time></trkpt><trkpt lat="43.9380859" lon="12.4405782"><ele>548.0</ele><time>2026-04-09T15:47:47.194Z</time></trkpt><trkpt lat="43.9381249" lon="12.4404784"><ele>548.0</ele><time>2026-04-09T15:47:48.177Z</time></trkpt><trkpt lat="43.9381264" lon="12.4403626"><ele>548.0</ele><time>2026-04-09T15:47:49.14Z</time></trkpt><trkpt lat="43.938068" lon="12.4402587"><ele>548.0</ele><time>2026-04-09T15:47:50.132Z</time></trkpt><trkpt lat="43.9379882" lon="12.4402061"><ele>548.0</ele><time>2026-04-09T15:47:51.155Z</time></trkpt><trkpt lat="43.9378876" lon="12.4401977"><ele>545.0</ele><time>2026-04-09T15:47:52.142Z</time></trkpt><trkpt lat="43.9378013" lon="12.4402201"><ele>542.0</ele><time>2026-04-09T15:47:53.144Z</time></trkpt><trkpt lat="43.9377167" lon="12.4402716"><ele>539.0</ele><time>2026-04-09T15:47:54.149Z</time></trkpt><trkpt lat="43.9376291" lon="12.4403261"><ele>536.0</ele><time>2026-04-09T15:47:55.15Z</time></trkpt><trkpt lat="43.9375404" lon="12.4403696"><ele>533.0</ele><time>2026-04-09T15:47:56.184Z</time></trkpt><trkpt lat="43.9374515" lon="12.4404193"><ele>534.8</ele><time>2026-04-09T15:47:57.198Z</time></trkpt><trkpt lat="43.9373588" lon="12.4404785"><ele>536.5999999999999</ele><time>2026-04-09T15:47:58.159Z</time></trkpt><trkpt lat="43.9372585" lon="12.4405369"><ele>538.4000000000001</ele><time>2026-04-09T15:47:59.201Z</time></trkpt><trkpt lat="43.9371572" lon="12.4405882"><ele>540.2</ele><time>2026-04-09T15:48:00.188Z</time></trkpt><trkpt lat="43.9370463" lon="12.4406291"><ele>542.0</ele><time>2026-04-09T15:48:01.2Z</time></trkpt><trkpt lat="43.9369392" lon="12.4406682"><ele>542.0</ele><time>2026-04-09T15:48:02.168Z</time></trkpt><trkpt lat="43.9368335" lon="12.4407057"><ele>542.0</ele><time>2026-04-09T15:48:03.181Z</time></trkpt><trkpt lat="43.936724" lon="12.44073"><ele>542.0</ele><time>2026-04-09T15:48:04.176Z</time></trkpt><trkpt lat="43.9366029" lon="12.4407521"><ele>542.0</ele><time>2026-04-09T15:48:05.199Z</time></trkpt><trkpt lat="43.9364712" lon="12.4407606"><ele>538.5</ele><time>2026-04-09T15:48:06.184Z</time></trkpt><trkpt lat="43.9363463" lon="12.4407807"><ele>535.0</ele><time>2026-04-09T15:48:07.196Z</time></trkpt><trkpt lat="43.9362269" lon="12.4407819"><ele>531.5</ele><time>2026-04-09T15:48:08.183Z</time></trkpt><trkpt lat="43.9361113" lon="12.4407907"><ele>528.0</ele><time>2026-04-09T15:48:09.205Z</time></trkpt><trkpt lat="43.9360035" lon="12.4407959"><ele>528.0</ele><time>2026-04-09T15:48:10.202Z</time></trkpt><trkpt lat="43.9359073" lon="12.4408247"><ele>528.0</ele><time>2026-04-09T15:48:11.194Z</time></trkpt><trkpt lat="43.9358392" lon="12.4408697"><ele>528.0</ele><time>2026-04-09T15:48:12.201Z</time></trkpt><trkpt lat="43.93577" lon="12.4408503"><ele>528.0</ele><time>2026-04-09T15:48:15.188Z</time></trkpt><trkpt lat="43.9357235" lon="12.4407584"><ele>528.0</ele><time>2026-04-09T15:48:17.205Z</time></trkpt><trkpt lat="43.9356308" lon="12.4406908"><ele>528.0</ele><time>2026-04-09T15:48:19.185Z</time></trkpt><trkpt lat="43.9355698" lon="12.4406314"><ele>525.5</ele><time>2026-04-09T15:48:20.195Z</time></trkpt><trkpt lat="43.9355087" lon="12.4405571"><ele>523.0</ele><time>2026-04-09T15:48:21.202Z</time></trkpt><trkpt lat="43.9353996" lon="12.4404747"><ele>520.5</ele><time>2026-04-09T15:48:23.156Z</time></trkpt><trkpt lat="43.9352779" lon="12.4403879"><ele>518.0</ele><time>2026-04-09T15:48:25.167Z</time></trkpt><trkpt lat="43.9351717" lon="12.4403173"><ele>516.8333333333333</ele><time>2026-04-09T15:48:27.139Z</time></trkpt><trkpt lat="43.9351152" lon="12.4402686"><ele>515.6666666666666</ele><time>2026-04-09T15:48:28.193Z</time></trkpt><trkpt lat="43.9350445" lon="12.440217"><ele>514.5</ele><time>2026-04-09T15:48:29.193Z</time></trkpt><trkpt lat="43.9349887" lon="12.4401666"><ele>513.3333333333334</ele><time>2026-04-09T15:48:30.197Z</time></trkpt><trkpt lat="43.9349193" lon="12.4400827"><ele>512.1666666666667</ele><time>2026-04-09T15:48:32.197Z</time></trkpt><trkpt lat="43.9348434" lon="12.4400369"><ele>511.0</ele><time>2026-04-09T15:48:35.195Z</time></trkpt><trkpt lat="43.9347636" lon="12.4400084"><ele>510.0</ele><time>2026-04-09T15:48:42.177Z</time></trkpt><trkpt lat="43.9346904" lon="12.4399689"><ele>509.0</ele><time>2026-04-09T15:48:45.192Z</time></trkpt><trkpt lat="43.9345981" lon="12.4399291"><ele>508.0</ele><time>2026-04-09T15:48:47.185Z</time></trkpt><trkpt lat="43.9344729" lon="12.4398611"><ele>507.0</ele><time>2026-04-09T15:48:49.171Z</time></trkpt><trkpt lat="43.9343983" lon="12.4398072"><ele>506.0</ele><time>2026-04-09T15:48:50.166Z</time></trkpt><trkpt lat="43.9343248" lon="12.4397449"><ele>505.99999999999994</ele><time>2026-04-09T15:48:51.178Z</time></trkpt><trkpt lat="43.9342534" lon="12.4396927"><ele>506.0</ele><time>2026-04-09T15:48:52.193Z</time></trkpt><trkpt lat="43.9341788" lon="12.4396394"><ele>506.0</ele><time>2026-04-09T15:48:53.19Z</time></trkpt><trkpt lat="43.9340983" lon="12.4395944"><ele>506.0</ele><time>2026-04-09T15:48:54.196Z</time></trkpt><trkpt lat="43.9340164" lon="12.4395552"><ele>505.99999999999994</ele><time>2026-04-09T15:48:55.188Z</time></trkpt><trkpt lat="43.9339431" lon="12.4395082"><ele>506.0</ele><time>2026-04-09T15:48:56.172Z</time></trkpt><trkpt lat="43.9338655" lon="12.439463"><ele>502.16666666666663</ele><time>2026-04-09T15:48:57.208Z</time></trkpt><trkpt lat="43.9337839" lon="12.4394401"><ele>498.3333333333333</ele><time>2026-04-09T15:48:58.193Z</time></trkpt><trkpt lat="43.9337036" lon="12.4394218"><ele>494.5</ele><time>2026-04-09T15:48:59.208Z</time></trkpt><trkpt lat="43.9336324" lon="12.4394066"><ele>490.66666666666663</ele><time>2026-04-09T15:49:00.194Z</time></trkpt><trkpt lat="43.9335661" lon="12.4393931"><ele>486.8333333333333</ele><time>2026-04-09T15:49:01.202Z</time></trkpt><trkpt lat="43.9334999" lon="12.4393654"><ele>483.0</ele><time>2026-04-09T15:49:03.196Z</time></trkpt><trkpt lat="43.9335241" lon="12.4392182"><ele>483.0</ele><time>2026-04-09T15:49:06.196Z</time></trkpt><trkpt lat="43.9335909" lon="12.4390818"><ele>482.99999999999994</ele><time>2026-04-09T15:49:08.157Z</time></trkpt><trkpt lat="43.9336075" lon="12.4389824"><ele>482.99999999999994</ele><time>2026-04-09T15:49:09.156Z</time></trkpt><trkpt lat="43.9336205" lon="12.4388643"><ele>483.0</ele><time>2026-04-09T15:49:10.161Z</time></trkpt><trkpt lat="43.9336438" lon="12.4387365"><ele>483.0</ele><time>2026-04-09T15:49:11.214Z</time></trkpt><trkpt lat="43.933667" lon="12.4385983"><ele>480.79999999999995</ele><time>2026-04-09T15:49:12.208Z</time></trkpt><trkpt lat="43.933686" lon="12.4384584"><ele>478.59999999999997</ele><time>2026-04-09T15:49:13.193Z</time></trkpt><trkpt lat="43.9337067" lon="12.4383209"><ele>476.40000000000003</ele><time>2026-04-09T15:49:14.203Z</time></trkpt><trkpt lat="43.9337297" lon="12.4381872"><ele>474.20000000000005</ele><time>2026-04-09T15:49:15.2Z</time></trkpt><trkpt lat="43.9337588" lon="12.4380666"><ele>472.0</ele><time>2026-04-09T15:49:16.201Z</time></trkpt><trkpt lat="43.9337937" lon="12.4379652"><ele>470.83333333333337</ele><time>2026-04-09T15:49:17.195Z</time></trkpt><trkpt lat="43.9338435" lon="12.4378878"><ele>469.6666666666667</ele><time>2026-04-09T15:49:18.183Z</time></trkpt><trkpt lat="43.9338983" lon="12.4378288"><ele>468.5</ele><time>2026-04-09T15:49:19.174Z</time></trkpt><trkpt lat="43.9339536" lon="12.4377785"><ele>467.33333333333337</ele><time>2026-04-09T15:49:20.187Z</time></trkpt><trkpt lat="43.9340458" lon="12.4376804"><ele>466.1666666666667</ele><time>2026-04-09T15:49:22.202Z</time></trkpt><trkpt lat="43.9341088" lon="12.437591"><ele>465.0</ele><time>2026-04-09T15:49:24.168Z</time></trkpt><trkpt lat="43.9341771" lon="12.437502"><ele>465.8</ele><time>2026-04-09T15:49:26.159Z</time></trkpt><trkpt lat="43.934255" lon="12.43742"><ele>466.6</ele><time>2026-04-09T15:49:28.204Z</time></trkpt><trkpt lat="43.9343366" lon="12.4373164"><ele>467.4</ele><time>2026-04-09T15:49:30.17Z</time></trkpt><trkpt lat="43.9343991" lon="12.4371869"><ele>468.2</ele><time>2026-04-09T15:49:32.189Z</time></trkpt><trkpt lat="43.9344178" lon="12.4371025"><ele>469.0</ele><time>2026-04-09T15:49:33.193Z</time></trkpt><trkpt lat="43.9344433" lon="12.4369323"><ele>469.00000000000006</ele><time>2026-04-09T15:49:35.214Z</time></trkpt><trkpt lat="43.9344522" lon="12.4368441"><ele>469.0</ele><time>2026-04-09T15:49:36.185Z</time></trkpt><trkpt lat="43.93445" lon="12.4367518"><ele>469.0</ele><time>2026-04-09T15:49:37.186Z</time></trkpt><trkpt lat="43.9344325" lon="12.4365923"><ele>469.0</ele><time>2026-04-09T15:49:39.179Z</time></trkpt><trkpt lat="43.9344466" lon="12.436477"><ele>469.00000000000006</ele><time>2026-04-09T15:49:42.185Z</time></trkpt><trkpt lat="43.9344486" lon="12.436387"><ele>469.0</ele><time>2026-04-09T15:49:47.212Z</time></trkpt><trkpt lat="43.9345382" lon="12.4362725"><ele>466.42857142857144</ele><time>2026-04-09T15:49:50.199Z</time></trkpt><trkpt lat="43.9345779" lon="12.4361973"><ele>463.8571428571429</ele><time>2026-04-09T15:49:51.216Z</time></trkpt><trkpt lat="43.934628" lon="12.4361195"><ele>461.2857142857143</ele><time>2026-04-09T15:49:52.198Z</time></trkpt><trkpt lat="43.934685" lon="12.4360567"><ele>458.7142857142857</ele><time>2026-04-09T15:49:53.164Z</time></trkpt><trkpt lat="43.9347415" lon="12.4360033"><ele>456.14285714285717</ele><time>2026-04-09T15:49:54.189Z</time></trkpt><trkpt lat="43.9348138" lon="12.4359671"><ele>453.57142857142856</ele><time>2026-04-09T15:49:55.201Z</time></trkpt><trkpt lat="43.9348909" lon="12.4359389"><ele>451.0</ele><time>2026-04-09T15:49:56.209Z</time></trkpt><trkpt lat="43.9349658" lon="12.4359004"><ele>451.6</ele><time>2026-04-09T15:49:57.2Z</time></trkpt><trkpt lat="43.9350547" lon="12.4358674"><ele>452.20000000000005</ele><time>2026-04-09T15:49:58.194Z</time></trkpt><trkpt lat="43.9351502" lon="12.4358343"><ele>452.79999999999995</ele><time>2026-04-09T15:49:59.207Z</time></trkpt><trkpt lat="43.9352512" lon="12.4358023"><ele>453.4</ele><time>2026-04-09T15:50:00.21Z</time></trkpt><trkpt lat="43.935349" lon="12.4357738"><ele>454.0</ele><time>2026-04-09T15:50:01.206Z</time></trkpt><trkpt lat="43.9354478" lon="12.4357411"><ele>454.0</ele><time>2026-04-09T15:50:02.205Z</time></trkpt><trkpt lat="43.9355501" lon="12.4357132"><ele>454.0</ele><time>2026-04-09T15:50:03.196Z</time></trkpt><trkpt lat="43.9356516" lon="12.4356745"><ele>454.0</ele><time>2026-04-09T15:50:04.198Z</time></trkpt><trkpt lat="43.9357591" lon="12.4356291"><ele>454.0</ele><time>2026-04-09T15:50:05.188Z</time></trkpt><trkpt lat="43.9358695" lon="12.4355967"><ele>454.0</ele><time>2026-04-09T15:50:06.212Z</time></trkpt><trkpt lat="43.9359803" lon="12.4355519"><ele>454.0</ele><time>2026-04-09T15:50:07.176Z</time></trkpt><trkpt lat="43.9360901" lon="12.4355073"><ele>454.0</ele><time>2026-04-09T15:50:08.238Z</time></trkpt><trkpt lat="43.9361978" lon="12.4354723"><ele>454.0</ele><time>2026-04-09T15:50:09.203Z</time></trkpt><trkpt lat="43.9363091" lon="12.4354445"><ele>454.0</ele><time>2026-04-09T15:50:10.191Z</time></trkpt><trkpt lat="43.9364232" lon="12.4354118"><ele>451.4</ele><time>2026-04-09T15:50:11.215Z</time></trkpt><trkpt lat="43.9365344" lon="12.4353797"><ele>448.79999999999995</ele><time>2026-04-09T15:50:12.196Z</time></trkpt><trkpt lat="43.9366457" lon="12.4353428"><ele>446.20000000000005</ele><time>2026-04-09T15:50:13.208Z</time></trkpt><trkpt lat="43.9367483" lon="12.4353123"><ele>443.6</ele><time>2026-04-09T15:50:14.171Z</time></trkpt><trkpt lat="43.9368483" lon="12.4352783"><ele>441.0</ele><time>2026-04-09T15:50:15.196Z</time></trkpt><trkpt lat="43.9369295" lon="12.435223"><ele>438.4</ele><time>2026-04-09T15:50:16.205Z</time></trkpt><trkpt lat="43.936983" lon="12.4351116"><ele>435.8</ele><time>2026-04-09T15:50:17.203Z</time></trkpt><trkpt lat="43.9369724" lon="12.4349779"><ele>433.19999999999993</ele><time>2026-04-09T15:50:18.192Z</time></trkpt><trkpt lat="43.9369201" lon="12.4348773"><ele>430.59999999999997</ele><time>2026-04-09T15:50:19.166Z</time></trkpt><trkpt lat="43.9368441" lon="12.4348105"><ele>428.0</ele><time>2026-04-09T15:50:20.181Z</time></trkpt><trkpt lat="43.9367267" lon="12.4347906"><ele>428.66666666666663</ele><time>2026-04-09T15:50:21.176Z</time></trkpt><trkpt lat="43.9366545" lon="12.4347216"><ele>429.3333333333333</ele><time>2026-04-09T15:50:22.166Z</time></trkpt><trkpt lat="43.9366379" lon="12.4346054"><ele>430.0</ele><time>2026-04-09T15:50:23.196Z</time></trkpt><trkpt lat="43.93667" lon="12.434482"><ele>430.66666666666663</ele><time>2026-04-09T15:50:24.214Z</time></trkpt><trkpt lat="43.9367303" lon="12.4343837"><ele>431.3333333333333</ele><time>2026-04-09T15:50:25.206Z</time></trkpt><trkpt lat="43.9367998" lon="12.4343085"><ele>432.0</ele><time>2026-04-09T15:50:26.182Z</time></trkpt><trkpt lat="43.936879" lon="12.4342339"><ele>430.8</ele><time>2026-04-09T15:50:27.193Z</time></trkpt><trkpt lat="43.9369549" lon="12.4341431"><ele>429.6</ele><time>2026-04-09T15:50:28.2Z</time></trkpt><trkpt lat="43.9370225" lon="12.4340507"><ele>428.40000000000003</ele><time>2026-04-09T15:50:29.179Z</time></trkpt><trkpt lat="43.9370965" lon="12.4339441"><ele>427.20000000000005</ele><time>2026-04-09T15:50:30.154Z</time></trkpt><trkpt lat="43.9371731" lon="12.4338348"><ele>426.0</ele><time>2026-04-09T15:50:31.156Z</time></trkpt><trkpt lat="43.9372454" lon="12.4337329"><ele>426.0</ele><time>2026-04-09T15:50:32.165Z</time></trkpt><trkpt lat="43.9373202" lon="12.4336244"><ele>426.0</ele><time>2026-04-09T15:50:33.156Z</time></trkpt><trkpt lat="43.937394" lon="12.4335215"><ele>426.0</ele><time>2026-04-09T15:50:34.171Z</time></trkpt><trkpt lat="43.9374571" lon="12.4334109"><ele>426.0</ele><time>2026-04-09T15:50:35.165Z</time></trkpt><trkpt lat="43.9375104" lon="12.4332893"><ele>426.0</ele><time>2026-04-09T15:50:36.151Z</time></trkpt><trkpt lat="43.9375575" lon="12.4331474"><ele>425.0</ele><time>2026-04-09T15:50:37.17Z</time></trkpt><trkpt lat="43.9376027" lon="12.4330127"><ele>424.0</ele><time>2026-04-09T15:50:38.194Z</time></trkpt><trkpt lat="43.9376389" lon="12.4328877"><ele>423.0</ele><time>2026-04-09T15:50:39.191Z</time></trkpt><trkpt lat="43.9376687" lon="12.4327668"><ele>422.0</ele><time>2026-04-09T15:50:40.189Z</time></trkpt><trkpt lat="43.9377057" lon="12.4326552"><ele>421.0</ele><time>2026-04-09T15:50:41.159Z</time></trkpt><trkpt lat="43.9377371" lon="12.4325466"><ele>421.00000000000006</ele><time>2026-04-09T15:50:42.19Z</time></trkpt><trkpt lat="43.9377679" lon="12.4324408"><ele>421.0</ele><time>2026-04-09T15:50:43.186Z</time></trkpt><trkpt lat="43.9378123" lon="12.4323414"><ele>421.0</ele><time>2026-04-09T15:50:44.186Z</time></trkpt><trkpt lat="43.937864" lon="12.4322433"><ele>421.0</ele><time>2026-04-09T15:50:45.22Z</time></trkpt><trkpt lat="43.9379274" lon="12.4321637"><ele>421.00000000000006</ele><time>2026-04-09T15:50:46.194Z</time></trkpt><trkpt lat="43.937993" lon="12.432099"><ele>421.0</ele><time>2026-04-09T15:50:47.177Z</time></trkpt><trkpt lat="43.9380674" lon="12.4320384"><ele>422.00000000000006</ele><time>2026-04-09T15:50:48.2Z</time></trkpt><trkpt lat="43.9381388" lon="12.4319815"><ele>423.0</ele><time>2026-04-09T15:50:49.168Z</time></trkpt><trkpt lat="43.9382054" lon="12.4319242"><ele>424.0</ele><time>2026-04-09T15:50:50.2Z</time></trkpt><trkpt lat="43.9382691" lon="12.431877"><ele>425.0</ele><time>2026-04-09T15:50:51.216Z</time></trkpt><trkpt lat="43.9383289" lon="12.4318155"><ele>426.0</ele><time>2026-04-09T15:50:52.182Z</time></trkpt><trkpt lat="43.9383819" lon="12.4317572"><ele>427.00000000000006</ele><time>2026-04-09T15:50:53.199Z</time></trkpt><trkpt lat="43.9384367" lon="12.43171"><ele>428.0</ele><time>2026-04-09T15:50:54.215Z</time></trkpt><trkpt lat="43.9384942" lon="12.431657"><ele>427.79999999999995</ele><time>2026-04-09T15:50:55.215Z</time></trkpt><trkpt lat="43.9385525" lon="12.4316015"><ele>427.59999999999997</ele><time>2026-04-09T15:50:56.215Z</time></trkpt><trkpt lat="43.938608" lon="12.431553"><ele>427.40000000000003</ele><time>2026-04-09T15:50:57.216Z</time></trkpt><trkpt lat="43.9387134" lon="12.4314548"><ele>427.20000000000005</ele><time>2026-04-09T15:50:59.224Z</time></trkpt><trkpt lat="43.9388117" lon="12.4313608"><ele>427.0</ele><time>2026-04-09T15:51:01.215Z</time></trkpt><trkpt lat="43.9389108" lon="12.4312865"><ele>427.00000000000006</ele><time>2026-04-09T15:51:03.174Z</time></trkpt><trkpt lat="43.9389902" lon="12.4312261"><ele>427.0</ele><time>2026-04-09T15:51:05.206Z</time></trkpt><trkpt lat="43.9390627" lon="12.4311795"><ele>427.0</ele><time>2026-04-09T15:51:07.192Z</time></trkpt><trkpt lat="43.9391343" lon="12.4311179"><ele>427.0</ele><time>2026-04-09T15:51:09.162Z</time></trkpt><trkpt lat="43.9392021" lon="12.4310703"><ele>427.00000000000006</ele><time>2026-04-09T15:51:11.192Z</time></trkpt><trkpt lat="43.939257" lon="12.431027"><ele>427.0</ele><time>2026-04-09T15:51:13.214Z</time></trkpt><trkpt lat="43.9393156" lon="12.4309795"><ele>429.00000000000006</ele><time>2026-04-09T15:51:15.189Z</time></trkpt><trkpt lat="43.9393977" lon="12.4309189"><ele>431.0</ele><time>2026-04-09T15:51:18.197Z</time></trkpt><trkpt lat="43.9394578" lon="12.4308834"><ele>433.0</ele><time>2026-04-09T15:51:20.192Z</time></trkpt><trkpt lat="43.9395373" lon="12.4308418"><ele>435.0</ele><time>2026-04-09T15:51:22.195Z</time></trkpt><trkpt lat="43.9396108" lon="12.4308155"><ele>437.00000000000006</ele><time>2026-04-09T15:51:24.204Z</time></trkpt><trkpt lat="43.9396943" lon="12.430774"><ele>439.0</ele><time>2026-04-09T15:51:26.211Z</time></trkpt><trkpt lat="43.9397713" lon="12.4307488"><ele>439.00000000000006</ele><time>2026-04-09T15:51:28.195Z</time></trkpt><trkpt lat="43.93984" lon="12.4307301"><ele>439.0</ele><time>2026-04-09T15:51:30.195Z</time></trkpt><trkpt lat="43.9399133" lon="12.4307054"><ele>439.0</ele><time>2026-04-09T15:51:32.208Z</time></trkpt><trkpt lat="43.9399921" lon="12.4306716"><ele>439.0</ele><time>2026-04-09T15:51:34.214Z</time></trkpt><trkpt lat="43.9400609" lon="12.4306372"><ele>439.00000000000006</ele><time>2026-04-09T15:51:36.187Z</time></trkpt><trkpt lat="43.9401324" lon="12.4305928"><ele>439.0</ele><time>2026-04-09T15:51:38.169Z</time></trkpt><trkpt lat="43.9402072" lon="12.4305409"><ele>439.2</ele><time>2026-04-09T15:51:40.209Z</time></trkpt><trkpt lat="43.9402974" lon="12.4304826"><ele>439.4</ele><time>2026-04-09T15:51:42.194Z</time></trkpt><trkpt lat="43.9403826" lon="12.4304233"><ele>439.6</ele><time>2026-04-09T15:51:44.204Z</time></trkpt><trkpt lat="43.940462" lon="12.4303601"><ele>439.8</ele><time>2026-04-09T15:51:46.184Z</time></trkpt><trkpt lat="43.9405454" lon="12.4303129"><ele>440.0</ele><time>2026-04-09T15:51:48.204Z</time></trkpt><trkpt lat="43.9406267" lon="12.430253"><ele>439.99999999999994</ele><time>2026-04-09T15:51:50.16Z</time></trkpt><trkpt lat="43.9407037" lon="12.430199"><ele>440.0</ele><time>2026-04-09T15:51:52.18Z</time></trkpt><trkpt lat="43.9407808" lon="12.4301481"><ele>440.0</ele><time>2026-04-09T15:51:54.155Z</time></trkpt><trkpt lat="43.9408444" lon="12.4301122"><ele>440.0</ele><time>2026-04-09T15:51:56.192Z</time></trkpt><trkpt lat="43.9409053" lon="12.4300828"><ele>440.0</ele><time>2026-04-09T15:51:58.202Z</time></trkpt><trkpt lat="43.9409682" lon="12.4300485"><ele>439.99999999999994</ele><time>2026-04-09T15:52:00.21Z</time></trkpt><trkpt lat="43.9410353" lon="12.4300159"><ele>440.0</ele><time>2026-04-09T15:52:02.199Z</time></trkpt><trkpt lat="43.9411146" lon="12.4299621"><ele>440.99999999999994</ele><time>2026-04-09T15:52:05.194Z</time></trkpt><trkpt lat="43.9411964" lon="12.429911"><ele>442.0</ele><time>2026-04-09T15:52:08.164Z</time></trkpt><trkpt lat="43.9412565" lon="12.4298733"><ele>443.0</ele><time>2026-04-09T15:52:10.169Z</time></trkpt><trkpt lat="43.9413124" lon="12.429829"><ele>444.0</ele><time>2026-04-09T15:52:12.202Z</time></trkpt><trkpt lat="43.941369" lon="12.4297799"><ele>445.0</ele><time>2026-04-09T15:52:14.198Z</time></trkpt><trkpt lat="43.9414245" lon="12.4297289"><ele>445.99999999999994</ele><time>2026-04-09T15:52:16.215Z</time></trkpt><trkpt lat="43.9414839" lon="12.4296906"><ele>447.0</ele><time>2026-04-09T15:52:18.193Z</time></trkpt><trkpt lat="43.9415511" lon="12.4296497"><ele>446.8333333333333</ele><time>2026-04-09T15:52:20.208Z</time></trkpt><trkpt lat="43.9416229" lon="12.429586"><ele>446.66666666666663</ele><time>2026-04-09T15:52:22.177Z</time></trkpt><trkpt lat="43.9416913" lon="12.4295343"><ele>446.5</ele><time>2026-04-09T15:52:24.211Z</time></trkpt><trkpt lat="43.9417463" lon="12.4294762"><ele>446.3333333333333</ele><time>2026-04-09T15:52:26.215Z</time></trkpt><trkpt lat="43.9418096" lon="12.429422"><ele>446.16666666666663</ele><time>2026-04-09T15:52:28.216Z</time></trkpt><trkpt lat="43.9418743" lon="12.4293668"><ele>446.0</ele><time>2026-04-09T15:52:30.215Z</time></trkpt><trkpt lat="43.9419428" lon="12.4293036"><ele>445.66666666666663</ele><time>2026-04-09T15:52:32.166Z</time></trkpt><trkpt lat="43.9420141" lon="12.4292452"><ele>445.3333333333333</ele><time>2026-04-09T15:52:34.191Z</time></trkpt><trkpt lat="43.9420784" lon="12.4291828"><ele>445.0</ele><time>2026-04-09T15:52:36.186Z</time></trkpt><trkpt lat="43.942147" lon="12.4291169"><ele>444.66666666666663</ele><time>2026-04-09T15:52:38.202Z</time></trkpt><trkpt lat="43.9422061" lon="12.4290487"><ele>444.3333333333333</ele><time>2026-04-09T15:52:40.203Z</time></trkpt><trkpt lat="43.9422558" lon="12.4289948"><ele>444.0</ele><time>2026-04-09T15:52:42.193Z</time></trkpt><trkpt lat="43.9423082" lon="12.428935"><ele>444.0</ele><time>2026-04-09T15:52:44.206Z</time></trkpt><trkpt lat="43.9423638" lon="12.4288731"><ele>444.0</ele><time>2026-04-09T15:52:46.225Z</time></trkpt><trkpt lat="43.9424182" lon="12.4287738"><ele>444.0</ele><time>2026-04-09T15:52:49.176Z</time></trkpt><trkpt lat="43.942443" lon="12.4286761"><ele>444.0</ele><time>2026-04-09T15:52:51.206Z</time></trkpt><trkpt lat="43.9424515" lon="12.4285669"><ele>444.0</ele><time>2026-04-09T15:52:53.203Z</time></trkpt><trkpt lat="43.9424944" lon="12.4284248"><ele>444.0</ele><time>2026-04-09T15:52:55.222Z</time></trkpt><trkpt lat="43.9425268" lon="12.4283409"><ele>444.6666666666667</ele><time>2026-04-09T15:52:56.2Z</time></trkpt><trkpt lat="43.9425609" lon="12.4282628"><ele>445.33333333333337</ele><time>2026-04-09T15:52:57.216Z</time></trkpt><trkpt lat="43.9425727" lon="12.4281592"><ele>446.0</ele><time>2026-04-09T15:52:58.221Z</time></trkpt><trkpt lat="43.9425597" lon="12.4280464"><ele>446.6666666666667</ele><time>2026-04-09T15:53:00.169Z</time></trkpt><trkpt lat="43.9424886" lon="12.4280201"><ele>447.33333333333337</ele><time>2026-04-09T15:53:02.194Z</time></trkpt><trkpt lat="43.9423641" lon="12.4280528"><ele>448.0</ele><time>2026-04-09T15:53:04.158Z</time></trkpt><trkpt lat="43.9423003" lon="12.428062"><ele>448.0</ele><time>2026-04-09T15:53:05.195Z</time></trkpt><trkpt lat="43.9422367" lon="12.4280792"><ele>448.0</ele><time>2026-04-09T15:53:06.191Z</time></trkpt><trkpt lat="43.9421762" lon="12.4281211"><ele>448.0</ele><time>2026-04-09T15:53:07.212Z</time></trkpt><trkpt lat="43.9421122" lon="12.4281565"><ele>448.0</ele><time>2026-04-09T15:53:08.186Z</time></trkpt><trkpt lat="43.9420464" lon="12.4282038"><ele>448.0</ele><time>2026-04-09T15:53:09.19Z</time></trkpt><trkpt lat="43.9419927" lon="12.4282643"><ele>448.0</ele><time>2026-04-09T15:53:10.207Z</time></trkpt><trkpt lat="43.9419343" lon="12.4283196"><ele>448.0</ele><time>2026-04-09T15:53:11.196Z</time></trkpt><trkpt lat="43.9418901" lon="12.4283828"><ele>448.0</ele><time>2026-04-09T15:53:12.192Z</time></trkpt><trkpt lat="43.9418411" lon="12.4284495"><ele>447.99999999999994</ele><time>2026-04-09T15:53:13.202Z</time></trkpt><trkpt lat="43.9417573" lon="12.4285587"><ele>447.99999999999994</ele><time>2026-04-09T15:53:15.198Z</time></trkpt><trkpt lat="43.9416662" lon="12.4286694"><ele>448.0</ele><time>2026-04-09T15:53:17.195Z</time></trkpt><trkpt lat="43.9415742" lon="12.4287858"><ele>448.0</ele><time>2026-04-09T15:53:19.205Z</time></trkpt><trkpt lat="43.9415249" lon="12.4288506"><ele>447.59999999999997</ele><time>2026-04-09T15:53:20.199Z</time></trkpt><trkpt lat="43.94144" lon="12.4289837"><ele>447.19999999999993</ele><time>2026-04-09T15:53:22.202Z</time></trkpt><trkpt lat="43.9413606" lon="12.4290663"><ele>446.8</ele><time>2026-04-09T15:53:24.195Z</time></trkpt><trkpt lat="43.9412677" lon="12.4290603"><ele>446.4</ele><time>2026-04-09T15:53:26.213Z</time></trkpt><trkpt lat="43.9412101" lon="12.4289832"><ele>446.0</ele><time>2026-04-09T15:53:29.199Z</time></trkpt><trkpt lat="43.9412416" lon="12.4288909"><ele>443.66666666666663</ele><time>2026-04-09T15:53:32.198Z</time></trkpt><trkpt lat="43.9412845" lon="12.4287658"><ele>441.3333333333333</ele><time>2026-04-09T15:53:34.181Z</time></trkpt><trkpt lat="43.9413193" lon="12.4286736"><ele>439.0</ele><time>2026-04-09T15:53:35.191Z</time></trkpt><trkpt lat="43.9413629" lon="12.428573"><ele>436.66666666666663</ele><time>2026-04-09T15:53:36.18Z</time></trkpt><trkpt lat="43.9414048" lon="12.4284668"><ele>434.3333333333333</ele><time>2026-04-09T15:53:37.191Z</time></trkpt><trkpt lat="43.9414518" lon="12.4283548"><ele>432.0</ele><time>2026-04-09T15:53:38.212Z</time></trkpt><trkpt lat="43.9414992" lon="12.4282501"><ele>432.0</ele><time>2026-04-09T15:53:39.203Z</time></trkpt><trkpt lat="43.9415567" lon="12.4281478"><ele>432.0</ele><time>2026-04-09T15:53:40.198Z</time></trkpt><trkpt lat="43.9415864" lon="12.4280469"><ele>432.0</ele><time>2026-04-09T15:53:41.161Z</time></trkpt><trkpt lat="43.9415948" lon="12.4279411"><ele>432.0</ele><time>2026-04-09T15:53:42.153Z</time></trkpt><trkpt lat="43.9416105" lon="12.4278327"><ele>432.0</ele><time>2026-04-09T15:53:43.166Z</time></trkpt><trkpt lat="43.9416233" lon="12.4277131"><ele>432.0</ele><time>2026-04-09T15:53:44.198Z</time></trkpt><trkpt lat="43.9416336" lon="12.4275988"><ele>432.6666666666667</ele><time>2026-04-09T15:53:45.19Z</time></trkpt><trkpt lat="43.9416561" lon="12.4274735"><ele>433.33333333333337</ele><time>2026-04-09T15:53:46.213Z</time></trkpt><trkpt lat="43.9416934" lon="12.4273548"><ele>434.0</ele><time>2026-04-09T15:53:47.207Z</time></trkpt><trkpt lat="43.9417253" lon="12.4272396"><ele>434.6666666666667</ele><time>2026-04-09T15:53:48.197Z</time></trkpt><trkpt lat="43.9417583" lon="12.4271337"><ele>435.33333333333337</ele><time>2026-04-09T15:53:49.172Z</time></trkpt><trkpt lat="43.9417952" lon="12.4270293"><ele>436.0</ele><time>2026-04-09T15:53:50.202Z</time></trkpt><trkpt lat="43.9418312" lon="12.4269172"><ele>433.6666666666667</ele><time>2026-04-09T15:53:51.197Z</time></trkpt><trkpt lat="43.9418732" lon="12.4268143"><ele>431.33333333333337</ele><time>2026-04-09T15:53:52.202Z</time></trkpt><trkpt lat="43.9419183" lon="12.4267173"><ele>429.0</ele><time>2026-04-09T15:53:53.209Z</time></trkpt><trkpt lat="43.9419653" lon="12.426618"><ele>426.66666666666663</ele><time>2026-04-09T15:53:54.182Z</time></trkpt><trkpt lat="43.9420012" lon="12.4265305"><ele>424.3333333333333</ele><time>2026-04-09T15:53:55.195Z</time></trkpt><trkpt lat="43.9420335" lon="12.4264451"><ele>422.0</ele><time>2026-04-09T15:53:56.203Z</time></trkpt><trkpt lat="43.9420642" lon="12.4263641"><ele>420.0</ele><time>2026-04-09T15:53:57.232Z</time></trkpt><trkpt lat="43.9421169" lon="12.4262144"><ele>418.0</ele><time>2026-04-09T15:53:59.195Z</time></trkpt><trkpt lat="43.9421607" lon="12.4260585"><ele>416.0</ele><time>2026-04-09T15:54:01.204Z</time></trkpt><trkpt lat="43.9422115" lon="12.4259126"><ele>414.0</ele><time>2026-04-09T15:54:03.159Z</time></trkpt><trkpt lat="43.9422573" lon="12.4257726"><ele>414.0</ele><time>2026-04-09T15:54:05.21Z</time></trkpt><trkpt lat="43.9423022" lon="12.4256307"><ele>414.0</ele><time>2026-04-09T15:54:07.205Z</time></trkpt><trkpt lat="43.9423466" lon="12.4254977"><ele>414.0</ele><time>2026-04-09T15:54:09.203Z</time></trkpt><trkpt lat="43.9423831" lon="12.4253606"><ele>414.0</ele><time>2026-04-09T15:54:11.205Z</time></trkpt><trkpt lat="43.9424234" lon="12.4252385"><ele>414.0</ele><time>2026-04-09T15:54:13.173Z</time></trkpt><trkpt lat="43.9424598" lon="12.4250872"><ele>412.6666666666667</ele><time>2026-04-09T15:54:15.203Z</time></trkpt><trkpt lat="43.9424809" lon="12.4249925"><ele>411.33333333333337</ele><time>2026-04-09T15:54:16.198Z</time></trkpt><trkpt lat="43.9425065" lon="12.4248923"><ele>410.0</ele><time>2026-04-09T15:54:17.203Z</time></trkpt><trkpt lat="43.9425277" lon="12.4247894"><ele>408.6666666666667</ele><time>2026-04-09T15:54:18.198Z</time></trkpt><trkpt lat="43.9425414" lon="12.4246737"><ele>407.33333333333337</ele><time>2026-04-09T15:54:19.207Z</time></trkpt><trkpt lat="43.9425531" lon="12.4245638"><ele>406.0</ele><time>2026-04-09T15:54:20.209Z</time></trkpt><trkpt lat="43.9425598" lon="12.4244446"><ele>404.50000000000006</ele><time>2026-04-09T15:54:21.191Z</time></trkpt><trkpt lat="43.9425571" lon="12.42431"><ele>403.0</ele><time>2026-04-09T15:54:22.207Z</time></trkpt><trkpt lat="43.9425475" lon="12.4241811"><ele>401.5</ele><time>2026-04-09T15:54:23.196Z</time></trkpt><trkpt lat="43.9425478" lon="12.4240657"><ele>400.0</ele><time>2026-04-09T15:54:24.212Z</time></trkpt><trkpt lat="43.9425556" lon="12.4239708"><ele>398.50000000000006</ele><time>2026-04-09T15:54:25.216Z</time></trkpt><trkpt lat="43.942586" lon="12.4238711"><ele>397.0</ele><time>2026-04-09T15:54:26.167Z</time></trkpt><trkpt lat="43.9426152" lon="12.4237621"><ele>400.00000000000006</ele><time>2026-04-09T15:54:27.201Z</time></trkpt><trkpt lat="43.9426467" lon="12.4236415"><ele>403.0</ele><time>2026-04-09T15:54:28.181Z</time></trkpt><trkpt lat="43.9426867" lon="12.4235364"><ele>406.0</ele><time>2026-04-09T15:54:29.162Z</time></trkpt><trkpt lat="43.9427262" lon="12.4234261"><ele>409.0</ele><time>2026-04-09T15:54:30.175Z</time></trkpt><trkpt lat="43.9427693" lon="12.4233219"><ele>412.00000000000006</ele><time>2026-04-09T15:54:31.212Z</time></trkpt><trkpt lat="43.9428036" lon="12.4232091"><ele>415.0</ele><time>2026-04-09T15:54:32.192Z</time></trkpt><trkpt lat="43.9428263" lon="12.4230959"><ele>412.4</ele><time>2026-04-09T15:54:33.204Z</time></trkpt><trkpt lat="43.942849" lon="12.422972"><ele>409.8</ele><time>2026-04-09T15:54:34.222Z</time></trkpt><trkpt lat="43.9428725" lon="12.4228394"><ele>407.20000000000005</ele><time>2026-04-09T15:54:35.146Z</time></trkpt><trkpt lat="43.9428996" lon="12.4227148"><ele>404.6</ele><time>2026-04-09T15:54:36.154Z</time></trkpt><trkpt lat="43.9429287" lon="12.4225893"><ele>402.0</ele><time>2026-04-09T15:54:37.226Z</time></trkpt><trkpt lat="43.9429541" lon="12.4224568"><ele>402.0</ele><time>2026-04-09T15:54:38.198Z</time></trkpt><trkpt lat="43.9429849" lon="12.4223295"><ele>402.0</ele><time>2026-04-09T15:54:39.207Z</time></trkpt><trkpt lat="43.9430139" lon="12.4222029"><ele>402.0</ele><time>2026-04-09T15:54:40.21Z</time></trkpt><trkpt lat="43.9430555" lon="12.4220756"><ele>402.0</ele><time>2026-04-09T15:54:41.194Z</time></trkpt><trkpt lat="43.9430951" lon="12.4219602"><ele>402.0</ele><time>2026-04-09T15:54:42.205Z</time></trkpt><trkpt lat="43.9431437" lon="12.4218566"><ele>400.5</ele><time>2026-04-09T15:54:43.215Z</time></trkpt><trkpt lat="43.9431892" lon="12.4217593"><ele>399.0</ele><time>2026-04-09T15:54:44.166Z</time></trkpt><trkpt lat="43.9432383" lon="12.4216631"><ele>397.5</ele><time>2026-04-09T15:54:45.212Z</time></trkpt><trkpt lat="43.9432855" lon="12.4215725"><ele>396.0</ele><time>2026-04-09T15:54:46.208Z</time></trkpt><trkpt lat="43.9433266" lon="12.4214851"><ele>394.5</ele><time>2026-04-09T15:54:47.208Z</time></trkpt><trkpt lat="43.9433663" lon="12.4213987"><ele>393.0</ele><time>2026-04-09T15:54:48.216Z</time></trkpt><trkpt lat="43.9434014" lon="12.4213217"><ele>393.0</ele><time>2026-04-09T15:54:49.199Z</time></trkpt><trkpt lat="43.9434796" lon="12.4212232"><ele>393.0</ele><time>2026-04-09T15:54:51.188Z</time></trkpt><trkpt lat="43.9435871" lon="12.4212483"><ele>393.0</ele><time>2026-04-09T15:54:53.2Z</time></trkpt><trkpt lat="43.9436476" lon="12.4212744"><ele>393.0</ele><time>2026-04-09T15:54:54.16Z</time></trkpt><trkpt lat="43.9437152" lon="12.4212902"><ele>393.0</ele><time>2026-04-09T15:54:55.212Z</time></trkpt><trkpt lat="43.94379" lon="12.4213092"><ele>393.0</ele><time>2026-04-09T15:54:56.208Z</time></trkpt><trkpt lat="43.9438546" lon="12.4213364"><ele>393.0</ele><time>2026-04-09T15:54:57.202Z</time></trkpt><trkpt lat="43.9439429" lon="12.421398"><ele>393.0</ele><time>2026-04-09T15:54:59.183Z</time></trkpt><trkpt lat="43.9440289" lon="12.4214212"><ele>393.0</ele><time>2026-04-09T15:55:02.192Z</time></trkpt><trkpt lat="43.9441349" lon="12.4214607"><ele>393.0</ele><time>2026-04-09T15:55:04.211Z</time></trkpt><trkpt lat="43.9441977" lon="12.4215024"><ele>393.0</ele><time>2026-04-09T15:55:05.2Z</time></trkpt><trkpt lat="43.9442722" lon="12.4215451"><ele>393.0</ele><time>2026-04-09T15:55:06.202Z</time></trkpt><trkpt lat="43.944358" lon="12.4215661"><ele>389.3333333333333</ele><time>2026-04-09T15:55:07.199Z</time></trkpt><trkpt lat="43.9444539" lon="12.4215695"><ele>385.6666666666667</ele><time>2026-04-09T15:55:08.201Z</time></trkpt><trkpt lat="43.9445507" lon="12.4215452"><ele>382.0</ele><time>2026-04-09T15:55:09.208Z</time></trkpt><trkpt lat="43.9446334" lon="12.4215175"><ele>378.33333333333337</ele><time>2026-04-09T15:55:10.198Z</time></trkpt><trkpt lat="43.9447057" lon="12.4214861"><ele>374.6666666666667</ele><time>2026-04-09T15:55:11.155Z</time></trkpt><trkpt lat="43.9447737" lon="12.421464"><ele>371.0</ele><time>2026-04-09T15:55:12.178Z</time></trkpt><trkpt lat="43.9448453" lon="12.4214612"><ele>371.0</ele><time>2026-04-09T15:55:13.191Z</time></trkpt><trkpt lat="43.9449112" lon="12.4214648"><ele>371.0</ele><time>2026-04-09T15:55:14.178Z</time></trkpt><trkpt lat="43.9450079" lon="12.4215135"><ele>371.0</ele><time>2026-04-09T15:55:16.162Z</time></trkpt><trkpt lat="43.9450573" lon="12.4215993"><ele>371.0</ele><time>2026-04-09T15:55:18.172Z</time></trkpt><trkpt lat="43.9451198" lon="12.4217225"><ele>371.0</ele><time>2026-04-09T15:55:20.202Z</time></trkpt><trkpt lat="43.9451868" lon="12.421829"><ele>366.20000000000005</ele><time>2026-04-09T15:55:22.205Z</time></trkpt><trkpt lat="43.9452026" lon="12.42196"><ele>361.40000000000003</ele><time>2026-04-09T15:55:24.182Z</time></trkpt><trkpt lat="43.9451954" lon="12.422117"><ele>356.6</ele><time>2026-04-09T15:55:26.204Z</time></trkpt><trkpt lat="43.9452125" lon="12.4222517"><ele>351.8</ele><time>2026-04-09T15:55:28.206Z</time></trkpt><trkpt lat="43.9452849" lon="12.4223576"><ele>347.0</ele><time>2026-04-09T15:55:30.193Z</time></trkpt><trkpt lat="43.9453728" lon="12.4224423"><ele>347.0</ele><time>2026-04-09T15:55:32.191Z</time></trkpt><trkpt lat="43.9454564" lon="12.4225309"><ele>347.0</ele><time>2026-04-09T15:55:34.198Z</time></trkpt><trkpt lat="43.9455391" lon="12.4225528"><ele>347.0</ele><time>2026-04-09T15:55:36.176Z</time></trkpt><trkpt lat="43.9456499" lon="12.4225247"><ele>347.0</ele><time>2026-04-09T15:55:38.184Z</time></trkpt><trkpt lat="43.9457661" lon="12.4224796"><ele>347.0</ele><time>2026-04-09T15:55:40.189Z</time></trkpt><trkpt lat="43.9458844" lon="12.4224826"><ele>342.6666666666667</ele><time>2026-04-09T15:55:42.201Z</time></trkpt><trkpt lat="43.9459459" lon="12.4225114"><ele>338.33333333333337</ele><time>2026-04-09T15:55:43.204Z</time></trkpt><trkpt lat="43.9460126" lon="12.4225629"><ele>334.0</ele><time>2026-04-09T15:55:44.186Z</time></trkpt><trkpt lat="43.9460857" lon="12.4226163"><ele>329.6666666666667</ele><time>2026-04-09T15:55:45.198Z</time></trkpt><trkpt lat="43.9461579" lon="12.4226836"><ele>325.3333333333333</ele><time>2026-04-09T15:55:46.165Z</time></trkpt><trkpt lat="43.946228" lon="12.4227467"><ele>321.0</ele><time>2026-04-09T15:55:47.171Z</time></trkpt><trkpt lat="43.9462906" lon="12.4228081"><ele>321.0</ele><time>2026-04-09T15:55:48.154Z</time></trkpt><trkpt lat="43.9463517" lon="12.4228676"><ele>321.0</ele><time>2026-04-09T15:55:49.174Z</time></trkpt><trkpt lat="43.9464244" lon="12.4229292"><ele>321.0</ele><time>2026-04-09T15:55:50.203Z</time></trkpt><trkpt lat="43.9464864" lon="12.4230113"><ele>321.0</ele><time>2026-04-09T15:55:51.197Z</time></trkpt><trkpt lat="43.9465707" lon="12.423084"><ele>321.0</ele><time>2026-04-09T15:55:52.213Z</time></trkpt><trkpt lat="43.9466537" lon="12.4231437"><ele>321.0</ele><time>2026-04-09T15:55:53.212Z</time></trkpt><trkpt lat="43.9467394" lon="12.4232007"><ele>318.8</ele><time>2026-04-09T15:55:54.204Z</time></trkpt><trkpt lat="43.9467987" lon="12.4232706"><ele>316.6</ele><time>2026-04-09T15:55:55.22Z</time></trkpt><trkpt lat="43.9468491" lon="12.4233441"><ele>314.4</ele><time>2026-04-09T15:55:56.203Z</time></trkpt><trkpt lat="43.9468496" lon="12.4234707"><ele>312.2</ele><time>2026-04-09T15:55:58.205Z</time></trkpt><trkpt lat="43.9467928" lon="12.4236079"><ele>310.0</ele><time>2026-04-09T15:56:00.211Z</time></trkpt><trkpt lat="43.9467807" lon="12.4237629"><ele>310.5</ele><time>2026-04-09T15:56:02.206Z</time></trkpt><trkpt lat="43.9467935" lon="12.4238927"><ele>311.0</ele><time>2026-04-09T15:56:04.206Z</time></trkpt><trkpt lat="43.9468648" lon="12.4239882"><ele>311.5</ele><time>2026-04-09T15:56:06.208Z</time></trkpt><trkpt lat="43.9469409" lon="12.4240253"><ele>312.0</ele><time>2026-04-09T15:56:08.177Z</time></trkpt><trkpt lat="43.9470006" lon="12.4240653"><ele>312.5</ele><time>2026-04-09T15:56:10.183Z</time></trkpt><trkpt lat="43.9470664" lon="12.4241046"><ele>313.0</ele><time>2026-04-09T15:56:12.202Z</time></trkpt><trkpt lat="43.9471354" lon="12.4241766"><ele>313.0</ele><time>2026-04-09T15:56:14.165Z</time></trkpt><trkpt lat="43.9472369" lon="12.4242653"><ele>313.0</ele><time>2026-04-09T15:56:16.172Z</time></trkpt><trkpt lat="43.9473594" lon="12.4243471"><ele>313.0</ele><time>2026-04-09T15:56:18.216Z</time></trkpt><trkpt lat="43.9474402" lon="12.4243531"><ele>313.0</ele><time>2026-04-09T15:56:19.212Z</time></trkpt><trkpt lat="43.9475176" lon="12.4243344"><ele>313.0</ele><time>2026-04-09T15:56:20.202Z</time></trkpt><trkpt lat="43.9476033" lon="12.4243041"><ele>309.6</ele><time>2026-04-09T15:56:21.192Z</time></trkpt><trkpt lat="43.9477025" lon="12.4242745"><ele>306.20000000000005</ele><time>2026-04-09T15:56:22.152Z</time></trkpt><trkpt lat="43.9478009" lon="12.4242771"><ele>302.8</ele><time>2026-04-09T15:56:23.201Z</time></trkpt><trkpt lat="43.9478957" lon="12.4242944"><ele>299.40000000000003</ele><time>2026-04-09T15:56:24.17Z</time></trkpt><trkpt lat="43.9479896" lon="12.4243126"><ele>296.0</ele><time>2026-04-09T15:56:25.159Z</time></trkpt><trkpt lat="43.9480777" lon="12.4243272"><ele>296.0</ele><time>2026-04-09T15:56:26.189Z</time></trkpt><trkpt lat="43.9481766" lon="12.4243351"><ele>296.0</ele><time>2026-04-09T15:56:27.212Z</time></trkpt><trkpt lat="43.9482774" lon="12.4243473"><ele>296.0</ele><time>2026-04-09T15:56:28.206Z</time></trkpt><trkpt lat="43.9483646" lon="12.4243613"><ele>296.0</ele><time>2026-04-09T15:56:29.214Z</time></trkpt><trkpt lat="43.948448" lon="12.4243622"><ele>296.0</ele><time>2026-04-09T15:56:30.192Z</time></trkpt><trkpt lat="43.9485201" lon="12.4243608"><ele>296.0</ele><time>2026-04-09T15:56:31.209Z</time></trkpt><trkpt lat="43.9485868" lon="12.4243617"><ele>293.0</ele><time>2026-04-09T15:56:32.2Z</time></trkpt><trkpt lat="43.948664" lon="12.424428"><ele>290.0</ele><time>2026-04-09T15:56:34.21Z</time></trkpt><trkpt lat="43.9486918" lon="12.4245765"><ele>287.0</ele><time>2026-04-09T15:56:36.212Z</time></trkpt><trkpt lat="43.9486701" lon="12.4247154"><ele>284.0</ele><time>2026-04-09T15:56:38.192Z</time></trkpt><trkpt lat="43.9486178" lon="12.4248161"><ele>281.0</ele><time>2026-04-09T15:56:40.2Z</time></trkpt><trkpt lat="43.9485628" lon="12.4248937"><ele>281.0</ele><time>2026-04-09T15:56:42.193Z</time></trkpt><trkpt lat="43.9485883" lon="12.4249841"><ele>281.0</ele><time>2026-04-09T15:56:44.185Z</time></trkpt><trkpt lat="43.9486659" lon="12.4251287"><ele>281.0</ele><time>2026-04-09T15:56:46.188Z</time></trkpt><trkpt lat="43.9487012" lon="12.4252013"><ele>281.0</ele><time>2026-04-09T15:56:47.197Z</time></trkpt><trkpt lat="43.9487388" lon="12.4252891"><ele>281.0</ele><time>2026-04-09T15:56:49.214Z</time></trkpt><trkpt lat="43.9488192" lon="12.4253465"><ele>281.0</ele><time>2026-04-09T15:56:54.213Z</time></trkpt><trkpt lat="43.9489388" lon="12.4253115"><ele>281.0</ele><time>2026-04-09T15:56:56.18Z</time></trkpt><trkpt lat="43.9490155" lon="12.4253083"><ele>281.0</ele><time>2026-04-09T15:56:57.187Z</time></trkpt><trkpt lat="43.9490994" lon="12.4253308"><ele>281.0</ele><time>2026-04-09T15:56:58.203Z</time></trkpt><trkpt lat="43.9491872" lon="12.425366"><ele>281.0</ele><time>2026-04-09T15:56:59.203Z</time></trkpt><trkpt lat="43.9492644" lon="12.4254323"><ele>281.0</ele><time>2026-04-09T15:57:00.207Z</time></trkpt><trkpt lat="43.9492968" lon="12.4255343"><ele>281.0</ele><time>2026-04-09T15:57:01.208Z</time></trkpt><trkpt lat="43.949294" lon="12.4256745"><ele>280.6</ele><time>2026-04-09T15:57:02.206Z</time></trkpt><trkpt lat="43.9492817" lon="12.4258141"><ele>280.20000000000005</ele><time>2026-04-09T15:57:03.217Z</time></trkpt><trkpt lat="43.9492722" lon="12.4259439"><ele>279.79999999999995</ele><time>2026-04-09T15:57:04.197Z</time></trkpt><trkpt lat="43.9492558" lon="12.4260761"><ele>279.4</ele><time>2026-04-09T15:57:05.204Z</time></trkpt><trkpt lat="43.949232" lon="12.4261801"><ele>279.0</ele><time>2026-04-09T15:57:06.199Z</time></trkpt><trkpt lat="43.9492084" lon="12.4262941"><ele>278.4285714285714</ele><time>2026-04-09T15:57:07.2Z</time></trkpt><trkpt lat="43.9491827" lon="12.4263907"><ele>277.85714285714283</ele><time>2026-04-09T15:57:08.208Z</time></trkpt><trkpt lat="43.9491568" lon="12.4264871"><ele>277.2857142857143</ele><time>2026-04-09T15:57:09.216Z</time></trkpt><trkpt lat="43.9491287" lon="12.4265955"><ele>276.71428571428567</ele><time>2026-04-09T15:57:10.203Z</time></trkpt><trkpt lat="43.9491016" lon="12.4266924"><ele>276.1428571428571</ele><time>2026-04-09T15:57:11.208Z</time></trkpt><trkpt lat="43.9490824" lon="12.4267883"><ele>275.57142857142856</ele><time>2026-04-09T15:57:12.203Z</time></trkpt><trkpt lat="43.9490616" lon="12.4268821"><ele>275.0</ele><time>2026-04-09T15:57:13.212Z</time></trkpt><trkpt lat="43.9490523" lon="12.4269777"><ele>275.0</ele><time>2026-04-09T15:57:14.198Z</time></trkpt><trkpt lat="43.9490463" lon="12.4270664"><ele>275.0</ele><time>2026-04-09T15:57:15.19Z</time></trkpt><trkpt lat="43.949055" lon="12.4271576"><ele>275.0</ele><time>2026-04-09T15:57:16.207Z</time></trkpt><trkpt lat="43.9490816" lon="12.4272422"><ele>275.0</ele><time>2026-04-09T15:57:17.196Z</time></trkpt><trkpt lat="43.9491148" lon="12.4273277"><ele>275.0</ele><time>2026-04-09T15:57:18.202Z</time></trkpt><trkpt lat="43.9491965" lon="12.4274719"><ele>275.0</ele><time>2026-04-09T15:57:20.216Z</time></trkpt><trkpt lat="43.9492547" lon="12.427546"><ele>273.0</ele><time>2026-04-09T15:57:21.202Z</time></trkpt><trkpt lat="43.94932" lon="12.4276219"><ele>271.0</ele><time>2026-04-09T15:57:22.216Z</time></trkpt><trkpt lat="43.9494014" lon="12.4276972"><ele>269.0</ele><time>2026-04-09T15:57:23.204Z</time></trkpt><trkpt lat="43.9494894" lon="12.4277465"><ele>267.0</ele><time>2026-04-09T15:57:24.206Z</time></trkpt><trkpt lat="43.949582" lon="12.4277803"><ele>265.0</ele><time>2026-04-09T15:57:25.185Z</time></trkpt><trkpt lat="43.9496756" lon="12.4277917"><ele>265.0</ele><time>2026-04-09T15:57:26.215Z</time></trkpt><trkpt lat="43.9497589" lon="12.4277562"><ele>265.0</ele><time>2026-04-09T15:57:27.178Z</time></trkpt><trkpt lat="43.9498384" lon="12.4276794"><ele>265.0</ele><time>2026-04-09T15:57:28.194Z</time></trkpt><trkpt lat="43.9499076" lon="12.427611"><ele>265.0</ele><time>2026-04-09T15:57:29.199Z</time></trkpt><trkpt lat="43.9499767" lon="12.4275392"><ele>265.0</ele><time>2026-04-09T15:57:30.203Z</time></trkpt><trkpt lat="43.9500511" lon="12.4274811"><ele>265.0</ele><time>2026-04-09T15:57:31.206Z</time></trkpt><trkpt lat="43.9501294" lon="12.4274308"><ele>264.6</ele><time>2026-04-09T15:57:32.195Z</time></trkpt><trkpt lat="43.9502198" lon="12.4273992"><ele>264.2</ele><time>2026-04-09T15:57:33.205Z</time></trkpt><trkpt lat="43.9503155" lon="12.4273855"><ele>263.8</ele><time>2026-04-09T15:57:34.203Z</time></trkpt><trkpt lat="43.9504155" lon="12.4273815"><ele>263.4</ele><time>2026-04-09T15:57:35.193Z</time></trkpt><trkpt lat="43.9505153" lon="12.42738"><ele>263.0</ele><time>2026-04-09T15:57:36.205Z</time></trkpt><trkpt lat="43.9506104" lon="12.4273702"><ele>263.0</ele><time>2026-04-09T15:57:37.205Z</time></trkpt><trkpt lat="43.9507147" lon="12.4273494"><ele>263.0</ele><time>2026-04-09T15:57:38.218Z</time></trkpt><trkpt lat="43.9508199" lon="12.4273204"><ele>263.0</ele><time>2026-04-09T15:57:39.209Z</time></trkpt><trkpt lat="43.9509269" lon="12.4273081"><ele>263.0</ele><time>2026-04-09T15:57:40.212Z</time></trkpt><trkpt lat="43.9510378" lon="12.4273147"><ele>263.0</ele><time>2026-04-09T15:57:41.199Z</time></trkpt><trkpt lat="43.9511512" lon="12.4273328"><ele>261.25</ele><time>2026-04-09T15:57:42.212Z</time></trkpt><trkpt lat="43.9512624" lon="12.4273473"><ele>259.5</ele><time>2026-04-09T15:57:43.209Z</time></trkpt><trkpt lat="43.9513781" lon="12.4273399"><ele>257.75</ele><time>2026-04-09T15:57:44.193Z</time></trkpt><trkpt lat="43.9514927" lon="12.4273221"><ele>256.0</ele><time>2026-04-09T15:57:45.187Z</time></trkpt><trkpt lat="43.9516071" lon="12.4273038"><ele>255.4</ele><time>2026-04-09T15:57:46.181Z</time></trkpt><trkpt lat="43.9517287" lon="12.4272782"><ele>254.8</ele><time>2026-04-09T15:57:47.178Z</time></trkpt><trkpt lat="43.9518411" lon="12.4272334"><ele>254.20000000000002</ele><time>2026-04-09T15:57:48.172Z</time></trkpt><trkpt lat="43.9519337" lon="12.4271614"><ele>253.60000000000002</ele><time>2026-04-09T15:57:49.165Z</time></trkpt><trkpt lat="43.951998" lon="12.4270631"><ele>253.0</ele><time>2026-04-09T15:57:50.16Z</time></trkpt><trkpt lat="43.9520453" lon="12.4269602"><ele>252.99999999999997</ele><time>2026-04-09T15:57:51.18Z</time></trkpt><trkpt lat="43.9520751" lon="12.4268654"><ele>253.0</ele><time>2026-04-09T15:57:52.155Z</time></trkpt><trkpt lat="43.9520989" lon="12.4267742"><ele>253.0</ele><time>2026-04-09T15:57:53.178Z</time></trkpt><trkpt lat="43.9521194" lon="12.426681"><ele>253.0</ele><time>2026-04-09T15:57:54.156Z</time></trkpt><trkpt lat="43.9521373" lon="12.4265776"><ele>252.99999999999997</ele><time>2026-04-09T15:57:55.168Z</time></trkpt><trkpt lat="43.9521554" lon="12.4264556"><ele>253.0</ele><time>2026-04-09T15:57:56.183Z</time></trkpt><trkpt lat="43.9521686" lon="12.4263287"><ele>249.5</ele><time>2026-04-09T15:57:57.159Z</time></trkpt><trkpt lat="43.9521798" lon="12.4261754"><ele>246.0</ele><time>2026-04-09T15:57:58.176Z</time></trkpt><trkpt lat="43.9521941" lon="12.4260032"><ele>242.5</ele><time>2026-04-09T15:57:59.184Z</time></trkpt><trkpt lat="43.952207" lon="12.4258331"><ele>239.0</ele><time>2026-04-09T15:58:00.199Z</time></trkpt><trkpt lat="43.9522143" lon="12.425669"><ele>239.0</ele><time>2026-04-09T15:58:01.186Z</time></trkpt><trkpt lat="43.9522251" lon="12.4255071"><ele>238.99999999999997</ele><time>2026-04-09T15:58:02.209Z</time></trkpt><trkpt lat="43.9522417" lon="12.4253606"><ele>238.99999999999997</ele><time>2026-04-09T15:58:03.2Z</time></trkpt><trkpt lat="43.9522597" lon="12.4252106"><ele>239.0</ele><time>2026-04-09T15:58:04.192Z</time></trkpt><trkpt lat="43.9522768" lon="12.4250676"><ele>239.0</ele><time>2026-04-09T15:58:05.18Z</time></trkpt><trkpt lat="43.9523061" lon="12.4249305"><ele>237.0</ele><time>2026-04-09T15:58:06.212Z</time></trkpt><trkpt lat="43.9523566" lon="12.4248101"><ele>234.99999999999997</ele><time>2026-04-09T15:58:07.212Z</time></trkpt><trkpt lat="43.9524237" lon="12.4247047"><ele>232.99999999999997</ele><time>2026-04-09T15:58:08.19Z</time></trkpt><trkpt lat="43.952513" lon="12.4246215"><ele>231.0</ele><time>2026-04-09T15:58:09.189Z</time></trkpt><trkpt lat="43.952616" lon="12.4245611"><ele>229.0</ele><time>2026-04-09T15:58:10.191Z</time></trkpt><trkpt lat="43.9527216" lon="12.4245092"><ele>227.79999999999998</ele><time>2026-04-09T15:58:11.191Z</time></trkpt><trkpt lat="43.9528369" lon="12.4244625"><ele>226.59999999999997</ele><time>2026-04-09T15:58:12.2Z</time></trkpt><trkpt lat="43.9529438" lon="12.4244132"><ele>225.4</ele><time>2026-04-09T15:58:13.195Z</time></trkpt><trkpt lat="43.9530341" lon="12.4243584"><ele>224.2</ele><time>2026-04-09T15:58:14.195Z</time></trkpt><trkpt lat="43.9531115" lon="12.4243011"><ele>223.0</ele><time>2026-04-09T15:58:15.207Z</time></trkpt><trkpt lat="43.9531774" lon="12.4242285"><ele>222.99999999999997</ele><time>2026-04-09T15:58:16.194Z</time></trkpt><trkpt lat="43.9532307" lon="12.4241475"><ele>223.0</ele><time>2026-04-09T15:58:17.223Z</time></trkpt><trkpt lat="43.9532589" lon="12.4240367"><ele>223.0</ele><time>2026-04-09T15:58:18.204Z</time></trkpt><trkpt lat="43.9532561" lon="12.4239245"><ele>223.0</ele><time>2026-04-09T15:58:19.181Z</time></trkpt><trkpt lat="43.9532428" lon="12.4237924"><ele>222.99999999999997</ele><time>2026-04-09T15:58:20.203Z</time></trkpt><trkpt lat="43.9532333" lon="12.4236581"><ele>223.0</ele><time>2026-04-09T15:58:21.204Z</time></trkpt><trkpt lat="43.9532126" lon="12.4235344"><ele>222.66666666666666</ele><time>2026-04-09T15:58:22.212Z</time></trkpt><trkpt lat="43.9531735" lon="12.423416"><ele>222.33333333333331</ele><time>2026-04-09T15:58:23.199Z</time></trkpt><trkpt lat="43.9531167" lon="12.4233239"><ele>222.0</ele><time>2026-04-09T15:58:24.144Z</time></trkpt><trkpt lat="43.9530463" lon="12.4232478"><ele>221.66666666666669</ele><time>2026-04-09T15:58:25.134Z</time></trkpt><trkpt lat="43.9529747" lon="12.4231814"><ele>221.33333333333334</ele><time>2026-04-09T15:58:26.196Z</time></trkpt><trkpt lat="43.9528998" lon="12.4231112"><ele>221.0</ele><time>2026-04-09T15:58:27.195Z</time></trkpt><trkpt lat="43.9528262" lon="12.4230402"><ele>222.0</ele><time>2026-04-09T15:58:28.197Z</time></trkpt><trkpt lat="43.9527532" lon="12.422957"><ele>223.00000000000003</ele><time>2026-04-09T15:58:29.201Z</time></trkpt><trkpt lat="43.9526816" lon="12.4228874"><ele>224.00000000000003</ele><time>2026-04-09T15:58:30.198Z</time></trkpt><trkpt lat="43.9526013" lon="12.4228414"><ele>225.0</ele><time>2026-04-09T15:58:31.188Z</time></trkpt><trkpt lat="43.952508" lon="12.4228369"><ele>226.0</ele><time>2026-04-09T15:58:32.204Z</time></trkpt><trkpt lat="43.952403" lon="12.4228458"><ele>223.16666666666666</ele><time>2026-04-09T15:58:33.184Z</time></trkpt><trkpt lat="43.9523069" lon="12.4228506"><ele>220.33333333333331</ele><time>2026-04-09T15:58:34.167Z</time></trkpt><trkpt lat="43.9522212" lon="12.4228338"><ele>217.5</ele><time>2026-04-09T15:58:35.202Z</time></trkpt><trkpt lat="43.9521341" lon="12.4228098"><ele>214.66666666666669</ele><time>2026-04-09T15:58:36.199Z</time></trkpt><trkpt lat="43.9520504" lon="12.4227697"><ele>211.83333333333334</ele><time>2026-04-09T15:58:37.197Z</time></trkpt><trkpt lat="43.9519701" lon="12.4227253"><ele>209.0</ele><time>2026-04-09T15:58:38.202Z</time></trkpt><trkpt lat="43.9518871" lon="12.4226709"><ele>209.0</ele><time>2026-04-09T15:58:39.178Z</time></trkpt><trkpt lat="43.9518096" lon="12.4226012"><ele>209.0</ele><time>2026-04-09T15:58:40.207Z</time></trkpt><trkpt lat="43.9517258" lon="12.4225371"><ele>209.0</ele><time>2026-04-09T15:58:41.193Z</time></trkpt><trkpt lat="43.9516399" lon="12.4224591"><ele>209.0</ele><time>2026-04-09T15:58:42.215Z</time></trkpt><trkpt lat="43.9515651" lon="12.4223659"><ele>209.0</ele><time>2026-04-09T15:58:43.207Z</time></trkpt><trkpt lat="43.9515023" lon="12.4222509"><ele>205.0</ele><time>2026-04-09T15:58:44.176Z</time></trkpt><trkpt lat="43.9514513" lon="12.4221161"><ele>201.0</ele><time>2026-04-09T15:58:45.181Z</time></trkpt><trkpt lat="43.9514078" lon="12.4219735"><ele>197.0</ele><time>2026-04-09T15:58:46.198Z</time></trkpt><trkpt lat="43.9513706" lon="12.4218212"><ele>193.0</ele><time>2026-04-09T15:58:47.187Z</time></trkpt><trkpt lat="43.9513294" lon="12.4216641"><ele>193.0</ele><time>2026-04-09T15:58:48.201Z</time></trkpt><trkpt lat="43.9512922" lon="12.4215063"><ele>193.0</ele><time>2026-04-09T15:58:49.186Z</time></trkpt><trkpt lat="43.9512578" lon="12.421343"><ele>193.0</ele><time>2026-04-09T15:58:50.184Z</time></trkpt><trkpt lat="43.9512468" lon="12.4211737"><ele>193.0</ele><time>2026-04-09T15:58:51.167Z</time></trkpt><trkpt lat="43.9512507" lon="12.4209974"><ele>192.25</ele><time>2026-04-09T15:58:52.187Z</time></trkpt><trkpt lat="43.9512671" lon="12.420818"><ele>191.5</ele><time>2026-04-09T15:58:53.192Z</time></trkpt><trkpt lat="43.9512779" lon="12.4206442"><ele>190.75</ele><time>2026-04-09T15:58:54.204Z</time></trkpt><trkpt lat="43.9513085" lon="12.4204734"><ele>190.0</ele><time>2026-04-09T15:58:55.199Z</time></trkpt><trkpt lat="43.9513579" lon="12.4203278"><ele>190.8</ele><time>2026-04-09T15:58:56.198Z</time></trkpt><trkpt lat="43.9514288" lon="12.4202066"><ele>191.6</ele><time>2026-04-09T15:58:57.191Z</time></trkpt><trkpt lat="43.9515091" lon="12.4200994"><ele>192.39999999999998</ele><time>2026-04-09T15:58:58.223Z</time></trkpt><trkpt lat="43.9516003" lon="12.4200066"><ele>193.2</ele><time>2026-04-09T15:58:59.185Z</time></trkpt><trkpt lat="43.9516859" lon="12.4199175"><ele>194.0</ele><time>2026-04-09T15:59:00.197Z</time></trkpt><trkpt lat="43.9517655" lon="12.4198153"><ele>194.0</ele><time>2026-04-09T15:59:01.199Z</time></trkpt><trkpt lat="43.9518402" lon="12.4197051"><ele>194.0</ele><time>2026-04-09T15:59:02.191Z</time></trkpt><trkpt lat="43.9519075" lon="12.4195939"><ele>194.0</ele><time>2026-04-09T15:59:03.171Z</time></trkpt><trkpt lat="43.9519664" lon="12.4194684"><ele>194.0</ele><time>2026-04-09T15:59:04.181Z</time></trkpt><trkpt lat="43.9520017" lon="12.4193236"><ele>194.0</ele><time>2026-04-09T15:59:05.194Z</time></trkpt><trkpt lat="43.9520246" lon="12.4191771"><ele>192.0</ele><time>2026-04-09T15:59:06.187Z</time></trkpt><trkpt lat="43.9520487" lon="12.4190409"><ele>190.0</ele><time>2026-04-09T15:59:07.19Z</time></trkpt><trkpt lat="43.9520768" lon="12.4189017"><ele>188.0</ele><time>2026-04-09T15:59:08.197Z</time></trkpt><trkpt lat="43.9521071" lon="12.4187846"><ele>186.0</ele><time>2026-04-09T15:59:09.175Z</time></trkpt><trkpt lat="43.9521374" lon="12.4186608"><ele>184.0</ele><time>2026-04-09T15:59:10.207Z</time></trkpt><trkpt lat="43.95217" lon="12.4185511"><ele>183.42857142857144</ele><time>2026-04-09T15:59:11.217Z</time></trkpt><trkpt lat="43.9521836" lon="12.4184622"><ele>182.85714285714283</ele><time>2026-04-09T15:59:12.205Z</time></trkpt><trkpt lat="43.9521914" lon="12.4183428"><ele>182.28571428571428</ele><time>2026-04-09T15:59:14.173Z</time></trkpt><trkpt lat="43.9522006" lon="12.4182541"><ele>181.71428571428572</ele><time>2026-04-09T15:59:22.183Z</time></trkpt><trkpt lat="43.952268" lon="12.4181932"><ele>181.14285714285717</ele><time>2026-04-09T16:00:10.201Z</time></trkpt><trkpt lat="43.9523021" lon="12.4181053"><ele>180.57142857142856</ele><time>2026-04-09T16:00:13.173Z</time></trkpt><trkpt lat="43.9523491" lon="12.4180227"><ele>180.0</ele><time>2026-04-09T16:00:15.207Z</time></trkpt><trkpt lat="43.9524035" lon="12.4179252"><ele>180.4</ele><time>2026-04-09T16:00:17.194Z</time></trkpt><trkpt lat="43.9524566" lon="12.4178048"><ele>180.8</ele><time>2026-04-09T16:00:19.167Z</time></trkpt><trkpt lat="43.9525201" lon="12.4176522"><ele>181.2</ele><time>2026-04-09T16:00:21.212Z</time></trkpt><trkpt lat="43.9525594" lon="12.4175608"><ele>181.6</ele><time>2026-04-09T16:00:22.207Z</time></trkpt><trkpt lat="43.9526028" lon="12.4174653"><ele>182.0</ele><time>2026-04-09T16:00:23.194Z</time></trkpt><trkpt lat="43.9526537" lon="12.4173584"><ele>182.0</ele><time>2026-04-09T16:00:24.147Z</time></trkpt><trkpt lat="43.9527062" lon="12.4172506"><ele>182.0</ele><time>2026-04-09T16:00:25.173Z</time></trkpt><trkpt lat="43.9527573" lon="12.4171363"><ele>182.0</ele><time>2026-04-09T16:00:26.2Z</time></trkpt><trkpt lat="43.9528087" lon="12.4170105"><ele>182.0</ele><time>2026-04-09T16:00:27.186Z</time></trkpt><trkpt lat="43.952857" lon="12.4168796"><ele>182.0</ele><time>2026-04-09T16:00:28.193Z</time></trkpt><trkpt lat="43.9529013" lon="12.4167395"><ele>180.6</ele><time>2026-04-09T16:00:29.2Z</time></trkpt><trkpt lat="43.9529425" lon="12.4166046"><ele>179.2</ele><time>2026-04-09T16:00:30.207Z</time></trkpt><trkpt lat="43.9529858" lon="12.4164744"><ele>177.8</ele><time>2026-04-09T16:00:31.207Z</time></trkpt><trkpt lat="43.9530376" lon="12.416336"><ele>176.4</ele><time>2026-04-09T16:00:32.202Z</time></trkpt><trkpt lat="43.953095" lon="12.4162125"><ele>175.0</ele><time>2026-04-09T16:00:33.2Z</time></trkpt><trkpt lat="43.9531638" lon="12.4161299"><ele>173.83333333333334</ele><time>2026-04-09T16:00:34.202Z</time></trkpt><trkpt lat="43.9532195" lon="12.4160568"><ele>172.66666666666669</ele><time>2026-04-09T16:00:35.211Z</time></trkpt><trkpt lat="43.9532557" lon="12.4159683"><ele>171.5</ele><time>2026-04-09T16:00:36.201Z</time></trkpt><trkpt lat="43.9532554" lon="12.4158597"><ele>170.33333333333334</ele><time>2026-04-09T16:00:37.203Z</time></trkpt><trkpt lat="43.9532399" lon="12.4157317"><ele>169.16666666666666</ele><time>2026-04-09T16:00:38.187Z</time></trkpt><trkpt lat="43.9532068" lon="12.4156118"><ele>168.0</ele><time>2026-04-09T16:00:39.189Z</time></trkpt><trkpt lat="43.9531772" lon="12.4154884"><ele>166.8</ele><time>2026-04-09T16:00:40.197Z</time></trkpt><trkpt lat="43.9531558" lon="12.4153681"><ele>165.60000000000002</ele><time>2026-04-09T16:00:41.193Z</time></trkpt><trkpt lat="43.9531498" lon="12.4152329"><ele>164.39999999999998</ele><time>2026-04-09T16:00:42.204Z</time></trkpt><trkpt lat="43.9531516" lon="12.4150913"><ele>163.2</ele><time>2026-04-09T16:00:43.177Z</time></trkpt><trkpt lat="43.9531521" lon="12.4149473"><ele>162.0</ele><time>2026-04-09T16:00:44.197Z</time></trkpt><trkpt lat="43.9531556" lon="12.4148043"><ele>162.0</ele><time>2026-04-09T16:00:45.186Z</time></trkpt><trkpt lat="43.9531662" lon="12.4146647"><ele>162.0</ele><time>2026-04-09T16:00:46.194Z</time></trkpt><trkpt lat="43.9531813" lon="12.4145316"><ele>162.0</ele><time>2026-04-09T16:00:47.148Z</time></trkpt><trkpt lat="43.9532" lon="12.414412"><ele>162.0</ele><time>2026-04-09T16:00:48.172Z</time></trkpt><trkpt lat="43.953221" lon="12.4143072"><ele>162.0</ele><time>2026-04-09T16:00:49.208Z</time></trkpt><trkpt lat="43.9532225" lon="12.4142179"><ele>162.0</ele><time>2026-04-09T16:00:50.173Z</time></trkpt><trkpt lat="43.9531873" lon="12.4141319"><ele>162.16666666666666</ele><time>2026-04-09T16:00:51.16Z</time></trkpt><trkpt lat="43.9530801" lon="12.4140514"><ele>162.33333333333334</ele><time>2026-04-09T16:00:53.136Z</time></trkpt><trkpt lat="43.9530066" lon="12.4140192"><ele>162.5</ele><time>2026-04-09T16:00:54.15Z</time></trkpt><trkpt lat="43.9529313" lon="12.413983"><ele>162.66666666666669</ele><time>2026-04-09T16:00:55.16Z</time></trkpt><trkpt lat="43.9528577" lon="12.4139301"><ele>162.83333333333334</ele><time>2026-04-09T16:00:56.187Z</time></trkpt><trkpt lat="43.9528001" lon="12.4138615"><ele>163.0</ele><time>2026-04-09T16:00:57.186Z</time></trkpt><trkpt lat="43.9527649" lon="12.413762"><ele>163.0</ele><time>2026-04-09T16:00:58.2Z</time></trkpt><trkpt lat="43.9527559" lon="12.4136546"><ele>163.0</ele><time>2026-04-09T16:00:59.158Z</time></trkpt><trkpt lat="43.9527558" lon="12.4135422"><ele>163.0</ele><time>2026-04-09T16:01:00.151Z</time></trkpt><trkpt lat="43.9527601" lon="12.4134297"><ele>163.0</ele><time>2026-04-09T16:01:01.147Z</time></trkpt><trkpt lat="43.9527632" lon="12.4133133"><ele>163.0</ele><time>2026-04-09T16:01:02.154Z</time></trkpt><trkpt lat="43.952771" lon="12.4132005"><ele>163.0</ele><time>2026-04-09T16:01:03.14Z</time></trkpt><trkpt lat="43.9527815" lon="12.4130881"><ele>162.83333333333334</ele><time>2026-04-09T16:01:04.155Z</time></trkpt><trkpt lat="43.9527983" lon="12.4129841"><ele>162.66666666666669</ele><time>2026-04-09T16:01:05.186Z</time></trkpt><trkpt lat="43.952811" lon="12.4128877"><ele>162.5</ele><time>2026-04-09T16:01:06.193Z</time></trkpt><trkpt lat="43.9527972" lon="12.4127827"><ele>162.33333333333334</ele><time>2026-04-09T16:01:07.205Z</time></trkpt><trkpt lat="43.9527817" lon="12.4126783"><ele>162.16666666666666</ele><time>2026-04-09T16:01:08.215Z</time></trkpt><trkpt lat="43.9527606" lon="12.4125702"><ele>162.0</ele><time>2026-04-09T16:01:09.207Z</time></trkpt><trkpt lat="43.9527247" lon="12.4124579"><ele>162.0</ele><time>2026-04-09T16:01:10.15Z</time></trkpt><trkpt lat="43.9526866" lon="12.4123547"><ele>162.0</ele><time>2026-04-09T16:01:11.173Z</time></trkpt><trkpt lat="43.9526403" lon="12.4122479"><ele>162.0</ele><time>2026-04-09T16:01:12.188Z</time></trkpt><trkpt lat="43.9525977" lon="12.4121317"><ele>162.0</ele><time>2026-04-09T16:01:13.194Z</time></trkpt><trkpt lat="43.9525614" lon="12.4120158"><ele>162.0</ele><time>2026-04-09T16:01:14.191Z</time></trkpt><trkpt lat="43.952527" lon="12.4119004"><ele>162.0</ele><time>2026-04-09T16:01:15.192Z</time></trkpt><trkpt lat="43.9524985" lon="12.411783"><ele>161.6</ele><time>2026-04-09T16:01:16.221Z</time></trkpt><trkpt lat="43.9524952" lon="12.4116547"><ele>161.2</ele><time>2026-04-09T16:01:17.157Z</time></trkpt><trkpt lat="43.9525281" lon="12.411533"><ele>160.8</ele><time>2026-04-09T16:01:18.188Z</time></trkpt><trkpt lat="43.952581" lon="12.4114221"><ele>160.4</ele><time>2026-04-09T16:01:19.166Z</time></trkpt><trkpt lat="43.9526413" lon="12.4113394"><ele>160.0</ele><time>2026-04-09T16:01:20.146Z</time></trkpt><trkpt lat="43.9527079" lon="12.4112593"><ele>158.83333333333334</ele><time>2026-04-09T16:01:21.196Z</time></trkpt><trkpt lat="43.95277" lon="12.4111768"><ele>157.66666666666669</ele><time>2026-04-09T16:01:22.186Z</time></trkpt><trkpt lat="43.9528275" lon="12.4110867"><ele>156.5</ele><time>2026-04-09T16:01:23.201Z</time></trkpt><trkpt lat="43.9528822" lon="12.4109908"><ele>155.33333333333334</ele><time>2026-04-09T16:01:24.2Z</time></trkpt><trkpt lat="43.9529356" lon="12.4108909"><ele>154.16666666666666</ele><time>2026-04-09T16:01:25.213Z</time></trkpt><trkpt lat="43.9529848" lon="12.4107928"><ele>153.0</ele><time>2026-04-09T16:01:26.223Z</time></trkpt><trkpt lat="43.9530298" lon="12.4106914"><ele>153.0</ele><time>2026-04-09T16:01:27.212Z</time></trkpt><trkpt lat="43.9530681" lon="12.4105773"><ele>153.0</ele><time>2026-04-09T16:01:28.184Z</time></trkpt><trkpt lat="43.9531199" lon="12.4104706"><ele>153.0</ele><time>2026-04-09T16:01:29.214Z</time></trkpt><trkpt lat="43.9531703" lon="12.4103685"><ele>153.0</ele><time>2026-04-09T16:01:30.213Z</time></trkpt><trkpt lat="43.9532152" lon="12.4102619"><ele>153.0</ele><time>2026-04-09T16:01:31.158Z</time></trkpt><trkpt lat="43.9532543" lon="12.4101489"><ele>152.16666666666666</ele><time>2026-04-09T16:01:32.156Z</time></trkpt><trkpt lat="43.9532917" lon="12.410027"><ele>151.33333333333334</ele><time>2026-04-09T16:01:33.2Z</time></trkpt><trkpt lat="43.9533021" lon="12.4099079"><ele>150.5</ele><time>2026-04-09T16:01:34.197Z</time></trkpt><trkpt lat="43.9533125" lon="12.4097847"><ele>149.66666666666669</ele><time>2026-04-09T16:01:35.197Z</time></trkpt><trkpt lat="43.9533217" lon="12.4096708"><ele>148.83333333333334</ele><time>2026-04-09T16:01:36.2Z</time></trkpt><trkpt lat="43.9533336" lon="12.4095547"><ele>148.0</ele><time>2026-04-09T16:01:37.205Z</time></trkpt><trkpt lat="43.9533499" lon="12.4094418"><ele>148.33333333333334</ele><time>2026-04-09T16:01:38.221Z</time></trkpt><trkpt lat="43.9533668" lon="12.4093245"><ele>148.66666666666669</ele><time>2026-04-09T16:01:39.198Z</time></trkpt><trkpt lat="43.9533851" lon="12.4092049"><ele>149.0</ele><time>2026-04-09T16:01:40.173Z</time></trkpt><trkpt lat="43.9534039" lon="12.4090854"><ele>149.33333333333334</ele><time>2026-04-09T16:01:41.173Z</time></trkpt><trkpt lat="43.9534153" lon="12.4089616"><ele>149.66666666666666</ele><time>2026-04-09T16:01:42.192Z</time></trkpt><trkpt lat="43.9534321" lon="12.4088465"><ele>150.0</ele><time>2026-04-09T16:01:43.155Z</time></trkpt><trkpt lat="43.9534484" lon="12.4087246"><ele>150.0</ele><time>2026-04-09T16:01:44.211Z</time></trkpt><trkpt lat="43.953468" lon="12.4086023"><ele>150.0</ele><time>2026-04-09T16:01:45.203Z</time></trkpt><trkpt lat="43.9534825" lon="12.4084904"><ele>150.0</ele><time>2026-04-09T16:01:46.194Z</time></trkpt><trkpt lat="43.9535032" lon="12.4083782"><ele>150.0</ele><time>2026-04-09T16:01:47.173Z</time></trkpt><trkpt lat="43.9535308" lon="12.4082661"><ele>150.0</ele><time>2026-04-09T16:01:48.215Z</time></trkpt><trkpt lat="43.9535648" lon="12.4081606"><ele>150.0</ele><time>2026-04-09T16:01:49.199Z</time></trkpt><trkpt lat="43.9535933" lon="12.4080567"><ele>148.83333333333334</ele><time>2026-04-09T16:01:50.211Z</time></trkpt><trkpt lat="43.9536268" lon="12.4079516"><ele>147.66666666666666</ele><time>2026-04-09T16:01:51.205Z</time></trkpt><trkpt lat="43.9536641" lon="12.4078421"><ele>146.5</ele><time>2026-04-09T16:01:52.192Z</time></trkpt><trkpt lat="43.9536952" lon="12.4077326"><ele>145.33333333333331</ele><time>2026-04-09T16:01:53.218Z</time></trkpt><trkpt lat="43.9537308" lon="12.4076267"><ele>144.16666666666666</ele><time>2026-04-09T16:01:54.21Z</time></trkpt><trkpt lat="43.9537766" lon="12.4075272"><ele>143.0</ele><time>2026-04-09T16:01:55.206Z</time></trkpt><trkpt lat="43.9538272" lon="12.4074397"><ele>143.0</ele><time>2026-04-09T16:01:56.215Z</time></trkpt><trkpt lat="43.953881" lon="12.4073564"><ele>143.0</ele><time>2026-04-09T16:01:57.2Z</time></trkpt><trkpt lat="43.9539384" lon="12.4072745"><ele>143.0</ele><time>2026-04-09T16:01:58.185Z</time></trkpt><trkpt lat="43.953992" lon="12.4071879"><ele>143.0</ele><time>2026-04-09T16:01:59.21Z</time></trkpt><trkpt lat="43.954051" lon="12.407103"><ele>143.0</ele><time>2026-04-09T16:02:00.211Z</time></trkpt><trkpt lat="43.9541015" lon="12.4070154"><ele>143.0</ele><time>2026-04-09T16:02:01.209Z</time></trkpt><trkpt lat="43.9541497" lon="12.4069246"><ele>143.0</ele><time>2026-04-09T16:02:02.199Z</time></trkpt><trkpt lat="43.9541993" lon="12.4068307"><ele>143.0</ele><time>2026-04-09T16:02:03.212Z</time></trkpt><trkpt lat="43.9542445" lon="12.4067305"><ele>143.0</ele><time>2026-04-09T16:02:04.216Z</time></trkpt><trkpt lat="43.9542864" lon="12.4066264"><ele>143.0</ele><time>2026-04-09T16:02:05.21Z</time></trkpt><trkpt lat="43.9543265" lon="12.406529"><ele>143.0</ele><time>2026-04-09T16:02:06.216Z</time></trkpt><trkpt lat="43.954362" lon="12.4064301"><ele>143.0</ele><time>2026-04-09T16:02:07.217Z</time></trkpt><trkpt lat="43.9543897" lon="12.4063221"><ele>142.16666666666666</ele><time>2026-04-09T16:02:08.234Z</time></trkpt><trkpt lat="43.9544189" lon="12.4062116"><ele>141.33333333333331</ele><time>2026-04-09T16:02:09.214Z</time></trkpt><trkpt lat="43.9544494" lon="12.4061023"><ele>140.5</ele><time>2026-04-09T16:02:10.189Z</time></trkpt><trkpt lat="43.9544769" lon="12.4059929"><ele>139.66666666666666</ele><time>2026-04-09T16:02:11.206Z</time></trkpt><trkpt lat="43.9545036" lon="12.405894"><ele>138.83333333333334</ele><time>2026-04-09T16:02:12.199Z</time></trkpt><trkpt lat="43.9545212" lon="12.405795"><ele>138.0</ele><time>2026-04-09T16:02:13.175Z</time></trkpt><trkpt lat="43.9545496" lon="12.4056969"><ele>138.0</ele><time>2026-04-09T16:02:14.214Z</time></trkpt><trkpt lat="43.9545739" lon="12.4055975"><ele>138.0</ele><time>2026-04-09T16:02:15.169Z</time></trkpt><trkpt lat="43.9545999" lon="12.4055024"><ele>138.0</ele><time>2026-04-09T16:02:16.222Z</time></trkpt><trkpt lat="43.9546405" lon="12.4053908"><ele>138.0</ele><time>2026-04-09T16:02:18.219Z</time></trkpt><trkpt lat="43.9547028" lon="12.4053292"><ele>138.0</ele><time>2026-04-09T16:02:22.215Z</time></trkpt><trkpt lat="43.9547939" lon="12.4053078"><ele>138.0</ele><time>2026-04-09T16:02:25.213Z</time></trkpt><trkpt lat="43.9549046" lon="12.405294"><ele>138.16666666666666</ele><time>2026-04-09T16:02:27.177Z</time></trkpt><trkpt lat="43.9550154" lon="12.4052669"><ele>138.33333333333334</ele><time>2026-04-09T16:02:29.188Z</time></trkpt><trkpt lat="43.9551374" lon="12.4052497"><ele>138.5</ele><time>2026-04-09T16:02:31.186Z</time></trkpt><trkpt lat="43.9552026" lon="12.4052371"><ele>138.66666666666669</ele><time>2026-04-09T16:02:32.194Z</time></trkpt><trkpt lat="43.9552651" lon="12.4052247"><ele>138.83333333333334</ele><time>2026-04-09T16:02:33.155Z</time></trkpt><trkpt lat="43.9553305" lon="12.4052143"><ele>139.0</ele><time>2026-04-09T16:02:34.167Z</time></trkpt><trkpt lat="43.9553968" lon="12.405203"><ele>138.42857142857142</ele><time>2026-04-09T16:02:35.155Z</time></trkpt><trkpt lat="43.9554679" lon="12.4051935"><ele>137.85714285714286</ele><time>2026-04-09T16:02:36.148Z</time></trkpt><trkpt lat="43.9555372" lon="12.4051864"><ele>137.28571428571428</ele><time>2026-04-09T16:02:37.162Z</time></trkpt><trkpt lat="43.9556082" lon="12.4051789"><ele>136.71428571428572</ele><time>2026-04-09T16:02:38.153Z</time></trkpt><trkpt lat="43.9556763" lon="12.4051715"><ele>136.14285714285714</ele><time>2026-04-09T16:02:39.162Z</time></trkpt><trkpt lat="43.9557472" lon="12.4051592"><ele>135.57142857142856</ele><time>2026-04-09T16:02:40.187Z</time></trkpt><trkpt lat="43.9558203" lon="12.4051455"><ele>135.0</ele><time>2026-04-09T16:02:41.175Z</time></trkpt><trkpt lat="43.9558967" lon="12.4051317"><ele>134.66666666666666</ele><time>2026-04-09T16:02:42.213Z</time></trkpt><trkpt lat="43.9559681" lon="12.4051211"><ele>134.33333333333334</ele><time>2026-04-09T16:02:43.157Z</time></trkpt><trkpt lat="43.9560426" lon="12.4051132"><ele>134.0</ele><time>2026-04-09T16:02:44.173Z</time></trkpt><trkpt lat="43.9561203" lon="12.4050958"><ele>133.66666666666669</ele><time>2026-04-09T16:02:45.182Z</time></trkpt><trkpt lat="43.9561995" lon="12.4050833"><ele>133.33333333333334</ele><time>2026-04-09T16:02:46.208Z</time></trkpt><trkpt lat="43.9562749" lon="12.4050739"><ele>133.0</ele><time>2026-04-09T16:02:47.214Z</time></trkpt><trkpt lat="43.9563477" lon="12.4050642"><ele>133.0</ele><time>2026-04-09T16:02:48.229Z</time></trkpt><trkpt lat="43.9564177" lon="12.4050538"><ele>133.0</ele><time>2026-04-09T16:02:49.183Z</time></trkpt><trkpt lat="43.9564938" lon="12.4050356"><ele>133.0</ele><time>2026-04-09T16:02:50.155Z</time></trkpt><trkpt lat="43.9565664" lon="12.4050231"><ele>133.0</ele><time>2026-04-09T16:02:51.169Z</time></trkpt><trkpt lat="43.9566373" lon="12.4050126"><ele>133.0</ele><time>2026-04-09T16:02:52.158Z</time></trkpt><trkpt lat="43.956711" lon="12.4049986"><ele>133.0</ele><time>2026-04-09T16:02:53.168Z</time></trkpt><trkpt lat="43.9567749" lon="12.4049792"><ele>133.0</ele><time>2026-04-09T16:02:54.191Z</time></trkpt><trkpt lat="43.9568471" lon="12.4049622"><ele>132.83333333333334</ele><time>2026-04-09T16:02:55.149Z</time></trkpt><trkpt lat="43.9569214" lon="12.4049579"><ele>132.66666666666669</ele><time>2026-04-09T16:02:56.172Z</time></trkpt><trkpt lat="43.9569992" lon="12.4049548"><ele>132.5</ele><time>2026-04-09T16:02:57.183Z</time></trkpt><trkpt lat="43.9570772" lon="12.4049501"><ele>132.33333333333334</ele><time>2026-04-09T16:02:58.176Z</time></trkpt><trkpt lat="43.9571541" lon="12.4049315"><ele>132.16666666666666</ele><time>2026-04-09T16:02:59.168Z</time></trkpt><trkpt lat="43.9572247" lon="12.4049167"><ele>132.0</ele><time>2026-04-09T16:03:00.172Z</time></trkpt><trkpt lat="43.9572974" lon="12.4048999"><ele>132.0</ele><time>2026-04-09T16:03:01.139Z</time></trkpt><trkpt lat="43.9573704" lon="12.4048849"><ele>132.0</ele><time>2026-04-09T16:03:02.152Z</time></trkpt><trkpt lat="43.9574457" lon="12.4048617"><ele>132.0</ele><time>2026-04-09T16:03:03.197Z</time></trkpt><trkpt lat="43.9575201" lon="12.4048357"><ele>132.0</ele><time>2026-04-09T16:03:04.141Z</time></trkpt><trkpt lat="43.9575927" lon="12.4048158"><ele>132.0</ele><time>2026-04-09T16:03:05.14Z</time></trkpt><trkpt lat="43.9576665" lon="12.4047942"><ele>132.0</ele><time>2026-04-09T16:03:06.179Z</time></trkpt><trkpt lat="43.9577372" lon="12.4047626"><ele>132.0</ele><time>2026-04-09T16:03:07.145Z</time></trkpt><trkpt lat="43.9578086" lon="12.4047281"><ele>132.0</ele><time>2026-04-09T16:03:08.152Z</time></trkpt><trkpt lat="43.9578773" lon="12.4046886"><ele>132.0</ele><time>2026-04-09T16:03:09.197Z</time></trkpt><trkpt lat="43.9579434" lon="12.404646"><ele>132.0</ele><time>2026-04-09T16:03:10.148Z</time></trkpt><trkpt lat="43.9580074" lon="12.4045953"><ele>132.0</ele><time>2026-04-09T16:03:11.191Z</time></trkpt><trkpt lat="43.9580701" lon="12.4045451"><ele>132.0</ele><time>2026-04-09T16:03:12.156Z</time></trkpt><trkpt lat="43.9581344" lon="12.4045007"><ele>132.0</ele><time>2026-04-09T16:03:13.187Z</time></trkpt><trkpt lat="43.9581944" lon="12.4044437"><ele>132.0</ele><time>2026-04-09T16:03:14.213Z</time></trkpt><trkpt lat="43.9582548" lon="12.4043868"><ele>132.0</ele><time>2026-04-09T16:03:15.203Z</time></trkpt><trkpt lat="43.9583175" lon="12.4043287"><ele>132.0</ele><time>2026-04-09T16:03:16.202Z</time></trkpt><trkpt lat="43.9583773" lon="12.404267"><ele>132.0</ele><time>2026-04-09T16:03:17.16Z</time></trkpt><trkpt lat="43.958434" lon="12.4042085"><ele>132.0</ele><time>2026-04-09T16:03:18.16Z</time></trkpt><trkpt lat="43.9584879" lon="12.4041396"><ele>132.0</ele><time>2026-04-09T16:03:19.145Z</time></trkpt><trkpt lat="43.9585412" lon="12.4040628"><ele>132.0</ele><time>2026-04-09T16:03:20.142Z</time></trkpt><trkpt lat="43.9585885" lon="12.403989"><ele>133.0</ele><time>2026-04-09T16:03:21.143Z</time></trkpt><trkpt lat="43.9586312" lon="12.4039142"><ele>134.0</ele><time>2026-04-09T16:03:22.157Z</time></trkpt><trkpt lat="43.9586783" lon="12.4038326"><ele>135.0</ele><time>2026-04-09T16:03:23.155Z</time></trkpt><trkpt lat="43.9587211" lon="12.4037577"><ele>136.0</ele><time>2026-04-09T16:03:24.145Z</time></trkpt><trkpt lat="43.9587657" lon="12.4036776"><ele>137.0</ele><time>2026-04-09T16:03:25.141Z</time></trkpt><trkpt lat="43.9588059" lon="12.4035998"><ele>138.0</ele><time>2026-04-09T16:03:26.148Z</time></trkpt><trkpt lat="43.9588451" lon="12.4035188"><ele>139.0</ele><time>2026-04-09T16:03:27.143Z</time></trkpt><trkpt lat="43.9588772" lon="12.4034291"><ele>139.0</ele><time>2026-04-09T16:03:28.137Z</time></trkpt><trkpt lat="43.9589108" lon="12.4033377"><ele>139.0</ele><time>2026-04-09T16:03:29.141Z</time></trkpt><trkpt lat="43.9589381" lon="12.4032483"><ele>139.0</ele><time>2026-04-09T16:03:30.139Z</time></trkpt><trkpt lat="43.9589634" lon="12.4031568"><ele>139.0</ele><time>2026-04-09T16:03:31.164Z</time></trkpt><trkpt lat="43.9589888" lon="12.4030667"><ele>139.0</ele><time>2026-04-09T16:03:32.201Z</time></trkpt><trkpt lat="43.9590163" lon="12.4029786"><ele>139.0</ele><time>2026-04-09T16:03:33.186Z</time></trkpt><trkpt lat="43.9590447" lon="12.4028902"><ele>139.0</ele><time>2026-04-09T16:03:34.155Z</time></trkpt><trkpt lat="43.9590721" lon="12.4028038"><ele>138.8</ele><time>2026-04-09T16:03:35.206Z</time></trkpt><trkpt lat="43.9591284" lon="12.4026496"><ele>138.60000000000002</ele><time>2026-04-09T16:03:37.145Z</time></trkpt><trkpt lat="43.9591526" lon="12.4025673"><ele>138.4</ele><time>2026-04-09T16:03:38.171Z</time></trkpt><trkpt lat="43.9592066" lon="12.4024243"><ele>138.20000000000002</ele><time>2026-04-09T16:03:40.165Z</time></trkpt><trkpt lat="43.9592638" lon="12.4022887"><ele>138.0</ele><time>2026-04-09T16:03:42.182Z</time></trkpt><trkpt lat="43.9593463" lon="12.4021763"><ele>138.0</ele><time>2026-04-09T16:03:44.194Z</time></trkpt><trkpt lat="43.9594466" lon="12.4021177"><ele>138.0</ele><time>2026-04-09T16:03:46.203Z</time></trkpt><trkpt lat="43.9595601" lon="12.4021085"><ele>138.0</ele><time>2026-04-09T16:03:48.157Z</time></trkpt><trkpt lat="43.959673" lon="12.4021418"><ele>138.0</ele><time>2026-04-09T16:03:50.149Z</time></trkpt><trkpt lat="43.9597884" lon="12.4021857"><ele>138.0</ele><time>2026-04-09T16:03:52.151Z</time></trkpt><trkpt lat="43.9598994" lon="12.4022208"><ele>138.0</ele><time>2026-04-09T16:03:54.212Z</time></trkpt><trkpt lat="43.9600144" lon="12.4022393"><ele>138.0</ele><time>2026-04-09T16:03:56.187Z</time></trkpt><trkpt lat="43.9601359" lon="12.4022285"><ele>138.0</ele><time>2026-04-09T16:03:58.2Z</time></trkpt><trkpt lat="43.960263" lon="12.4022205"><ele>138.4</ele><time>2026-04-09T16:04:00.176Z</time></trkpt><trkpt lat="43.9603278" lon="12.4022116"><ele>138.8</ele><time>2026-04-09T16:04:01.211Z</time></trkpt><trkpt lat="43.960392" lon="12.4021938"><ele>139.2</ele><time>2026-04-09T16:04:02.205Z</time></trkpt><trkpt lat="43.96051" lon="12.4021646"><ele>139.6</ele><time>2026-04-09T16:04:04.218Z</time></trkpt><trkpt lat="43.9606287" lon="12.4021246"><ele>140.0</ele><time>2026-04-09T16:04:06.206Z</time></trkpt><trkpt lat="43.9607431" lon="12.4020778"><ele>139.66666666666666</ele><time>2026-04-09T16:04:08.21Z</time></trkpt><trkpt lat="43.9608485" lon="12.4020247"><ele>139.33333333333331</ele><time>2026-04-09T16:04:10.198Z</time></trkpt><trkpt lat="43.9609469" lon="12.4020007"><ele>139.0</ele><time>2026-04-09T16:04:12.226Z</time></trkpt><trkpt lat="43.9609981" lon="12.4020794"><ele>138.66666666666666</ele><time>2026-04-09T16:04:14.174Z</time></trkpt><trkpt lat="43.9609906" lon="12.4021976"><ele>138.33333333333334</ele><time>2026-04-09T16:04:18.202Z</time></trkpt><trkpt lat="43.9609883" lon="12.4022883"><ele>138.0</ele><time>2026-04-09T16:04:21.205Z</time></trkpt><trkpt lat="43.9609721" lon="12.4023758"><ele>138.0</ele><time>2026-04-09T16:04:25.187Z</time></trkpt><trkpt lat="43.9609567" lon="12.402477"><ele>138.0</ele><time>2026-04-09T16:04:29.191Z</time></trkpt><trkpt lat="43.9609339" lon="12.4025767"><ele>138.0</ele><time>2026-04-09T16:04:33.206Z</time></trkpt><trkpt lat="43.9609209" lon="12.402663"><ele>138.0</ele><time>2026-04-09T16:04:36.175Z</time></trkpt><trkpt lat="43.9609236" lon="12.4027735"><ele>138.0</ele><time>2026-04-09T16:04:40.223Z</time></trkpt><trkpt lat="43.9609281" lon="12.4028812"><ele>138.0</ele><time>2026-04-09T16:04:44.211Z</time></trkpt><trkpt lat="43.9609384" lon="12.4029864"><ele>138.0</ele><time>2026-04-09T16:04:48.206Z</time></trkpt><trkpt lat="43.960949" lon="12.4030913"><ele>138.71428571428572</ele><time>2026-04-09T16:04:52.16Z</time></trkpt><trkpt lat="43.9609372" lon="12.4031913"><ele>139.42857142857144</ele><time>2026-04-09T16:04:56.202Z</time></trkpt><trkpt lat="43.9609216" lon="12.4032881"><ele>140.14285714285714</ele><time>2026-04-09T16:05:00.206Z</time></trkpt><trkpt lat="43.9609022" lon="12.403374"><ele>140.85714285714286</ele><time>2026-04-09T16:05:03.188Z</time></trkpt><trkpt lat="43.9608817" lon="12.4034799"><ele>141.57142857142856</ele><time>2026-04-09T16:05:07.199Z</time></trkpt><trkpt lat="43.9608811" lon="12.4035698"><ele>142.28571428571428</ele><time>2026-04-09T16:05:10.188Z</time></trkpt><trkpt lat="43.9608712" lon="12.4036722"><ele>143.0</ele><time>2026-04-09T16:05:14.207Z</time></trkpt><trkpt lat="43.960866" lon="12.4037898"><ele>144.14285714285714</ele><time>2026-04-09T16:05:18.155Z</time></trkpt><trkpt lat="43.9608625" lon="12.4038956"><ele>145.28571428571428</ele><time>2026-04-09T16:05:22.199Z</time></trkpt><trkpt lat="43.9608566" lon="12.4039908"><ele>146.42857142857144</ele><time>2026-04-09T16:05:26.187Z</time></trkpt><trkpt lat="43.9608553" lon="12.4040969"><ele>147.57142857142856</ele><time>2026-04-09T16:05:30.188Z</time></trkpt><trkpt lat="43.9608629" lon="12.4042001"><ele>148.71428571428572</ele><time>2026-04-09T16:05:34.197Z</time></trkpt><trkpt lat="43.9608554" lon="12.4042977"><ele>149.85714285714286</ele><time>2026-04-09T16:05:38.195Z</time></trkpt><trkpt lat="43.9608603" lon="12.4044111"><ele>151.0</ele><time>2026-04-09T16:05:42.207Z</time></trkpt><trkpt lat="43.9608735" lon="12.4045172"><ele>151.0</ele><time>2026-04-09T16:05:46.215Z</time></trkpt><trkpt lat="43.9608734" lon="12.4046198"><ele>151.0</ele><time>2026-04-09T16:05:50.2Z</time></trkpt><trkpt lat="43.9608674" lon="12.4047155"><ele>151.0</ele><time>2026-04-09T16:05:54.214Z</time></trkpt><trkpt lat="43.9608607" lon="12.4048191"><ele>151.0</ele><time>2026-04-09T16:05:58.171Z</time></trkpt><trkpt lat="43.9608469" lon="12.4049367"><ele>151.0</ele><time>2026-04-09T16:06:03.215Z</time></trkpt><trkpt lat="43.9608458" lon="12.4050295"><ele>151.0</ele><time>2026-04-09T16:06:07.19Z</time></trkpt><trkpt lat="43.960841" lon="12.4051431"><ele>152.57142857142858</ele><time>2026-04-09T16:06:11.212Z</time></trkpt><trkpt lat="43.9608392" lon="12.4052537"><ele>154.14285714285714</ele><time>2026-04-09T16:06:15.196Z</time></trkpt><trkpt lat="43.960833" lon="12.4053573"><ele>155.71428571428572</ele><time>2026-04-09T16:06:19.195Z</time></trkpt><trkpt lat="43.9608295" lon="12.4054667"><ele>157.28571428571428</ele><time>2026-04-09T16:06:23.207Z</time></trkpt><trkpt lat="43.9608256" lon="12.4055548"><ele>158.85714285714286</ele><time>2026-04-09T16:06:26.211Z</time></trkpt><trkpt lat="43.9608197" lon="12.4056493"><ele>160.42857142857144</ele><time>2026-04-09T16:06:30.184Z</time></trkpt><trkpt lat="43.9608074" lon="12.4057443"><ele>162.0</ele><time>2026-04-09T16:06:34.203Z</time></trkpt><trkpt lat="43.9608033" lon="12.4058409"><ele>162.83333333333334</ele><time>2026-04-09T16:06:38.209Z</time></trkpt><trkpt lat="43.9607982" lon="12.4059394"><ele>163.66666666666666</ele><time>2026-04-09T16:06:42.208Z</time></trkpt><trkpt lat="43.9608013" lon="12.4060486"><ele>164.5</ele><time>2026-04-09T16:06:46.206Z</time></trkpt><trkpt lat="43.9608102" lon="12.4061597"><ele>165.33333333333331</ele><time>2026-04-09T16:06:50.205Z</time></trkpt><trkpt lat="43.9608038" lon="12.4062768"><ele>166.16666666666666</ele><time>2026-04-09T16:06:54.184Z</time></trkpt><trkpt lat="43.9607834" lon="12.4063674"><ele>167.0</ele><time>2026-04-09T16:06:57.191Z</time></trkpt><trkpt lat="43.9607542" lon="12.4064741"><ele>168.0</ele><time>2026-04-09T16:07:01.197Z</time></trkpt><trkpt lat="43.9607147" lon="12.4065619"><ele>169.0</ele><time>2026-04-09T16:07:06.19Z</time></trkpt><trkpt lat="43.960674" lon="12.4066414"><ele>170.0</ele><time>2026-04-09T16:07:10.164Z</time></trkpt><trkpt lat="43.9606343" lon="12.4067314"><ele>171.0</ele><time>2026-04-09T16:07:14.21Z</time></trkpt><trkpt lat="43.9606133" lon="12.4068474"><ele>172.0</ele><time>2026-04-09T16:07:18.156Z</time></trkpt><trkpt lat="43.9606079" lon="12.4069455"><ele>173.0</ele><time>2026-04-09T16:07:22.185Z</time></trkpt><trkpt lat="43.9606029" lon="12.4070401"><ele>174.0</ele><time>2026-04-09T16:07:26.195Z</time></trkpt><trkpt lat="43.9606093" lon="12.4071388"><ele>175.28571428571428</ele><time>2026-04-09T16:07:30.21Z</time></trkpt><trkpt lat="43.9606193" lon="12.4072323"><ele>176.57142857142858</ele><time>2026-04-09T16:07:33.206Z</time></trkpt><trkpt lat="43.9606287" lon="12.4073247"><ele>177.85714285714286</ele><time>2026-04-09T16:07:37.207Z</time></trkpt><trkpt lat="43.9606416" lon="12.40742"><ele>179.14285714285714</ele><time>2026-04-09T16:07:41.214Z</time></trkpt><trkpt lat="43.9606453" lon="12.4075119"><ele>180.42857142857144</ele><time>2026-04-09T16:07:46.2Z</time></trkpt><trkpt lat="43.9606468" lon="12.4076206"><ele>181.71428571428572</ele><time>2026-04-09T16:07:52.218Z</time></trkpt><trkpt lat="43.9606521" lon="12.4077182"><ele>183.0</ele><time>2026-04-09T16:07:57.2Z</time></trkpt><trkpt lat="43.9606365" lon="12.4078048"><ele>183.0</ele><time>2026-04-09T16:08:02.173Z</time></trkpt><trkpt lat="43.96064" lon="12.4079007"><ele>183.0</ele><time>2026-04-09T16:08:08.194Z</time></trkpt><trkpt lat="43.960653" lon="12.4079879"><ele>183.0</ele><time>2026-04-09T16:08:13.2Z</time></trkpt><trkpt lat="43.9606701" lon="12.4080822"><ele>183.0</ele><time>2026-04-09T16:08:18.202Z</time></trkpt><trkpt lat="43.9606953" lon="12.4081725"><ele>183.0</ele><time>2026-04-09T16:08:22.21Z</time></trkpt><trkpt lat="43.9607189" lon="12.4082538"><ele>183.0</ele><time>2026-04-09T16:08:26.138Z</time></trkpt><trkpt lat="43.9607508" lon="12.408336"><ele>183.0</ele><time>2026-04-09T16:08:31.205Z</time></trkpt><trkpt lat="43.9607932" lon="12.4084151"><ele>184.0</ele><time>2026-04-09T16:08:36.189Z</time></trkpt><trkpt lat="43.9608305" lon="12.4084913"><ele>185.0</ele><time>2026-04-09T16:08:40.192Z</time></trkpt><trkpt lat="43.9608761" lon="12.4085664"><ele>186.0</ele><time>2026-04-09T16:08:45.194Z</time></trkpt><trkpt lat="43.960908" lon="12.4086426"><ele>187.0</ele><time>2026-04-09T16:08:51.191Z</time></trkpt><trkpt lat="43.9609314" lon="12.4087304"><ele>188.0</ele><time>2026-04-09T16:08:57.168Z</time></trkpt><trkpt lat="43.9609586" lon="12.4088107"><ele>189.0</ele><time>2026-04-09T16:09:01.191Z</time></trkpt><trkpt lat="43.9609755" lon="12.4089116"><ele>190.0</ele><time>2026-04-09T16:09:06.207Z</time></trkpt><trkpt lat="43.9609669" lon="12.409021"><ele>191.42857142857144</ele><time>2026-04-09T16:09:12.208Z</time></trkpt><trkpt lat="43.9609628" lon="12.4091159"><ele>192.85714285714286</ele><time>2026-04-09T16:09:17.194Z</time></trkpt><trkpt lat="43.960986" lon="12.4092134"><ele>194.28571428571428</ele><time>2026-04-09T16:09:22.194Z</time></trkpt><trkpt lat="43.9609925" lon="12.4093062"><ele>195.71428571428572</ele><time>2026-04-09T16:09:27.199Z</time></trkpt><trkpt lat="43.9610078" lon="12.4094005"><ele>197.14285714285714</ele><time>2026-04-09T16:09:33.204Z</time></trkpt><trkpt lat="43.9610289" lon="12.409491"><ele>198.57142857142858</ele><time>2026-04-09T16:09:38.186Z</time></trkpt><trkpt lat="43.9610351" lon="12.4095886"><ele>200.0</ele><time>2026-04-09T16:09:44.18Z</time></trkpt><trkpt lat="43.961048" lon="12.4096863"><ele>200.42857142857144</ele><time>2026-04-09T16:09:48.191Z</time></trkpt><trkpt lat="43.961045" lon="12.4097941"><ele>200.85714285714286</ele><time>2026-04-09T16:09:52.215Z</time></trkpt><trkpt lat="43.9610412" lon="12.4098832"><ele>201.28571428571428</ele><time>2026-04-09T16:09:56.175Z</time></trkpt><trkpt lat="43.9610311" lon="12.4099947"><ele>201.71428571428572</ele><time>2026-04-09T16:10:00.205Z</time></trkpt><trkpt lat="43.9610156" lon="12.4100814"><ele>202.14285714285714</ele><time>2026-04-09T16:10:04.19Z</time></trkpt><trkpt lat="43.9609977" lon="12.410182"><ele>202.57142857142858</ele><time>2026-04-09T16:10:08.195Z</time></trkpt><trkpt lat="43.9609876" lon="12.4102882"><ele>203.0</ele><time>2026-04-09T16:10:12.177Z</time></trkpt><trkpt lat="43.9609781" lon="12.4103916"><ele>203.0</ele><time>2026-04-09T16:10:17.207Z</time></trkpt><trkpt lat="43.9609819" lon="12.4104903"><ele>203.0</ele><time>2026-04-09T16:10:22.2Z</time></trkpt><trkpt lat="43.9609804" lon="12.4105965"><ele>203.0</ele><time>2026-04-09T16:10:27.158Z</time></trkpt><trkpt lat="43.9609766" lon="12.4106928"><ele>203.0</ele><time>2026-04-09T16:10:31.157Z</time></trkpt><trkpt lat="43.9609857" lon="12.4107814"><ele>203.0</ele><time>2026-04-09T16:10:35.21Z</time></trkpt><trkpt lat="43.9610004" lon="12.4108897"><ele>203.0</ele><time>2026-04-09T16:10:39.215Z</time></trkpt><trkpt lat="43.9610038" lon="12.4109959"><ele>203.0</ele><time>2026-04-09T16:10:43.191Z</time></trkpt><trkpt lat="43.9609991" lon="12.4110955"><ele>203.50000000000003</ele><time>2026-04-09T16:10:47.186Z</time></trkpt><trkpt lat="43.9609647" lon="12.4111908"><ele>204.0</ele><time>2026-04-09T16:10:52.214Z</time></trkpt><trkpt lat="43.9609372" lon="12.4112768"><ele>204.5</ele><time>2026-04-09T16:10:57.22Z</time></trkpt><trkpt lat="43.960904" lon="12.411388"><ele>205.0</ele><time>2026-04-09T16:11:01.19Z</time></trkpt><trkpt lat="43.9608592" lon="12.4114945"><ele>205.50000000000003</ele><time>2026-04-09T16:11:04.149Z</time></trkpt><trkpt lat="43.960833" lon="12.411615"><ele>206.0</ele><time>2026-04-09T16:11:07.201Z</time></trkpt><trkpt lat="43.9608077" lon="12.411705"><ele>208.7142857142857</ele><time>2026-04-09T16:11:09.205Z</time></trkpt><trkpt lat="43.9607806" lon="12.4117915"><ele>211.42857142857144</ele><time>2026-04-09T16:11:11.205Z</time></trkpt><trkpt lat="43.9607613" lon="12.4118774"><ele>214.14285714285717</ele><time>2026-04-09T16:11:13.192Z</time></trkpt><trkpt lat="43.9607464" lon="12.4119767"><ele>216.85714285714286</ele><time>2026-04-09T16:11:16.208Z</time></trkpt><trkpt lat="43.9607484" lon="12.4120655"><ele>219.57142857142858</ele><time>2026-04-09T16:11:19.19Z</time></trkpt><trkpt lat="43.9607555" lon="12.4121769"><ele>222.2857142857143</ele><time>2026-04-09T16:11:22.205Z</time></trkpt><trkpt lat="43.9607567" lon="12.4122812"><ele>225.00000000000003</ele><time>2026-04-09T16:11:25.193Z</time></trkpt><trkpt lat="43.9607542" lon="12.4124001"><ele>225.33333333333334</ele><time>2026-04-09T16:11:28.203Z</time></trkpt><trkpt lat="43.9607435" lon="12.4125277"><ele>225.66666666666669</ele><time>2026-04-09T16:11:31.212Z</time></trkpt><trkpt lat="43.9607277" lon="12.4126577"><ele>226.0</ele><time>2026-04-09T16:11:34.153Z</time></trkpt><trkpt lat="43.9606985" lon="12.4127787"><ele>226.33333333333334</ele><time>2026-04-09T16:11:37.205Z</time></trkpt><trkpt lat="43.9606753" lon="12.4128601"><ele>226.66666666666669</ele><time>2026-04-09T16:11:39.179Z</time></trkpt><trkpt lat="43.9606541" lon="12.4129551"><ele>227.0</ele><time>2026-04-09T16:11:42.218Z</time></trkpt><trkpt lat="43.9606291" lon="12.4130384"><ele>227.42857142857144</ele><time>2026-04-09T16:11:45.191Z</time></trkpt><trkpt lat="43.9606091" lon="12.4131328"><ele>227.8571428571429</ele><time>2026-04-09T16:11:49.203Z</time></trkpt><trkpt lat="43.9605842" lon="12.4132275"><ele>228.28571428571428</ele><time>2026-04-09T16:11:53.185Z</time></trkpt><trkpt lat="43.9605498" lon="12.4133326"><ele>228.71428571428572</ele><time>2026-04-09T16:11:57.18Z</time></trkpt><trkpt lat="43.9605274" lon="12.4134205"><ele>229.14285714285714</ele><time>2026-04-09T16:12:00.182Z</time></trkpt><trkpt lat="43.9605056" lon="12.4135097"><ele>229.57142857142856</ele><time>2026-04-09T16:12:04.178Z</time></trkpt><trkpt lat="43.9604636" lon="12.413604"><ele>229.99999999999997</ele><time>2026-04-09T16:12:09.203Z</time></trkpt><trkpt lat="43.9604324" lon="12.4136927"><ele>229.99999999999997</ele><time>2026-04-09T16:12:14.212Z</time></trkpt><trkpt lat="43.9603857" lon="12.4137679"><ele>230.0</ele><time>2026-04-09T16:12:19.189Z</time></trkpt><trkpt lat="43.9603628" lon="12.4138517"><ele>229.99999999999997</ele><time>2026-04-09T16:12:23.202Z</time></trkpt><trkpt lat="43.9603334" lon="12.4139429"><ele>229.99999999999997</ele><time>2026-04-09T16:12:28.202Z</time></trkpt><trkpt lat="43.9603399" lon="12.4140348"><ele>230.0</ele><time>2026-04-09T16:12:33.185Z</time></trkpt><trkpt lat="43.9603358" lon="12.4141297"><ele>229.99999999999997</ele><time>2026-04-09T16:12:38.179Z</time></trkpt><trkpt lat="43.9603289" lon="12.4142185"><ele>229.99999999999997</ele><time>2026-04-09T16:12:42.193Z</time></trkpt><trkpt lat="43.9603118" lon="12.414317"><ele>230.85714285714283</ele><time>2026-04-09T16:12:46.145Z</time></trkpt><trkpt lat="43.9602677" lon="12.4143987"><ele>231.71428571428572</ele><time>2026-04-09T16:12:50.155Z</time></trkpt><trkpt lat="43.9602238" lon="12.414478"><ele>232.57142857142856</ele><time>2026-04-09T16:12:54.204Z</time></trkpt><trkpt lat="43.9601815" lon="12.4145634"><ele>233.42857142857142</ele><time>2026-04-09T16:12:58.199Z</time></trkpt><trkpt lat="43.9601335" lon="12.4146271"><ele>234.28571428571428</ele><time>2026-04-09T16:13:03.198Z</time></trkpt><trkpt lat="43.9600852" lon="12.4146884"><ele>235.14285714285714</ele><time>2026-04-09T16:13:08.211Z</time></trkpt><trkpt lat="43.9600261" lon="12.4147516"><ele>236.0</ele><time>2026-04-09T16:13:13.211Z</time></trkpt><trkpt lat="43.9599962" lon="12.4148326"><ele>239.0</ele><time>2026-04-09T16:13:17.203Z</time></trkpt><trkpt lat="43.9599874" lon="12.4149312"><ele>242.0</ele><time>2026-04-09T16:13:22.208Z</time></trkpt><trkpt lat="43.9599737" lon="12.4150337"><ele>245.0</ele><time>2026-04-09T16:13:28.195Z</time></trkpt><trkpt lat="43.9599895" lon="12.4151329"><ele>248.0</ele><time>2026-04-09T16:13:32.206Z</time></trkpt><trkpt lat="43.9599976" lon="12.4152327"><ele>251.0</ele><time>2026-04-09T16:13:37.206Z</time></trkpt><trkpt lat="43.9600163" lon="12.4153248"><ele>254.0</ele><time>2026-04-09T16:13:42.212Z</time></trkpt><trkpt lat="43.9600271" lon="12.415414"><ele>257.0</ele><time>2026-04-09T16:13:47.194Z</time></trkpt><trkpt lat="43.9600415" lon="12.4155063"><ele>257.2857142857143</ele><time>2026-04-09T16:13:52.209Z</time></trkpt><trkpt lat="43.9600581" lon="12.4156058"><ele>257.57142857142856</ele><time>2026-04-09T16:13:58.183Z</time></trkpt><trkpt lat="43.9600624" lon="12.415703"><ele>257.8571428571429</ele><time>2026-04-09T16:14:03.206Z</time></trkpt><trkpt lat="43.9600883" lon="12.4158043"><ele>258.1428571428571</ele><time>2026-04-09T16:14:08.198Z</time></trkpt><trkpt lat="43.9601099" lon="12.4159018"><ele>258.42857142857144</ele><time>2026-04-09T16:14:13.199Z</time></trkpt><trkpt lat="43.960119" lon="12.4159978"><ele>258.7142857142857</ele><time>2026-04-09T16:14:18.205Z</time></trkpt><trkpt lat="43.9601237" lon="12.4160941"><ele>259.0</ele><time>2026-04-09T16:14:22.201Z</time></trkpt><trkpt lat="43.9601415" lon="12.416185"><ele>259.0</ele><time>2026-04-09T16:14:27.203Z</time></trkpt><trkpt lat="43.96017" lon="12.4162845"><ele>259.0</ele><time>2026-04-09T16:14:33.193Z</time></trkpt><trkpt lat="43.9601906" lon="12.4163722"><ele>259.0</ele><time>2026-04-09T16:14:38.213Z</time></trkpt><trkpt lat="43.9602014" lon="12.4164732"><ele>259.0</ele><time>2026-04-09T16:14:43.21Z</time></trkpt><trkpt lat="43.9601858" lon="12.416562"><ele>259.0</ele><time>2026-04-09T16:14:48.204Z</time></trkpt><trkpt lat="43.9601583" lon="12.4166515"><ele>259.0</ele><time>2026-04-09T16:14:54.19Z</time></trkpt><trkpt lat="43.960126" lon="12.4167333"><ele>259.0</ele><time>2026-04-09T16:14:59.199Z</time></trkpt><trkpt lat="43.9600934" lon="12.4168209"><ele>260.0</ele><time>2026-04-09T16:15:04.2Z</time></trkpt><trkpt lat="43.9600504" lon="12.4168963"><ele>261.0</ele><time>2026-04-09T16:15:08.21Z</time></trkpt><trkpt lat="43.9600089" lon="12.416974"><ele>262.0</ele><time>2026-04-09T16:15:12.201Z</time></trkpt><trkpt lat="43.9599614" lon="12.4170539"><ele>263.0</ele><time>2026-04-09T16:15:16.208Z</time></trkpt><trkpt lat="43.9599196" lon="12.4171332"><ele>264.0</ele><time>2026-04-09T16:15:20.224Z</time></trkpt><trkpt lat="43.959873" lon="12.4171941"><ele>265.0</ele><time>2026-04-09T16:15:24.187Z</time></trkpt><trkpt lat="43.9598139" lon="12.4172524"><ele>266.0</ele><time>2026-04-09T16:15:28.206Z</time></trkpt><trkpt lat="43.9597632" lon="12.4173171"><ele>268.0</ele><time>2026-04-09T16:15:32.213Z</time></trkpt><trkpt lat="43.9597041" lon="12.4173714"><ele>270.0</ele><time>2026-04-09T16:15:36.23Z</time></trkpt><trkpt lat="43.9596468" lon="12.4174315"><ele>272.0</ele><time>2026-04-09T16:15:40.2Z</time></trkpt><trkpt lat="43.959601" lon="12.4175074"><ele>274.0</ele><time>2026-04-09T16:15:44.195Z</time></trkpt><trkpt lat="43.9595632" lon="12.4176048"><ele>276.0</ele><time>2026-04-09T16:15:48.16Z</time></trkpt><trkpt lat="43.9595329" lon="12.4176994"><ele>278.0</ele><time>2026-04-09T16:15:52.196Z</time></trkpt><trkpt lat="43.9594968" lon="12.4178006"><ele>280.0</ele><time>2026-04-09T16:15:56.199Z</time></trkpt><trkpt lat="43.9594694" lon="12.4179035"><ele>280.0</ele><time>2026-04-09T16:16:00.218Z</time></trkpt><trkpt lat="43.9594474" lon="12.4179991"><ele>280.0</ele><time>2026-04-09T16:16:04.189Z</time></trkpt><trkpt lat="43.959404" lon="12.4180712"><ele>280.0</ele><time>2026-04-09T16:16:07.211Z</time></trkpt><trkpt lat="43.9593506" lon="12.4181383"><ele>280.0</ele><time>2026-04-09T16:16:10.221Z</time></trkpt><trkpt lat="43.9592946" lon="12.4182034"><ele>280.0</ele><time>2026-04-09T16:16:13.206Z</time></trkpt><trkpt lat="43.9592343" lon="12.4182899"><ele>280.0</ele><time>2026-04-09T16:16:16.195Z</time></trkpt><trkpt lat="43.9591739" lon="12.4183573"><ele>280.0</ele><time>2026-04-09T16:16:19.178Z</time></trkpt><trkpt lat="43.9591185" lon="12.4183992"><ele>281.85714285714283</ele><time>2026-04-09T16:16:22.186Z</time></trkpt><trkpt lat="43.9590608" lon="12.4184343"><ele>283.7142857142857</ele><time>2026-04-09T16:16:25.196Z</time></trkpt><trkpt lat="43.9589998" lon="12.4184604"><ele>285.57142857142856</ele><time>2026-04-09T16:16:28.197Z</time></trkpt><trkpt lat="43.9589191" lon="12.4184857"><ele>287.42857142857144</ele><time>2026-04-09T16:16:32.204Z</time></trkpt><trkpt lat="43.9588472" lon="12.41849"><ele>289.2857142857143</ele><time>2026-04-09T16:16:36.182Z</time></trkpt><trkpt lat="43.9587828" lon="12.4185078"><ele>291.1428571428571</ele><time>2026-04-09T16:16:39.23Z</time></trkpt><trkpt lat="43.9587002" lon="12.4185431"><ele>293.0</ele><time>2026-04-09T16:16:43.202Z</time></trkpt><trkpt lat="43.9586349" lon="12.4185761"><ele>292.99999999999994</ele><time>2026-04-09T16:16:46.187Z</time></trkpt><trkpt lat="43.9585671" lon="12.4186018"><ele>293.0</ele><time>2026-04-09T16:16:49.209Z</time></trkpt><trkpt lat="43.9584989" lon="12.4186188"><ele>293.0</ele><time>2026-04-09T16:16:52.203Z</time></trkpt><trkpt lat="43.9584303" lon="12.4186356"><ele>293.0</ele><time>2026-04-09T16:16:55.212Z</time></trkpt><trkpt lat="43.958363" lon="12.4186464"><ele>293.0</ele><time>2026-04-09T16:16:58.204Z</time></trkpt><trkpt lat="43.9582968" lon="12.4186632"><ele>292.99999999999994</ele><time>2026-04-09T16:17:01.213Z</time></trkpt><trkpt lat="43.9582407" lon="12.4187118"><ele>293.0</ele><time>2026-04-09T16:17:04.17Z</time></trkpt><trkpt lat="43.9581972" lon="12.4187862"><ele>294.1666666666667</ele><time>2026-04-09T16:17:07.2Z</time></trkpt><trkpt lat="43.9581614" lon="12.4188853"><ele>295.33333333333337</ele><time>2026-04-09T16:17:10.216Z</time></trkpt><trkpt lat="43.9581338" lon="12.4189881"><ele>296.5</ele><time>2026-04-09T16:17:13.168Z</time></trkpt><trkpt lat="43.9581005" lon="12.4190885"><ele>297.6666666666667</ele><time>2026-04-09T16:17:16.221Z</time></trkpt><trkpt lat="43.9580688" lon="12.4192099"><ele>298.8333333333333</ele><time>2026-04-09T16:17:19.215Z</time></trkpt><trkpt lat="43.9580337" lon="12.4193284"><ele>300.0</ele><time>2026-04-09T16:17:22.192Z</time></trkpt><trkpt lat="43.9579933" lon="12.4194353"><ele>300.0</ele><time>2026-04-09T16:17:25.21Z</time></trkpt><trkpt lat="43.9579575" lon="12.4195383"><ele>300.0</ele><time>2026-04-09T16:17:28.205Z</time></trkpt><trkpt lat="43.9579265" lon="12.4196461"><ele>300.0</ele><time>2026-04-09T16:17:31.173Z</time></trkpt><trkpt lat="43.9578877" lon="12.4197423"><ele>300.0</ele><time>2026-04-09T16:17:34.216Z</time></trkpt><trkpt lat="43.9578457" lon="12.419846"><ele>300.0</ele><time>2026-04-09T16:17:37.206Z</time></trkpt><trkpt lat="43.9578135" lon="12.4199578"><ele>300.0</ele><time>2026-04-09T16:17:40.218Z</time></trkpt><trkpt lat="43.9577862" lon="12.4200789"><ele>300.0</ele><time>2026-04-09T16:17:43.214Z</time></trkpt><trkpt lat="43.9577758" lon="12.4201676"><ele>300.0</ele><time>2026-04-09T16:17:45.206Z</time></trkpt><trkpt lat="43.957766" lon="12.420265"><ele>300.0</ele><time>2026-04-09T16:17:47.199Z</time></trkpt><trkpt lat="43.9577619" lon="12.4203776"><ele>300.0</ele><time>2026-04-09T16:17:49.192Z</time></trkpt><trkpt lat="43.9577624" lon="12.420493"><ele>300.0</ele><time>2026-04-09T16:17:51.211Z</time></trkpt><trkpt lat="43.9577694" lon="12.4206089"><ele>300.0</ele><time>2026-04-09T16:17:53.206Z</time></trkpt><trkpt lat="43.9577793" lon="12.4207166"><ele>300.4285714285714</ele><time>2026-04-09T16:17:55.152Z</time></trkpt><trkpt lat="43.9577769" lon="12.4208227"><ele>300.85714285714283</ele><time>2026-04-09T16:17:57.213Z</time></trkpt><trkpt lat="43.9577782" lon="12.4209271"><ele>301.2857142857143</ele><time>2026-04-09T16:17:59.209Z</time></trkpt><trkpt lat="43.9577745" lon="12.4210245"><ele>301.71428571428567</ele><time>2026-04-09T16:18:01.201Z</time></trkpt><trkpt lat="43.9577635" lon="12.4211499"><ele>302.1428571428571</ele><time>2026-04-09T16:18:04.205Z</time></trkpt><trkpt lat="43.9577542" lon="12.4212366"><ele>302.57142857142856</ele><time>2026-04-09T16:18:06.215Z</time></trkpt><trkpt lat="43.9577433" lon="12.4213257"><ele>303.0</ele><time>2026-04-09T16:18:08.208Z</time></trkpt><trkpt lat="43.957728" lon="12.4214545"><ele>303.0</ele><time>2026-04-09T16:18:11.204Z</time></trkpt><trkpt lat="43.9577179" lon="12.4215497"><ele>303.0</ele><time>2026-04-09T16:18:13.187Z</time></trkpt><trkpt lat="43.9577115" lon="12.4216427"><ele>303.0</ele><time>2026-04-09T16:18:15.225Z</time></trkpt><trkpt lat="43.9577008" lon="12.4217368"><ele>303.0</ele><time>2026-04-09T16:18:17.214Z</time></trkpt><trkpt lat="43.9576871" lon="12.4218264"><ele>303.0</ele><time>2026-04-09T16:18:19.225Z</time></trkpt><trkpt lat="43.9576713" lon="12.4219212"><ele>303.0</ele><time>2026-04-09T16:18:21.221Z</time></trkpt><trkpt lat="43.9576595" lon="12.422012"><ele>303.0</ele><time>2026-04-09T16:18:23.223Z</time></trkpt><trkpt lat="43.9576387" lon="12.422105"><ele>303.0</ele><time>2026-04-09T16:18:25.181Z</time></trkpt><trkpt lat="43.9576158" lon="12.4222047"><ele>303.0</ele><time>2026-04-09T16:18:27.221Z</time></trkpt><trkpt lat="43.9576018" lon="12.4223221"><ele>303.0</ele><time>2026-04-09T16:18:29.188Z</time></trkpt><trkpt lat="43.9575922" lon="12.4224526"><ele>303.0</ele><time>2026-04-09T16:18:31.218Z</time></trkpt><trkpt lat="43.9575857" lon="12.4226003"><ele>303.0</ele><time>2026-04-09T16:18:33.19Z</time></trkpt><trkpt lat="43.957576" lon="12.422765"><ele>303.0</ele><time>2026-04-09T16:18:35.21Z</time></trkpt><trkpt lat="43.9575686" lon="12.4228539"><ele>303.0</ele><time>2026-04-09T16:18:36.207Z</time></trkpt><trkpt lat="43.9575609" lon="12.4229423"><ele>303.0</ele><time>2026-04-09T16:18:37.218Z</time></trkpt><trkpt lat="43.9575517" lon="12.4230333"><ele>303.0</ele><time>2026-04-09T16:18:38.209Z</time></trkpt><trkpt lat="43.957536" lon="12.4231295"><ele>303.0</ele><time>2026-04-09T16:18:39.212Z</time></trkpt><trkpt lat="43.9575244" lon="12.4232229"><ele>303.0</ele><time>2026-04-09T16:18:40.216Z</time></trkpt><trkpt lat="43.9575087" lon="12.4233165"><ele>303.0</ele><time>2026-04-09T16:18:41.205Z</time></trkpt><trkpt lat="43.957492" lon="12.4234113"><ele>303.57142857142856</ele><time>2026-04-09T16:18:42.19Z</time></trkpt><trkpt lat="43.9574737" lon="12.4235014"><ele>304.1428571428571</ele><time>2026-04-09T16:18:43.199Z</time></trkpt><trkpt lat="43.9574532" lon="12.4235928"><ele>304.71428571428567</ele><time>2026-04-09T16:18:44.204Z</time></trkpt><trkpt lat="43.9574285" lon="12.423684"><ele>305.2857142857143</ele><time>2026-04-09T16:18:45.215Z</time></trkpt><trkpt lat="43.9574018" lon="12.4237658"><ele>305.85714285714283</ele><time>2026-04-09T16:18:46.219Z</time></trkpt><trkpt lat="43.9573762" lon="12.4238517"><ele>306.4285714285714</ele><time>2026-04-09T16:18:47.221Z</time></trkpt><trkpt lat="43.9573531" lon="12.4239336"><ele>307.0</ele><time>2026-04-09T16:18:48.214Z</time></trkpt><trkpt lat="43.9573313" lon="12.4240213"><ele>307.0</ele><time>2026-04-09T16:18:49.212Z</time></trkpt><trkpt lat="43.9572979" lon="12.4241889"><ele>307.0</ele><time>2026-04-09T16:18:51.212Z</time></trkpt><trkpt lat="43.957262" lon="12.4243446"><ele>307.0</ele><time>2026-04-09T16:18:53.216Z</time></trkpt><trkpt lat="43.9572338" lon="12.4245005"><ele>307.0</ele><time>2026-04-09T16:18:55.221Z</time></trkpt><trkpt lat="43.9572107" lon="12.4246377"><ele>306.2</ele><time>2026-04-09T16:18:57.212Z</time></trkpt><trkpt lat="43.9571825" lon="12.4247832"><ele>305.4</ele><time>2026-04-09T16:18:59.199Z</time></trkpt><trkpt lat="43.9571633" lon="12.424919"><ele>304.6</ele><time>2026-04-09T16:19:01.203Z</time></trkpt><trkpt lat="43.9571359" lon="12.4250577"><ele>303.8</ele><time>2026-04-09T16:19:03.211Z</time></trkpt><trkpt lat="43.9571195" lon="12.425196"><ele>303.0</ele><time>2026-04-09T16:19:05.221Z</time></trkpt><trkpt lat="43.9570993" lon="12.4253515"><ele>303.0</ele><time>2026-04-09T16:19:07.149Z</time></trkpt><trkpt lat="43.957071" lon="12.4254782"><ele>303.0</ele><time>2026-04-09T16:19:09.169Z</time></trkpt><trkpt lat="43.9570534" lon="12.4256281"><ele>303.0</ele><time>2026-04-09T16:19:11.172Z</time></trkpt><trkpt lat="43.9570406" lon="12.4257741"><ele>303.0</ele><time>2026-04-09T16:19:13.209Z</time></trkpt><trkpt lat="43.9570301" lon="12.4259187"><ele>303.0</ele><time>2026-04-09T16:19:15.226Z</time></trkpt><trkpt lat="43.9570309" lon="12.426077"><ele>303.0</ele><time>2026-04-09T16:19:17.223Z</time></trkpt><trkpt lat="43.9570623" lon="12.4262301"><ele>303.0</ele><time>2026-04-09T16:19:19.2Z</time></trkpt><trkpt lat="43.9571154" lon="12.4263789"><ele>303.0</ele><time>2026-04-09T16:19:21.208Z</time></trkpt><trkpt lat="43.9571744" lon="12.4265035"><ele>303.0</ele><time>2026-04-09T16:19:23.229Z</time></trkpt><trkpt lat="43.9572244" lon="12.4266056"><ele>303.0</ele><time>2026-04-09T16:19:25.181Z</time></trkpt><trkpt lat="43.957274" lon="12.4267017"><ele>304.1666666666667</ele><time>2026-04-09T16:19:27.196Z</time></trkpt><trkpt lat="43.9573127" lon="12.4267864"><ele>305.3333333333333</ele><time>2026-04-09T16:19:29.21Z</time></trkpt><trkpt lat="43.9573531" lon="12.4268606"><ele>306.5</ele><time>2026-04-09T16:19:31.225Z</time></trkpt><trkpt lat="43.9574076" lon="12.4269516"><ele>307.66666666666663</ele><time>2026-04-09T16:19:34.201Z</time></trkpt><trkpt lat="43.9574715" lon="12.427036"><ele>308.8333333333333</ele><time>2026-04-09T16:19:37.218Z</time></trkpt><trkpt lat="43.9575471" lon="12.4270934"><ele>310.0</ele><time>2026-04-09T16:19:40.207Z</time></trkpt><trkpt lat="43.9576347" lon="12.427114"><ele>311.16666666666663</ele><time>2026-04-09T16:19:43.214Z</time></trkpt><trkpt lat="43.9576976" lon="12.4271216"><ele>312.3333333333333</ele><time>2026-04-09T16:19:45.21Z</time></trkpt><trkpt lat="43.9577913" lon="12.4270969"><ele>313.5</ele><time>2026-04-09T16:19:48.2Z</time></trkpt><trkpt lat="43.957877" lon="12.4270506"><ele>314.6666666666667</ele><time>2026-04-09T16:19:51.207Z</time></trkpt><trkpt lat="43.9579392" lon="12.4270124"><ele>315.83333333333337</ele><time>2026-04-09T16:19:53.21Z</time></trkpt><trkpt lat="43.957997" lon="12.426977"><ele>317.0</ele><time>2026-04-09T16:19:55.212Z</time></trkpt><trkpt lat="43.9580765" lon="12.4269278"><ele>317.0</ele><time>2026-04-09T16:19:58.216Z</time></trkpt><trkpt lat="43.9581373" lon="12.426896"><ele>317.0</ele><time>2026-04-09T16:20:00.201Z</time></trkpt><trkpt lat="43.9582203" lon="12.4268462"><ele>317.0</ele><time>2026-04-09T16:20:03.218Z</time></trkpt><trkpt lat="43.9582774" lon="12.4268057"><ele>317.0</ele><time>2026-04-09T16:20:05.201Z</time></trkpt><trkpt lat="43.9583662" lon="12.4267776"><ele>317.0</ele><time>2026-04-09T16:20:08.214Z</time></trkpt><trkpt lat="43.9584292" lon="12.4267834"><ele>317.0</ele><time>2026-04-09T16:20:10.187Z</time></trkpt><trkpt lat="43.9584823" lon="12.4268685"><ele>317.0</ele><time>2026-04-09T16:20:13.201Z</time></trkpt><trkpt lat="43.9584659" lon="12.4269857"><ele>317.0</ele><time>2026-04-09T16:20:16.204Z</time></trkpt><trkpt lat="43.9584047" lon="12.4270515"><ele>317.0</ele><time>2026-04-09T16:20:19.212Z</time></trkpt><trkpt lat="43.9583309" lon="12.4271023"><ele>317.0</ele><time>2026-04-09T16:20:22.191Z</time></trkpt><trkpt lat="43.9582568" lon="12.4271474"><ele>317.0</ele><time>2026-04-09T16:20:25.228Z</time></trkpt><trkpt lat="43.9581967" lon="12.4272244"><ele>317.0</ele><time>2026-04-09T16:20:28.201Z</time></trkpt><trkpt lat="43.9581735" lon="12.4273282"><ele>318.42857142857144</ele><time>2026-04-09T16:20:31.205Z</time></trkpt><trkpt lat="43.9582006" lon="12.4274309"><ele>319.85714285714283</ele><time>2026-04-09T16:20:34.211Z</time></trkpt><trkpt lat="43.9582661" lon="12.4274837"><ele>321.2857142857143</ele><time>2026-04-09T16:20:37.206Z</time></trkpt><trkpt lat="43.9583303" lon="12.4274827"><ele>322.7142857142857</ele><time>2026-04-09T16:20:40.215Z</time></trkpt><trkpt lat="43.9584142" lon="12.4274663"><ele>324.14285714285717</ele><time>2026-04-09T16:20:43.222Z</time></trkpt><trkpt lat="43.9584779" lon="12.4274494"><ele>325.57142857142856</ele><time>2026-04-09T16:20:45.203Z</time></trkpt><trkpt lat="43.9585404" lon="12.4274244"><ele>327.0</ele><time>2026-04-09T16:20:47.215Z</time></trkpt><trkpt lat="43.9586041" lon="12.4273875"><ele>327.2857142857143</ele><time>2026-04-09T16:20:49.214Z</time></trkpt><trkpt lat="43.9586923" lon="12.4273465"><ele>327.57142857142856</ele><time>2026-04-09T16:20:52.19Z</time></trkpt><trkpt lat="43.9587621" lon="12.4273385"><ele>327.8571428571429</ele><time>2026-04-09T16:20:54.173Z</time></trkpt><trkpt lat="43.9588329" lon="12.4273304"><ele>328.1428571428571</ele><time>2026-04-09T16:20:56.201Z</time></trkpt><trkpt lat="43.9588991" lon="12.4273285"><ele>328.42857142857144</ele><time>2026-04-09T16:20:58.177Z</time></trkpt><trkpt lat="43.9589678" lon="12.4273294"><ele>328.7142857142857</ele><time>2026-04-09T16:21:00.196Z</time></trkpt><trkpt lat="43.9590356" lon="12.4273523"><ele>329.0</ele><time>2026-04-09T16:21:02.198Z</time></trkpt><trkpt lat="43.9591006" lon="12.4273743"><ele>329.0</ele><time>2026-04-09T16:21:04.185Z</time></trkpt><trkpt lat="43.9591871" lon="12.4274276"><ele>329.0</ele><time>2026-04-09T16:21:07.212Z</time></trkpt><trkpt lat="43.9592586" lon="12.4274923"><ele>329.0</ele><time>2026-04-09T16:21:10.207Z</time></trkpt><trkpt lat="43.959309" lon="12.4275545"><ele>329.0</ele><time>2026-04-09T16:21:12.208Z</time></trkpt><trkpt lat="43.9593654" lon="12.4276628"><ele>329.0</ele><time>2026-04-09T16:21:15.197Z</time></trkpt><trkpt lat="43.9594015" lon="12.4277421"><ele>329.0</ele><time>2026-04-09T16:21:17.225Z</time></trkpt><trkpt lat="43.9594389" lon="12.4278274"><ele>328.83333333333337</ele><time>2026-04-09T16:21:19.21Z</time></trkpt><trkpt lat="43.9594903" lon="12.4279426"><ele>328.6666666666667</ele><time>2026-04-09T16:21:22.182Z</time></trkpt><trkpt lat="43.9595236" lon="12.4280649"><ele>328.5</ele><time>2026-04-09T16:21:25.224Z</time></trkpt><trkpt lat="43.9595504" lon="12.428149"><ele>328.3333333333333</ele><time>2026-04-09T16:21:27.161Z</time></trkpt><trkpt lat="43.9595776" lon="12.428268"><ele>328.16666666666663</ele><time>2026-04-09T16:21:30.216Z</time></trkpt><trkpt lat="43.9595994" lon="12.4283596"><ele>328.0</ele><time>2026-04-09T16:21:32.227Z</time></trkpt><trkpt lat="43.959617" lon="12.4284538"><ele>327.99999999999994</ele><time>2026-04-09T16:21:34.213Z</time></trkpt><trkpt lat="43.9596351" lon="12.4285508"><ele>328.0</ele><time>2026-04-09T16:21:36.183Z</time></trkpt><trkpt lat="43.9596521" lon="12.4286407"><ele>328.0</ele><time>2026-04-09T16:21:38.184Z</time></trkpt><trkpt lat="43.959676" lon="12.4287299"><ele>328.0</ele><time>2026-04-09T16:21:40.204Z</time></trkpt><trkpt lat="43.9596954" lon="12.4288226"><ele>328.0</ele><time>2026-04-09T16:21:42.2Z</time></trkpt><trkpt lat="43.9597134" lon="12.428909"><ele>327.99999999999994</ele><time>2026-04-09T16:21:44.164Z</time></trkpt><trkpt lat="43.9597288" lon="12.4289946"><ele>328.0</ele><time>2026-04-09T16:21:46.217Z</time></trkpt><trkpt lat="43.959747" lon="12.4290929"><ele>329.2857142857143</ele><time>2026-04-09T16:21:49.194Z</time></trkpt><trkpt lat="43.9597447" lon="12.4291868"><ele>330.57142857142856</ele><time>2026-04-09T16:21:52.2Z</time></trkpt><trkpt lat="43.959708" lon="12.4292582"><ele>331.8571428571429</ele><time>2026-04-09T16:21:55.194Z</time></trkpt><trkpt lat="43.9596321" lon="12.4292903"><ele>333.1428571428571</ele><time>2026-04-09T16:21:59.183Z</time></trkpt><trkpt lat="43.9595642" lon="12.429279"><ele>334.42857142857144</ele><time>2026-04-09T16:22:02.206Z</time></trkpt><trkpt lat="43.9595049" lon="12.4292048"><ele>335.7142857142857</ele><time>2026-04-09T16:22:05.213Z</time></trkpt><trkpt lat="43.959467" lon="12.4291092"><ele>337.0</ele><time>2026-04-09T16:22:08.198Z</time></trkpt><trkpt lat="43.9594296" lon="12.4290069"><ele>337.0</ele><time>2026-04-09T16:22:11.198Z</time></trkpt><trkpt lat="43.9593917" lon="12.4288842"><ele>337.0</ele><time>2026-04-09T16:22:14.146Z</time></trkpt><trkpt lat="43.959346" lon="12.4287703"><ele>337.0</ele><time>2026-04-09T16:22:17.207Z</time></trkpt><trkpt lat="43.9593025" lon="12.428655"><ele>337.0</ele><time>2026-04-09T16:22:20.202Z</time></trkpt><trkpt lat="43.9592511" lon="12.4285443"><ele>337.0</ele><time>2026-04-09T16:22:23.196Z</time></trkpt><trkpt lat="43.959211" lon="12.428475"><ele>337.0</ele><time>2026-04-09T16:22:25.205Z</time></trkpt><trkpt lat="43.9591673" lon="12.4284074"><ele>337.66666666666663</ele><time>2026-04-09T16:22:27.175Z</time></trkpt><trkpt lat="43.9590943" lon="12.4283469"><ele>338.3333333333333</ele><time>2026-04-09T16:22:30.193Z</time></trkpt><trkpt lat="43.959018" lon="12.4283103"><ele>339.0</ele><time>2026-04-09T16:22:33.192Z</time></trkpt><trkpt lat="43.9589322" lon="12.4282947"><ele>339.6666666666667</ele><time>2026-04-09T16:22:36.189Z</time></trkpt><trkpt lat="43.9588506" lon="12.4283371"><ele>340.33333333333337</ele><time>2026-04-09T16:22:39.206Z</time></trkpt><trkpt lat="43.9587812" lon="12.428417"><ele>341.0</ele><time>2026-04-09T16:22:42.163Z</time></trkpt><trkpt lat="43.9587368" lon="12.4285238"><ele>341.0</ele><time>2026-04-09T16:22:45.189Z</time></trkpt><trkpt lat="43.9587468" lon="12.4286308"><ele>341.0</ele><time>2026-04-09T16:22:48.196Z</time></trkpt><trkpt lat="43.9587737" lon="12.4287113"><ele>341.0</ele><time>2026-04-09T16:22:50.207Z</time></trkpt><trkpt lat="43.9588278" lon="12.428804"><ele>341.0</ele><time>2026-04-09T16:22:53.203Z</time></trkpt><trkpt lat="43.9588668" lon="12.428875"><ele>341.0</ele><time>2026-04-09T16:22:55.154Z</time></trkpt><trkpt lat="43.9589136" lon="12.4289345"><ele>341.0</ele><time>2026-04-09T16:22:57.223Z</time></trkpt><trkpt lat="43.9589617" lon="12.4289998"><ele>341.0</ele><time>2026-04-09T16:22:59.178Z</time></trkpt><trkpt lat="43.9590117" lon="12.4291097"><ele>341.6666666666667</ele><time>2026-04-09T16:23:02.189Z</time></trkpt><trkpt lat="43.9590311" lon="12.4291943"><ele>342.33333333333337</ele><time>2026-04-09T16:23:04.213Z</time></trkpt><trkpt lat="43.9590451" lon="12.429282"><ele>343.0</ele><time>2026-04-09T16:23:06.233Z</time></trkpt><trkpt lat="43.9590631" lon="12.42941"><ele>343.6666666666667</ele><time>2026-04-09T16:23:09.217Z</time></trkpt><trkpt lat="43.9590696" lon="12.4295313"><ele>344.3333333333333</ele><time>2026-04-09T16:23:12.212Z</time></trkpt><trkpt lat="43.9590658" lon="12.4296311"><ele>345.0</ele><time>2026-04-09T16:23:15.211Z</time></trkpt><trkpt lat="43.9590507" lon="12.4297265"><ele>346.42857142857144</ele><time>2026-04-09T16:23:18.184Z</time></trkpt><trkpt lat="43.9590305" lon="12.4298124"><ele>347.85714285714283</ele><time>2026-04-09T16:23:21.195Z</time></trkpt><trkpt lat="43.9589924" lon="12.4299111"><ele>349.2857142857143</ele><time>2026-04-09T16:23:25.214Z</time></trkpt><trkpt lat="43.9589969" lon="12.4300179"><ele>350.7142857142857</ele><time>2026-04-09T16:23:29.162Z</time></trkpt><trkpt lat="43.9590202" lon="12.430113"><ele>352.14285714285717</ele><time>2026-04-09T16:23:34.209Z</time></trkpt><trkpt lat="43.9590561" lon="12.430196"><ele>353.57142857142856</ele><time>2026-04-09T16:23:39.193Z</time></trkpt><trkpt lat="43.9590898" lon="12.4302735"><ele>355.0</ele><time>2026-04-09T16:23:44.205Z</time></trkpt><trkpt lat="43.9591386" lon="12.4303513"><ele>355.0</ele><time>2026-04-09T16:23:50.209Z</time></trkpt><trkpt lat="43.9591765" lon="12.4304414"><ele>355.0</ele><time>2026-04-09T16:23:55.197Z</time></trkpt><trkpt lat="43.9592237" lon="12.4305223"><ele>355.0</ele><time>2026-04-09T16:23:59.185Z</time></trkpt><trkpt lat="43.9592621" lon="12.4305963"><ele>355.0</ele><time>2026-04-09T16:24:02.177Z</time></trkpt><trkpt lat="43.9593159" lon="12.430679"><ele>355.0</ele><time>2026-04-09T16:24:06.167Z</time></trkpt><trkpt lat="43.959359" lon="12.4307561"><ele>355.0</ele><time>2026-04-09T16:24:09.186Z</time></trkpt><trkpt lat="43.9593978" lon="12.4308265"><ele>355.0</ele><time>2026-04-09T16:24:12.206Z</time></trkpt><trkpt lat="43.9594344" lon="12.4309019"><ele>355.42857142857144</ele><time>2026-04-09T16:24:15.197Z</time></trkpt><trkpt lat="43.9594771" lon="12.4309724"><ele>355.8571428571429</ele><time>2026-04-09T16:24:19.205Z</time></trkpt><trkpt lat="43.9594786" lon="12.43106"><ele>356.28571428571433</ele><time>2026-04-09T16:24:25.21Z</time></trkpt><trkpt lat="43.9594105" lon="12.4310976"><ele>356.7142857142857</ele><time>2026-04-09T16:24:29.17Z</time></trkpt><trkpt lat="43.9593469" lon="12.4311381"><ele>357.14285714285717</ele><time>2026-04-09T16:24:33.191Z</time></trkpt><trkpt lat="43.9592756" lon="12.4311764"><ele>357.5714285714286</ele><time>2026-04-09T16:24:37.215Z</time></trkpt><trkpt lat="43.959211" lon="12.4312169"><ele>358.0</ele><time>2026-04-09T16:24:41.223Z</time></trkpt><trkpt lat="43.9591418" lon="12.4312448"><ele>359.28571428571433</ele><time>2026-04-09T16:24:46.217Z</time></trkpt><trkpt lat="43.9590733" lon="12.4312806"><ele>360.57142857142856</ele><time>2026-04-09T16:24:51.212Z</time></trkpt><trkpt lat="43.9590078" lon="12.4313098"><ele>361.8571428571429</ele><time>2026-04-09T16:24:56.21Z</time></trkpt><trkpt lat="43.9589493" lon="12.4313433"><ele>363.14285714285717</ele><time>2026-04-09T16:25:00.228Z</time></trkpt><trkpt lat="43.958885" lon="12.4313661"><ele>364.42857142857144</ele><time>2026-04-09T16:25:05.192Z</time></trkpt><trkpt lat="43.9588173" lon="12.4313801"><ele>365.7142857142857</ele><time>2026-04-09T16:25:10.225Z</time></trkpt><trkpt lat="43.9587513" lon="12.4314519"><ele>367.0</ele><time>2026-04-09T16:25:15.21Z</time></trkpt><trkpt lat="43.9587004" lon="12.4315088"><ele>367.8333333333333</ele><time>2026-04-09T16:25:18.193Z</time></trkpt><trkpt lat="43.9586434" lon="12.431593"><ele>368.66666666666663</ele><time>2026-04-09T16:25:22.206Z</time></trkpt><trkpt lat="43.9585833" lon="12.4316655"><ele>369.5</ele><time>2026-04-09T16:25:25.245Z</time></trkpt><trkpt lat="43.958536" lon="12.4317358"><ele>370.3333333333333</ele><time>2026-04-09T16:25:28.168Z</time></trkpt><trkpt lat="43.9584855" lon="12.4318095"><ele>371.1666666666667</ele><time>2026-04-09T16:25:31.206Z</time></trkpt><trkpt lat="43.9584337" lon="12.4318853"><ele>372.0</ele><time>2026-04-09T16:25:34.212Z</time></trkpt><trkpt lat="43.9583839" lon="12.4319603"><ele>372.28571428571433</ele><time>2026-04-09T16:25:37.196Z</time></trkpt><trkpt lat="43.9583327" lon="12.4320305"><ele>372.57142857142856</ele><time>2026-04-09T16:25:40.232Z</time></trkpt><trkpt lat="43.95829" lon="12.4321112"><ele>372.8571428571429</ele><time>2026-04-09T16:25:43.206Z</time></trkpt><trkpt lat="43.9582718" lon="12.4321998"><ele>373.14285714285717</ele><time>2026-04-09T16:25:46.215Z</time></trkpt><trkpt lat="43.9582724" lon="12.4322879"><ele>373.42857142857144</ele><time>2026-04-09T16:25:49.193Z</time></trkpt><trkpt lat="43.9582722" lon="12.4323948"><ele>373.7142857142857</ele><time>2026-04-09T16:25:53.21Z</time></trkpt><trkpt lat="43.9582723" lon="12.432499"><ele>374.0</ele><time>2026-04-09T16:25:57.208Z</time></trkpt><trkpt lat="43.9582749" lon="12.4325994"><ele>374.85714285714283</ele><time>2026-04-09T16:26:01.215Z</time></trkpt><trkpt lat="43.9582834" lon="12.4326942"><ele>375.7142857142857</ele><time>2026-04-09T16:26:05.206Z</time></trkpt><trkpt lat="43.9582954" lon="12.4327876"><ele>376.57142857142856</ele><time>2026-04-09T16:26:09.228Z</time></trkpt><trkpt lat="43.9583104" lon="12.4328964"><ele>377.42857142857144</ele><time>2026-04-09T16:26:14.198Z</time></trkpt><trkpt lat="43.9583354" lon="12.4329787"><ele>378.28571428571433</ele><time>2026-04-09T16:26:18.225Z</time></trkpt><trkpt lat="43.9583678" lon="12.4330732"><ele>379.14285714285717</ele><time>2026-04-09T16:26:23.193Z</time></trkpt><trkpt lat="43.9583969" lon="12.4331677"><ele>380.0</ele><time>2026-04-09T16:26:28.218Z</time></trkpt><trkpt lat="43.958434" lon="12.4332449"><ele>380.8571428571429</ele><time>2026-04-09T16:26:33.205Z</time></trkpt><trkpt lat="43.9584569" lon="12.4333333"><ele>381.7142857142857</ele><time>2026-04-09T16:26:38.206Z</time></trkpt><trkpt lat="43.9584821" lon="12.4334188"><ele>382.57142857142856</ele><time>2026-04-09T16:26:43.223Z</time></trkpt><trkpt lat="43.9585134" lon="12.4335114"><ele>383.42857142857144</ele><time>2026-04-09T16:26:48.217Z</time></trkpt><trkpt lat="43.9585464" lon="12.4336064"><ele>384.2857142857143</ele><time>2026-04-09T16:26:53.215Z</time></trkpt><trkpt lat="43.9585735" lon="12.4336959"><ele>385.14285714285717</ele><time>2026-04-09T16:26:58.229Z</time></trkpt><trkpt lat="43.9586093" lon="12.4337718"><ele>386.0</ele><time>2026-04-09T16:27:02.204Z</time></trkpt><trkpt lat="43.9586278" lon="12.4338556"><ele>386.14285714285717</ele><time>2026-04-09T16:27:06.207Z</time></trkpt><trkpt lat="43.9586497" lon="12.4339411"><ele>386.2857142857143</ele><time>2026-04-09T16:27:10.213Z</time></trkpt><trkpt lat="43.9586525" lon="12.4340401"><ele>386.42857142857144</ele><time>2026-04-09T16:27:15.206Z</time></trkpt><trkpt lat="43.9586409" lon="12.4341309"><ele>386.57142857142856</ele><time>2026-04-09T16:27:19.192Z</time></trkpt><trkpt lat="43.9586183" lon="12.4342234"><ele>386.7142857142857</ele><time>2026-04-09T16:27:24.193Z</time></trkpt><trkpt lat="43.9585723" lon="12.4342991"><ele>386.8571428571429</ele><time>2026-04-09T16:27:29.179Z</time></trkpt><trkpt lat="43.9585228" lon="12.4343828"><ele>387.0</ele><time>2026-04-09T16:27:34.193Z</time></trkpt><trkpt lat="43.9584598" lon="12.4344746"><ele>387.0</ele><time>2026-04-09T16:27:39.217Z</time></trkpt><trkpt lat="43.9584003" lon="12.4345491"><ele>387.0</ele><time>2026-04-09T16:27:43.214Z</time></trkpt><trkpt lat="43.9583354" lon="12.4346186"><ele>387.0</ele><time>2026-04-09T16:27:47.205Z</time></trkpt><trkpt lat="43.9582772" lon="12.4346824"><ele>387.0</ele><time>2026-04-09T16:27:51.22Z</time></trkpt><trkpt lat="43.9582094" lon="12.4347462"><ele>387.0</ele><time>2026-04-09T16:27:55.202Z</time></trkpt><trkpt lat="43.9581495" lon="12.4348084"><ele>387.0</ele><time>2026-04-09T16:27:58.235Z</time></trkpt><trkpt lat="43.9581033" lon="12.4348715"><ele>389.6</ele><time>2026-04-09T16:28:00.211Z</time></trkpt><trkpt lat="43.9580487" lon="12.434942"><ele>392.20000000000005</ele><time>2026-04-09T16:28:02.191Z</time></trkpt><trkpt lat="43.9579896" lon="12.4350201"><ele>394.8</ele><time>2026-04-09T16:28:04.216Z</time></trkpt><trkpt lat="43.957917" lon="12.4351181"><ele>397.4</ele><time>2026-04-09T16:28:06.216Z</time></trkpt><trkpt lat="43.9578401" lon="12.4352278"><ele>400.0</ele><time>2026-04-09T16:28:08.222Z</time></trkpt><trkpt lat="43.957734" lon="12.4353249"><ele>400.00000000000006</ele><time>2026-04-09T16:28:10.21Z</time></trkpt><trkpt lat="43.9576732" lon="12.4353674"><ele>400.0</ele><time>2026-04-09T16:28:11.219Z</time></trkpt><trkpt lat="43.9576126" lon="12.4353998"><ele>400.0</ele><time>2026-04-09T16:28:12.151Z</time></trkpt><trkpt lat="43.9575564" lon="12.4354422"><ele>400.0</ele><time>2026-04-09T16:28:13.215Z</time></trkpt><trkpt lat="43.9575004" lon="12.4354967"><ele>400.00000000000006</ele><time>2026-04-09T16:28:14.211Z</time></trkpt><trkpt lat="43.9574112" lon="12.4356073"><ele>400.0</ele><time>2026-04-09T16:28:16.216Z</time></trkpt><trkpt lat="43.9573617" lon="12.4357658"><ele>400.00000000000006</ele><time>2026-04-09T16:28:18.218Z</time></trkpt><trkpt lat="43.9573519" lon="12.4358678"><ele>400.0</ele><time>2026-04-09T16:28:19.21Z</time></trkpt><trkpt lat="43.9573459" lon="12.4359723"><ele>400.0</ele><time>2026-04-09T16:28:20.192Z</time></trkpt><trkpt lat="43.9573373" lon="12.4360847"><ele>400.0</ele><time>2026-04-09T16:28:21.214Z</time></trkpt><trkpt lat="43.9573224" lon="12.4362032"><ele>400.00000000000006</ele><time>2026-04-09T16:28:22.212Z</time></trkpt><trkpt lat="43.9573106" lon="12.436327"><ele>400.0</ele><time>2026-04-09T16:28:23.215Z</time></trkpt><trkpt lat="43.9572963" lon="12.4364531"><ele>398.50000000000006</ele><time>2026-04-09T16:28:24.223Z</time></trkpt><trkpt lat="43.9572709" lon="12.436574"><ele>397.0</ele><time>2026-04-09T16:28:25.214Z</time></trkpt><trkpt lat="43.9572398" lon="12.436683"><ele>395.5</ele><time>2026-04-09T16:28:26.216Z</time></trkpt><trkpt lat="43.9572043" lon="12.436775"><ele>394.0</ele><time>2026-04-09T16:28:27.209Z</time></trkpt><trkpt lat="43.957176" lon="12.4368555"><ele>392.50000000000006</ele><time>2026-04-09T16:28:28.211Z</time></trkpt><trkpt lat="43.9571293" lon="12.4369704"><ele>391.0</ele><time>2026-04-09T16:28:30.215Z</time></trkpt><trkpt lat="43.9572161" lon="12.4369732"><ele>391.0</ele><time>2026-04-09T16:28:35.221Z</time></trkpt><trkpt lat="43.9572735" lon="12.4368688"><ele>391.0</ele><time>2026-04-09T16:28:37.199Z</time></trkpt><trkpt lat="43.9573243" lon="12.4367602"><ele>391.0</ele><time>2026-04-09T16:28:39.209Z</time></trkpt><trkpt lat="43.957386" lon="12.4366518"><ele>391.0</ele><time>2026-04-09T16:28:41.194Z</time></trkpt><trkpt lat="43.9574509" lon="12.4365534"><ele>391.0</ele><time>2026-04-09T16:28:43.168Z</time></trkpt><trkpt lat="43.9575168" lon="12.4364488"><ele>391.4</ele><time>2026-04-09T16:28:45.219Z</time></trkpt><trkpt lat="43.9575958" lon="12.4363613"><ele>391.8</ele><time>2026-04-09T16:28:47.219Z</time></trkpt><trkpt lat="43.9576934" lon="12.4362966"><ele>392.2</ele><time>2026-04-09T16:28:49.215Z</time></trkpt><trkpt lat="43.9578" lon="12.4362661"><ele>392.59999999999997</ele><time>2026-04-09T16:28:51.214Z</time></trkpt><trkpt lat="43.9579285" lon="12.4362583"><ele>393.0</ele><time>2026-04-09T16:28:53.222Z</time></trkpt><trkpt lat="43.957996" lon="12.4362579"><ele>393.0</ele><time>2026-04-09T16:28:54.228Z</time></trkpt><trkpt lat="43.95807" lon="12.4362576"><ele>393.0</ele><time>2026-04-09T16:28:55.202Z</time></trkpt><trkpt lat="43.9581508" lon="12.4362526"><ele>393.0</ele><time>2026-04-09T16:28:56.204Z</time></trkpt><trkpt lat="43.9582293" lon="12.4362468"><ele>393.0</ele><time>2026-04-09T16:28:57.198Z</time></trkpt><trkpt lat="43.9583124" lon="12.4362405"><ele>393.0</ele><time>2026-04-09T16:28:58.201Z</time></trkpt><trkpt lat="43.9583963" lon="12.4362269"><ele>393.0</ele><time>2026-04-09T16:28:59.213Z</time></trkpt><trkpt lat="43.9584775" lon="12.4361903"><ele>390.79999999999995</ele><time>2026-04-09T16:29:00.213Z</time></trkpt><trkpt lat="43.9585592" lon="12.4361447"><ele>388.6</ele><time>2026-04-09T16:29:01.213Z</time></trkpt><trkpt lat="43.9586435" lon="12.4360958"><ele>386.4</ele><time>2026-04-09T16:29:02.148Z</time></trkpt><trkpt lat="43.958724" lon="12.4360354"><ele>384.20000000000005</ele><time>2026-04-09T16:29:03.174Z</time></trkpt><trkpt lat="43.958803" lon="12.435969"><ele>382.0</ele><time>2026-04-09T16:29:04.219Z</time></trkpt><trkpt lat="43.9588823" lon="12.4359119"><ele>382.0</ele><time>2026-04-09T16:29:05.239Z</time></trkpt><trkpt lat="43.9589535" lon="12.435882"><ele>382.0</ele><time>2026-04-09T16:29:06.221Z</time></trkpt><trkpt lat="43.9590672" lon="12.4359699"><ele>382.0</ele><time>2026-04-09T16:29:08.215Z</time></trkpt><trkpt lat="43.9591018" lon="12.4360779"><ele>382.0</ele><time>2026-04-09T16:29:09.219Z</time></trkpt><trkpt lat="43.9591078" lon="12.4362042"><ele>382.0</ele><time>2026-04-09T16:29:10.192Z</time></trkpt><trkpt lat="43.9590834" lon="12.4363317"><ele>380.0</ele><time>2026-04-09T16:29:11.183Z</time></trkpt><trkpt lat="43.9590434" lon="12.436458"><ele>378.0</ele><time>2026-04-09T16:29:12.212Z</time></trkpt><trkpt lat="43.9589969" lon="12.4365788"><ele>376.0</ele><time>2026-04-09T16:29:13.201Z</time></trkpt><trkpt lat="43.9589579" lon="12.4366953"><ele>374.0</ele><time>2026-04-09T16:29:14.149Z</time></trkpt><trkpt lat="43.9589187" lon="12.4368193"><ele>372.0</ele><time>2026-04-09T16:29:15.171Z</time></trkpt><trkpt lat="43.9588828" lon="12.4369451"><ele>372.0</ele><time>2026-04-09T16:29:16.18Z</time></trkpt><trkpt lat="43.9588513" lon="12.437077"><ele>372.0</ele><time>2026-04-09T16:29:17.173Z</time></trkpt><trkpt lat="43.9588333" lon="12.4372263"><ele>372.0</ele><time>2026-04-09T16:29:18.185Z</time></trkpt><trkpt lat="43.9588496" lon="12.4373841"><ele>372.0</ele><time>2026-04-09T16:29:19.201Z</time></trkpt><trkpt lat="43.9589028" lon="12.4375318"><ele>372.0</ele><time>2026-04-09T16:29:20.183Z</time></trkpt><trkpt lat="43.9589674" lon="12.4376917"><ele>369.75</ele><time>2026-04-09T16:29:21.179Z</time></trkpt><trkpt lat="43.9590449" lon="12.4378307"><ele>367.5</ele><time>2026-04-09T16:29:22.215Z</time></trkpt><trkpt lat="43.9591496" lon="12.4379594"><ele>365.25</ele><time>2026-04-09T16:29:23.216Z</time></trkpt><trkpt lat="43.9592648" lon="12.4380792"><ele>363.0</ele><time>2026-04-09T16:29:24.177Z</time></trkpt><trkpt lat="43.9593824" lon="12.4382002"><ele>358.6666666666667</ele><time>2026-04-09T16:29:25.183Z</time></trkpt><trkpt lat="43.9595016" lon="12.4383165"><ele>354.33333333333337</ele><time>2026-04-09T16:29:26.226Z</time></trkpt><trkpt lat="43.9596348" lon="12.4384287"><ele>350.0</ele><time>2026-04-09T16:29:27.212Z</time></trkpt><trkpt lat="43.9597748" lon="12.4385284"><ele>350.0</ele><time>2026-04-09T16:29:28.212Z</time></trkpt><trkpt lat="43.9599197" lon="12.4386179"><ele>350.0</ele><time>2026-04-09T16:29:29.204Z</time></trkpt><trkpt lat="43.9600745" lon="12.4386865"><ele>350.0</ele><time>2026-04-09T16:29:30.229Z</time></trkpt><trkpt lat="43.9602276" lon="12.4387434"><ele>344.0</ele><time>2026-04-09T16:29:31.204Z</time></trkpt><trkpt lat="43.960373" lon="12.4388124"><ele>338.0</ele><time>2026-04-09T16:29:32.224Z</time></trkpt><trkpt lat="43.9605184" lon="12.4388943"><ele>332.0</ele><time>2026-04-09T16:29:33.158Z</time></trkpt><trkpt lat="43.9606598" lon="12.4389941"><ele>332.0</ele><time>2026-04-09T16:29:34.217Z</time></trkpt><trkpt lat="43.9608004" lon="12.4391077"><ele>332.0</ele><time>2026-04-09T16:29:35.206Z</time></trkpt><trkpt lat="43.9609448" lon="12.4392165"><ele>332.0</ele><time>2026-04-09T16:29:36.241Z</time></trkpt><trkpt lat="43.9610926" lon="12.4393038"><ele>326.33333333333337</ele><time>2026-04-09T16:29:37.225Z</time></trkpt><trkpt lat="43.9612452" lon="12.4393833"><ele>320.6666666666667</ele><time>2026-04-09T16:29:38.206Z</time></trkpt><trkpt lat="43.9614027" lon="12.4394652"><ele>315.0</ele><time>2026-04-09T16:29:39.213Z</time></trkpt><trkpt lat="43.9615553" lon="12.4395553"><ele>313.6666666666667</ele><time>2026-04-09T16:29:40.228Z</time></trkpt><trkpt lat="43.9617078" lon="12.4396556"><ele>312.33333333333337</ele><time>2026-04-09T16:29:41.207Z</time></trkpt><trkpt lat="43.9618354" lon="12.4397538"><ele>311.0</ele><time>2026-04-09T16:29:42.22Z</time></trkpt><trkpt lat="43.9619627" lon="12.4398521"><ele>311.0</ele><time>2026-04-09T16:29:43.22Z</time></trkpt><trkpt lat="43.9620868" lon="12.439946"><ele>311.0</ele><time>2026-04-09T16:29:44.223Z</time></trkpt><trkpt lat="43.9622098" lon="12.4400359"><ele>311.0</ele><time>2026-04-09T16:29:45.241Z</time></trkpt><trkpt lat="43.9623279" lon="12.440125"><ele>311.0</ele><time>2026-04-09T16:29:46.211Z</time></trkpt><trkpt lat="43.9624525" lon="12.4402057"><ele>311.25</ele><time>2026-04-09T16:29:47.213Z</time></trkpt><trkpt lat="43.9625736" lon="12.4402619"><ele>311.5</ele><time>2026-04-09T16:29:48.227Z</time></trkpt><trkpt lat="43.9626966" lon="12.440285"><ele>311.75</ele><time>2026-04-09T16:29:49.23Z</time></trkpt><trkpt lat="43.9628121" lon="12.4402779"><ele>312.0</ele><time>2026-04-09T16:29:50.172Z</time></trkpt><trkpt lat="43.9629218" lon="12.4402335"><ele>312.0</ele><time>2026-04-09T16:29:51.167Z</time></trkpt><trkpt lat="43.9630365" lon="12.4401873"><ele>312.0</ele><time>2026-04-09T16:29:52.201Z</time></trkpt><trkpt lat="43.9631521" lon="12.4401678"><ele>312.0</ele><time>2026-04-09T16:29:53.23Z</time></trkpt><trkpt lat="43.9632702" lon="12.4401634"><ele>312.0</ele><time>2026-04-09T16:29:54.209Z</time></trkpt><trkpt lat="43.9633831" lon="12.4401575"><ele>310.25</ele><time>2026-04-09T16:29:55.215Z</time></trkpt><trkpt lat="43.9634944" lon="12.4401383"><ele>308.5</ele><time>2026-04-09T16:29:56.214Z</time></trkpt><trkpt lat="43.9636045" lon="12.4401059"><ele>306.75</ele><time>2026-04-09T16:29:57.209Z</time></trkpt><trkpt lat="43.963713" lon="12.4400717"><ele>305.0</ele><time>2026-04-09T16:29:58.217Z</time></trkpt><trkpt lat="43.9638295" lon="12.440048"><ele>305.0</ele><time>2026-04-09T16:29:59.206Z</time></trkpt><trkpt lat="43.9639445" lon="12.4400474"><ele>305.0</ele><time>2026-04-09T16:30:00.173Z</time></trkpt><trkpt lat="43.9640648" lon="12.4400609"><ele>305.0</ele><time>2026-04-09T16:30:01.15Z</time></trkpt><trkpt lat="43.9641894" lon="12.4400915"><ele>305.0</ele><time>2026-04-09T16:30:02.174Z</time></trkpt><trkpt lat="43.9643134" lon="12.4401485"><ele>303.5</ele><time>2026-04-09T16:30:03.222Z</time></trkpt><trkpt lat="43.9644243" lon="12.4401918"><ele>302.0</ele><time>2026-04-09T16:30:04.219Z</time></trkpt><trkpt lat="43.9645377" lon="12.4402442"><ele>300.5</ele><time>2026-04-09T16:30:05.19Z</time></trkpt><trkpt lat="43.9646496" lon="12.4402909"><ele>299.0</ele><time>2026-04-09T16:30:06.172Z</time></trkpt><trkpt lat="43.9647646" lon="12.4403385"><ele>299.0</ele><time>2026-04-09T16:30:07.161Z</time></trkpt><trkpt lat="43.9648817" lon="12.4403828"><ele>299.0</ele><time>2026-04-09T16:30:08.212Z</time></trkpt><trkpt lat="43.9649938" lon="12.4404266"><ele>299.0</ele><time>2026-04-09T16:30:09.219Z</time></trkpt><trkpt lat="43.9651049" lon="12.4404738"><ele>299.0</ele><time>2026-04-09T16:30:10.175Z</time></trkpt><trkpt lat="43.9652159" lon="12.4405276"><ele>299.0</ele><time>2026-04-09T16:30:11.196Z</time></trkpt><trkpt lat="43.9653291" lon="12.4405821"><ele>299.0</ele><time>2026-04-09T16:30:12.182Z</time></trkpt><trkpt lat="43.9654276" lon="12.4406492"><ele>299.0</ele><time>2026-04-09T16:30:13.156Z</time></trkpt><trkpt lat="43.9655203" lon="12.4407402"><ele>299.0</ele><time>2026-04-09T16:30:14.175Z</time></trkpt><trkpt lat="43.9656089" lon="12.4408508"><ele>299.0</ele><time>2026-04-09T16:30:15.203Z</time></trkpt><trkpt lat="43.965695" lon="12.4409635"><ele>299.0</ele><time>2026-04-09T16:30:16.213Z</time></trkpt><trkpt lat="43.9657848" lon="12.4410663"><ele>299.0</ele><time>2026-04-09T16:30:17.191Z</time></trkpt><trkpt lat="43.965875" lon="12.4411692"><ele>299.0</ele><time>2026-04-09T16:30:18.232Z</time></trkpt><trkpt lat="43.9659551" lon="12.4412726"><ele>298.5</ele><time>2026-04-09T16:30:19.198Z</time></trkpt><trkpt lat="43.9660218" lon="12.4413766"><ele>298.0</ele><time>2026-04-09T16:30:20.159Z</time></trkpt><trkpt lat="43.9660495" lon="12.4414842"><ele>297.5</ele><time>2026-04-09T16:30:21.169Z</time></trkpt><trkpt lat="43.9660259" lon="12.4415927"><ele>297.0</ele><time>2026-04-09T16:30:22.169Z</time></trkpt><trkpt lat="43.9659675" lon="12.4416787"><ele>296.5</ele><time>2026-04-09T16:30:23.222Z</time></trkpt><trkpt lat="43.9658814" lon="12.441676"><ele>296.0</ele><time>2026-04-09T16:30:24.17Z</time></trkpt><trkpt lat="43.9657936" lon="12.4416314"><ele>294.83333333333337</ele><time>2026-04-09T16:30:25.184Z</time></trkpt><trkpt lat="43.9657103" lon="12.4415844"><ele>293.6666666666667</ele><time>2026-04-09T16:30:26.205Z</time></trkpt><trkpt lat="43.9656272" lon="12.4415318"><ele>292.5</ele><time>2026-04-09T16:30:27.187Z</time></trkpt><trkpt lat="43.9655472" lon="12.4414725"><ele>291.3333333333333</ele><time>2026-04-09T16:30:28.235Z</time></trkpt><trkpt lat="43.9654641" lon="12.441426"><ele>290.16666666666663</ele><time>2026-04-09T16:30:29.22Z</time></trkpt><trkpt lat="43.9653876" lon="12.4414156"><ele>289.0</ele><time>2026-04-09T16:30:30.221Z</time></trkpt><trkpt lat="43.9653077" lon="12.4414506"><ele>289.0</ele><time>2026-04-09T16:30:31.178Z</time></trkpt><trkpt lat="43.9652534" lon="12.4415201"><ele>289.0</ele><time>2026-04-09T16:30:32.215Z</time></trkpt><trkpt lat="43.9652547" lon="12.4416183"><ele>289.0</ele><time>2026-04-09T16:30:33.223Z</time></trkpt><trkpt lat="43.9653035" lon="12.4417283"><ele>289.0</ele><time>2026-04-09T16:30:34.204Z</time></trkpt><trkpt lat="43.9653612" lon="12.4418163"><ele>289.0</ele><time>2026-04-09T16:30:35.156Z</time></trkpt><trkpt lat="43.9654276" lon="12.4419036"><ele>289.0</ele><time>2026-04-09T16:30:36.186Z</time></trkpt><trkpt lat="43.9654943" lon="12.4419842"><ele>289.0</ele><time>2026-04-09T16:30:37.187Z</time></trkpt><trkpt lat="43.9655611" lon="12.4420744"><ele>289.0</ele><time>2026-04-09T16:30:38.166Z</time></trkpt><trkpt lat="43.965634" lon="12.4421547"><ele>289.0</ele><time>2026-04-09T16:30:39.173Z</time></trkpt><trkpt lat="43.9657069" lon="12.4422389"><ele>289.0</ele><time>2026-04-09T16:30:40.193Z</time></trkpt><trkpt lat="43.9657796" lon="12.4423242"><ele>289.0</ele><time>2026-04-09T16:30:41.159Z</time></trkpt><trkpt lat="43.9658542" lon="12.4424146"><ele>288.0</ele><time>2026-04-09T16:30:42.183Z</time></trkpt><trkpt lat="43.9659307" lon="12.4425176"><ele>287.0</ele><time>2026-04-09T16:30:43.206Z</time></trkpt><trkpt lat="43.9660046" lon="12.4426054"><ele>286.0</ele><time>2026-04-09T16:30:44.204Z</time></trkpt><trkpt lat="43.966084" lon="12.4427043"><ele>285.0</ele><time>2026-04-09T16:30:45.196Z</time></trkpt><trkpt lat="43.9661619" lon="12.4427972"><ele>284.0</ele><time>2026-04-09T16:30:46.191Z</time></trkpt><trkpt lat="43.9662381" lon="12.4428921"><ele>282.2</ele><time>2026-04-09T16:30:47.176Z</time></trkpt><trkpt lat="43.9663111" lon="12.4429942"><ele>280.4</ele><time>2026-04-09T16:30:48.188Z</time></trkpt><trkpt lat="43.9663948" lon="12.4430965"><ele>278.6</ele><time>2026-04-09T16:30:49.174Z</time></trkpt><trkpt lat="43.9664702" lon="12.4432094"><ele>276.8</ele><time>2026-04-09T16:30:50.229Z</time></trkpt><trkpt lat="43.9665406" lon="12.4433294"><ele>275.0</ele><time>2026-04-09T16:30:51.163Z</time></trkpt><trkpt lat="43.9665979" lon="12.4434573"><ele>275.0</ele><time>2026-04-09T16:30:52.213Z</time></trkpt><trkpt lat="43.9666487" lon="12.4435939"><ele>275.0</ele><time>2026-04-09T16:30:53.212Z</time></trkpt><trkpt lat="43.9666846" lon="12.4437605"><ele>275.0</ele><time>2026-04-09T16:30:54.2Z</time></trkpt><trkpt lat="43.9666932" lon="12.4439277"><ele>275.0</ele><time>2026-04-09T16:30:55.191Z</time></trkpt><trkpt lat="43.9666828" lon="12.4440953"><ele>273.0</ele><time>2026-04-09T16:30:56.227Z</time></trkpt><trkpt lat="43.9666612" lon="12.4442599"><ele>271.0</ele><time>2026-04-09T16:30:57.213Z</time></trkpt><trkpt lat="43.9666354" lon="12.4444223"><ele>269.0</ele><time>2026-04-09T16:30:58.185Z</time></trkpt><trkpt lat="43.9666092" lon="12.4445861"><ele>267.0</ele><time>2026-04-09T16:30:59.224Z</time></trkpt><trkpt lat="43.9665879" lon="12.4447469"><ele>266.5</ele><time>2026-04-09T16:31:00.195Z</time></trkpt><trkpt lat="43.9665663" lon="12.4449103"><ele>266.0</ele><time>2026-04-09T16:31:01.21Z</time></trkpt><trkpt lat="43.9665424" lon="12.445073"><ele>265.5</ele><time>2026-04-09T16:31:02.221Z</time></trkpt><trkpt lat="43.9665195" lon="12.4452391"><ele>265.0</ele><time>2026-04-09T16:31:03.221Z</time></trkpt><trkpt lat="43.9665015" lon="12.4454016"><ele>263.75</ele><time>2026-04-09T16:31:04.215Z</time></trkpt><trkpt lat="43.9664773" lon="12.4455663"><ele>262.5</ele><time>2026-04-09T16:31:05.217Z</time></trkpt><trkpt lat="43.9664592" lon="12.4457299"><ele>261.25</ele><time>2026-04-09T16:31:06.226Z</time></trkpt><trkpt lat="43.9664393" lon="12.4458972"><ele>260.0</ele><time>2026-04-09T16:31:07.179Z</time></trkpt><trkpt lat="43.9664256" lon="12.4460613"><ele>260.0</ele><time>2026-04-09T16:31:08.231Z</time></trkpt><trkpt lat="43.9664133" lon="12.446227"><ele>260.0</ele><time>2026-04-09T16:31:09.189Z</time></trkpt><trkpt lat="43.9664072" lon="12.4463895"><ele>260.0</ele><time>2026-04-09T16:31:10.215Z</time></trkpt><trkpt lat="43.9664075" lon="12.446551"><ele>260.0</ele><time>2026-04-09T16:31:11.167Z</time></trkpt><trkpt lat="43.9664068" lon="12.4467137"><ele>258.8</ele><time>2026-04-09T16:31:12.19Z</time></trkpt><trkpt lat="43.9664083" lon="12.446874"><ele>257.6</ele><time>2026-04-09T16:31:13.168Z</time></trkpt><trkpt lat="43.9664113" lon="12.4470283"><ele>256.4</ele><time>2026-04-09T16:31:14.214Z</time></trkpt><trkpt lat="43.9664166" lon="12.4471821"><ele>255.2</ele><time>2026-04-09T16:31:15.22Z</time></trkpt><trkpt lat="43.9664219" lon="12.4473306"><ele>254.0</ele><time>2026-04-09T16:31:16.231Z</time></trkpt><trkpt lat="43.9664346" lon="12.4474824"><ele>253.6</ele><time>2026-04-09T16:31:17.173Z</time></trkpt><trkpt lat="43.9664621" lon="12.4476343"><ele>253.2</ele><time>2026-04-09T16:31:18.21Z</time></trkpt><trkpt lat="43.9665056" lon="12.4477735"><ele>252.79999999999998</ele><time>2026-04-09T16:31:19.215Z</time></trkpt><trkpt lat="43.9665583" lon="12.4478973"><ele>252.39999999999998</ele><time>2026-04-09T16:31:20.233Z</time></trkpt><trkpt lat="43.9666213" lon="12.4480107"><ele>252.0</ele><time>2026-04-09T16:31:21.163Z</time></trkpt><trkpt lat="43.9666965" lon="12.4481043"><ele>250.8</ele><time>2026-04-09T16:31:22.193Z</time></trkpt><trkpt lat="43.9667768" lon="12.448182"><ele>249.6</ele><time>2026-04-09T16:31:23.184Z</time></trkpt><trkpt lat="43.9668612" lon="12.4482509"><ele>248.40000000000003</ele><time>2026-04-09T16:31:24.163Z</time></trkpt><trkpt lat="43.9669482" lon="12.4483151"><ele>247.20000000000002</ele><time>2026-04-09T16:31:25.173Z</time></trkpt><trkpt lat="43.9670321" lon="12.4483757"><ele>246.0</ele><time>2026-04-09T16:31:26.177Z</time></trkpt><trkpt lat="43.967121" lon="12.4484367"><ele>246.0</ele><time>2026-04-09T16:31:27.204Z</time></trkpt><trkpt lat="43.9672167" lon="12.4484924"><ele>246.00000000000003</ele><time>2026-04-09T16:31:28.181Z</time></trkpt><trkpt lat="43.9673189" lon="12.4485374"><ele>246.00000000000003</ele><time>2026-04-09T16:31:29.222Z</time></trkpt><trkpt lat="43.9674185" lon="12.4485769"><ele>246.0</ele><time>2026-04-09T16:31:30.194Z</time></trkpt><trkpt lat="43.9675182" lon="12.4486199"><ele>246.0</ele><time>2026-04-09T16:31:31.184Z</time></trkpt><trkpt lat="43.9676186" lon="12.4486671"><ele>245.60000000000002</ele><time>2026-04-09T16:31:32.163Z</time></trkpt><trkpt lat="43.9677203" lon="12.4487078"><ele>245.20000000000002</ele><time>2026-04-09T16:31:33.196Z</time></trkpt><trkpt lat="43.9678227" lon="12.4487527"><ele>244.79999999999998</ele><time>2026-04-09T16:31:34.2Z</time></trkpt><trkpt lat="43.9679275" lon="12.4487957"><ele>244.39999999999998</ele><time>2026-04-09T16:31:35.185Z</time></trkpt><trkpt lat="43.9680264" lon="12.4488415"><ele>244.0</ele><time>2026-04-09T16:31:36.19Z</time></trkpt><trkpt lat="43.9681251" lon="12.4488904"><ele>244.0</ele><time>2026-04-09T16:31:37.182Z</time></trkpt><trkpt lat="43.9682257" lon="12.4489478"><ele>243.99999999999997</ele><time>2026-04-09T16:31:38.192Z</time></trkpt><trkpt lat="43.96833" lon="12.4489999"><ele>243.99999999999997</ele><time>2026-04-09T16:31:39.194Z</time></trkpt><trkpt lat="43.9684269" lon="12.4490415"><ele>244.0</ele><time>2026-04-09T16:31:40.236Z</time></trkpt><trkpt lat="43.9685284" lon="12.4490852"><ele>244.0</ele><time>2026-04-09T16:31:41.205Z</time></trkpt><trkpt lat="43.9686257" lon="12.4491262"><ele>242.79999999999998</ele><time>2026-04-09T16:31:42.185Z</time></trkpt><trkpt lat="43.9687253" lon="12.4491742"><ele>241.59999999999997</ele><time>2026-04-09T16:31:43.176Z</time></trkpt><trkpt lat="43.9688248" lon="12.4492235"><ele>240.4</ele><time>2026-04-09T16:31:44.171Z</time></trkpt><trkpt lat="43.9689215" lon="12.449271"><ele>239.2</ele><time>2026-04-09T16:31:45.185Z</time></trkpt><trkpt lat="43.9690218" lon="12.4493192"><ele>238.0</ele><time>2026-04-09T16:31:46.182Z</time></trkpt><trkpt lat="43.9691241" lon="12.4493648"><ele>236.60000000000002</ele><time>2026-04-09T16:31:47.213Z</time></trkpt><trkpt lat="43.9692241" lon="12.4494167"><ele>235.20000000000002</ele><time>2026-04-09T16:31:48.2Z</time></trkpt><trkpt lat="43.9693215" lon="12.4494622"><ele>233.8</ele><time>2026-04-09T16:31:49.244Z</time></trkpt><trkpt lat="43.9694199" lon="12.4495088"><ele>232.4</ele><time>2026-04-09T16:31:50.221Z</time></trkpt><trkpt lat="43.9695143" lon="12.4495487"><ele>231.0</ele><time>2026-04-09T16:31:51.209Z</time></trkpt><trkpt lat="43.9696086" lon="12.4495888"><ele>230.60000000000002</ele><time>2026-04-09T16:31:52.217Z</time></trkpt><trkpt lat="43.9697041" lon="12.4496337"><ele>230.20000000000002</ele><time>2026-04-09T16:31:53.219Z</time></trkpt><trkpt lat="43.969797" lon="12.4496855"><ele>229.79999999999998</ele><time>2026-04-09T16:31:54.189Z</time></trkpt><trkpt lat="43.9698889" lon="12.4497336"><ele>229.39999999999998</ele><time>2026-04-09T16:31:55.193Z</time></trkpt><trkpt lat="43.9699825" lon="12.4497829"><ele>229.0</ele><time>2026-04-09T16:31:56.181Z</time></trkpt><trkpt lat="43.9700805" lon="12.4498228"><ele>229.0</ele><time>2026-04-09T16:31:57.181Z</time></trkpt><trkpt lat="43.9701749" lon="12.4498681"><ele>228.99999999999997</ele><time>2026-04-09T16:31:58.205Z</time></trkpt><trkpt lat="43.9702727" lon="12.4499081"><ele>228.99999999999997</ele><time>2026-04-09T16:31:59.207Z</time></trkpt><trkpt lat="43.9703672" lon="12.4499534"><ele>229.0</ele><time>2026-04-09T16:32:00.191Z</time></trkpt><trkpt lat="43.9704622" lon="12.4500015"><ele>229.0</ele><time>2026-04-09T16:32:01.158Z</time></trkpt><trkpt lat="43.9705582" lon="12.4500502"><ele>229.0</ele><time>2026-04-09T16:32:02.164Z</time></trkpt><trkpt lat="43.9706529" lon="12.4500963"><ele>228.99999999999997</ele><time>2026-04-09T16:32:03.158Z</time></trkpt><trkpt lat="43.9707463" lon="12.4501511"><ele>228.99999999999997</ele><time>2026-04-09T16:32:04.164Z</time></trkpt><trkpt lat="43.9708367" lon="12.4502046"><ele>229.0</ele><time>2026-04-09T16:32:05.179Z</time></trkpt><trkpt lat="43.970925" lon="12.4502682"><ele>229.0</ele><time>2026-04-09T16:32:06.192Z</time></trkpt><trkpt lat="43.9710095" lon="12.4503449"><ele>228.79999999999998</ele><time>2026-04-09T16:32:07.245Z</time></trkpt><trkpt lat="43.9710903" lon="12.4504138"><ele>228.59999999999997</ele><time>2026-04-09T16:32:08.206Z</time></trkpt><trkpt lat="43.9711757" lon="12.4504872"><ele>228.4</ele><time>2026-04-09T16:32:09.227Z</time></trkpt><trkpt lat="43.9712503" lon="12.450558"><ele>228.2</ele><time>2026-04-09T16:32:10.201Z</time></trkpt><trkpt lat="43.9713282" lon="12.450624"><ele>228.0</ele><time>2026-04-09T16:32:11.212Z</time></trkpt><trkpt lat="43.9714051" lon="12.4506855"><ele>228.0</ele><time>2026-04-09T16:32:12.152Z</time></trkpt><trkpt lat="43.971484" lon="12.4507497"><ele>228.0</ele><time>2026-04-09T16:32:13.19Z</time></trkpt><trkpt lat="43.9715571" lon="12.4508165"><ele>228.0</ele><time>2026-04-09T16:32:14.191Z</time></trkpt><trkpt lat="43.9716334" lon="12.4508857"><ele>228.0</ele><time>2026-04-09T16:32:15.157Z</time></trkpt><trkpt lat="43.971703" lon="12.450954"><ele>228.0</ele><time>2026-04-09T16:32:16.166Z</time></trkpt><trkpt lat="43.9717698" lon="12.4510219"><ele>228.0</ele><time>2026-04-09T16:32:17.184Z</time></trkpt><trkpt lat="43.9718344" lon="12.4510877"><ele>228.14285714285714</ele><time>2026-04-09T16:32:18.212Z</time></trkpt><trkpt lat="43.9718963" lon="12.4511512"><ele>228.28571428571428</ele><time>2026-04-09T16:32:19.2Z</time></trkpt><trkpt lat="43.9719548" lon="12.4512231"><ele>228.42857142857142</ele><time>2026-04-09T16:32:20.217Z</time></trkpt><trkpt lat="43.9720087" lon="12.4512915"><ele>228.57142857142856</ele><time>2026-04-09T16:32:21.215Z</time></trkpt><trkpt lat="43.9720605" lon="12.4513646"><ele>228.71428571428572</ele><time>2026-04-09T16:32:22.201Z</time></trkpt><trkpt lat="43.9721102" lon="12.4514372"><ele>228.85714285714283</ele><time>2026-04-09T16:32:23.17Z</time></trkpt><trkpt lat="43.9721618" lon="12.4515083"><ele>229.0</ele><time>2026-04-09T16:32:24.234Z</time></trkpt><trkpt lat="43.9722127" lon="12.4515725"><ele>229.0</ele><time>2026-04-09T16:32:25.214Z</time></trkpt><trkpt lat="43.972269" lon="12.451642"><ele>229.0</ele><time>2026-04-09T16:32:26.22Z</time></trkpt><trkpt lat="43.9723256" lon="12.4517129"><ele>229.0</ele><time>2026-04-09T16:32:27.225Z</time></trkpt><trkpt lat="43.9723722" lon="12.4517752"><ele>229.0</ele><time>2026-04-09T16:32:28.221Z</time></trkpt><trkpt lat="43.9724143" lon="12.451843"><ele>229.0</ele><time>2026-04-09T16:32:29.226Z</time></trkpt><trkpt lat="43.9724285" lon="12.4519302"><ele>229.0</ele><time>2026-04-09T16:32:30.215Z</time></trkpt><trkpt lat="43.9724133" lon="12.4520199"><ele>229.0</ele><time>2026-04-09T16:32:31.209Z</time></trkpt><trkpt lat="43.972349" lon="12.4520661"><ele>229.0</ele><time>2026-04-09T16:32:33.198Z</time></trkpt><trkpt lat="43.9722854" lon="12.4520743"><ele>229.0</ele><time>2026-04-09T16:32:35.204Z</time></trkpt><trkpt lat="43.972216" lon="12.4520826"><ele>229.0</ele><time>2026-04-09T16:32:37.173Z</time></trkpt><trkpt lat="43.9721463" lon="12.4520855"><ele>229.0</ele><time>2026-04-09T16:32:39.177Z</time></trkpt><trkpt lat="43.9720771" lon="12.4520883"><ele>229.0</ele><time>2026-04-09T16:32:41.153Z</time></trkpt><trkpt lat="43.9719871" lon="12.452087"><ele>229.0</ele><time>2026-04-09T16:32:44.18Z</time></trkpt><trkpt lat="43.9719253" lon="12.4521114"><ele>229.0</ele><time>2026-04-09T16:32:46.154Z</time></trkpt><trkpt lat="43.9718538" lon="12.4521871"><ele>230.33333333333331</ele><time>2026-04-09T16:32:49.214Z</time></trkpt><trkpt lat="43.9718319" lon="12.4523104"><ele>231.66666666666666</ele><time>2026-04-09T16:32:52.182Z</time></trkpt><trkpt lat="43.9718798" lon="12.4524043"><ele>233.0</ele><time>2026-04-09T16:32:55.153Z</time></trkpt><trkpt lat="43.9719442" lon="12.4524465"><ele>234.33333333333331</ele><time>2026-04-09T16:32:57.195Z</time></trkpt><trkpt lat="43.9720152" lon="12.4524814"><ele>235.66666666666666</ele><time>2026-04-09T16:32:59.189Z</time></trkpt><trkpt lat="43.9720876" lon="12.4525203"><ele>237.0</ele><time>2026-04-09T16:33:01.182Z</time></trkpt><trkpt lat="43.9721716" lon="12.4525545"><ele>237.0</ele><time>2026-04-09T16:33:03.209Z</time></trkpt><trkpt lat="43.9722567" lon="12.4526026"><ele>237.0</ele><time>2026-04-09T16:33:05.176Z</time></trkpt><trkpt lat="43.9723443" lon="12.4526547"><ele>237.0</ele><time>2026-04-09T16:33:07.223Z</time></trkpt><trkpt lat="43.9724424" lon="12.4527067"><ele>237.0</ele><time>2026-04-09T16:33:09.225Z</time></trkpt><trkpt lat="43.9725421" lon="12.4527713"><ele>237.0</ele><time>2026-04-09T16:33:11.235Z</time></trkpt><trkpt lat="43.9726383" lon="12.4528566"><ele>234.0</ele><time>2026-04-09T16:33:13.199Z</time></trkpt><trkpt lat="43.9727072" lon="12.4529767"><ele>231.0</ele><time>2026-04-09T16:33:15.237Z</time></trkpt><trkpt lat="43.9727409" lon="12.4531408"><ele>228.0</ele><time>2026-04-09T16:33:17.21Z</time></trkpt><trkpt lat="43.9727404" lon="12.4533174"><ele>225.0</ele><time>2026-04-09T16:33:19.21Z</time></trkpt><trkpt lat="43.9727126" lon="12.4534693"><ele>225.0</ele><time>2026-04-09T16:33:21.221Z</time></trkpt><trkpt lat="43.9726666" lon="12.453611"><ele>225.0</ele><time>2026-04-09T16:33:23.223Z</time></trkpt><trkpt lat="43.9726186" lon="12.4537519"><ele>225.0</ele><time>2026-04-09T16:33:25.183Z</time></trkpt><trkpt lat="43.9725651" lon="12.4539001"><ele>225.0</ele><time>2026-04-09T16:33:27.225Z</time></trkpt><trkpt lat="43.9725358" lon="12.4539868"><ele>225.0</ele><time>2026-04-09T16:33:28.189Z</time></trkpt><trkpt lat="43.9725059" lon="12.4540729"><ele>225.8571428571429</ele><time>2026-04-09T16:33:29.223Z</time></trkpt><trkpt lat="43.9724727" lon="12.4541586"><ele>226.71428571428572</ele><time>2026-04-09T16:33:30.212Z</time></trkpt><trkpt lat="43.9724434" lon="12.4542501"><ele>227.57142857142858</ele><time>2026-04-09T16:33:31.215Z</time></trkpt><trkpt lat="43.9724204" lon="12.4543429"><ele>228.42857142857144</ele><time>2026-04-09T16:33:32.213Z</time></trkpt><trkpt lat="43.9724096" lon="12.4544434"><ele>229.28571428571428</ele><time>2026-04-09T16:33:33.205Z</time></trkpt><trkpt lat="43.9724057" lon="12.4545465"><ele>230.14285714285714</ele><time>2026-04-09T16:33:34.202Z</time></trkpt><trkpt lat="43.9724107" lon="12.4546491"><ele>231.0</ele><time>2026-04-09T16:33:35.222Z</time></trkpt><trkpt lat="43.9724229" lon="12.454754"><ele>231.0</ele><time>2026-04-09T16:33:36.223Z</time></trkpt><trkpt lat="43.9724471" lon="12.4548586"><ele>231.0</ele><time>2026-04-09T16:33:37.231Z</time></trkpt><trkpt lat="43.9724793" lon="12.454977"><ele>231.0</ele><time>2026-04-09T16:33:38.216Z</time></trkpt><trkpt lat="43.9725181" lon="12.4550811"><ele>231.0</ele><time>2026-04-09T16:33:39.207Z</time></trkpt><trkpt lat="43.972564" lon="12.4551931"><ele>231.0</ele><time>2026-04-09T16:33:40.211Z</time></trkpt><trkpt lat="43.9726085" lon="12.4553038"><ele>231.0</ele><time>2026-04-09T16:33:41.237Z</time></trkpt><trkpt lat="43.972651" lon="12.4554121"><ele>229.0</ele><time>2026-04-09T16:33:42.211Z</time></trkpt><trkpt lat="43.9726945" lon="12.4555301"><ele>227.00000000000003</ele><time>2026-04-09T16:33:43.208Z</time></trkpt><trkpt lat="43.9727332" lon="12.4556445"><ele>225.00000000000003</ele><time>2026-04-09T16:33:44.197Z</time></trkpt><trkpt lat="43.9727738" lon="12.4557525"><ele>223.0</ele><time>2026-04-09T16:33:45.178Z</time></trkpt><trkpt lat="43.972806" lon="12.4558643"><ele>221.0</ele><time>2026-04-09T16:33:46.216Z</time></trkpt><trkpt lat="43.9728304" lon="12.4559895"><ele>221.0</ele><time>2026-04-09T16:33:47.216Z</time></trkpt><trkpt lat="43.9728412" lon="12.4561223"><ele>221.00000000000003</ele><time>2026-04-09T16:33:48.227Z</time></trkpt><trkpt lat="43.9728411" lon="12.4562528"><ele>221.00000000000003</ele><time>2026-04-09T16:33:49.235Z</time></trkpt><trkpt lat="43.9728292" lon="12.4563773"><ele>221.0</ele><time>2026-04-09T16:33:50.206Z</time></trkpt><trkpt lat="43.9728064" lon="12.4565015"><ele>221.0</ele><time>2026-04-09T16:33:51.161Z</time></trkpt><trkpt lat="43.9727825" lon="12.4566313"><ele>220.60000000000002</ele><time>2026-04-09T16:33:52.179Z</time></trkpt><trkpt lat="43.9727552" lon="12.4567546"><ele>220.20000000000002</ele><time>2026-04-09T16:33:53.163Z</time></trkpt><trkpt lat="43.9727294" lon="12.4568792"><ele>219.79999999999998</ele><time>2026-04-09T16:33:54.193Z</time></trkpt><trkpt lat="43.9727051" lon="12.4569962"><ele>219.39999999999998</ele><time>2026-04-09T16:33:55.19Z</time></trkpt><trkpt lat="43.9726829" lon="12.4571167"><ele>219.0</ele><time>2026-04-09T16:33:56.208Z</time></trkpt><trkpt lat="43.9726671" lon="12.4572434"><ele>217.6</ele><time>2026-04-09T16:33:57.226Z</time></trkpt><trkpt lat="43.9726605" lon="12.4573746"><ele>216.2</ele><time>2026-04-09T16:33:58.178Z</time></trkpt><trkpt lat="43.9726632" lon="12.4575016"><ele>214.79999999999998</ele><time>2026-04-09T16:33:59.201Z</time></trkpt><trkpt lat="43.9726747" lon="12.457629"><ele>213.39999999999998</ele><time>2026-04-09T16:34:00.219Z</time></trkpt><trkpt lat="43.9726923" lon="12.457759"><ele>212.0</ele><time>2026-04-09T16:34:01.202Z</time></trkpt><trkpt lat="43.9727132" lon="12.4578851"><ele>211.16666666666669</ele><time>2026-04-09T16:34:02.196Z</time></trkpt><trkpt lat="43.9727349" lon="12.4580077"><ele>210.33333333333334</ele><time>2026-04-09T16:34:03.2Z</time></trkpt><trkpt lat="43.9727557" lon="12.4581309"><ele>209.5</ele><time>2026-04-09T16:34:04.183Z</time></trkpt><trkpt lat="43.9727868" lon="12.458255"><ele>208.66666666666669</ele><time>2026-04-09T16:34:05.219Z</time></trkpt><trkpt lat="43.9728107" lon="12.4583687"><ele>207.83333333333334</ele><time>2026-04-09T16:34:06.207Z</time></trkpt><trkpt lat="43.9728349" lon="12.4584825"><ele>207.0</ele><time>2026-04-09T16:34:07.219Z</time></trkpt><trkpt lat="43.9728639" lon="12.4585906"><ele>207.0</ele><time>2026-04-09T16:34:08.164Z</time></trkpt><trkpt lat="43.9728888" lon="12.4586944"><ele>207.0</ele><time>2026-04-09T16:34:09.171Z</time></trkpt><trkpt lat="43.9729134" lon="12.4587994"><ele>207.0</ele><time>2026-04-09T16:34:10.203Z</time></trkpt><trkpt lat="43.9729413" lon="12.458904"><ele>207.0</ele><time>2026-04-09T16:34:11.217Z</time></trkpt><trkpt lat="43.9729748" lon="12.4590104"><ele>207.0</ele><time>2026-04-09T16:34:12.231Z</time></trkpt><trkpt lat="43.9730042" lon="12.4591065"><ele>207.0</ele><time>2026-04-09T16:34:13.215Z</time></trkpt><trkpt lat="43.973038" lon="12.4592032"><ele>207.57142857142858</ele><time>2026-04-09T16:34:14.226Z</time></trkpt><trkpt lat="43.9730694" lon="12.459303"><ele>208.14285714285714</ele><time>2026-04-09T16:34:15.187Z</time></trkpt><trkpt lat="43.9730972" lon="12.4594015"><ele>208.71428571428572</ele><time>2026-04-09T16:34:16.218Z</time></trkpt><trkpt lat="43.9731305" lon="12.4594969"><ele>209.28571428571428</ele><time>2026-04-09T16:34:17.186Z</time></trkpt><trkpt lat="43.9731652" lon="12.4595926"><ele>209.85714285714286</ele><time>2026-04-09T16:34:18.203Z</time></trkpt><trkpt lat="43.9731973" lon="12.459677"><ele>210.42857142857144</ele><time>2026-04-09T16:34:19.213Z</time></trkpt><trkpt lat="43.9732356" lon="12.4597594"><ele>211.0</ele><time>2026-04-09T16:34:20.215Z</time></trkpt><trkpt lat="43.9732693" lon="12.4598455"><ele>211.0</ele><time>2026-04-09T16:34:21.22Z</time></trkpt><trkpt lat="43.9733053" lon="12.4599291"><ele>211.0</ele><time>2026-04-09T16:34:22.223Z</time></trkpt><trkpt lat="43.9733412" lon="12.460011"><ele>211.0</ele><time>2026-04-09T16:34:23.23Z</time></trkpt><trkpt lat="43.9733765" lon="12.4601037"><ele>211.0</ele><time>2026-04-09T16:34:24.232Z</time></trkpt><trkpt lat="43.9734133" lon="12.4601949"><ele>211.0</ele><time>2026-04-09T16:34:25.204Z</time></trkpt><trkpt lat="43.9734532" lon="12.4602875"><ele>211.0</ele><time>2026-04-09T16:34:26.21Z</time></trkpt><trkpt lat="43.9734907" lon="12.4603798"><ele>211.0</ele><time>2026-04-09T16:34:27.218Z</time></trkpt><trkpt lat="43.9735247" lon="12.4604664"><ele>210.99999999999997</ele><time>2026-04-09T16:34:28.213Z</time></trkpt><trkpt lat="43.9735568" lon="12.4605507"><ele>211.0</ele><time>2026-04-09T16:34:29.219Z</time></trkpt><trkpt lat="43.9735883" lon="12.4606269"><ele>211.0</ele><time>2026-04-09T16:34:30.225Z</time></trkpt><trkpt lat="43.9736225" lon="12.4607055"><ele>211.0</ele><time>2026-04-09T16:34:31.215Z</time></trkpt><trkpt lat="43.9736555" lon="12.4607843"><ele>210.99999999999997</ele><time>2026-04-09T16:34:32.224Z</time></trkpt><trkpt lat="43.9736888" lon="12.4608649"><ele>211.0</ele><time>2026-04-09T16:34:33.218Z</time></trkpt><trkpt lat="43.9737512" lon="12.4610111"><ele>211.0</ele><time>2026-04-09T16:34:35.221Z</time></trkpt><trkpt lat="43.9738163" lon="12.4611452"><ele>211.0</ele><time>2026-04-09T16:34:37.214Z</time></trkpt><trkpt lat="43.9738697" lon="12.4612719"><ele>211.0</ele><time>2026-04-09T16:34:39.215Z</time></trkpt><trkpt lat="43.9739192" lon="12.4613884"><ele>211.0</ele><time>2026-04-09T16:34:41.17Z</time></trkpt><trkpt lat="43.973967" lon="12.4614911"><ele>211.0</ele><time>2026-04-09T16:34:43.221Z</time></trkpt><trkpt lat="43.974016" lon="12.4615821"><ele>211.66666666666666</ele><time>2026-04-09T16:34:45.149Z</time></trkpt><trkpt lat="43.9740513" lon="12.4616736"><ele>212.33333333333331</ele><time>2026-04-09T16:34:47.21Z</time></trkpt><trkpt lat="43.9740903" lon="12.461767"><ele>213.0</ele><time>2026-04-09T16:34:49.151Z</time></trkpt><trkpt lat="43.9741265" lon="12.4618684"><ele>213.66666666666669</ele><time>2026-04-09T16:34:51.147Z</time></trkpt><trkpt lat="43.9741577" lon="12.4619602"><ele>214.33333333333334</ele><time>2026-04-09T16:34:53.149Z</time></trkpt><trkpt lat="43.9742004" lon="12.4620517"><ele>215.0</ele><time>2026-04-09T16:34:55.161Z</time></trkpt><trkpt lat="43.9742326" lon="12.4621358"><ele>215.57142857142856</ele><time>2026-04-09T16:34:57.149Z</time></trkpt><trkpt lat="43.9742651" lon="12.462222"><ele>216.14285714285717</ele><time>2026-04-09T16:34:59.15Z</time></trkpt><trkpt lat="43.974301" lon="12.462307"><ele>216.71428571428572</ele><time>2026-04-09T16:35:01.149Z</time></trkpt><trkpt lat="43.9743401" lon="12.4623906"><ele>217.28571428571428</ele><time>2026-04-09T16:35:03.147Z</time></trkpt><trkpt lat="43.9743846" lon="12.4624726"><ele>217.85714285714283</ele><time>2026-04-09T16:35:05.171Z</time></trkpt><trkpt lat="43.9744249" lon="12.4625486"><ele>218.42857142857144</ele><time>2026-04-09T16:35:07.144Z</time></trkpt><trkpt lat="43.9744687" lon="12.4626154"><ele>219.0</ele><time>2026-04-09T16:35:09.205Z</time></trkpt><trkpt lat="43.9745189" lon="12.4626737"><ele>219.0</ele><time>2026-04-09T16:35:11.171Z</time></trkpt><trkpt lat="43.9745719" lon="12.4627345"><ele>219.0</ele><time>2026-04-09T16:35:13.201Z</time></trkpt><trkpt lat="43.9746283" lon="12.4627796"><ele>219.0</ele><time>2026-04-09T16:35:15.188Z</time></trkpt><trkpt lat="43.9746886" lon="12.4628352"><ele>219.0</ele><time>2026-04-09T16:35:17.2Z</time></trkpt><trkpt lat="43.9747588" lon="12.4628734"><ele>219.0</ele><time>2026-04-09T16:35:19.192Z</time></trkpt><trkpt lat="43.9748326" lon="12.4629158"><ele>219.0</ele><time>2026-04-09T16:35:21.18Z</time></trkpt><trkpt lat="43.9749115" lon="12.4629444"><ele>219.0</ele><time>2026-04-09T16:35:23.188Z</time></trkpt><trkpt lat="43.9749914" lon="12.4629661"><ele>219.16666666666666</ele><time>2026-04-09T16:35:25.171Z</time></trkpt><trkpt lat="43.9750712" lon="12.4629956"><ele>219.33333333333331</ele><time>2026-04-09T16:35:27.223Z</time></trkpt><trkpt lat="43.9751547" lon="12.4630698"><ele>219.5</ele><time>2026-04-09T16:35:29.208Z</time></trkpt><trkpt lat="43.9751875" lon="12.4631911"><ele>219.66666666666666</ele><time>2026-04-09T16:35:31.2Z</time></trkpt><trkpt lat="43.9751675" lon="12.4633143"><ele>219.83333333333331</ele><time>2026-04-09T16:35:33.21Z</time></trkpt><trkpt lat="43.9751137" lon="12.463399"><ele>220.0</ele><time>2026-04-09T16:35:35.173Z</time></trkpt><trkpt lat="43.9750582" lon="12.4634547"><ele>220.85714285714283</ele><time>2026-04-09T16:35:37.224Z</time></trkpt><trkpt lat="43.9750028" lon="12.4635153"><ele>221.71428571428572</ele><time>2026-04-09T16:35:39.177Z</time></trkpt><trkpt lat="43.9749465" lon="12.4635821"><ele>222.57142857142856</ele><time>2026-04-09T16:35:41.195Z</time></trkpt><trkpt lat="43.9748836" lon="12.4636423"><ele>223.42857142857142</ele><time>2026-04-09T16:35:43.209Z</time></trkpt><trkpt lat="43.974827" lon="12.4637059"><ele>224.28571428571428</ele><time>2026-04-09T16:35:45.206Z</time></trkpt><trkpt lat="43.9747714" lon="12.4637671"><ele>225.14285714285714</ele><time>2026-04-09T16:35:47.194Z</time></trkpt><trkpt lat="43.9747207" lon="12.463826"><ele>226.0</ele><time>2026-04-09T16:35:49.213Z</time></trkpt><trkpt lat="43.9746547" lon="12.4638917"><ele>225.99999999999997</ele><time>2026-04-09T16:35:51.185Z</time></trkpt><trkpt lat="43.9745928" lon="12.4639538"><ele>226.0</ele><time>2026-04-09T16:35:53.191Z</time></trkpt><trkpt lat="43.9745267" lon="12.4640178"><ele>226.0</ele><time>2026-04-09T16:35:55.181Z</time></trkpt><trkpt lat="43.9744582" lon="12.4640832"><ele>226.0</ele><time>2026-04-09T16:35:57.207Z</time></trkpt><trkpt lat="43.9743824" lon="12.464172"><ele>225.99999999999997</ele><time>2026-04-09T16:35:59.226Z</time></trkpt><trkpt lat="43.974302" lon="12.4642561"><ele>226.0</ele><time>2026-04-09T16:36:01.212Z</time></trkpt><trkpt lat="43.9742137" lon="12.4643565"><ele>225.83333333333331</ele><time>2026-04-09T16:36:03.218Z</time></trkpt><trkpt lat="43.974137" lon="12.4644924"><ele>225.66666666666666</ele><time>2026-04-09T16:36:05.224Z</time></trkpt><trkpt lat="43.9741139" lon="12.4645766"><ele>225.5</ele><time>2026-04-09T16:36:06.221Z</time></trkpt><trkpt lat="43.9741048" lon="12.4646668"><ele>225.33333333333331</ele><time>2026-04-09T16:36:07.216Z</time></trkpt><trkpt lat="43.9740988" lon="12.464769"><ele>225.16666666666666</ele><time>2026-04-09T16:36:08.215Z</time></trkpt><trkpt lat="43.974102" lon="12.46488"><ele>225.0</ele><time>2026-04-09T16:36:09.173Z</time></trkpt><trkpt lat="43.9741094" lon="12.4650009"><ele>225.0</ele><time>2026-04-09T16:36:10.207Z</time></trkpt><trkpt lat="43.9741159" lon="12.4651216"><ele>225.0</ele><time>2026-04-09T16:36:11.223Z</time></trkpt><trkpt lat="43.9741294" lon="12.4652461"><ele>225.0</ele><time>2026-04-09T16:36:12.159Z</time></trkpt><trkpt lat="43.9741398" lon="12.4653874"><ele>225.0</ele><time>2026-04-09T16:36:13.161Z</time></trkpt><trkpt lat="43.9741508" lon="12.4655321"><ele>225.0</ele><time>2026-04-09T16:36:14.216Z</time></trkpt><trkpt lat="43.9741633" lon="12.4656728"><ele>223.6</ele><time>2026-04-09T16:36:15.2Z</time></trkpt><trkpt lat="43.9741758" lon="12.4658245"><ele>222.2</ele><time>2026-04-09T16:36:16.192Z</time></trkpt><trkpt lat="43.9741908" lon="12.4659791"><ele>220.8</ele><time>2026-04-09T16:36:17.188Z</time></trkpt><trkpt lat="43.9741964" lon="12.4661316"><ele>219.4</ele><time>2026-04-09T16:36:18.206Z</time></trkpt><trkpt lat="43.9742012" lon="12.466293"><ele>218.0</ele><time>2026-04-09T16:36:19.207Z</time></trkpt><trkpt lat="43.9742127" lon="12.4664502"><ele>217.2</ele><time>2026-04-09T16:36:20.206Z</time></trkpt><trkpt lat="43.9742208" lon="12.4666042"><ele>216.4</ele><time>2026-04-09T16:36:21.196Z</time></trkpt><trkpt lat="43.9742304" lon="12.4667578"><ele>215.59999999999997</ele><time>2026-04-09T16:36:22.219Z</time></trkpt><trkpt lat="43.9742364" lon="12.4669072"><ele>214.79999999999998</ele><time>2026-04-09T16:36:23.216Z</time></trkpt><trkpt lat="43.9742423" lon="12.4670512"><ele>214.0</ele><time>2026-04-09T16:36:24.192Z</time></trkpt><trkpt lat="43.9742492" lon="12.4672044"><ele>212.0</ele><time>2026-04-09T16:36:25.189Z</time></trkpt><trkpt lat="43.9742468" lon="12.4673476"><ele>209.99999999999997</ele><time>2026-04-09T16:36:26.159Z</time></trkpt><trkpt lat="43.9742538" lon="12.4674984"><ele>208.0</ele><time>2026-04-09T16:36:27.182Z</time></trkpt><trkpt lat="43.974268" lon="12.4676419"><ele>206.0</ele><time>2026-04-09T16:36:28.203Z</time></trkpt><trkpt lat="43.9742742" lon="12.4677906"><ele>204.0</ele><time>2026-04-09T16:36:29.176Z</time></trkpt><trkpt lat="43.9742842" lon="12.4679332"><ele>203.2</ele><time>2026-04-09T16:36:30.2Z</time></trkpt><trkpt lat="43.9742965" lon="12.4680758"><ele>202.39999999999998</ele><time>2026-04-09T16:36:31.214Z</time></trkpt><trkpt lat="43.9742985" lon="12.4682197"><ele>201.6</ele><time>2026-04-09T16:36:32.189Z</time></trkpt><trkpt lat="43.9743029" lon="12.4683587"><ele>200.8</ele><time>2026-04-09T16:36:33.184Z</time></trkpt><trkpt lat="43.9743113" lon="12.4685027"><ele>200.0</ele><time>2026-04-09T16:36:34.161Z</time></trkpt><trkpt lat="43.9743209" lon="12.4686441"><ele>199.0</ele><time>2026-04-09T16:36:35.156Z</time></trkpt><trkpt lat="43.9743271" lon="12.4687824"><ele>198.0</ele><time>2026-04-09T16:36:36.172Z</time></trkpt><trkpt lat="43.9743359" lon="12.4689214"><ele>197.0</ele><time>2026-04-09T16:36:37.155Z</time></trkpt><trkpt lat="43.9743456" lon="12.4690605"><ele>196.0</ele><time>2026-04-09T16:36:38.187Z</time></trkpt><trkpt lat="43.9743536" lon="12.4691981"><ele>195.0</ele><time>2026-04-09T16:36:39.194Z</time></trkpt><trkpt lat="43.9743609" lon="12.469343"><ele>195.0</ele><time>2026-04-09T16:36:40.173Z</time></trkpt><trkpt lat="43.9743685" lon="12.4694842"><ele>195.0</ele><time>2026-04-09T16:36:41.217Z</time></trkpt><trkpt lat="43.9743773" lon="12.469625"><ele>195.0</ele><time>2026-04-09T16:36:42.165Z</time></trkpt><trkpt lat="43.9743835" lon="12.469764"><ele>195.0</ele><time>2026-04-09T16:36:43.192Z</time></trkpt><trkpt lat="43.97439" lon="12.4699041"><ele>195.0</ele><time>2026-04-09T16:36:44.217Z</time></trkpt><trkpt lat="43.9743939" lon="12.470041"><ele>194.4</ele><time>2026-04-09T16:36:45.157Z</time></trkpt><trkpt lat="43.9743975" lon="12.4701824"><ele>193.8</ele><time>2026-04-09T16:36:46.18Z</time></trkpt><trkpt lat="43.9744034" lon="12.4703122"><ele>193.2</ele><time>2026-04-09T16:36:47.183Z</time></trkpt><trkpt lat="43.974414" lon="12.4704546"><ele>192.6</ele><time>2026-04-09T16:36:48.223Z</time></trkpt><trkpt lat="43.974422" lon="12.4705952"><ele>192.0</ele><time>2026-04-09T16:36:49.201Z</time></trkpt><trkpt lat="43.9744336" lon="12.4707272"><ele>192.0</ele><time>2026-04-09T16:36:50.181Z</time></trkpt><trkpt lat="43.9744419" lon="12.4708639"><ele>192.0</ele><time>2026-04-09T16:36:51.159Z</time></trkpt><trkpt lat="43.974448" lon="12.4710027"><ele>192.0</ele><time>2026-04-09T16:36:52.207Z</time></trkpt><trkpt lat="43.9744555" lon="12.4711415"><ele>192.0</ele><time>2026-04-09T16:36:53.198Z</time></trkpt><trkpt lat="43.9744627" lon="12.4712759"><ele>192.0</ele><time>2026-04-09T16:36:54.212Z</time></trkpt><trkpt lat="43.9744701" lon="12.4714112"><ele>191.8</ele><time>2026-04-09T16:36:55.172Z</time></trkpt><trkpt lat="43.9744825" lon="12.4715413"><ele>191.6</ele><time>2026-04-09T16:36:56.192Z</time></trkpt><trkpt lat="43.9745068" lon="12.4716771"><ele>191.4</ele><time>2026-04-09T16:36:57.211Z</time></trkpt><trkpt lat="43.974535" lon="12.4718001"><ele>191.20000000000002</ele><time>2026-04-09T16:36:58.216Z</time></trkpt><trkpt lat="43.9745691" lon="12.4719269"><ele>191.0</ele><time>2026-04-09T16:36:59.206Z</time></trkpt><trkpt lat="43.9746073" lon="12.4720376"><ele>190.0</ele><time>2026-04-09T16:37:00.218Z</time></trkpt><trkpt lat="43.9746605" lon="12.4721434"><ele>189.0</ele><time>2026-04-09T16:37:01.217Z</time></trkpt><trkpt lat="43.9747114" lon="12.4722438"><ele>188.0</ele><time>2026-04-09T16:37:02.163Z</time></trkpt><trkpt lat="43.9747714" lon="12.4723508"><ele>187.0</ele><time>2026-04-09T16:37:03.178Z</time></trkpt><trkpt lat="43.974836" lon="12.4724427"><ele>186.0</ele><time>2026-04-09T16:37:04.147Z</time></trkpt><trkpt lat="43.9749111" lon="12.4725308"><ele>186.0</ele><time>2026-04-09T16:37:05.186Z</time></trkpt><trkpt lat="43.9749797" lon="12.4726152"><ele>186.0</ele><time>2026-04-09T16:37:06.184Z</time></trkpt><trkpt lat="43.9750532" lon="12.4726999"><ele>186.0</ele><time>2026-04-09T16:37:07.157Z</time></trkpt><trkpt lat="43.9751297" lon="12.4727834"><ele>186.0</ele><time>2026-04-09T16:37:08.163Z</time></trkpt><trkpt lat="43.975207" lon="12.4728688"><ele>186.0</ele><time>2026-04-09T16:37:09.211Z</time></trkpt><trkpt lat="43.9752853" lon="12.4729517"><ele>185.4</ele><time>2026-04-09T16:37:10.166Z</time></trkpt><trkpt lat="43.9753623" lon="12.4730382"><ele>184.8</ele><time>2026-04-09T16:37:11.183Z</time></trkpt><trkpt lat="43.9754428" lon="12.4731215"><ele>184.20000000000002</ele><time>2026-04-09T16:37:12.223Z</time></trkpt><trkpt lat="43.9755258" lon="12.4732083"><ele>183.60000000000002</ele><time>2026-04-09T16:37:13.198Z</time></trkpt><trkpt lat="43.9756044" lon="12.4732929"><ele>183.0</ele><time>2026-04-09T16:37:14.174Z</time></trkpt><trkpt lat="43.9756793" lon="12.4733772"><ele>183.0</ele><time>2026-04-09T16:37:15.202Z</time></trkpt><trkpt lat="43.9757604" lon="12.4734673"><ele>183.0</ele><time>2026-04-09T16:37:16.198Z</time></trkpt><trkpt lat="43.9758412" lon="12.4735588"><ele>183.0</ele><time>2026-04-09T16:37:17.211Z</time></trkpt><trkpt lat="43.9759259" lon="12.4736486"><ele>183.0</ele><time>2026-04-09T16:37:18.179Z</time></trkpt><trkpt lat="43.9760093" lon="12.4737489"><ele>183.0</ele><time>2026-04-09T16:37:19.235Z</time></trkpt><trkpt lat="43.9760956" lon="12.4738572"><ele>179.25</ele><time>2026-04-09T16:37:20.224Z</time></trkpt><trkpt lat="43.976181" lon="12.4739687"><ele>175.5</ele><time>2026-04-09T16:37:21.226Z</time></trkpt><trkpt lat="43.9762625" lon="12.4740821"><ele>171.75</ele><time>2026-04-09T16:37:22.224Z</time></trkpt><trkpt lat="43.9763475" lon="12.4742019"><ele>168.0</ele><time>2026-04-09T16:37:23.225Z</time></trkpt><trkpt lat="43.9764361" lon="12.4743279"><ele>168.0</ele><time>2026-04-09T16:37:24.234Z</time></trkpt><trkpt lat="43.9765307" lon="12.4744452"><ele>168.0</ele><time>2026-04-09T16:37:25.228Z</time></trkpt><trkpt lat="43.97662" lon="12.4745727"><ele>168.0</ele><time>2026-04-09T16:37:26.222Z</time></trkpt><trkpt lat="43.9767112" lon="12.4746976"><ele>168.0</ele><time>2026-04-09T16:37:27.211Z</time></trkpt><trkpt lat="43.9768028" lon="12.4748215"><ele>165.0</ele><time>2026-04-09T16:37:28.2Z</time></trkpt><trkpt lat="43.9768942" lon="12.4749457"><ele>162.0</ele><time>2026-04-09T16:37:29.219Z</time></trkpt><trkpt lat="43.9769886" lon="12.4750763"><ele>159.0</ele><time>2026-04-09T16:37:30.222Z</time></trkpt><trkpt lat="43.9770852" lon="12.4752035"><ele>156.0</ele><time>2026-04-09T16:37:31.181Z</time></trkpt><trkpt lat="43.9771789" lon="12.4753243"><ele>155.25</ele><time>2026-04-09T16:37:32.216Z</time></trkpt><trkpt lat="43.9772757" lon="12.4754514"><ele>154.5</ele><time>2026-04-09T16:37:33.211Z</time></trkpt><trkpt lat="43.977368" lon="12.4755767"><ele>153.75</ele><time>2026-04-09T16:37:34.198Z</time></trkpt><trkpt lat="43.9774468" lon="12.4757181"><ele>153.0</ele><time>2026-04-09T16:37:35.194Z</time></trkpt><trkpt lat="43.977505" lon="12.4758711"><ele>150.5</ele><time>2026-04-09T16:37:36.211Z</time></trkpt><trkpt lat="43.977542" lon="12.4760493"><ele>148.0</ele><time>2026-04-09T16:37:37.225Z</time></trkpt><trkpt lat="43.9775694" lon="12.4762218"><ele>145.5</ele><time>2026-04-09T16:37:38.216Z</time></trkpt><trkpt lat="43.977592" lon="12.4763905"><ele>143.0</ele><time>2026-04-09T16:37:39.219Z</time></trkpt><trkpt lat="43.9776232" lon="12.4765543"><ele>142.6</ele><time>2026-04-09T16:37:40.22Z</time></trkpt><trkpt lat="43.977653" lon="12.476717"><ele>142.20000000000002</ele><time>2026-04-09T16:37:41.195Z</time></trkpt><trkpt lat="43.9776824" lon="12.4768705"><ele>141.8</ele><time>2026-04-09T16:37:42.216Z</time></trkpt><trkpt lat="43.977709" lon="12.477022"><ele>141.4</ele><time>2026-04-09T16:37:43.227Z</time></trkpt><trkpt lat="43.9777291" lon="12.4771462"><ele>141.0</ele><time>2026-04-09T16:37:44.221Z</time></trkpt><trkpt lat="43.9777339" lon="12.4772594"><ele>140.66666666666666</ele><time>2026-04-09T16:37:45.211Z</time></trkpt><trkpt lat="43.977724" lon="12.4773612"><ele>140.33333333333334</ele><time>2026-04-09T16:37:46.202Z</time></trkpt><trkpt lat="43.9777059" lon="12.4774663"><ele>140.0</ele><time>2026-04-09T16:37:47.182Z</time></trkpt><trkpt lat="43.9776909" lon="12.4775734"><ele>139.66666666666669</ele><time>2026-04-09T16:37:48.21Z</time></trkpt><trkpt lat="43.9776793" lon="12.4776767"><ele>139.33333333333334</ele><time>2026-04-09T16:37:49.205Z</time></trkpt><trkpt lat="43.9776868" lon="12.4777782"><ele>139.0</ele><time>2026-04-09T16:37:50.198Z</time></trkpt><trkpt lat="43.9777674" lon="12.4778834"><ele>139.0</ele><time>2026-04-09T16:37:52.212Z</time></trkpt><trkpt lat="43.977856" lon="12.4778169"><ele>139.0</ele><time>2026-04-09T16:37:54.151Z</time></trkpt><trkpt lat="43.9778907" lon="12.4776988"><ele>139.0</ele><time>2026-04-09T16:37:56.188Z</time></trkpt><trkpt lat="43.9778687" lon="12.4775787"><ele>139.0</ele><time>2026-04-09T16:37:58.214Z</time></trkpt><trkpt lat="43.9778244" lon="12.4775024"><ele>139.0</ele><time>2026-04-09T16:38:00.184Z</time></trkpt><trkpt lat="43.9777929" lon="12.4774223"><ele>139.0</ele><time>2026-04-09T16:38:02.218Z</time></trkpt><trkpt lat="43.9777982" lon="12.4773296"><ele>139.0</ele><time>2026-04-09T16:38:04.205Z</time></trkpt><trkpt lat="43.9777975" lon="12.4772351"><ele>139.0</ele><time>2026-04-09T16:38:06.215Z</time></trkpt><trkpt lat="43.9777936" lon="12.4771369"><ele>139.0</ele><time>2026-04-09T16:38:08.22Z</time></trkpt><trkpt lat="43.9777843" lon="12.4770493"><ele>139.0</ele><time>2026-04-09T16:38:10.185Z</time></trkpt><trkpt lat="43.9777782" lon="12.4769234"><ele>139.0</ele><time>2026-04-09T16:38:13.181Z</time></trkpt><trkpt lat="43.9778187" lon="12.4768263"><ele>139.0</ele><time>2026-04-09T16:38:16.209Z</time></trkpt><trkpt lat="43.9778749" lon="12.476772"><ele>139.0</ele><time>2026-04-09T16:40:54.217Z</time></trkpt><trkpt lat="43.9778082" lon="12.4768028"><ele>139.0</ele><time>2026-04-09T16:41:03.206Z</time></trkpt><trkpt lat="43.9777427" lon="12.4769572"><ele>139.0</ele><time>2026-04-09T16:41:06.202Z</time></trkpt><trkpt lat="43.9777142" lon="12.4771263"><ele>139.0</ele><time>2026-04-09T16:41:08.202Z</time></trkpt><trkpt lat="43.97771" lon="12.4772245"><ele>139.0</ele><time>2026-04-09T16:41:09.208Z</time></trkpt><trkpt lat="43.9777025" lon="12.4773366"><ele>139.0</ele><time>2026-04-09T16:41:10.221Z</time></trkpt><trkpt lat="43.977689" lon="12.4774418"><ele>139.0</ele><time>2026-04-09T16:41:11.209Z</time></trkpt><trkpt lat="43.9776725" lon="12.477543"><ele>139.0</ele><time>2026-04-09T16:41:12.211Z</time></trkpt><trkpt lat="43.9776569" lon="12.4776436"><ele>139.0</ele><time>2026-04-09T16:41:13.196Z</time></trkpt><trkpt lat="43.9776565" lon="12.4777458"><ele>139.0</ele><time>2026-04-09T16:41:14.233Z</time></trkpt><trkpt lat="43.9776832" lon="12.4778442"><ele>139.0</ele><time>2026-04-09T16:41:15.21Z</time></trkpt><trkpt lat="43.9777375" lon="12.4779323"><ele>139.0</ele><time>2026-04-09T16:41:16.219Z</time></trkpt><trkpt lat="43.9778161" lon="12.4780145"><ele>139.0</ele><time>2026-04-09T16:41:17.228Z</time></trkpt><trkpt lat="43.9778664" lon="12.4780966"><ele>139.0</ele><time>2026-04-09T16:41:18.219Z</time></trkpt><trkpt lat="43.9779006" lon="12.4782057"><ele>139.0</ele><time>2026-04-09T16:41:19.186Z</time></trkpt><trkpt lat="43.9779242" lon="12.4783319"><ele>139.0</ele><time>2026-04-09T16:41:20.214Z</time></trkpt><trkpt lat="43.9779419" lon="12.4784548"><ele>139.0</ele><time>2026-04-09T16:41:21.212Z</time></trkpt><trkpt lat="43.9779539" lon="12.4785801"><ele>139.0</ele><time>2026-04-09T16:41:22.208Z</time></trkpt><trkpt lat="43.9779699" lon="12.4787107"><ele>137.8</ele><time>2026-04-09T16:41:23.214Z</time></trkpt><trkpt lat="43.977985" lon="12.4788463"><ele>136.60000000000002</ele><time>2026-04-09T16:41:24.22Z</time></trkpt><trkpt lat="43.9780039" lon="12.4789863"><ele>135.4</ele><time>2026-04-09T16:41:25.212Z</time></trkpt><trkpt lat="43.9780226" lon="12.4791307"><ele>134.20000000000002</ele><time>2026-04-09T16:41:26.22Z</time></trkpt><trkpt lat="43.9780409" lon="12.4792694"><ele>133.0</ele><time>2026-04-09T16:41:27.191Z</time></trkpt><trkpt lat="43.9780598" lon="12.4794158"><ele>133.0</ele><time>2026-04-09T16:41:28.223Z</time></trkpt><trkpt lat="43.9780766" lon="12.4795576"><ele>133.0</ele><time>2026-04-09T16:41:29.22Z</time></trkpt><trkpt lat="43.978097" lon="12.4797"><ele>133.0</ele><time>2026-04-09T16:41:30.219Z</time></trkpt><trkpt lat="43.978116" lon="12.4798383"><ele>133.0</ele><time>2026-04-09T16:41:31.232Z</time></trkpt><trkpt lat="43.9781377" lon="12.4799689"><ele>133.0</ele><time>2026-04-09T16:41:32.202Z</time></trkpt><trkpt lat="43.9781612" lon="12.4800904"><ele>132.0</ele><time>2026-04-09T16:41:33.153Z</time></trkpt><trkpt lat="43.9781808" lon="12.4802026"><ele>131.0</ele><time>2026-04-09T16:41:34.211Z</time></trkpt><trkpt lat="43.9781916" lon="12.4802952"><ele>130.0</ele><time>2026-04-09T16:41:35.205Z</time></trkpt><trkpt lat="43.9781279" lon="12.4804061"><ele>129.0</ele><time>2026-04-09T16:41:37.214Z</time></trkpt><trkpt lat="43.9780318" lon="12.4804717"><ele>128.0</ele><time>2026-04-09T16:41:39.209Z</time></trkpt><trkpt lat="43.9779356" lon="12.4805399"><ele>127.99999999999999</ele><time>2026-04-09T16:41:41.205Z</time></trkpt><trkpt lat="43.9778331" lon="12.4806326"><ele>128.0</ele><time>2026-04-09T16:41:43.207Z</time></trkpt><trkpt lat="43.9777714" lon="12.4806775"><ele>128.0</ele><time>2026-04-09T16:41:44.15Z</time></trkpt><trkpt lat="43.9777164" lon="12.4807257"><ele>128.0</ele><time>2026-04-09T16:41:45.182Z</time></trkpt><trkpt lat="43.9776543" lon="12.4807726"><ele>127.99999999999999</ele><time>2026-04-09T16:41:46.169Z</time></trkpt><trkpt lat="43.9775875" lon="12.4808178"><ele>128.0</ele><time>2026-04-09T16:41:47.23Z</time></trkpt><trkpt lat="43.9775239" lon="12.4808737"><ele>127.60000000000001</ele><time>2026-04-09T16:41:48.154Z</time></trkpt><trkpt lat="43.9774532" lon="12.4809395"><ele>127.20000000000002</ele><time>2026-04-09T16:41:49.199Z</time></trkpt><trkpt lat="43.9773782" lon="12.4810142"><ele>126.8</ele><time>2026-04-09T16:41:50.208Z</time></trkpt><trkpt lat="43.9772984" lon="12.4810866"><ele>126.4</ele><time>2026-04-09T16:41:51.182Z</time></trkpt><trkpt lat="43.9772143" lon="12.4811425"><ele>126.0</ele><time>2026-04-09T16:41:52.188Z</time></trkpt><trkpt lat="43.9771209" lon="12.4811885"><ele>126.0</ele><time>2026-04-09T16:41:53.158Z</time></trkpt><trkpt lat="43.9770092" lon="12.4811759"><ele>126.0</ele><time>2026-04-09T16:41:54.183Z</time></trkpt><trkpt lat="43.9768932" lon="12.4811253"><ele>126.0</ele><time>2026-04-09T16:41:55.159Z</time></trkpt><trkpt lat="43.9767766" lon="12.4810914"><ele>126.0</ele><time>2026-04-09T16:41:56.217Z</time></trkpt><trkpt lat="43.9766686" lon="12.4810842"><ele>125.0</ele><time>2026-04-09T16:41:57.217Z</time></trkpt><trkpt lat="43.9765608" lon="12.4810883"><ele>124.0</ele><time>2026-04-09T16:41:58.188Z</time></trkpt><trkpt lat="43.9764535" lon="12.4811012"><ele>123.0</ele><time>2026-04-09T16:41:59.211Z</time></trkpt><trkpt lat="43.9763694" lon="12.4811147"><ele>122.0</ele><time>2026-04-09T16:42:00.194Z</time></trkpt><trkpt lat="43.9763052" lon="12.4811385"><ele>121.0</ele><time>2026-04-09T16:42:01.204Z</time></trkpt><trkpt lat="43.9762351" lon="12.481122"><ele>120.0</ele><time>2026-04-09T16:42:03.201Z</time></trkpt><trkpt lat="43.9762737" lon="12.4810351"><ele>120.0</ele><time>2026-04-09T16:42:08.155Z</time></trkpt><trkpt lat="43.976339" lon="12.4810204"><ele>120.0</ele><time>2026-04-09T16:42:12.154Z</time></trkpt><trkpt lat="43.9764055" lon="12.4810246"><ele>120.0</ele><time>2026-04-09T16:42:46.206Z</time></trkpt><trkpt lat="43.9763193" lon="12.4810377"><ele>120.0</ele><time>2026-04-09T16:42:54.212Z</time></trkpt><trkpt lat="43.9762624" lon="12.4810888"><ele>120.0</ele><time>2026-04-09T16:42:57.207Z</time></trkpt><trkpt lat="43.9762473" lon="12.4812017"><ele>120.0</ele><time>2026-04-09T16:43:02.238Z</time></trkpt><trkpt lat="43.9762728" lon="12.4813138"><ele>119.42857142857143</ele><time>2026-04-09T16:43:05.203Z</time></trkpt><trkpt lat="43.9763184" lon="12.4814005"><ele>118.85714285714286</ele><time>2026-04-09T16:43:07.181Z</time></trkpt><trkpt lat="43.97637" lon="12.4814878"><ele>118.28571428571429</ele><time>2026-04-09T16:43:09.205Z</time></trkpt><trkpt lat="43.9764225" lon="12.4815613"><ele>117.71428571428572</ele><time>2026-04-09T16:43:11.204Z</time></trkpt><trkpt lat="43.9764497" lon="12.4816425"><ele>117.14285714285714</ele><time>2026-04-09T16:43:59.193Z</time></trkpt><trkpt lat="43.9764609" lon="12.4817304"><ele>116.57142857142858</ele><time>2026-04-09T16:44:15.198Z</time></trkpt><trkpt lat="43.9764074" lon="12.4817887"><ele>116.00000000000001</ele><time>2026-04-09T16:45:02.172Z</time></trkpt><trkpt lat="43.9763478" lon="12.4818353"><ele>115.99999999999999</ele><time>2026-04-09T16:45:10.163Z</time></trkpt><trkpt lat="43.9762774" lon="12.4817993"><ele>116.0</ele><time>2026-04-09T16:45:21.181Z</time></trkpt><trkpt lat="43.9763626" lon="12.4818132"><ele>116.0</ele><time>2026-04-09T16:46:01.152Z</time></trkpt><trkpt lat="43.9764357" lon="12.4817599"><ele>116.0</ele><time>2026-04-09T16:46:27.198Z</time></trkpt><trkpt lat="43.9763797" lon="12.481808"><ele>115.99999999999999</ele><time>2026-04-09T16:48:32.058Z</time></trkpt><trkpt lat="43.9763254" lon="12.4818767"><ele>116.0</ele><time>2026-04-09T16:48:38.141Z</time></trkpt><trkpt lat="43.9763504" lon="12.4819641"><ele>116.0</ele><time>2026-04-09T16:48:40.121Z</time></trkpt><trkpt lat="43.9763118" lon="12.4820765"><ele>116.0</ele><time>2026-04-09T16:48:42.134Z</time></trkpt><trkpt lat="43.9762815" lon="12.4822126"><ele>116.0</ele><time>2026-04-09T16:48:44.121Z</time></trkpt><trkpt lat="43.9762702" lon="12.4823772"><ele>116.0</ele><time>2026-04-09T16:48:46.128Z</time></trkpt><trkpt lat="43.9762702" lon="12.482477"><ele>116.0</ele><time>2026-04-09T16:48:47.14Z</time></trkpt><trkpt lat="43.9762789" lon="12.4825887"><ele>115.8</ele><time>2026-04-09T16:48:48.172Z</time></trkpt><trkpt lat="43.9762966" lon="12.4827033"><ele>115.6</ele><time>2026-04-09T16:48:49.181Z</time></trkpt><trkpt lat="43.9763186" lon="12.4828315"><ele>115.4</ele><time>2026-04-09T16:48:50.176Z</time></trkpt><trkpt lat="43.9763447" lon="12.4829294"><ele>115.2</ele><time>2026-04-09T16:48:51.164Z</time></trkpt><trkpt lat="43.9763681" lon="12.4830122"><ele>115.0</ele><time>2026-04-09T16:48:53.159Z</time></trkpt><trkpt lat="43.976558" lon="12.4831093"><ele>115.0</ele><time>2026-04-09T16:49:10.154Z</time></trkpt><trkpt lat="43.9764677" lon="12.4822121"><ele>115.25</ele><time>2026-04-09T16:49:59.199Z</time></trkpt><trkpt lat="43.9764331" lon="12.4819522"><ele>115.5</ele><time>2026-04-09T16:50:05.586Z</time></trkpt><trkpt lat="43.9764105" lon="12.4818024"><ele>115.75</ele><time>2026-04-09T16:50:06.829Z</time></trkpt><trkpt lat="43.9764516" lon="12.481701"><ele>116.0</ele><time>2026-04-09T16:50:27.587Z</time></trkpt><trkpt lat="43.9764882" lon="12.481623"><ele>116.0</ele><time>2026-04-09T16:51:24.548Z</time></trkpt><trkpt lat="43.976445" lon="12.4815517"><ele>116.0</ele><time>2026-04-09T16:51:36.688Z</time></trkpt></trkseg></trk></gpx>